<?xml version="1.0" encoding="UTF-8" standalone="no" ?>
<gpx xmlns="http://www.topografix.com/GPX/1/1" xmlns:xsi="http://www.w3.org/2001/XMLSchema-instance" xsi:schemaLocation="http://www.topografix.com/GPX/1/1 http://www.topografix.com/GPX/1/1/gpx.xsd" version="1.1" creator="VisuGPX - https://www.visugpx.com">
  <metadata>
    <name>SO-NE-St Léger St Pazanne St Meme La Chevrolière Pont St Martin</name>
    <desc><![CDATA[SO-NE-St Léger St Pazanne St Meme La Chevrolière Pont St Martin]]></desc>
  </metadata>
  <trk>
    <name><![CDATA[2020-12-25 08:57 +01:00]]></name>
    <trkseg>
      <trkpt lat="47.16795" lon="-1.6264">
        <ele>80</ele>
        <time>2020-12-25T07:57:16.000Z</time>
      </trkpt>
      <trkpt lat="47.16782" lon="-1.62653">
        <ele>75</ele>
        <time>2020-12-25T07:57:17.000Z</time>
      </trkpt>
      <trkpt lat="47.16782" lon="-1.62667">
        <ele>78</ele>
        <time>2020-12-25T07:59:06.000Z</time>
      </trkpt>
      <trkpt lat="47.16775" lon="-1.62677">
        <ele>75</ele>
        <time>2020-12-25T07:59:08.000Z</time>
      </trkpt>
      <trkpt lat="47.16761" lon="-1.62676">
        <ele>74</ele>
        <time>2020-12-25T07:59:11.000Z</time>
      </trkpt>
      <trkpt lat="47.16751" lon="-1.62674">
        <ele>73</ele>
        <time>2020-12-25T07:59:13.000Z</time>
      </trkpt>
      <trkpt lat="47.16741" lon="-1.62679">
        <ele>72</ele>
        <time>2020-12-25T07:59:15.000Z</time>
      </trkpt>
      <trkpt lat="47.16731" lon="-1.62685">
        <ele>71</ele>
        <time>2020-12-25T07:59:17.000Z</time>
      </trkpt>
      <trkpt lat="47.16722" lon="-1.62692">
        <ele>70</ele>
        <time>2020-12-25T07:59:19.000Z</time>
      </trkpt>
      <trkpt lat="47.16724" lon="-1.62712">
        <ele>68</ele>
        <time>2020-12-25T07:59:22.000Z</time>
      </trkpt>
      <trkpt lat="47.16731" lon="-1.62725">
        <ele>68</ele>
        <time>2020-12-25T07:59:24.000Z</time>
      </trkpt>
      <trkpt lat="47.16738" lon="-1.62739">
        <ele>67</ele>
        <time>2020-12-25T07:59:26.000Z</time>
      </trkpt>
      <trkpt lat="47.16746" lon="-1.6275">
        <ele>67</ele>
        <time>2020-12-25T07:59:28.000Z</time>
      </trkpt>
      <trkpt lat="47.16754" lon="-1.62761">
        <ele>66</ele>
        <time>2020-12-25T07:59:30.000Z</time>
      </trkpt>
      <trkpt lat="47.16764" lon="-1.62771">
        <ele>66</ele>
        <time>2020-12-25T07:59:32.000Z</time>
      </trkpt>
      <trkpt lat="47.16775" lon="-1.6278">
        <ele>66</ele>
        <time>2020-12-25T07:59:34.000Z</time>
      </trkpt>
      <trkpt lat="47.16785" lon="-1.62789">
        <ele>66</ele>
        <time>2020-12-25T07:59:36.000Z</time>
      </trkpt>
      <trkpt lat="47.16796" lon="-1.62799">
        <ele>66</ele>
        <time>2020-12-25T07:59:38.000Z</time>
      </trkpt>
      <trkpt lat="47.16806" lon="-1.62808">
        <ele>66</ele>
        <time>2020-12-25T07:59:40.000Z</time>
      </trkpt>
      <trkpt lat="47.16816" lon="-1.62817">
        <ele>66</ele>
        <time>2020-12-25T07:59:42.000Z</time>
      </trkpt>
      <trkpt lat="47.16825" lon="-1.62826">
        <ele>66</ele>
        <time>2020-12-25T07:59:44.000Z</time>
      </trkpt>
      <trkpt lat="47.16835" lon="-1.62836">
        <ele>66</ele>
        <time>2020-12-25T07:59:46.000Z</time>
      </trkpt>
      <trkpt lat="47.16845" lon="-1.62845">
        <ele>67</ele>
        <time>2020-12-25T07:59:48.000Z</time>
      </trkpt>
      <trkpt lat="47.16854" lon="-1.62854">
        <ele>67</ele>
        <time>2020-12-25T07:59:50.000Z</time>
      </trkpt>
      <trkpt lat="47.16863" lon="-1.62864">
        <ele>68</ele>
        <time>2020-12-25T07:59:52.000Z</time>
      </trkpt>
      <trkpt lat="47.16871" lon="-1.62873">
        <ele>69</ele>
        <time>2020-12-25T07:59:54.000Z</time>
      </trkpt>
      <trkpt lat="47.16879" lon="-1.62885">
        <ele>69</ele>
        <time>2020-12-25T07:59:56.000Z</time>
      </trkpt>
      <trkpt lat="47.16885" lon="-1.62899">
        <ele>70</ele>
        <time>2020-12-25T07:59:58.000Z</time>
      </trkpt>
      <trkpt lat="47.16889" lon="-1.62914">
        <ele>70</ele>
        <time>2020-12-25T08:00:00.000Z</time>
      </trkpt>
      <trkpt lat="47.16892" lon="-1.6293">
        <ele>71</ele>
        <time>2020-12-25T08:00:02.000Z</time>
      </trkpt>
      <trkpt lat="47.16893" lon="-1.62947">
        <ele>71</ele>
        <time>2020-12-25T08:00:04.000Z</time>
      </trkpt>
      <trkpt lat="47.16894" lon="-1.62964">
        <ele>72</ele>
        <time>2020-12-25T08:00:06.000Z</time>
      </trkpt>
      <trkpt lat="47.16894" lon="-1.62981">
        <ele>73</ele>
        <time>2020-12-25T08:00:08.000Z</time>
      </trkpt>
      <trkpt lat="47.16892" lon="-1.62998">
        <ele>73</ele>
        <time>2020-12-25T08:00:10.000Z</time>
      </trkpt>
      <trkpt lat="47.16891" lon="-1.63015">
        <ele>73</ele>
        <time>2020-12-25T08:00:12.000Z</time>
      </trkpt>
      <trkpt lat="47.16891" lon="-1.63032">
        <ele>74</ele>
        <time>2020-12-25T08:00:14.000Z</time>
      </trkpt>
      <trkpt lat="47.1689" lon="-1.63049">
        <ele>74</ele>
        <time>2020-12-25T08:00:16.000Z</time>
      </trkpt>
      <trkpt lat="47.16891" lon="-1.63066">
        <ele>74</ele>
        <time>2020-12-25T08:00:18.000Z</time>
      </trkpt>
      <trkpt lat="47.16893" lon="-1.63082">
        <ele>74</ele>
        <time>2020-12-25T08:00:20.000Z</time>
      </trkpt>
      <trkpt lat="47.16895" lon="-1.63098">
        <ele>74</ele>
        <time>2020-12-25T08:00:22.000Z</time>
      </trkpt>
      <trkpt lat="47.16899" lon="-1.63113">
        <ele>74</ele>
        <time>2020-12-25T08:00:24.000Z</time>
      </trkpt>
      <trkpt lat="47.16903" lon="-1.63128">
        <ele>75</ele>
        <time>2020-12-25T08:00:26.000Z</time>
      </trkpt>
      <trkpt lat="47.16907" lon="-1.63143">
        <ele>75</ele>
        <time>2020-12-25T08:00:28.000Z</time>
      </trkpt>
      <trkpt lat="47.16912" lon="-1.63157">
        <ele>75</ele>
        <time>2020-12-25T08:00:30.000Z</time>
      </trkpt>
      <trkpt lat="47.16918" lon="-1.6317">
        <ele>75</ele>
        <time>2020-12-25T08:00:32.000Z</time>
      </trkpt>
      <trkpt lat="47.16924" lon="-1.63184">
        <ele>74</ele>
        <time>2020-12-25T08:00:34.000Z</time>
      </trkpt>
      <trkpt lat="47.16931" lon="-1.63196">
        <ele>74</ele>
        <time>2020-12-25T08:00:36.000Z</time>
      </trkpt>
      <trkpt lat="47.16938" lon="-1.63207">
        <ele>74</ele>
        <time>2020-12-25T08:00:38.000Z</time>
      </trkpt>
      <trkpt lat="47.16945" lon="-1.63218">
        <ele>74</ele>
        <time>2020-12-25T08:00:40.000Z</time>
      </trkpt>
      <trkpt lat="47.16952" lon="-1.63228">
        <ele>74</ele>
        <time>2020-12-25T08:00:42.000Z</time>
      </trkpt>
      <trkpt lat="47.1696" lon="-1.63237">
        <ele>74</ele>
        <time>2020-12-25T08:00:44.000Z</time>
      </trkpt>
      <trkpt lat="47.16969" lon="-1.63248">
        <ele>74</ele>
        <time>2020-12-25T08:00:47.000Z</time>
      </trkpt>
      <trkpt lat="47.16966" lon="-1.63262">
        <ele>76</ele>
        <time>2020-12-25T08:00:49.000Z</time>
      </trkpt>
      <trkpt lat="47.16959" lon="-1.63275">
        <ele>76</ele>
        <time>2020-12-25T08:00:51.000Z</time>
      </trkpt>
      <trkpt lat="47.16951" lon="-1.63288">
        <ele>76</ele>
        <time>2020-12-25T08:00:53.000Z</time>
      </trkpt>
      <trkpt lat="47.16943" lon="-1.63302">
        <ele>77</ele>
        <time>2020-12-25T08:00:55.000Z</time>
      </trkpt>
      <trkpt lat="47.16935" lon="-1.63315">
        <ele>77</ele>
        <time>2020-12-25T08:00:57.000Z</time>
      </trkpt>
      <trkpt lat="47.16926" lon="-1.63327">
        <ele>77</ele>
        <time>2020-12-25T08:00:59.000Z</time>
      </trkpt>
      <trkpt lat="47.16918" lon="-1.63339">
        <ele>78</ele>
        <time>2020-12-25T08:01:01.000Z</time>
      </trkpt>
      <trkpt lat="47.16909" lon="-1.63351">
        <ele>77</ele>
        <time>2020-12-25T08:01:03.000Z</time>
      </trkpt>
      <trkpt lat="47.16901" lon="-1.63365">
        <ele>77</ele>
        <time>2020-12-25T08:01:05.000Z</time>
      </trkpt>
      <trkpt lat="47.16892" lon="-1.63378">
        <ele>77</ele>
        <time>2020-12-25T08:01:07.000Z</time>
      </trkpt>
      <trkpt lat="47.16884" lon="-1.63391">
        <ele>77</ele>
        <time>2020-12-25T08:01:09.000Z</time>
      </trkpt>
      <trkpt lat="47.16876" lon="-1.63404">
        <ele>78</ele>
        <time>2020-12-25T08:01:11.000Z</time>
      </trkpt>
      <trkpt lat="47.16868" lon="-1.63418">
        <ele>78</ele>
        <time>2020-12-25T08:01:13.000Z</time>
      </trkpt>
      <trkpt lat="47.1686" lon="-1.63431">
        <ele>78</ele>
        <time>2020-12-25T08:01:15.000Z</time>
      </trkpt>
      <trkpt lat="47.16852" lon="-1.63444">
        <ele>78</ele>
        <time>2020-12-25T08:01:17.000Z</time>
      </trkpt>
      <trkpt lat="47.16845" lon="-1.63457">
        <ele>79</ele>
        <time>2020-12-25T08:01:19.000Z</time>
      </trkpt>
      <trkpt lat="47.16838" lon="-1.6347">
        <ele>79</ele>
        <time>2020-12-25T08:01:21.000Z</time>
      </trkpt>
      <trkpt lat="47.1683" lon="-1.63483">
        <ele>79</ele>
        <time>2020-12-25T08:01:23.000Z</time>
      </trkpt>
      <trkpt lat="47.16822" lon="-1.63496">
        <ele>79</ele>
        <time>2020-12-25T08:01:25.000Z</time>
      </trkpt>
      <trkpt lat="47.16814" lon="-1.63511">
        <ele>79</ele>
        <time>2020-12-25T08:01:27.000Z</time>
      </trkpt>
      <trkpt lat="47.16806" lon="-1.63525">
        <ele>79</ele>
        <time>2020-12-25T08:01:29.000Z</time>
      </trkpt>
      <trkpt lat="47.16798" lon="-1.63539">
        <ele>79</ele>
        <time>2020-12-25T08:01:31.000Z</time>
      </trkpt>
      <trkpt lat="47.16789" lon="-1.63553">
        <ele>79</ele>
        <time>2020-12-25T08:01:33.000Z</time>
      </trkpt>
      <trkpt lat="47.16781" lon="-1.63567">
        <ele>78</ele>
        <time>2020-12-25T08:01:35.000Z</time>
      </trkpt>
      <trkpt lat="47.16773" lon="-1.6358">
        <ele>78</ele>
        <time>2020-12-25T08:01:37.000Z</time>
      </trkpt>
      <trkpt lat="47.16765" lon="-1.63594">
        <ele>78</ele>
        <time>2020-12-25T08:01:39.000Z</time>
      </trkpt>
      <trkpt lat="47.16758" lon="-1.63607">
        <ele>78</ele>
        <time>2020-12-25T08:01:41.000Z</time>
      </trkpt>
      <trkpt lat="47.1675" lon="-1.6362">
        <ele>78</ele>
        <time>2020-12-25T08:01:43.000Z</time>
      </trkpt>
      <trkpt lat="47.16746" lon="-1.63634">
        <ele>78</ele>
        <time>2020-12-25T08:01:45.000Z</time>
      </trkpt>
      <trkpt lat="47.16754" lon="-1.63645">
        <ele>77</ele>
        <time>2020-12-25T08:01:47.000Z</time>
      </trkpt>
      <trkpt lat="47.16765" lon="-1.63649">
        <ele>77</ele>
        <time>2020-12-25T08:01:49.000Z</time>
      </trkpt>
      <trkpt lat="47.16777" lon="-1.63653">
        <ele>77</ele>
        <time>2020-12-25T08:01:51.000Z</time>
      </trkpt>
      <trkpt lat="47.1679" lon="-1.63658">
        <ele>76</ele>
        <time>2020-12-25T08:01:53.000Z</time>
      </trkpt>
      <trkpt lat="47.16802" lon="-1.63663">
        <ele>76</ele>
        <time>2020-12-25T08:01:55.000Z</time>
      </trkpt>
      <trkpt lat="47.16814" lon="-1.63667">
        <ele>76</ele>
        <time>2020-12-25T08:01:57.000Z</time>
      </trkpt>
      <trkpt lat="47.16826" lon="-1.63672">
        <ele>76</ele>
        <time>2020-12-25T08:01:59.000Z</time>
      </trkpt>
      <trkpt lat="47.16839" lon="-1.63676">
        <ele>76</ele>
        <time>2020-12-25T08:02:01.000Z</time>
      </trkpt>
      <trkpt lat="47.16851" lon="-1.6368">
        <ele>76</ele>
        <time>2020-12-25T08:02:03.000Z</time>
      </trkpt>
      <trkpt lat="47.16863" lon="-1.63685">
        <ele>76</ele>
        <time>2020-12-25T08:02:05.000Z</time>
      </trkpt>
      <trkpt lat="47.16875" lon="-1.63689">
        <ele>76</ele>
        <time>2020-12-25T08:02:07.000Z</time>
      </trkpt>
      <trkpt lat="47.16886" lon="-1.63694">
        <ele>75</ele>
        <time>2020-12-25T08:02:09.000Z</time>
      </trkpt>
      <trkpt lat="47.16898" lon="-1.63698">
        <ele>75</ele>
        <time>2020-12-25T08:02:11.000Z</time>
      </trkpt>
      <trkpt lat="47.1691" lon="-1.63703">
        <ele>75</ele>
        <time>2020-12-25T08:02:13.000Z</time>
      </trkpt>
      <trkpt lat="47.16922" lon="-1.63708">
        <ele>75</ele>
        <time>2020-12-25T08:02:15.000Z</time>
      </trkpt>
      <trkpt lat="47.16934" lon="-1.63712">
        <ele>75</ele>
        <time>2020-12-25T08:02:17.000Z</time>
      </trkpt>
      <trkpt lat="47.16946" lon="-1.63716">
        <ele>75</ele>
        <time>2020-12-25T08:02:19.000Z</time>
      </trkpt>
      <trkpt lat="47.16958" lon="-1.6372">
        <ele>75</ele>
        <time>2020-12-25T08:02:21.000Z</time>
      </trkpt>
      <trkpt lat="47.16971" lon="-1.63724">
        <ele>75</ele>
        <time>2020-12-25T08:02:23.000Z</time>
      </trkpt>
      <trkpt lat="47.16983" lon="-1.6373">
        <ele>75</ele>
        <time>2020-12-25T08:02:25.000Z</time>
      </trkpt>
      <trkpt lat="47.16995" lon="-1.63734">
        <ele>75</ele>
        <time>2020-12-25T08:02:27.000Z</time>
      </trkpt>
      <trkpt lat="47.17007" lon="-1.63738">
        <ele>76</ele>
        <time>2020-12-25T08:02:29.000Z</time>
      </trkpt>
      <trkpt lat="47.17018" lon="-1.63741">
        <ele>76</ele>
        <time>2020-12-25T08:02:31.000Z</time>
      </trkpt>
      <trkpt lat="47.1703" lon="-1.63745">
        <ele>75</ele>
        <time>2020-12-25T08:02:33.000Z</time>
      </trkpt>
      <trkpt lat="47.17041" lon="-1.6375">
        <ele>75</ele>
        <time>2020-12-25T08:02:35.000Z</time>
      </trkpt>
      <trkpt lat="47.17052" lon="-1.63757">
        <ele>75</ele>
        <time>2020-12-25T08:02:37.000Z</time>
      </trkpt>
      <trkpt lat="47.17061" lon="-1.63771">
        <ele>75</ele>
        <time>2020-12-25T08:02:39.000Z</time>
      </trkpt>
      <trkpt lat="47.17068" lon="-1.63786">
        <ele>74</ele>
        <time>2020-12-25T08:02:41.000Z</time>
      </trkpt>
      <trkpt lat="47.17074" lon="-1.63803">
        <ele>73</ele>
        <time>2020-12-25T08:02:43.000Z</time>
      </trkpt>
      <trkpt lat="47.1708" lon="-1.63822">
        <ele>73</ele>
        <time>2020-12-25T08:02:45.000Z</time>
      </trkpt>
      <trkpt lat="47.17085" lon="-1.63838">
        <ele>73</ele>
        <time>2020-12-25T08:02:47.000Z</time>
      </trkpt>
      <trkpt lat="47.17091" lon="-1.63854">
        <ele>72</ele>
        <time>2020-12-25T08:02:49.000Z</time>
      </trkpt>
      <trkpt lat="47.17097" lon="-1.6387">
        <ele>72</ele>
        <time>2020-12-25T08:02:51.000Z</time>
      </trkpt>
      <trkpt lat="47.17104" lon="-1.63887">
        <ele>71</ele>
        <time>2020-12-25T08:02:53.000Z</time>
      </trkpt>
      <trkpt lat="47.17109" lon="-1.63902">
        <ele>70</ele>
        <time>2020-12-25T08:02:55.000Z</time>
      </trkpt>
      <trkpt lat="47.17114" lon="-1.63917">
        <ele>70</ele>
        <time>2020-12-25T08:02:57.000Z</time>
      </trkpt>
      <trkpt lat="47.1712" lon="-1.6393">
        <ele>70</ele>
        <time>2020-12-25T08:02:59.000Z</time>
      </trkpt>
      <trkpt lat="47.17127" lon="-1.63938">
        <ele>71</ele>
        <time>2020-12-25T08:03:01.000Z</time>
      </trkpt>
      <trkpt lat="47.17138" lon="-1.63949">
        <ele>73</ele>
        <time>2020-12-25T08:03:04.000Z</time>
      </trkpt>
      <trkpt lat="47.17141" lon="-1.63963">
        <ele>74</ele>
        <time>2020-12-25T08:03:06.000Z</time>
      </trkpt>
      <trkpt lat="47.17141" lon="-1.63981">
        <ele>74</ele>
        <time>2020-12-25T08:03:08.000Z</time>
      </trkpt>
      <trkpt lat="47.17139" lon="-1.63999">
        <ele>75</ele>
        <time>2020-12-25T08:03:10.000Z</time>
      </trkpt>
      <trkpt lat="47.17138" lon="-1.64017">
        <ele>75</ele>
        <time>2020-12-25T08:03:12.000Z</time>
      </trkpt>
      <trkpt lat="47.17136" lon="-1.64035">
        <ele>75</ele>
        <time>2020-12-25T08:03:14.000Z</time>
      </trkpt>
      <trkpt lat="47.17134" lon="-1.64052">
        <ele>76</ele>
        <time>2020-12-25T08:03:16.000Z</time>
      </trkpt>
      <trkpt lat="47.17132" lon="-1.6407">
        <ele>76</ele>
        <time>2020-12-25T08:03:18.000Z</time>
      </trkpt>
      <trkpt lat="47.1713" lon="-1.64089">
        <ele>77</ele>
        <time>2020-12-25T08:03:20.000Z</time>
      </trkpt>
      <trkpt lat="47.17129" lon="-1.64107">
        <ele>77</ele>
        <time>2020-12-25T08:03:22.000Z</time>
      </trkpt>
      <trkpt lat="47.17127" lon="-1.64125">
        <ele>77</ele>
        <time>2020-12-25T08:03:24.000Z</time>
      </trkpt>
      <trkpt lat="47.17125" lon="-1.64143">
        <ele>78</ele>
        <time>2020-12-25T08:03:26.000Z</time>
      </trkpt>
      <trkpt lat="47.17123" lon="-1.64162">
        <ele>78</ele>
        <time>2020-12-25T08:03:28.000Z</time>
      </trkpt>
      <trkpt lat="47.17121" lon="-1.6418">
        <ele>78</ele>
        <time>2020-12-25T08:03:30.000Z</time>
      </trkpt>
      <trkpt lat="47.17119" lon="-1.64198">
        <ele>79</ele>
        <time>2020-12-25T08:03:32.000Z</time>
      </trkpt>
      <trkpt lat="47.17118" lon="-1.64217">
        <ele>79</ele>
        <time>2020-12-25T08:03:34.000Z</time>
      </trkpt>
      <trkpt lat="47.17116" lon="-1.64236">
        <ele>79</ele>
        <time>2020-12-25T08:03:36.000Z</time>
      </trkpt>
      <trkpt lat="47.17114" lon="-1.64254">
        <ele>79</ele>
        <time>2020-12-25T08:03:38.000Z</time>
      </trkpt>
      <trkpt lat="47.17112" lon="-1.64272">
        <ele>79</ele>
        <time>2020-12-25T08:03:40.000Z</time>
      </trkpt>
      <trkpt lat="47.17111" lon="-1.6429">
        <ele>80</ele>
        <time>2020-12-25T08:03:42.000Z</time>
      </trkpt>
      <trkpt lat="47.17109" lon="-1.64309">
        <ele>80</ele>
        <time>2020-12-25T08:03:44.000Z</time>
      </trkpt>
      <trkpt lat="47.17107" lon="-1.64327">
        <ele>80</ele>
        <time>2020-12-25T08:03:46.000Z</time>
      </trkpt>
      <trkpt lat="47.17104" lon="-1.64345">
        <ele>80</ele>
        <time>2020-12-25T08:03:48.000Z</time>
      </trkpt>
      <trkpt lat="47.17102" lon="-1.64363">
        <ele>80</ele>
        <time>2020-12-25T08:03:50.000Z</time>
      </trkpt>
      <trkpt lat="47.171" lon="-1.64381">
        <ele>80</ele>
        <time>2020-12-25T08:03:52.000Z</time>
      </trkpt>
      <trkpt lat="47.17099" lon="-1.64399">
        <ele>80</ele>
        <time>2020-12-25T08:03:54.000Z</time>
      </trkpt>
      <trkpt lat="47.17097" lon="-1.64418">
        <ele>80</ele>
        <time>2020-12-25T08:03:56.000Z</time>
      </trkpt>
      <trkpt lat="47.17096" lon="-1.64436">
        <ele>80</ele>
        <time>2020-12-25T08:03:58.000Z</time>
      </trkpt>
      <trkpt lat="47.17094" lon="-1.64455">
        <ele>80</ele>
        <time>2020-12-25T08:04:00.000Z</time>
      </trkpt>
      <trkpt lat="47.17093" lon="-1.64474">
        <ele>80</ele>
        <time>2020-12-25T08:04:02.000Z</time>
      </trkpt>
      <trkpt lat="47.17092" lon="-1.64493">
        <ele>80</ele>
        <time>2020-12-25T08:04:04.000Z</time>
      </trkpt>
      <trkpt lat="47.17091" lon="-1.64512">
        <ele>79</ele>
        <time>2020-12-25T08:04:06.000Z</time>
      </trkpt>
      <trkpt lat="47.1709" lon="-1.64531">
        <ele>79</ele>
        <time>2020-12-25T08:04:08.000Z</time>
      </trkpt>
      <trkpt lat="47.1709" lon="-1.6455">
        <ele>79</ele>
        <time>2020-12-25T08:04:10.000Z</time>
      </trkpt>
      <trkpt lat="47.17089" lon="-1.64569">
        <ele>78</ele>
        <time>2020-12-25T08:04:12.000Z</time>
      </trkpt>
      <trkpt lat="47.17089" lon="-1.64588">
        <ele>78</ele>
        <time>2020-12-25T08:04:14.000Z</time>
      </trkpt>
      <trkpt lat="47.17088" lon="-1.64607">
        <ele>78</ele>
        <time>2020-12-25T08:04:16.000Z</time>
      </trkpt>
      <trkpt lat="47.17089" lon="-1.64627">
        <ele>78</ele>
        <time>2020-12-25T08:04:18.000Z</time>
      </trkpt>
      <trkpt lat="47.17089" lon="-1.64645">
        <ele>78</ele>
        <time>2020-12-25T08:04:20.000Z</time>
      </trkpt>
      <trkpt lat="47.17089" lon="-1.64664">
        <ele>78</ele>
        <time>2020-12-25T08:04:22.000Z</time>
      </trkpt>
      <trkpt lat="47.1709" lon="-1.64683">
        <ele>78</ele>
        <time>2020-12-25T08:04:24.000Z</time>
      </trkpt>
      <trkpt lat="47.17092" lon="-1.64701">
        <ele>78</ele>
        <time>2020-12-25T08:04:26.000Z</time>
      </trkpt>
      <trkpt lat="47.17093" lon="-1.64721">
        <ele>78</ele>
        <time>2020-12-25T08:04:28.000Z</time>
      </trkpt>
      <trkpt lat="47.17094" lon="-1.64739">
        <ele>78</ele>
        <time>2020-12-25T08:04:30.000Z</time>
      </trkpt>
      <trkpt lat="47.17096" lon="-1.64757">
        <ele>79</ele>
        <time>2020-12-25T08:04:32.000Z</time>
      </trkpt>
      <trkpt lat="47.17096" lon="-1.64776">
        <ele>79</ele>
        <time>2020-12-25T08:04:34.000Z</time>
      </trkpt>
      <trkpt lat="47.17097" lon="-1.64793">
        <ele>78</ele>
        <time>2020-12-25T08:04:36.000Z</time>
      </trkpt>
      <trkpt lat="47.17098" lon="-1.6481">
        <ele>78</ele>
        <time>2020-12-25T08:04:38.000Z</time>
      </trkpt>
      <trkpt lat="47.171" lon="-1.64829">
        <ele>78</ele>
        <time>2020-12-25T08:04:40.000Z</time>
      </trkpt>
      <trkpt lat="47.171" lon="-1.6485">
        <ele>77</ele>
        <time>2020-12-25T08:04:42.000Z</time>
      </trkpt>
      <trkpt lat="47.17102" lon="-1.6487">
        <ele>77</ele>
        <time>2020-12-25T08:04:44.000Z</time>
      </trkpt>
      <trkpt lat="47.17103" lon="-1.6489">
        <ele>77</ele>
        <time>2020-12-25T08:04:46.000Z</time>
      </trkpt>
      <trkpt lat="47.17104" lon="-1.6491">
        <ele>77</ele>
        <time>2020-12-25T08:04:48.000Z</time>
      </trkpt>
      <trkpt lat="47.17106" lon="-1.6493">
        <ele>76</ele>
        <time>2020-12-25T08:04:50.000Z</time>
      </trkpt>
      <trkpt lat="47.17107" lon="-1.6495">
        <ele>77</ele>
        <time>2020-12-25T08:04:52.000Z</time>
      </trkpt>
      <trkpt lat="47.17108" lon="-1.6497">
        <ele>77</ele>
        <time>2020-12-25T08:04:54.000Z</time>
      </trkpt>
      <trkpt lat="47.17109" lon="-1.64989">
        <ele>77</ele>
        <time>2020-12-25T08:04:56.000Z</time>
      </trkpt>
      <trkpt lat="47.17111" lon="-1.65008">
        <ele>76</ele>
        <time>2020-12-25T08:04:58.000Z</time>
      </trkpt>
      <trkpt lat="47.17113" lon="-1.65027">
        <ele>77</ele>
        <time>2020-12-25T08:05:00.000Z</time>
      </trkpt>
      <trkpt lat="47.17114" lon="-1.65046">
        <ele>77</ele>
        <time>2020-12-25T08:05:02.000Z</time>
      </trkpt>
      <trkpt lat="47.17116" lon="-1.65065">
        <ele>77</ele>
        <time>2020-12-25T08:05:04.000Z</time>
      </trkpt>
      <trkpt lat="47.17117" lon="-1.65083">
        <ele>77</ele>
        <time>2020-12-25T08:05:06.000Z</time>
      </trkpt>
      <trkpt lat="47.17118" lon="-1.65102">
        <ele>76</ele>
        <time>2020-12-25T08:05:08.000Z</time>
      </trkpt>
      <trkpt lat="47.17119" lon="-1.65121">
        <ele>77</ele>
        <time>2020-12-25T08:05:10.000Z</time>
      </trkpt>
      <trkpt lat="47.1712" lon="-1.6514">
        <ele>77</ele>
        <time>2020-12-25T08:05:12.000Z</time>
      </trkpt>
      <trkpt lat="47.17122" lon="-1.6516">
        <ele>77</ele>
        <time>2020-12-25T08:05:14.000Z</time>
      </trkpt>
      <trkpt lat="47.17123" lon="-1.65178">
        <ele>77</ele>
        <time>2020-12-25T08:05:16.000Z</time>
      </trkpt>
      <trkpt lat="47.17123" lon="-1.65195">
        <ele>77</ele>
        <time>2020-12-25T08:05:18.000Z</time>
      </trkpt>
      <trkpt lat="47.17124" lon="-1.65212">
        <ele>77</ele>
        <time>2020-12-25T08:05:20.000Z</time>
      </trkpt>
      <trkpt lat="47.17124" lon="-1.65229">
        <ele>77</ele>
        <time>2020-12-25T08:05:22.000Z</time>
      </trkpt>
      <trkpt lat="47.17126" lon="-1.65245">
        <ele>78</ele>
        <time>2020-12-25T08:05:24.000Z</time>
      </trkpt>
      <trkpt lat="47.17128" lon="-1.65261">
        <ele>78</ele>
        <time>2020-12-25T08:05:26.000Z</time>
      </trkpt>
      <trkpt lat="47.17133" lon="-1.65277">
        <ele>79</ele>
        <time>2020-12-25T08:05:28.000Z</time>
      </trkpt>
      <trkpt lat="47.17137" lon="-1.65292">
        <ele>79</ele>
        <time>2020-12-25T08:05:30.000Z</time>
      </trkpt>
      <trkpt lat="47.17139" lon="-1.65308">
        <ele>79</ele>
        <time>2020-12-25T08:05:32.000Z</time>
      </trkpt>
      <trkpt lat="47.17136" lon="-1.65323">
        <ele>79</ele>
        <time>2020-12-25T08:05:34.000Z</time>
      </trkpt>
      <trkpt lat="47.17129" lon="-1.65336">
        <ele>79</ele>
        <time>2020-12-25T08:05:36.000Z</time>
      </trkpt>
      <trkpt lat="47.17122" lon="-1.65349">
        <ele>79</ele>
        <time>2020-12-25T08:05:38.000Z</time>
      </trkpt>
      <trkpt lat="47.1712" lon="-1.65365">
        <ele>79</ele>
        <time>2020-12-25T08:05:40.000Z</time>
      </trkpt>
      <trkpt lat="47.17121" lon="-1.65382">
        <ele>79</ele>
        <time>2020-12-25T08:05:42.000Z</time>
      </trkpt>
      <trkpt lat="47.17121" lon="-1.65398">
        <ele>79</ele>
        <time>2020-12-25T08:05:44.000Z</time>
      </trkpt>
      <trkpt lat="47.17121" lon="-1.65414">
        <ele>79</ele>
        <time>2020-12-25T08:05:46.000Z</time>
      </trkpt>
      <trkpt lat="47.17122" lon="-1.65431">
        <ele>80</ele>
        <time>2020-12-25T08:05:48.000Z</time>
      </trkpt>
      <trkpt lat="47.17122" lon="-1.65447">
        <ele>81</ele>
        <time>2020-12-25T08:05:50.000Z</time>
      </trkpt>
      <trkpt lat="47.17121" lon="-1.65463">
        <ele>81</ele>
        <time>2020-12-25T08:05:52.000Z</time>
      </trkpt>
      <trkpt lat="47.17119" lon="-1.65479">
        <ele>82</ele>
        <time>2020-12-25T08:05:54.000Z</time>
      </trkpt>
      <trkpt lat="47.17116" lon="-1.65494">
        <ele>82</ele>
        <time>2020-12-25T08:05:56.000Z</time>
      </trkpt>
      <trkpt lat="47.17112" lon="-1.65509">
        <ele>83</ele>
        <time>2020-12-25T08:05:58.000Z</time>
      </trkpt>
      <trkpt lat="47.17107" lon="-1.65523">
        <ele>84</ele>
        <time>2020-12-25T08:06:00.000Z</time>
      </trkpt>
      <trkpt lat="47.17102" lon="-1.65536">
        <ele>84</ele>
        <time>2020-12-25T08:06:02.000Z</time>
      </trkpt>
      <trkpt lat="47.17096" lon="-1.65549">
        <ele>84</ele>
        <time>2020-12-25T08:06:04.000Z</time>
      </trkpt>
      <trkpt lat="47.1709" lon="-1.6556">
        <ele>84</ele>
        <time>2020-12-25T08:06:06.000Z</time>
      </trkpt>
      <trkpt lat="47.17082" lon="-1.65572">
        <ele>85</ele>
        <time>2020-12-25T08:06:08.000Z</time>
      </trkpt>
      <trkpt lat="47.17076" lon="-1.65584">
        <ele>84</ele>
        <time>2020-12-25T08:06:10.000Z</time>
      </trkpt>
      <trkpt lat="47.17069" lon="-1.65597">
        <ele>84</ele>
        <time>2020-12-25T08:06:12.000Z</time>
      </trkpt>
      <trkpt lat="47.17062" lon="-1.65609">
        <ele>84</ele>
        <time>2020-12-25T08:06:14.000Z</time>
      </trkpt>
      <trkpt lat="47.17055" lon="-1.65621">
        <ele>84</ele>
        <time>2020-12-25T08:06:16.000Z</time>
      </trkpt>
      <trkpt lat="47.17048" lon="-1.65634">
        <ele>83</ele>
        <time>2020-12-25T08:06:18.000Z</time>
      </trkpt>
      <trkpt lat="47.1704" lon="-1.65648">
        <ele>83</ele>
        <time>2020-12-25T08:06:20.000Z</time>
      </trkpt>
      <trkpt lat="47.17032" lon="-1.65662">
        <ele>83</ele>
        <time>2020-12-25T08:06:22.000Z</time>
      </trkpt>
      <trkpt lat="47.17024" lon="-1.65678">
        <ele>82</ele>
        <time>2020-12-25T08:06:24.000Z</time>
      </trkpt>
      <trkpt lat="47.17017" lon="-1.65694">
        <ele>82</ele>
        <time>2020-12-25T08:06:26.000Z</time>
      </trkpt>
      <trkpt lat="47.17011" lon="-1.6571">
        <ele>82</ele>
        <time>2020-12-25T08:06:28.000Z</time>
      </trkpt>
      <trkpt lat="47.17007" lon="-1.65728">
        <ele>82</ele>
        <time>2020-12-25T08:06:30.000Z</time>
      </trkpt>
      <trkpt lat="47.17004" lon="-1.65747">
        <ele>82</ele>
        <time>2020-12-25T08:06:32.000Z</time>
      </trkpt>
      <trkpt lat="47.16997" lon="-1.65762">
        <ele>82</ele>
        <time>2020-12-25T08:06:34.000Z</time>
      </trkpt>
      <trkpt lat="47.16986" lon="-1.6577">
        <ele>81</ele>
        <time>2020-12-25T08:06:36.000Z</time>
      </trkpt>
      <trkpt lat="47.16974" lon="-1.65778">
        <ele>81</ele>
        <time>2020-12-25T08:06:38.000Z</time>
      </trkpt>
      <trkpt lat="47.16963" lon="-1.65789">
        <ele>81</ele>
        <time>2020-12-25T08:06:40.000Z</time>
      </trkpt>
      <trkpt lat="47.16955" lon="-1.65804">
        <ele>80</ele>
        <time>2020-12-25T08:06:42.000Z</time>
      </trkpt>
      <trkpt lat="47.16947" lon="-1.65821">
        <ele>80</ele>
        <time>2020-12-25T08:06:44.000Z</time>
      </trkpt>
      <trkpt lat="47.16939" lon="-1.65837">
        <ele>80</ele>
        <time>2020-12-25T08:06:46.000Z</time>
      </trkpt>
      <trkpt lat="47.1693" lon="-1.65854">
        <ele>80</ele>
        <time>2020-12-25T08:06:48.000Z</time>
      </trkpt>
      <trkpt lat="47.16922" lon="-1.65869">
        <ele>79</ele>
        <time>2020-12-25T08:06:50.000Z</time>
      </trkpt>
      <trkpt lat="47.16914" lon="-1.65885">
        <ele>79</ele>
        <time>2020-12-25T08:06:52.000Z</time>
      </trkpt>
      <trkpt lat="47.16906" lon="-1.65902">
        <ele>79</ele>
        <time>2020-12-25T08:06:54.000Z</time>
      </trkpt>
      <trkpt lat="47.16899" lon="-1.65918">
        <ele>78</ele>
        <time>2020-12-25T08:06:56.000Z</time>
      </trkpt>
      <trkpt lat="47.16892" lon="-1.65934">
        <ele>78</ele>
        <time>2020-12-25T08:06:58.000Z</time>
      </trkpt>
      <trkpt lat="47.16884" lon="-1.65951">
        <ele>78</ele>
        <time>2020-12-25T08:07:00.000Z</time>
      </trkpt>
      <trkpt lat="47.16877" lon="-1.65968">
        <ele>78</ele>
        <time>2020-12-25T08:07:02.000Z</time>
      </trkpt>
      <trkpt lat="47.16871" lon="-1.65986">
        <ele>78</ele>
        <time>2020-12-25T08:07:04.000Z</time>
      </trkpt>
      <trkpt lat="47.16865" lon="-1.66003">
        <ele>77</ele>
        <time>2020-12-25T08:07:06.000Z</time>
      </trkpt>
      <trkpt lat="47.16861" lon="-1.66021">
        <ele>78</ele>
        <time>2020-12-25T08:07:08.000Z</time>
      </trkpt>
      <trkpt lat="47.16857" lon="-1.6604">
        <ele>77</ele>
        <time>2020-12-25T08:07:10.000Z</time>
      </trkpt>
      <trkpt lat="47.16853" lon="-1.66058">
        <ele>77</ele>
        <time>2020-12-25T08:07:12.000Z</time>
      </trkpt>
      <trkpt lat="47.16851" lon="-1.66077">
        <ele>77</ele>
        <time>2020-12-25T08:07:14.000Z</time>
      </trkpt>
      <trkpt lat="47.16849" lon="-1.66095">
        <ele>77</ele>
        <time>2020-12-25T08:07:16.000Z</time>
      </trkpt>
      <trkpt lat="47.16848" lon="-1.66114">
        <ele>77</ele>
        <time>2020-12-25T08:07:18.000Z</time>
      </trkpt>
      <trkpt lat="47.16847" lon="-1.66133">
        <ele>77</ele>
        <time>2020-12-25T08:07:20.000Z</time>
      </trkpt>
      <trkpt lat="47.16848" lon="-1.66151">
        <ele>78</ele>
        <time>2020-12-25T08:07:22.000Z</time>
      </trkpt>
      <trkpt lat="47.16848" lon="-1.6617">
        <ele>78</ele>
        <time>2020-12-25T08:07:24.000Z</time>
      </trkpt>
      <trkpt lat="47.16849" lon="-1.66189">
        <ele>78</ele>
        <time>2020-12-25T08:07:26.000Z</time>
      </trkpt>
      <trkpt lat="47.1685" lon="-1.66207">
        <ele>77</ele>
        <time>2020-12-25T08:07:28.000Z</time>
      </trkpt>
      <trkpt lat="47.16852" lon="-1.66225">
        <ele>77</ele>
        <time>2020-12-25T08:07:30.000Z</time>
      </trkpt>
      <trkpt lat="47.16853" lon="-1.66243">
        <ele>77</ele>
        <time>2020-12-25T08:07:32.000Z</time>
      </trkpt>
      <trkpt lat="47.16855" lon="-1.66261">
        <ele>78</ele>
        <time>2020-12-25T08:07:34.000Z</time>
      </trkpt>
      <trkpt lat="47.16856" lon="-1.66279">
        <ele>78</ele>
        <time>2020-12-25T08:07:36.000Z</time>
      </trkpt>
      <trkpt lat="47.16857" lon="-1.66296">
        <ele>78</ele>
        <time>2020-12-25T08:07:38.000Z</time>
      </trkpt>
      <trkpt lat="47.16858" lon="-1.66314">
        <ele>77</ele>
        <time>2020-12-25T08:07:40.000Z</time>
      </trkpt>
      <trkpt lat="47.16859" lon="-1.66332">
        <ele>78</ele>
        <time>2020-12-25T08:07:42.000Z</time>
      </trkpt>
      <trkpt lat="47.16861" lon="-1.66351">
        <ele>78</ele>
        <time>2020-12-25T08:07:44.000Z</time>
      </trkpt>
      <trkpt lat="47.16863" lon="-1.6637">
        <ele>78</ele>
        <time>2020-12-25T08:07:46.000Z</time>
      </trkpt>
      <trkpt lat="47.16865" lon="-1.66388">
        <ele>77</ele>
        <time>2020-12-25T08:07:48.000Z</time>
      </trkpt>
      <trkpt lat="47.16868" lon="-1.66406">
        <ele>77</ele>
        <time>2020-12-25T08:07:50.000Z</time>
      </trkpt>
      <trkpt lat="47.16869" lon="-1.66424">
        <ele>78</ele>
        <time>2020-12-25T08:07:52.000Z</time>
      </trkpt>
      <trkpt lat="47.16871" lon="-1.66442">
        <ele>78</ele>
        <time>2020-12-25T08:07:54.000Z</time>
      </trkpt>
      <trkpt lat="47.16873" lon="-1.66459">
        <ele>78</ele>
        <time>2020-12-25T08:07:56.000Z</time>
      </trkpt>
      <trkpt lat="47.16875" lon="-1.66477">
        <ele>78</ele>
        <time>2020-12-25T08:07:58.000Z</time>
      </trkpt>
      <trkpt lat="47.16878" lon="-1.66495">
        <ele>78</ele>
        <time>2020-12-25T08:08:00.000Z</time>
      </trkpt>
      <trkpt lat="47.16881" lon="-1.66512">
        <ele>78</ele>
        <time>2020-12-25T08:08:02.000Z</time>
      </trkpt>
      <trkpt lat="47.16883" lon="-1.66529">
        <ele>78</ele>
        <time>2020-12-25T08:08:04.000Z</time>
      </trkpt>
      <trkpt lat="47.16885" lon="-1.66547">
        <ele>78</ele>
        <time>2020-12-25T08:08:06.000Z</time>
      </trkpt>
      <trkpt lat="47.16887" lon="-1.66565">
        <ele>78</ele>
        <time>2020-12-25T08:08:08.000Z</time>
      </trkpt>
      <trkpt lat="47.1689" lon="-1.66584">
        <ele>78</ele>
        <time>2020-12-25T08:08:10.000Z</time>
      </trkpt>
      <trkpt lat="47.16891" lon="-1.66602">
        <ele>78</ele>
        <time>2020-12-25T08:08:12.000Z</time>
      </trkpt>
      <trkpt lat="47.16893" lon="-1.66621">
        <ele>78</ele>
        <time>2020-12-25T08:08:14.000Z</time>
      </trkpt>
      <trkpt lat="47.16894" lon="-1.66639">
        <ele>78</ele>
        <time>2020-12-25T08:08:16.000Z</time>
      </trkpt>
      <trkpt lat="47.16895" lon="-1.66658">
        <ele>78</ele>
        <time>2020-12-25T08:08:18.000Z</time>
      </trkpt>
      <trkpt lat="47.16894" lon="-1.66677">
        <ele>78</ele>
        <time>2020-12-25T08:08:20.000Z</time>
      </trkpt>
      <trkpt lat="47.16892" lon="-1.66695">
        <ele>79</ele>
        <time>2020-12-25T08:08:22.000Z</time>
      </trkpt>
      <trkpt lat="47.16888" lon="-1.66714">
        <ele>80</ele>
        <time>2020-12-25T08:08:24.000Z</time>
      </trkpt>
      <trkpt lat="47.16882" lon="-1.66732">
        <ele>80</ele>
        <time>2020-12-25T08:08:26.000Z</time>
      </trkpt>
      <trkpt lat="47.16875" lon="-1.66748">
        <ele>80</ele>
        <time>2020-12-25T08:08:28.000Z</time>
      </trkpt>
      <trkpt lat="47.16867" lon="-1.66764">
        <ele>80</ele>
        <time>2020-12-25T08:08:30.000Z</time>
      </trkpt>
      <trkpt lat="47.16858" lon="-1.6678">
        <ele>79</ele>
        <time>2020-12-25T08:08:32.000Z</time>
      </trkpt>
      <trkpt lat="47.16849" lon="-1.66797">
        <ele>79</ele>
        <time>2020-12-25T08:08:34.000Z</time>
      </trkpt>
      <trkpt lat="47.16841" lon="-1.66812">
        <ele>79</ele>
        <time>2020-12-25T08:08:36.000Z</time>
      </trkpt>
      <trkpt lat="47.16833" lon="-1.66827">
        <ele>78</ele>
        <time>2020-12-25T08:08:38.000Z</time>
      </trkpt>
      <trkpt lat="47.16825" lon="-1.66843">
        <ele>78</ele>
        <time>2020-12-25T08:08:40.000Z</time>
      </trkpt>
      <trkpt lat="47.16816" lon="-1.66858">
        <ele>78</ele>
        <time>2020-12-25T08:08:42.000Z</time>
      </trkpt>
      <trkpt lat="47.16808" lon="-1.66873">
        <ele>78</ele>
        <time>2020-12-25T08:08:44.000Z</time>
      </trkpt>
      <trkpt lat="47.16799" lon="-1.66886">
        <ele>78</ele>
        <time>2020-12-25T08:08:46.000Z</time>
      </trkpt>
      <trkpt lat="47.16789" lon="-1.66896">
        <ele>78</ele>
        <time>2020-12-25T08:08:48.000Z</time>
      </trkpt>
      <trkpt lat="47.16778" lon="-1.66905">
        <ele>78</ele>
        <time>2020-12-25T08:08:50.000Z</time>
      </trkpt>
      <trkpt lat="47.16766" lon="-1.66912">
        <ele>78</ele>
        <time>2020-12-25T08:08:52.000Z</time>
      </trkpt>
      <trkpt lat="47.16754" lon="-1.66918">
        <ele>77</ele>
        <time>2020-12-25T08:08:54.000Z</time>
      </trkpt>
      <trkpt lat="47.16741" lon="-1.66923">
        <ele>76</ele>
        <time>2020-12-25T08:08:56.000Z</time>
      </trkpt>
      <trkpt lat="47.16728" lon="-1.66927">
        <ele>75</ele>
        <time>2020-12-25T08:08:58.000Z</time>
      </trkpt>
      <trkpt lat="47.16715" lon="-1.66931">
        <ele>75</ele>
        <time>2020-12-25T08:09:00.000Z</time>
      </trkpt>
      <trkpt lat="47.16703" lon="-1.66936">
        <ele>76</ele>
        <time>2020-12-25T08:09:02.000Z</time>
      </trkpt>
      <trkpt lat="47.1669" lon="-1.66944">
        <ele>75</ele>
        <time>2020-12-25T08:09:04.000Z</time>
      </trkpt>
      <trkpt lat="47.1668" lon="-1.66955">
        <ele>74</ele>
        <time>2020-12-25T08:09:06.000Z</time>
      </trkpt>
      <trkpt lat="47.16672" lon="-1.6697">
        <ele>74</ele>
        <time>2020-12-25T08:09:08.000Z</time>
      </trkpt>
      <trkpt lat="47.16666" lon="-1.66988">
        <ele>74</ele>
        <time>2020-12-25T08:09:10.000Z</time>
      </trkpt>
      <trkpt lat="47.16662" lon="-1.67006">
        <ele>75</ele>
        <time>2020-12-25T08:09:12.000Z</time>
      </trkpt>
      <trkpt lat="47.16659" lon="-1.67025">
        <ele>76</ele>
        <time>2020-12-25T08:09:14.000Z</time>
      </trkpt>
      <trkpt lat="47.16655" lon="-1.67044">
        <ele>76</ele>
        <time>2020-12-25T08:09:16.000Z</time>
      </trkpt>
      <trkpt lat="47.16651" lon="-1.67063">
        <ele>76</ele>
        <time>2020-12-25T08:09:18.000Z</time>
      </trkpt>
      <trkpt lat="47.16647" lon="-1.67081">
        <ele>76</ele>
        <time>2020-12-25T08:09:20.000Z</time>
      </trkpt>
      <trkpt lat="47.16642" lon="-1.671">
        <ele>76</ele>
        <time>2020-12-25T08:09:22.000Z</time>
      </trkpt>
      <trkpt lat="47.16639" lon="-1.67117">
        <ele>75</ele>
        <time>2020-12-25T08:09:24.000Z</time>
      </trkpt>
      <trkpt lat="47.16635" lon="-1.67135">
        <ele>75</ele>
        <time>2020-12-25T08:09:26.000Z</time>
      </trkpt>
      <trkpt lat="47.16632" lon="-1.67153">
        <ele>76</ele>
        <time>2020-12-25T08:09:28.000Z</time>
      </trkpt>
      <trkpt lat="47.16628" lon="-1.67171">
        <ele>76</ele>
        <time>2020-12-25T08:09:30.000Z</time>
      </trkpt>
      <trkpt lat="47.16625" lon="-1.67189">
        <ele>76</ele>
        <time>2020-12-25T08:09:32.000Z</time>
      </trkpt>
      <trkpt lat="47.16621" lon="-1.67206">
        <ele>76</ele>
        <time>2020-12-25T08:09:34.000Z</time>
      </trkpt>
      <trkpt lat="47.16618" lon="-1.67222">
        <ele>76</ele>
        <time>2020-12-25T08:09:36.000Z</time>
      </trkpt>
      <trkpt lat="47.16615" lon="-1.67237">
        <ele>76</ele>
        <time>2020-12-25T08:09:38.000Z</time>
      </trkpt>
      <trkpt lat="47.16611" lon="-1.67251">
        <ele>76</ele>
        <time>2020-12-25T08:09:40.000Z</time>
      </trkpt>
      <trkpt lat="47.16608" lon="-1.67264">
        <ele>76</ele>
        <time>2020-12-25T08:09:42.000Z</time>
      </trkpt>
      <trkpt lat="47.16603" lon="-1.67277">
        <ele>75</ele>
        <time>2020-12-25T08:09:44.000Z</time>
      </trkpt>
      <trkpt lat="47.16597" lon="-1.67293">
        <ele>75</ele>
        <time>2020-12-25T08:09:46.000Z</time>
      </trkpt>
      <trkpt lat="47.1659" lon="-1.67309">
        <ele>75</ele>
        <time>2020-12-25T08:09:48.000Z</time>
      </trkpt>
      <trkpt lat="47.16583" lon="-1.67325">
        <ele>75</ele>
        <time>2020-12-25T08:09:50.000Z</time>
      </trkpt>
      <trkpt lat="47.16576" lon="-1.67341">
        <ele>75</ele>
        <time>2020-12-25T08:09:52.000Z</time>
      </trkpt>
      <trkpt lat="47.16568" lon="-1.67357">
        <ele>75</ele>
        <time>2020-12-25T08:09:54.000Z</time>
      </trkpt>
      <trkpt lat="47.16559" lon="-1.67372">
        <ele>75</ele>
        <time>2020-12-25T08:09:56.000Z</time>
      </trkpt>
      <trkpt lat="47.1655" lon="-1.67385">
        <ele>75</ele>
        <time>2020-12-25T08:09:58.000Z</time>
      </trkpt>
      <trkpt lat="47.1654" lon="-1.67399">
        <ele>75</ele>
        <time>2020-12-25T08:10:00.000Z</time>
      </trkpt>
      <trkpt lat="47.16531" lon="-1.67412">
        <ele>75</ele>
        <time>2020-12-25T08:10:02.000Z</time>
      </trkpt>
      <trkpt lat="47.16523" lon="-1.67425">
        <ele>75</ele>
        <time>2020-12-25T08:10:04.000Z</time>
      </trkpt>
      <trkpt lat="47.16514" lon="-1.67439">
        <ele>75</ele>
        <time>2020-12-25T08:10:06.000Z</time>
      </trkpt>
      <trkpt lat="47.16506" lon="-1.67453">
        <ele>75</ele>
        <time>2020-12-25T08:10:08.000Z</time>
      </trkpt>
      <trkpt lat="47.16498" lon="-1.67467">
        <ele>75</ele>
        <time>2020-12-25T08:10:10.000Z</time>
      </trkpt>
      <trkpt lat="47.1649" lon="-1.67481">
        <ele>75</ele>
        <time>2020-12-25T08:10:12.000Z</time>
      </trkpt>
      <trkpt lat="47.16482" lon="-1.67496">
        <ele>75</ele>
        <time>2020-12-25T08:10:14.000Z</time>
      </trkpt>
      <trkpt lat="47.16474" lon="-1.6751">
        <ele>75</ele>
        <time>2020-12-25T08:10:16.000Z</time>
      </trkpt>
      <trkpt lat="47.16466" lon="-1.67525">
        <ele>75</ele>
        <time>2020-12-25T08:10:18.000Z</time>
      </trkpt>
      <trkpt lat="47.16458" lon="-1.67539">
        <ele>75</ele>
        <time>2020-12-25T08:10:20.000Z</time>
      </trkpt>
      <trkpt lat="47.1645" lon="-1.67553">
        <ele>75</ele>
        <time>2020-12-25T08:10:22.000Z</time>
      </trkpt>
      <trkpt lat="47.16442" lon="-1.67567">
        <ele>75</ele>
        <time>2020-12-25T08:10:24.000Z</time>
      </trkpt>
      <trkpt lat="47.16435" lon="-1.67581">
        <ele>74</ele>
        <time>2020-12-25T08:10:26.000Z</time>
      </trkpt>
      <trkpt lat="47.16428" lon="-1.67596">
        <ele>74</ele>
        <time>2020-12-25T08:10:28.000Z</time>
      </trkpt>
      <trkpt lat="47.16421" lon="-1.67612">
        <ele>74</ele>
        <time>2020-12-25T08:10:30.000Z</time>
      </trkpt>
      <trkpt lat="47.16414" lon="-1.67627">
        <ele>74</ele>
        <time>2020-12-25T08:10:32.000Z</time>
      </trkpt>
      <trkpt lat="47.16407" lon="-1.67642">
        <ele>74</ele>
        <time>2020-12-25T08:10:34.000Z</time>
      </trkpt>
      <trkpt lat="47.16399" lon="-1.67656">
        <ele>74</ele>
        <time>2020-12-25T08:10:36.000Z</time>
      </trkpt>
      <trkpt lat="47.16392" lon="-1.67672">
        <ele>74</ele>
        <time>2020-12-25T08:10:38.000Z</time>
      </trkpt>
      <trkpt lat="47.16385" lon="-1.67688">
        <ele>75</ele>
        <time>2020-12-25T08:10:40.000Z</time>
      </trkpt>
      <trkpt lat="47.16377" lon="-1.67702">
        <ele>75</ele>
        <time>2020-12-25T08:10:42.000Z</time>
      </trkpt>
      <trkpt lat="47.16369" lon="-1.67717">
        <ele>74</ele>
        <time>2020-12-25T08:10:44.000Z</time>
      </trkpt>
      <trkpt lat="47.16361" lon="-1.67731">
        <ele>75</ele>
        <time>2020-12-25T08:10:46.000Z</time>
      </trkpt>
      <trkpt lat="47.16353" lon="-1.67746">
        <ele>75</ele>
        <time>2020-12-25T08:10:48.000Z</time>
      </trkpt>
      <trkpt lat="47.16345" lon="-1.67761">
        <ele>76</ele>
        <time>2020-12-25T08:10:50.000Z</time>
      </trkpt>
      <trkpt lat="47.16338" lon="-1.67775">
        <ele>76</ele>
        <time>2020-12-25T08:10:52.000Z</time>
      </trkpt>
      <trkpt lat="47.16329" lon="-1.6779">
        <ele>76</ele>
        <time>2020-12-25T08:10:54.000Z</time>
      </trkpt>
      <trkpt lat="47.16321" lon="-1.67803">
        <ele>76</ele>
        <time>2020-12-25T08:10:56.000Z</time>
      </trkpt>
      <trkpt lat="47.16313" lon="-1.67816">
        <ele>76</ele>
        <time>2020-12-25T08:10:58.000Z</time>
      </trkpt>
      <trkpt lat="47.16305" lon="-1.6783">
        <ele>76</ele>
        <time>2020-12-25T08:11:00.000Z</time>
      </trkpt>
      <trkpt lat="47.16298" lon="-1.67844">
        <ele>77</ele>
        <time>2020-12-25T08:11:02.000Z</time>
      </trkpt>
      <trkpt lat="47.16291" lon="-1.67857">
        <ele>77</ele>
        <time>2020-12-25T08:11:04.000Z</time>
      </trkpt>
      <trkpt lat="47.16283" lon="-1.6787">
        <ele>77</ele>
        <time>2020-12-25T08:11:06.000Z</time>
      </trkpt>
      <trkpt lat="47.16275" lon="-1.67884">
        <ele>77</ele>
        <time>2020-12-25T08:11:08.000Z</time>
      </trkpt>
      <trkpt lat="47.16267" lon="-1.67898">
        <ele>77</ele>
        <time>2020-12-25T08:11:10.000Z</time>
      </trkpt>
      <trkpt lat="47.1626" lon="-1.67911">
        <ele>78</ele>
        <time>2020-12-25T08:11:12.000Z</time>
      </trkpt>
      <trkpt lat="47.16252" lon="-1.67924">
        <ele>77</ele>
        <time>2020-12-25T08:11:14.000Z</time>
      </trkpt>
      <trkpt lat="47.16244" lon="-1.67938">
        <ele>78</ele>
        <time>2020-12-25T08:11:16.000Z</time>
      </trkpt>
      <trkpt lat="47.16236" lon="-1.67951">
        <ele>78</ele>
        <time>2020-12-25T08:11:18.000Z</time>
      </trkpt>
      <trkpt lat="47.16228" lon="-1.67964">
        <ele>77</ele>
        <time>2020-12-25T08:11:20.000Z</time>
      </trkpt>
      <trkpt lat="47.16223" lon="-1.6798">
        <ele>77</ele>
        <time>2020-12-25T08:11:22.000Z</time>
      </trkpt>
      <trkpt lat="47.16217" lon="-1.67993">
        <ele>77</ele>
        <time>2020-12-25T08:11:24.000Z</time>
      </trkpt>
      <trkpt lat="47.16205" lon="-1.67998">
        <ele>76</ele>
        <time>2020-12-25T08:11:26.000Z</time>
      </trkpt>
      <trkpt lat="47.16195" lon="-1.68008">
        <ele>75</ele>
        <time>2020-12-25T08:11:28.000Z</time>
      </trkpt>
      <trkpt lat="47.16186" lon="-1.68022">
        <ele>75</ele>
        <time>2020-12-25T08:11:30.000Z</time>
      </trkpt>
      <trkpt lat="47.16178" lon="-1.68035">
        <ele>76</ele>
        <time>2020-12-25T08:11:32.000Z</time>
      </trkpt>
      <trkpt lat="47.16169" lon="-1.68047">
        <ele>76</ele>
        <time>2020-12-25T08:11:34.000Z</time>
      </trkpt>
      <trkpt lat="47.16162" lon="-1.6806">
        <ele>77</ele>
        <time>2020-12-25T08:11:36.000Z</time>
      </trkpt>
      <trkpt lat="47.16154" lon="-1.68074">
        <ele>77</ele>
        <time>2020-12-25T08:11:38.000Z</time>
      </trkpt>
      <trkpt lat="47.16148" lon="-1.68089">
        <ele>78</ele>
        <time>2020-12-25T08:11:40.000Z</time>
      </trkpt>
      <trkpt lat="47.16144" lon="-1.68104">
        <ele>78</ele>
        <time>2020-12-25T08:11:42.000Z</time>
      </trkpt>
      <trkpt lat="47.1614" lon="-1.68121">
        <ele>77</ele>
        <time>2020-12-25T08:11:44.000Z</time>
      </trkpt>
      <trkpt lat="47.16136" lon="-1.68138">
        <ele>77</ele>
        <time>2020-12-25T08:11:46.000Z</time>
      </trkpt>
      <trkpt lat="47.16131" lon="-1.68154">
        <ele>77</ele>
        <time>2020-12-25T08:11:48.000Z</time>
      </trkpt>
      <trkpt lat="47.16127" lon="-1.68169">
        <ele>77</ele>
        <time>2020-12-25T08:11:50.000Z</time>
      </trkpt>
      <trkpt lat="47.16124" lon="-1.68185">
        <ele>77</ele>
        <time>2020-12-25T08:11:52.000Z</time>
      </trkpt>
      <trkpt lat="47.16121" lon="-1.68202">
        <ele>77</ele>
        <time>2020-12-25T08:11:54.000Z</time>
      </trkpt>
      <trkpt lat="47.16118" lon="-1.6822">
        <ele>77</ele>
        <time>2020-12-25T08:11:56.000Z</time>
      </trkpt>
      <trkpt lat="47.16114" lon="-1.68236">
        <ele>78</ele>
        <time>2020-12-25T08:11:58.000Z</time>
      </trkpt>
      <trkpt lat="47.1611" lon="-1.68254">
        <ele>77</ele>
        <time>2020-12-25T08:12:00.000Z</time>
      </trkpt>
      <trkpt lat="47.16107" lon="-1.68274">
        <ele>77</ele>
        <time>2020-12-25T08:12:02.000Z</time>
      </trkpt>
      <trkpt lat="47.16104" lon="-1.68293">
        <ele>76</ele>
        <time>2020-12-25T08:12:04.000Z</time>
      </trkpt>
      <trkpt lat="47.161" lon="-1.68314">
        <ele>77</ele>
        <time>2020-12-25T08:12:06.000Z</time>
      </trkpt>
      <trkpt lat="47.16096" lon="-1.68333">
        <ele>76</ele>
        <time>2020-12-25T08:12:08.000Z</time>
      </trkpt>
      <trkpt lat="47.16092" lon="-1.68352">
        <ele>76</ele>
        <time>2020-12-25T08:12:10.000Z</time>
      </trkpt>
      <trkpt lat="47.16088" lon="-1.68371">
        <ele>76</ele>
        <time>2020-12-25T08:12:12.000Z</time>
      </trkpt>
      <trkpt lat="47.16084" lon="-1.68389">
        <ele>75</ele>
        <time>2020-12-25T08:12:14.000Z</time>
      </trkpt>
      <trkpt lat="47.1608" lon="-1.68406">
        <ele>74</ele>
        <time>2020-12-25T08:12:16.000Z</time>
      </trkpt>
      <trkpt lat="47.16076" lon="-1.68424">
        <ele>74</ele>
        <time>2020-12-25T08:12:18.000Z</time>
      </trkpt>
      <trkpt lat="47.16073" lon="-1.68441">
        <ele>73</ele>
        <time>2020-12-25T08:12:20.000Z</time>
      </trkpt>
      <trkpt lat="47.16069" lon="-1.68458">
        <ele>73</ele>
        <time>2020-12-25T08:12:22.000Z</time>
      </trkpt>
      <trkpt lat="47.16066" lon="-1.68476">
        <ele>73</ele>
        <time>2020-12-25T08:12:24.000Z</time>
      </trkpt>
      <trkpt lat="47.16063" lon="-1.68495">
        <ele>73</ele>
        <time>2020-12-25T08:12:26.000Z</time>
      </trkpt>
      <trkpt lat="47.16061" lon="-1.68512">
        <ele>73</ele>
        <time>2020-12-25T08:12:28.000Z</time>
      </trkpt>
      <trkpt lat="47.16058" lon="-1.6853">
        <ele>73</ele>
        <time>2020-12-25T08:12:30.000Z</time>
      </trkpt>
      <trkpt lat="47.16056" lon="-1.68548">
        <ele>73</ele>
        <time>2020-12-25T08:12:32.000Z</time>
      </trkpt>
      <trkpt lat="47.16053" lon="-1.68566">
        <ele>73</ele>
        <time>2020-12-25T08:12:34.000Z</time>
      </trkpt>
      <trkpt lat="47.1605" lon="-1.68584">
        <ele>73</ele>
        <time>2020-12-25T08:12:36.000Z</time>
      </trkpt>
      <trkpt lat="47.16047" lon="-1.68602">
        <ele>73</ele>
        <time>2020-12-25T08:12:38.000Z</time>
      </trkpt>
      <trkpt lat="47.16046" lon="-1.6862">
        <ele>72</ele>
        <time>2020-12-25T08:12:40.000Z</time>
      </trkpt>
      <trkpt lat="47.16045" lon="-1.68638">
        <ele>72</ele>
        <time>2020-12-25T08:12:42.000Z</time>
      </trkpt>
      <trkpt lat="47.16044" lon="-1.68656">
        <ele>72</ele>
        <time>2020-12-25T08:12:44.000Z</time>
      </trkpt>
      <trkpt lat="47.16044" lon="-1.68674">
        <ele>72</ele>
        <time>2020-12-25T08:12:46.000Z</time>
      </trkpt>
      <trkpt lat="47.16045" lon="-1.68692">
        <ele>73</ele>
        <time>2020-12-25T08:12:48.000Z</time>
      </trkpt>
      <trkpt lat="47.16046" lon="-1.68709">
        <ele>73</ele>
        <time>2020-12-25T08:12:50.000Z</time>
      </trkpt>
      <trkpt lat="47.16049" lon="-1.68726">
        <ele>73</ele>
        <time>2020-12-25T08:12:52.000Z</time>
      </trkpt>
      <trkpt lat="47.16051" lon="-1.68743">
        <ele>74</ele>
        <time>2020-12-25T08:12:54.000Z</time>
      </trkpt>
      <trkpt lat="47.16054" lon="-1.68759">
        <ele>75</ele>
        <time>2020-12-25T08:12:56.000Z</time>
      </trkpt>
      <trkpt lat="47.16058" lon="-1.68774">
        <ele>75</ele>
        <time>2020-12-25T08:12:58.000Z</time>
      </trkpt>
      <trkpt lat="47.16062" lon="-1.6879">
        <ele>75</ele>
        <time>2020-12-25T08:13:00.000Z</time>
      </trkpt>
      <trkpt lat="47.16067" lon="-1.68805">
        <ele>75</ele>
        <time>2020-12-25T08:13:02.000Z</time>
      </trkpt>
      <trkpt lat="47.16072" lon="-1.6882">
        <ele>75</ele>
        <time>2020-12-25T08:13:04.000Z</time>
      </trkpt>
      <trkpt lat="47.16076" lon="-1.68835">
        <ele>76</ele>
        <time>2020-12-25T08:13:06.000Z</time>
      </trkpt>
      <trkpt lat="47.16081" lon="-1.6885">
        <ele>75</ele>
        <time>2020-12-25T08:13:08.000Z</time>
      </trkpt>
      <trkpt lat="47.16085" lon="-1.68866">
        <ele>75</ele>
        <time>2020-12-25T08:13:10.000Z</time>
      </trkpt>
      <trkpt lat="47.16089" lon="-1.68881">
        <ele>75</ele>
        <time>2020-12-25T08:13:12.000Z</time>
      </trkpt>
      <trkpt lat="47.16093" lon="-1.68896">
        <ele>75</ele>
        <time>2020-12-25T08:13:14.000Z</time>
      </trkpt>
      <trkpt lat="47.16098" lon="-1.68912">
        <ele>75</ele>
        <time>2020-12-25T08:13:16.000Z</time>
      </trkpt>
      <trkpt lat="47.16102" lon="-1.68928">
        <ele>75</ele>
        <time>2020-12-25T08:13:18.000Z</time>
      </trkpt>
      <trkpt lat="47.16107" lon="-1.68944">
        <ele>74</ele>
        <time>2020-12-25T08:13:20.000Z</time>
      </trkpt>
      <trkpt lat="47.16112" lon="-1.68961">
        <ele>74</ele>
        <time>2020-12-25T08:13:22.000Z</time>
      </trkpt>
      <trkpt lat="47.16117" lon="-1.68978">
        <ele>73</ele>
        <time>2020-12-25T08:13:24.000Z</time>
      </trkpt>
      <trkpt lat="47.16122" lon="-1.68995">
        <ele>73</ele>
        <time>2020-12-25T08:13:26.000Z</time>
      </trkpt>
      <trkpt lat="47.16127" lon="-1.69013">
        <ele>72</ele>
        <time>2020-12-25T08:13:28.000Z</time>
      </trkpt>
      <trkpt lat="47.16131" lon="-1.69032">
        <ele>72</ele>
        <time>2020-12-25T08:13:30.000Z</time>
      </trkpt>
      <trkpt lat="47.16135" lon="-1.69051">
        <ele>72</ele>
        <time>2020-12-25T08:13:32.000Z</time>
      </trkpt>
      <trkpt lat="47.16139" lon="-1.6907">
        <ele>72</ele>
        <time>2020-12-25T08:13:34.000Z</time>
      </trkpt>
      <trkpt lat="47.16142" lon="-1.69091">
        <ele>71</ele>
        <time>2020-12-25T08:13:36.000Z</time>
      </trkpt>
      <trkpt lat="47.16144" lon="-1.69111">
        <ele>71</ele>
        <time>2020-12-25T08:13:38.000Z</time>
      </trkpt>
      <trkpt lat="47.16146" lon="-1.6913">
        <ele>70</ele>
        <time>2020-12-25T08:13:40.000Z</time>
      </trkpt>
      <trkpt lat="47.16147" lon="-1.6915">
        <ele>70</ele>
        <time>2020-12-25T08:13:42.000Z</time>
      </trkpt>
      <trkpt lat="47.16147" lon="-1.6917">
        <ele>70</ele>
        <time>2020-12-25T08:13:44.000Z</time>
      </trkpt>
      <trkpt lat="47.16146" lon="-1.6919">
        <ele>69</ele>
        <time>2020-12-25T08:13:46.000Z</time>
      </trkpt>
      <trkpt lat="47.16144" lon="-1.6921">
        <ele>69</ele>
        <time>2020-12-25T08:13:48.000Z</time>
      </trkpt>
      <trkpt lat="47.16143" lon="-1.69232">
        <ele>68</ele>
        <time>2020-12-25T08:13:50.000Z</time>
      </trkpt>
      <trkpt lat="47.16141" lon="-1.69252">
        <ele>68</ele>
        <time>2020-12-25T08:13:52.000Z</time>
      </trkpt>
      <trkpt lat="47.16139" lon="-1.69272">
        <ele>68</ele>
        <time>2020-12-25T08:13:54.000Z</time>
      </trkpt>
      <trkpt lat="47.16137" lon="-1.69293">
        <ele>68</ele>
        <time>2020-12-25T08:13:56.000Z</time>
      </trkpt>
      <trkpt lat="47.16134" lon="-1.69311">
        <ele>68</ele>
        <time>2020-12-25T08:13:58.000Z</time>
      </trkpt>
      <trkpt lat="47.1613" lon="-1.6933">
        <ele>68</ele>
        <time>2020-12-25T08:14:00.000Z</time>
      </trkpt>
      <trkpt lat="47.16127" lon="-1.69348">
        <ele>69</ele>
        <time>2020-12-25T08:14:02.000Z</time>
      </trkpt>
      <trkpt lat="47.16124" lon="-1.69367">
        <ele>69</ele>
        <time>2020-12-25T08:14:04.000Z</time>
      </trkpt>
      <trkpt lat="47.16122" lon="-1.69385">
        <ele>68</ele>
        <time>2020-12-25T08:14:06.000Z</time>
      </trkpt>
      <trkpt lat="47.1612" lon="-1.69404">
        <ele>68</ele>
        <time>2020-12-25T08:14:08.000Z</time>
      </trkpt>
      <trkpt lat="47.16119" lon="-1.69422">
        <ele>68</ele>
        <time>2020-12-25T08:14:10.000Z</time>
      </trkpt>
      <trkpt lat="47.16117" lon="-1.6944">
        <ele>69</ele>
        <time>2020-12-25T08:14:12.000Z</time>
      </trkpt>
      <trkpt lat="47.16116" lon="-1.69458">
        <ele>69</ele>
        <time>2020-12-25T08:14:14.000Z</time>
      </trkpt>
      <trkpt lat="47.16114" lon="-1.69476">
        <ele>69</ele>
        <time>2020-12-25T08:14:16.000Z</time>
      </trkpt>
      <trkpt lat="47.16113" lon="-1.69493">
        <ele>69</ele>
        <time>2020-12-25T08:14:18.000Z</time>
      </trkpt>
      <trkpt lat="47.16112" lon="-1.6951">
        <ele>69</ele>
        <time>2020-12-25T08:14:20.000Z</time>
      </trkpt>
      <trkpt lat="47.16111" lon="-1.69526">
        <ele>69</ele>
        <time>2020-12-25T08:14:22.000Z</time>
      </trkpt>
      <trkpt lat="47.1611" lon="-1.69543">
        <ele>70</ele>
        <time>2020-12-25T08:14:24.000Z</time>
      </trkpt>
      <trkpt lat="47.16109" lon="-1.6956">
        <ele>70</ele>
        <time>2020-12-25T08:14:26.000Z</time>
      </trkpt>
      <trkpt lat="47.16108" lon="-1.69577">
        <ele>71</ele>
        <time>2020-12-25T08:14:28.000Z</time>
      </trkpt>
      <trkpt lat="47.16107" lon="-1.69594">
        <ele>71</ele>
        <time>2020-12-25T08:14:30.000Z</time>
      </trkpt>
      <trkpt lat="47.16106" lon="-1.69611">
        <ele>71</ele>
        <time>2020-12-25T08:14:32.000Z</time>
      </trkpt>
      <trkpt lat="47.16105" lon="-1.69628">
        <ele>71</ele>
        <time>2020-12-25T08:14:34.000Z</time>
      </trkpt>
      <trkpt lat="47.16104" lon="-1.69646">
        <ele>71</ele>
        <time>2020-12-25T08:14:36.000Z</time>
      </trkpt>
      <trkpt lat="47.16102" lon="-1.69662">
        <ele>71</ele>
        <time>2020-12-25T08:14:38.000Z</time>
      </trkpt>
      <trkpt lat="47.16101" lon="-1.69679">
        <ele>71</ele>
        <time>2020-12-25T08:14:40.000Z</time>
      </trkpt>
      <trkpt lat="47.161" lon="-1.69696">
        <ele>71</ele>
        <time>2020-12-25T08:14:42.000Z</time>
      </trkpt>
      <trkpt lat="47.16099" lon="-1.69713">
        <ele>70</ele>
        <time>2020-12-25T08:14:44.000Z</time>
      </trkpt>
      <trkpt lat="47.16098" lon="-1.6973">
        <ele>70</ele>
        <time>2020-12-25T08:14:46.000Z</time>
      </trkpt>
      <trkpt lat="47.16097" lon="-1.69748">
        <ele>70</ele>
        <time>2020-12-25T08:14:48.000Z</time>
      </trkpt>
      <trkpt lat="47.16095" lon="-1.69765">
        <ele>70</ele>
        <time>2020-12-25T08:14:50.000Z</time>
      </trkpt>
      <trkpt lat="47.16094" lon="-1.69783">
        <ele>70</ele>
        <time>2020-12-25T08:14:52.000Z</time>
      </trkpt>
      <trkpt lat="47.16093" lon="-1.698">
        <ele>70</ele>
        <time>2020-12-25T08:14:54.000Z</time>
      </trkpt>
      <trkpt lat="47.16092" lon="-1.69817">
        <ele>71</ele>
        <time>2020-12-25T08:14:56.000Z</time>
      </trkpt>
      <trkpt lat="47.1609" lon="-1.69834">
        <ele>71</ele>
        <time>2020-12-25T08:14:58.000Z</time>
      </trkpt>
      <trkpt lat="47.1609" lon="-1.69853">
        <ele>71</ele>
        <time>2020-12-25T08:15:00.000Z</time>
      </trkpt>
      <trkpt lat="47.1609" lon="-1.69871">
        <ele>71</ele>
        <time>2020-12-25T08:15:02.000Z</time>
      </trkpt>
      <trkpt lat="47.16089" lon="-1.69888">
        <ele>72</ele>
        <time>2020-12-25T08:15:04.000Z</time>
      </trkpt>
      <trkpt lat="47.16088" lon="-1.69906">
        <ele>72</ele>
        <time>2020-12-25T08:15:06.000Z</time>
      </trkpt>
      <trkpt lat="47.16086" lon="-1.69923">
        <ele>72</ele>
        <time>2020-12-25T08:15:08.000Z</time>
      </trkpt>
      <trkpt lat="47.16085" lon="-1.69942">
        <ele>73</ele>
        <time>2020-12-25T08:15:10.000Z</time>
      </trkpt>
      <trkpt lat="47.16084" lon="-1.6996">
        <ele>73</ele>
        <time>2020-12-25T08:15:12.000Z</time>
      </trkpt>
      <trkpt lat="47.16084" lon="-1.69977">
        <ele>73</ele>
        <time>2020-12-25T08:15:14.000Z</time>
      </trkpt>
      <trkpt lat="47.16084" lon="-1.69995">
        <ele>73</ele>
        <time>2020-12-25T08:15:16.000Z</time>
      </trkpt>
      <trkpt lat="47.16083" lon="-1.70013">
        <ele>74</ele>
        <time>2020-12-25T08:15:18.000Z</time>
      </trkpt>
      <trkpt lat="47.16082" lon="-1.70031">
        <ele>74</ele>
        <time>2020-12-25T08:15:20.000Z</time>
      </trkpt>
      <trkpt lat="47.1608" lon="-1.70051">
        <ele>74</ele>
        <time>2020-12-25T08:15:22.000Z</time>
      </trkpt>
      <trkpt lat="47.16077" lon="-1.70071">
        <ele>74</ele>
        <time>2020-12-25T08:15:24.000Z</time>
      </trkpt>
      <trkpt lat="47.16074" lon="-1.7009">
        <ele>73</ele>
        <time>2020-12-25T08:15:26.000Z</time>
      </trkpt>
      <trkpt lat="47.16071" lon="-1.70108">
        <ele>73</ele>
        <time>2020-12-25T08:15:28.000Z</time>
      </trkpt>
      <trkpt lat="47.16067" lon="-1.70125">
        <ele>72</ele>
        <time>2020-12-25T08:15:30.000Z</time>
      </trkpt>
      <trkpt lat="47.16063" lon="-1.70142">
        <ele>72</ele>
        <time>2020-12-25T08:15:32.000Z</time>
      </trkpt>
      <trkpt lat="47.16057" lon="-1.70159">
        <ele>72</ele>
        <time>2020-12-25T08:15:34.000Z</time>
      </trkpt>
      <trkpt lat="47.1605" lon="-1.70174">
        <ele>72</ele>
        <time>2020-12-25T08:15:36.000Z</time>
      </trkpt>
      <trkpt lat="47.16043" lon="-1.70189">
        <ele>72</ele>
        <time>2020-12-25T08:15:38.000Z</time>
      </trkpt>
      <trkpt lat="47.16037" lon="-1.70204">
        <ele>72</ele>
        <time>2020-12-25T08:15:40.000Z</time>
      </trkpt>
      <trkpt lat="47.16031" lon="-1.70219">
        <ele>72</ele>
        <time>2020-12-25T08:15:42.000Z</time>
      </trkpt>
      <trkpt lat="47.16024" lon="-1.70235">
        <ele>72</ele>
        <time>2020-12-25T08:15:44.000Z</time>
      </trkpt>
      <trkpt lat="47.16017" lon="-1.7025">
        <ele>72</ele>
        <time>2020-12-25T08:15:46.000Z</time>
      </trkpt>
      <trkpt lat="47.16011" lon="-1.70267">
        <ele>72</ele>
        <time>2020-12-25T08:15:48.000Z</time>
      </trkpt>
      <trkpt lat="47.16003" lon="-1.70282">
        <ele>72</ele>
        <time>2020-12-25T08:15:50.000Z</time>
      </trkpt>
      <trkpt lat="47.15996" lon="-1.70297">
        <ele>72</ele>
        <time>2020-12-25T08:15:52.000Z</time>
      </trkpt>
      <trkpt lat="47.15989" lon="-1.70311">
        <ele>73</ele>
        <time>2020-12-25T08:15:54.000Z</time>
      </trkpt>
      <trkpt lat="47.15983" lon="-1.70327">
        <ele>73</ele>
        <time>2020-12-25T08:15:56.000Z</time>
      </trkpt>
      <trkpt lat="47.15976" lon="-1.70342">
        <ele>73</ele>
        <time>2020-12-25T08:15:58.000Z</time>
      </trkpt>
      <trkpt lat="47.15969" lon="-1.70358">
        <ele>73</ele>
        <time>2020-12-25T08:16:00.000Z</time>
      </trkpt>
      <trkpt lat="47.15962" lon="-1.70374">
        <ele>73</ele>
        <time>2020-12-25T08:16:02.000Z</time>
      </trkpt>
      <trkpt lat="47.15955" lon="-1.70389">
        <ele>73</ele>
        <time>2020-12-25T08:16:04.000Z</time>
      </trkpt>
      <trkpt lat="47.15948" lon="-1.70405">
        <ele>73</ele>
        <time>2020-12-25T08:16:06.000Z</time>
      </trkpt>
      <trkpt lat="47.15941" lon="-1.70421">
        <ele>73</ele>
        <time>2020-12-25T08:16:08.000Z</time>
      </trkpt>
      <trkpt lat="47.15934" lon="-1.70436">
        <ele>73</ele>
        <time>2020-12-25T08:16:10.000Z</time>
      </trkpt>
      <trkpt lat="47.15927" lon="-1.70451">
        <ele>72</ele>
        <time>2020-12-25T08:16:12.000Z</time>
      </trkpt>
      <trkpt lat="47.15919" lon="-1.70467">
        <ele>72</ele>
        <time>2020-12-25T08:16:14.000Z</time>
      </trkpt>
      <trkpt lat="47.15912" lon="-1.70482">
        <ele>72</ele>
        <time>2020-12-25T08:16:16.000Z</time>
      </trkpt>
      <trkpt lat="47.15904" lon="-1.70497">
        <ele>71</ele>
        <time>2020-12-25T08:16:18.000Z</time>
      </trkpt>
      <trkpt lat="47.15898" lon="-1.70513">
        <ele>71</ele>
        <time>2020-12-25T08:16:20.000Z</time>
      </trkpt>
      <trkpt lat="47.15892" lon="-1.70529">
        <ele>71</ele>
        <time>2020-12-25T08:16:22.000Z</time>
      </trkpt>
      <trkpt lat="47.15888" lon="-1.70546">
        <ele>70</ele>
        <time>2020-12-25T08:16:24.000Z</time>
      </trkpt>
      <trkpt lat="47.15883" lon="-1.70562">
        <ele>70</ele>
        <time>2020-12-25T08:16:26.000Z</time>
      </trkpt>
      <trkpt lat="47.15878" lon="-1.7058">
        <ele>69</ele>
        <time>2020-12-25T08:16:28.000Z</time>
      </trkpt>
      <trkpt lat="47.15873" lon="-1.70596">
        <ele>69</ele>
        <time>2020-12-25T08:16:30.000Z</time>
      </trkpt>
      <trkpt lat="47.15868" lon="-1.70613">
        <ele>69</ele>
        <time>2020-12-25T08:16:32.000Z</time>
      </trkpt>
      <trkpt lat="47.15863" lon="-1.70629">
        <ele>69</ele>
        <time>2020-12-25T08:16:34.000Z</time>
      </trkpt>
      <trkpt lat="47.15857" lon="-1.70646">
        <ele>69</ele>
        <time>2020-12-25T08:16:36.000Z</time>
      </trkpt>
      <trkpt lat="47.15852" lon="-1.70661">
        <ele>69</ele>
        <time>2020-12-25T08:16:38.000Z</time>
      </trkpt>
      <trkpt lat="47.15846" lon="-1.70676">
        <ele>69</ele>
        <time>2020-12-25T08:16:40.000Z</time>
      </trkpt>
      <trkpt lat="47.1584" lon="-1.7069">
        <ele>70</ele>
        <time>2020-12-25T08:16:42.000Z</time>
      </trkpt>
      <trkpt lat="47.15833" lon="-1.70705">
        <ele>70</ele>
        <time>2020-12-25T08:16:44.000Z</time>
      </trkpt>
      <trkpt lat="47.15826" lon="-1.70721">
        <ele>70</ele>
        <time>2020-12-25T08:16:46.000Z</time>
      </trkpt>
      <trkpt lat="47.15819" lon="-1.70735">
        <ele>70</ele>
        <time>2020-12-25T08:16:48.000Z</time>
      </trkpt>
      <trkpt lat="47.15813" lon="-1.7075">
        <ele>71</ele>
        <time>2020-12-25T08:16:50.000Z</time>
      </trkpt>
      <trkpt lat="47.15806" lon="-1.70765">
        <ele>70</ele>
        <time>2020-12-25T08:16:52.000Z</time>
      </trkpt>
      <trkpt lat="47.15799" lon="-1.70779">
        <ele>70</ele>
        <time>2020-12-25T08:16:54.000Z</time>
      </trkpt>
      <trkpt lat="47.15793" lon="-1.70794">
        <ele>70</ele>
        <time>2020-12-25T08:16:56.000Z</time>
      </trkpt>
      <trkpt lat="47.15786" lon="-1.70808">
        <ele>71</ele>
        <time>2020-12-25T08:16:58.000Z</time>
      </trkpt>
      <trkpt lat="47.15779" lon="-1.70822">
        <ele>71</ele>
        <time>2020-12-25T08:17:00.000Z</time>
      </trkpt>
      <trkpt lat="47.15771" lon="-1.70836">
        <ele>71</ele>
        <time>2020-12-25T08:17:02.000Z</time>
      </trkpt>
      <trkpt lat="47.15764" lon="-1.7085">
        <ele>71</ele>
        <time>2020-12-25T08:17:04.000Z</time>
      </trkpt>
      <trkpt lat="47.15757" lon="-1.70863">
        <ele>71</ele>
        <time>2020-12-25T08:17:06.000Z</time>
      </trkpt>
      <trkpt lat="47.15749" lon="-1.70877">
        <ele>71</ele>
        <time>2020-12-25T08:17:08.000Z</time>
      </trkpt>
      <trkpt lat="47.15742" lon="-1.7089">
        <ele>71</ele>
        <time>2020-12-25T08:17:10.000Z</time>
      </trkpt>
      <trkpt lat="47.15734" lon="-1.70903">
        <ele>71</ele>
        <time>2020-12-25T08:17:12.000Z</time>
      </trkpt>
      <trkpt lat="47.15727" lon="-1.70916">
        <ele>71</ele>
        <time>2020-12-25T08:17:14.000Z</time>
      </trkpt>
      <trkpt lat="47.15719" lon="-1.7093">
        <ele>71</ele>
        <time>2020-12-25T08:17:16.000Z</time>
      </trkpt>
      <trkpt lat="47.15713" lon="-1.70944">
        <ele>71</ele>
        <time>2020-12-25T08:17:18.000Z</time>
      </trkpt>
      <trkpt lat="47.15706" lon="-1.70957">
        <ele>71</ele>
        <time>2020-12-25T08:17:20.000Z</time>
      </trkpt>
      <trkpt lat="47.15699" lon="-1.70971">
        <ele>71</ele>
        <time>2020-12-25T08:17:22.000Z</time>
      </trkpt>
      <trkpt lat="47.15693" lon="-1.70984">
        <ele>71</ele>
        <time>2020-12-25T08:17:24.000Z</time>
      </trkpt>
      <trkpt lat="47.15687" lon="-1.70998">
        <ele>71</ele>
        <time>2020-12-25T08:17:26.000Z</time>
      </trkpt>
      <trkpt lat="47.15681" lon="-1.71012">
        <ele>71</ele>
        <time>2020-12-25T08:17:28.000Z</time>
      </trkpt>
      <trkpt lat="47.15675" lon="-1.71025">
        <ele>71</ele>
        <time>2020-12-25T08:17:30.000Z</time>
      </trkpt>
      <trkpt lat="47.15669" lon="-1.71038">
        <ele>71</ele>
        <time>2020-12-25T08:17:32.000Z</time>
      </trkpt>
      <trkpt lat="47.15663" lon="-1.7105">
        <ele>71</ele>
        <time>2020-12-25T08:17:34.000Z</time>
      </trkpt>
      <trkpt lat="47.15657" lon="-1.71061">
        <ele>71</ele>
        <time>2020-12-25T08:17:36.000Z</time>
      </trkpt>
      <trkpt lat="47.15648" lon="-1.71068">
        <ele>71</ele>
        <time>2020-12-25T08:17:38.000Z</time>
      </trkpt>
      <trkpt lat="47.15637" lon="-1.71076">
        <ele>70</ele>
        <time>2020-12-25T08:17:40.000Z</time>
      </trkpt>
      <trkpt lat="47.15627" lon="-1.71088">
        <ele>71</ele>
        <time>2020-12-25T08:17:42.000Z</time>
      </trkpt>
      <trkpt lat="47.15619" lon="-1.71103">
        <ele>71</ele>
        <time>2020-12-25T08:17:44.000Z</time>
      </trkpt>
      <trkpt lat="47.15611" lon="-1.71118">
        <ele>71</ele>
        <time>2020-12-25T08:17:46.000Z</time>
      </trkpt>
      <trkpt lat="47.15603" lon="-1.71132">
        <ele>70</ele>
        <time>2020-12-25T08:17:48.000Z</time>
      </trkpt>
      <trkpt lat="47.15596" lon="-1.71146">
        <ele>70</ele>
        <time>2020-12-25T08:17:50.000Z</time>
      </trkpt>
      <trkpt lat="47.15588" lon="-1.71159">
        <ele>70</ele>
        <time>2020-12-25T08:17:52.000Z</time>
      </trkpt>
      <trkpt lat="47.1558" lon="-1.71172">
        <ele>70</ele>
        <time>2020-12-25T08:17:54.000Z</time>
      </trkpt>
      <trkpt lat="47.15572" lon="-1.71186">
        <ele>70</ele>
        <time>2020-12-25T08:17:56.000Z</time>
      </trkpt>
      <trkpt lat="47.15564" lon="-1.712">
        <ele>70</ele>
        <time>2020-12-25T08:17:58.000Z</time>
      </trkpt>
      <trkpt lat="47.15557" lon="-1.71215">
        <ele>70</ele>
        <time>2020-12-25T08:18:00.000Z</time>
      </trkpt>
      <trkpt lat="47.1555" lon="-1.71229">
        <ele>71</ele>
        <time>2020-12-25T08:18:02.000Z</time>
      </trkpt>
      <trkpt lat="47.15544" lon="-1.71244">
        <ele>70</ele>
        <time>2020-12-25T08:18:04.000Z</time>
      </trkpt>
      <trkpt lat="47.15538" lon="-1.7126">
        <ele>70</ele>
        <time>2020-12-25T08:18:06.000Z</time>
      </trkpt>
      <trkpt lat="47.15532" lon="-1.71276">
        <ele>70</ele>
        <time>2020-12-25T08:18:08.000Z</time>
      </trkpt>
      <trkpt lat="47.15525" lon="-1.71291">
        <ele>71</ele>
        <time>2020-12-25T08:18:10.000Z</time>
      </trkpt>
      <trkpt lat="47.15518" lon="-1.71306">
        <ele>71</ele>
        <time>2020-12-25T08:18:12.000Z</time>
      </trkpt>
      <trkpt lat="47.15511" lon="-1.71321">
        <ele>71</ele>
        <time>2020-12-25T08:18:14.000Z</time>
      </trkpt>
      <trkpt lat="47.15502" lon="-1.71336">
        <ele>71</ele>
        <time>2020-12-25T08:18:16.000Z</time>
      </trkpt>
      <trkpt lat="47.15493" lon="-1.7135">
        <ele>70</ele>
        <time>2020-12-25T08:18:18.000Z</time>
      </trkpt>
      <trkpt lat="47.15485" lon="-1.71363">
        <ele>70</ele>
        <time>2020-12-25T08:18:20.000Z</time>
      </trkpt>
      <trkpt lat="47.15475" lon="-1.71377">
        <ele>70</ele>
        <time>2020-12-25T08:18:22.000Z</time>
      </trkpt>
      <trkpt lat="47.15466" lon="-1.71389">
        <ele>70</ele>
        <time>2020-12-25T08:18:24.000Z</time>
      </trkpt>
      <trkpt lat="47.15455" lon="-1.714">
        <ele>70</ele>
        <time>2020-12-25T08:18:26.000Z</time>
      </trkpt>
      <trkpt lat="47.15444" lon="-1.71411">
        <ele>70</ele>
        <time>2020-12-25T08:18:28.000Z</time>
      </trkpt>
      <trkpt lat="47.15434" lon="-1.71422">
        <ele>70</ele>
        <time>2020-12-25T08:18:30.000Z</time>
      </trkpt>
      <trkpt lat="47.15423" lon="-1.71432">
        <ele>70</ele>
        <time>2020-12-25T08:18:32.000Z</time>
      </trkpt>
      <trkpt lat="47.15413" lon="-1.71442">
        <ele>70</ele>
        <time>2020-12-25T08:18:34.000Z</time>
      </trkpt>
      <trkpt lat="47.15402" lon="-1.71452">
        <ele>70</ele>
        <time>2020-12-25T08:18:36.000Z</time>
      </trkpt>
      <trkpt lat="47.15391" lon="-1.71461">
        <ele>69</ele>
        <time>2020-12-25T08:18:38.000Z</time>
      </trkpt>
      <trkpt lat="47.1538" lon="-1.71471">
        <ele>69</ele>
        <time>2020-12-25T08:18:40.000Z</time>
      </trkpt>
      <trkpt lat="47.15369" lon="-1.71481">
        <ele>70</ele>
        <time>2020-12-25T08:18:42.000Z</time>
      </trkpt>
      <trkpt lat="47.15358" lon="-1.71491">
        <ele>70</ele>
        <time>2020-12-25T08:18:44.000Z</time>
      </trkpt>
      <trkpt lat="47.15346" lon="-1.71504">
        <ele>69</ele>
        <time>2020-12-25T08:18:46.000Z</time>
      </trkpt>
      <trkpt lat="47.15336" lon="-1.71514">
        <ele>69</ele>
        <time>2020-12-25T08:18:48.000Z</time>
      </trkpt>
      <trkpt lat="47.15326" lon="-1.71526">
        <ele>68</ele>
        <time>2020-12-25T08:18:50.000Z</time>
      </trkpt>
      <trkpt lat="47.15315" lon="-1.71537">
        <ele>69</ele>
        <time>2020-12-25T08:18:52.000Z</time>
      </trkpt>
      <trkpt lat="47.15305" lon="-1.71548">
        <ele>69</ele>
        <time>2020-12-25T08:18:54.000Z</time>
      </trkpt>
      <trkpt lat="47.15295" lon="-1.7156">
        <ele>68</ele>
        <time>2020-12-25T08:18:56.000Z</time>
      </trkpt>
      <trkpt lat="47.15284" lon="-1.71571">
        <ele>69</ele>
        <time>2020-12-25T08:18:58.000Z</time>
      </trkpt>
      <trkpt lat="47.15273" lon="-1.71583">
        <ele>68</ele>
        <time>2020-12-25T08:19:00.000Z</time>
      </trkpt>
      <trkpt lat="47.15263" lon="-1.71594">
        <ele>68</ele>
        <time>2020-12-25T08:19:02.000Z</time>
      </trkpt>
      <trkpt lat="47.15253" lon="-1.71606">
        <ele>67</ele>
        <time>2020-12-25T08:19:04.000Z</time>
      </trkpt>
      <trkpt lat="47.15245" lon="-1.71619">
        <ele>67</ele>
        <time>2020-12-25T08:19:06.000Z</time>
      </trkpt>
      <trkpt lat="47.15232" lon="-1.71625">
        <ele>67</ele>
        <time>2020-12-25T08:19:08.000Z</time>
      </trkpt>
      <trkpt lat="47.15221" lon="-1.71618">
        <ele>67</ele>
        <time>2020-12-25T08:19:10.000Z</time>
      </trkpt>
      <trkpt lat="47.15209" lon="-1.71609">
        <ele>68</ele>
        <time>2020-12-25T08:19:12.000Z</time>
      </trkpt>
      <trkpt lat="47.15199" lon="-1.71602">
        <ele>68</ele>
        <time>2020-12-25T08:19:14.000Z</time>
      </trkpt>
      <trkpt lat="47.15187" lon="-1.71594">
        <ele>68</ele>
        <time>2020-12-25T08:19:16.000Z</time>
      </trkpt>
      <trkpt lat="47.15176" lon="-1.71586">
        <ele>68</ele>
        <time>2020-12-25T08:19:18.000Z</time>
      </trkpt>
      <trkpt lat="47.15165" lon="-1.71577">
        <ele>68</ele>
        <time>2020-12-25T08:19:20.000Z</time>
      </trkpt>
      <trkpt lat="47.15153" lon="-1.71568">
        <ele>69</ele>
        <time>2020-12-25T08:19:22.000Z</time>
      </trkpt>
      <trkpt lat="47.15142" lon="-1.71559">
        <ele>69</ele>
        <time>2020-12-25T08:19:24.000Z</time>
      </trkpt>
      <trkpt lat="47.15131" lon="-1.7155">
        <ele>69</ele>
        <time>2020-12-25T08:19:26.000Z</time>
      </trkpt>
      <trkpt lat="47.1512" lon="-1.7154">
        <ele>69</ele>
        <time>2020-12-25T08:19:28.000Z</time>
      </trkpt>
      <trkpt lat="47.1511" lon="-1.71532">
        <ele>69</ele>
        <time>2020-12-25T08:19:30.000Z</time>
      </trkpt>
      <trkpt lat="47.151" lon="-1.71522">
        <ele>69</ele>
        <time>2020-12-25T08:19:32.000Z</time>
      </trkpt>
      <trkpt lat="47.15089" lon="-1.71513">
        <ele>69</ele>
        <time>2020-12-25T08:19:34.000Z</time>
      </trkpt>
      <trkpt lat="47.15079" lon="-1.71503">
        <ele>69</ele>
        <time>2020-12-25T08:19:36.000Z</time>
      </trkpt>
      <trkpt lat="47.15068" lon="-1.71492">
        <ele>69</ele>
        <time>2020-12-25T08:19:38.000Z</time>
      </trkpt>
      <trkpt lat="47.15058" lon="-1.71481">
        <ele>70</ele>
        <time>2020-12-25T08:19:40.000Z</time>
      </trkpt>
      <trkpt lat="47.15047" lon="-1.71472">
        <ele>69</ele>
        <time>2020-12-25T08:19:42.000Z</time>
      </trkpt>
      <trkpt lat="47.15037" lon="-1.7146">
        <ele>70</ele>
        <time>2020-12-25T08:19:44.000Z</time>
      </trkpt>
      <trkpt lat="47.15026" lon="-1.7145">
        <ele>70</ele>
        <time>2020-12-25T08:19:46.000Z</time>
      </trkpt>
      <trkpt lat="47.15016" lon="-1.71439">
        <ele>71</ele>
        <time>2020-12-25T08:19:48.000Z</time>
      </trkpt>
      <trkpt lat="47.15006" lon="-1.7143">
        <ele>71</ele>
        <time>2020-12-25T08:19:50.000Z</time>
      </trkpt>
      <trkpt lat="47.14996" lon="-1.7142">
        <ele>71</ele>
        <time>2020-12-25T08:19:52.000Z</time>
      </trkpt>
      <trkpt lat="47.14985" lon="-1.7141">
        <ele>71</ele>
        <time>2020-12-25T08:19:54.000Z</time>
      </trkpt>
      <trkpt lat="47.14975" lon="-1.714">
        <ele>72</ele>
        <time>2020-12-25T08:19:56.000Z</time>
      </trkpt>
      <trkpt lat="47.14965" lon="-1.71389">
        <ele>71</ele>
        <time>2020-12-25T08:19:58.000Z</time>
      </trkpt>
      <trkpt lat="47.14955" lon="-1.71379">
        <ele>72</ele>
        <time>2020-12-25T08:20:00.000Z</time>
      </trkpt>
      <trkpt lat="47.14945" lon="-1.71368">
        <ele>72</ele>
        <time>2020-12-25T08:20:02.000Z</time>
      </trkpt>
      <trkpt lat="47.14935" lon="-1.71355">
        <ele>72</ele>
        <time>2020-12-25T08:20:04.000Z</time>
      </trkpt>
      <trkpt lat="47.14926" lon="-1.71344">
        <ele>72</ele>
        <time>2020-12-25T08:20:06.000Z</time>
      </trkpt>
      <trkpt lat="47.14917" lon="-1.71332">
        <ele>72</ele>
        <time>2020-12-25T08:20:08.000Z</time>
      </trkpt>
      <trkpt lat="47.14907" lon="-1.71321">
        <ele>73</ele>
        <time>2020-12-25T08:20:10.000Z</time>
      </trkpt>
      <trkpt lat="47.14898" lon="-1.71309">
        <ele>73</ele>
        <time>2020-12-25T08:20:12.000Z</time>
      </trkpt>
      <trkpt lat="47.14888" lon="-1.71298">
        <ele>73</ele>
        <time>2020-12-25T08:20:14.000Z</time>
      </trkpt>
      <trkpt lat="47.14878" lon="-1.71288">
        <ele>73</ele>
        <time>2020-12-25T08:20:16.000Z</time>
      </trkpt>
      <trkpt lat="47.14868" lon="-1.71279">
        <ele>74</ele>
        <time>2020-12-25T08:20:18.000Z</time>
      </trkpt>
      <trkpt lat="47.14858" lon="-1.71268">
        <ele>74</ele>
        <time>2020-12-25T08:20:20.000Z</time>
      </trkpt>
      <trkpt lat="47.1485" lon="-1.71254">
        <ele>73</ele>
        <time>2020-12-25T08:20:22.000Z</time>
      </trkpt>
      <trkpt lat="47.14843" lon="-1.71239">
        <ele>73</ele>
        <time>2020-12-25T08:20:24.000Z</time>
      </trkpt>
      <trkpt lat="47.14837" lon="-1.71223">
        <ele>72</ele>
        <time>2020-12-25T08:20:26.000Z</time>
      </trkpt>
      <trkpt lat="47.1483" lon="-1.71207">
        <ele>72</ele>
        <time>2020-12-25T08:20:28.000Z</time>
      </trkpt>
      <trkpt lat="47.14824" lon="-1.71192">
        <ele>72</ele>
        <time>2020-12-25T08:20:30.000Z</time>
      </trkpt>
      <trkpt lat="47.14818" lon="-1.71176">
        <ele>72</ele>
        <time>2020-12-25T08:20:32.000Z</time>
      </trkpt>
      <trkpt lat="47.14812" lon="-1.7116">
        <ele>72</ele>
        <time>2020-12-25T08:20:34.000Z</time>
      </trkpt>
      <trkpt lat="47.14807" lon="-1.71142">
        <ele>73</ele>
        <time>2020-12-25T08:20:36.000Z</time>
      </trkpt>
      <trkpt lat="47.148" lon="-1.71126">
        <ele>73</ele>
        <time>2020-12-25T08:20:38.000Z</time>
      </trkpt>
      <trkpt lat="47.14793" lon="-1.71112">
        <ele>73</ele>
        <time>2020-12-25T08:20:40.000Z</time>
      </trkpt>
      <trkpt lat="47.14785" lon="-1.71098">
        <ele>73</ele>
        <time>2020-12-25T08:20:42.000Z</time>
      </trkpt>
      <trkpt lat="47.14778" lon="-1.71081">
        <ele>72</ele>
        <time>2020-12-25T08:20:44.000Z</time>
      </trkpt>
      <trkpt lat="47.14772" lon="-1.71064">
        <ele>71</ele>
        <time>2020-12-25T08:20:46.000Z</time>
      </trkpt>
      <trkpt lat="47.14767" lon="-1.71047">
        <ele>71</ele>
        <time>2020-12-25T08:20:48.000Z</time>
      </trkpt>
      <trkpt lat="47.14762" lon="-1.71029">
        <ele>71</ele>
        <time>2020-12-25T08:20:50.000Z</time>
      </trkpt>
      <trkpt lat="47.14757" lon="-1.71011">
        <ele>71</ele>
        <time>2020-12-25T08:20:52.000Z</time>
      </trkpt>
      <trkpt lat="47.14753" lon="-1.70994">
        <ele>71</ele>
        <time>2020-12-25T08:20:54.000Z</time>
      </trkpt>
      <trkpt lat="47.14745" lon="-1.70983">
        <ele>71</ele>
        <time>2020-12-25T08:20:56.000Z</time>
      </trkpt>
      <trkpt lat="47.14734" lon="-1.70985">
        <ele>71</ele>
        <time>2020-12-25T08:20:58.000Z</time>
      </trkpt>
      <trkpt lat="47.14725" lon="-1.70997">
        <ele>71</ele>
        <time>2020-12-25T08:21:00.000Z</time>
      </trkpt>
      <trkpt lat="47.14718" lon="-1.71012">
        <ele>71</ele>
        <time>2020-12-25T08:21:02.000Z</time>
      </trkpt>
      <trkpt lat="47.14713" lon="-1.71028">
        <ele>70</ele>
        <time>2020-12-25T08:21:04.000Z</time>
      </trkpt>
      <trkpt lat="47.14713" lon="-1.71046">
        <ele>70</ele>
        <time>2020-12-25T08:21:06.000Z</time>
      </trkpt>
      <trkpt lat="47.14715" lon="-1.71064">
        <ele>70</ele>
        <time>2020-12-25T08:21:08.000Z</time>
      </trkpt>
      <trkpt lat="47.14717" lon="-1.7108">
        <ele>70</ele>
        <time>2020-12-25T08:21:10.000Z</time>
      </trkpt>
      <trkpt lat="47.14719" lon="-1.71098">
        <ele>70</ele>
        <time>2020-12-25T08:21:12.000Z</time>
      </trkpt>
      <trkpt lat="47.14722" lon="-1.71115">
        <ele>70</ele>
        <time>2020-12-25T08:21:14.000Z</time>
      </trkpt>
      <trkpt lat="47.14724" lon="-1.71133">
        <ele>70</ele>
        <time>2020-12-25T08:21:16.000Z</time>
      </trkpt>
      <trkpt lat="47.14727" lon="-1.7115">
        <ele>70</ele>
        <time>2020-12-25T08:21:18.000Z</time>
      </trkpt>
      <trkpt lat="47.1473" lon="-1.71167">
        <ele>70</ele>
        <time>2020-12-25T08:21:20.000Z</time>
      </trkpt>
      <trkpt lat="47.14734" lon="-1.71184">
        <ele>71</ele>
        <time>2020-12-25T08:21:22.000Z</time>
      </trkpt>
      <trkpt lat="47.14738" lon="-1.71201">
        <ele>71</ele>
        <time>2020-12-25T08:21:24.000Z</time>
      </trkpt>
      <trkpt lat="47.14743" lon="-1.71217">
        <ele>71</ele>
        <time>2020-12-25T08:21:26.000Z</time>
      </trkpt>
      <trkpt lat="47.14747" lon="-1.71234">
        <ele>71</ele>
        <time>2020-12-25T08:21:28.000Z</time>
      </trkpt>
      <trkpt lat="47.14752" lon="-1.7125">
        <ele>71</ele>
        <time>2020-12-25T08:21:30.000Z</time>
      </trkpt>
      <trkpt lat="47.14756" lon="-1.71265">
        <ele>71</ele>
        <time>2020-12-25T08:21:32.000Z</time>
      </trkpt>
      <trkpt lat="47.14761" lon="-1.71282">
        <ele>72</ele>
        <time>2020-12-25T08:21:34.000Z</time>
      </trkpt>
      <trkpt lat="47.14764" lon="-1.71298">
        <ele>72</ele>
        <time>2020-12-25T08:21:36.000Z</time>
      </trkpt>
      <trkpt lat="47.14766" lon="-1.71314">
        <ele>72</ele>
        <time>2020-12-25T08:21:38.000Z</time>
      </trkpt>
      <trkpt lat="47.14771" lon="-1.71339">
        <ele>72</ele>
        <time>2020-12-25T08:21:41.000Z</time>
      </trkpt>
      <trkpt lat="47.14774" lon="-1.71355">
        <ele>72</ele>
        <time>2020-12-25T08:21:43.000Z</time>
      </trkpt>
      <trkpt lat="47.14776" lon="-1.71372">
        <ele>72</ele>
        <time>2020-12-25T08:21:45.000Z</time>
      </trkpt>
      <trkpt lat="47.14779" lon="-1.71389">
        <ele>72</ele>
        <time>2020-12-25T08:21:47.000Z</time>
      </trkpt>
      <trkpt lat="47.14781" lon="-1.71406">
        <ele>73</ele>
        <time>2020-12-25T08:21:49.000Z</time>
      </trkpt>
      <trkpt lat="47.14784" lon="-1.71423">
        <ele>73</ele>
        <time>2020-12-25T08:21:51.000Z</time>
      </trkpt>
      <trkpt lat="47.14786" lon="-1.7144">
        <ele>74</ele>
        <time>2020-12-25T08:21:53.000Z</time>
      </trkpt>
      <trkpt lat="47.14788" lon="-1.71457">
        <ele>74</ele>
        <time>2020-12-25T08:21:55.000Z</time>
      </trkpt>
      <trkpt lat="47.1479" lon="-1.71474">
        <ele>74</ele>
        <time>2020-12-25T08:21:57.000Z</time>
      </trkpt>
      <trkpt lat="47.14793" lon="-1.7149">
        <ele>74</ele>
        <time>2020-12-25T08:21:59.000Z</time>
      </trkpt>
      <trkpt lat="47.14795" lon="-1.71507">
        <ele>73</ele>
        <time>2020-12-25T08:22:01.000Z</time>
      </trkpt>
      <trkpt lat="47.14795" lon="-1.71524">
        <ele>73</ele>
        <time>2020-12-25T08:22:03.000Z</time>
      </trkpt>
      <trkpt lat="47.14796" lon="-1.71541">
        <ele>73</ele>
        <time>2020-12-25T08:22:05.000Z</time>
      </trkpt>
      <trkpt lat="47.14795" lon="-1.71559">
        <ele>73</ele>
        <time>2020-12-25T08:22:07.000Z</time>
      </trkpt>
      <trkpt lat="47.14794" lon="-1.71575">
        <ele>73</ele>
        <time>2020-12-25T08:22:09.000Z</time>
      </trkpt>
      <trkpt lat="47.14791" lon="-1.71593">
        <ele>74</ele>
        <time>2020-12-25T08:22:11.000Z</time>
      </trkpt>
      <trkpt lat="47.14788" lon="-1.7161">
        <ele>74</ele>
        <time>2020-12-25T08:22:13.000Z</time>
      </trkpt>
      <trkpt lat="47.14786" lon="-1.71626">
        <ele>74</ele>
        <time>2020-12-25T08:22:15.000Z</time>
      </trkpt>
      <trkpt lat="47.14783" lon="-1.71643">
        <ele>74</ele>
        <time>2020-12-25T08:22:17.000Z</time>
      </trkpt>
      <trkpt lat="47.14781" lon="-1.71659">
        <ele>74</ele>
        <time>2020-12-25T08:22:19.000Z</time>
      </trkpt>
      <trkpt lat="47.14778" lon="-1.71676">
        <ele>74</ele>
        <time>2020-12-25T08:22:21.000Z</time>
      </trkpt>
      <trkpt lat="47.14773" lon="-1.71701">
        <ele>74</ele>
        <time>2020-12-25T08:22:24.000Z</time>
      </trkpt>
      <trkpt lat="47.14771" lon="-1.71718">
        <ele>75</ele>
        <time>2020-12-25T08:22:26.000Z</time>
      </trkpt>
      <trkpt lat="47.14768" lon="-1.71734">
        <ele>75</ele>
        <time>2020-12-25T08:22:28.000Z</time>
      </trkpt>
      <trkpt lat="47.14766" lon="-1.71751">
        <ele>75</ele>
        <time>2020-12-25T08:22:30.000Z</time>
      </trkpt>
      <trkpt lat="47.14762" lon="-1.71766">
        <ele>75</ele>
        <time>2020-12-25T08:22:32.000Z</time>
      </trkpt>
      <trkpt lat="47.14757" lon="-1.71782">
        <ele>75</ele>
        <time>2020-12-25T08:22:34.000Z</time>
      </trkpt>
      <trkpt lat="47.1475" lon="-1.71795">
        <ele>75</ele>
        <time>2020-12-25T08:22:36.000Z</time>
      </trkpt>
      <trkpt lat="47.14737" lon="-1.71812">
        <ele>74</ele>
        <time>2020-12-25T08:22:39.000Z</time>
      </trkpt>
      <trkpt lat="47.14726" lon="-1.7182">
        <ele>74</ele>
        <time>2020-12-25T08:22:41.000Z</time>
      </trkpt>
      <trkpt lat="47.14714" lon="-1.71827">
        <ele>74</ele>
        <time>2020-12-25T08:22:43.000Z</time>
      </trkpt>
      <trkpt lat="47.14702" lon="-1.71833">
        <ele>73</ele>
        <time>2020-12-25T08:22:45.000Z</time>
      </trkpt>
      <trkpt lat="47.1469" lon="-1.71839">
        <ele>73</ele>
        <time>2020-12-25T08:22:47.000Z</time>
      </trkpt>
      <trkpt lat="47.14678" lon="-1.71845">
        <ele>73</ele>
        <time>2020-12-25T08:22:49.000Z</time>
      </trkpt>
      <trkpt lat="47.14665" lon="-1.71851">
        <ele>72</ele>
        <time>2020-12-25T08:22:51.000Z</time>
      </trkpt>
      <trkpt lat="47.14653" lon="-1.71855">
        <ele>72</ele>
        <time>2020-12-25T08:22:53.000Z</time>
      </trkpt>
      <trkpt lat="47.1464" lon="-1.71857">
        <ele>72</ele>
        <time>2020-12-25T08:22:55.000Z</time>
      </trkpt>
      <trkpt lat="47.14627" lon="-1.71858">
        <ele>72</ele>
        <time>2020-12-25T08:22:57.000Z</time>
      </trkpt>
      <trkpt lat="47.14614" lon="-1.71856">
        <ele>72</ele>
        <time>2020-12-25T08:22:59.000Z</time>
      </trkpt>
      <trkpt lat="47.14594" lon="-1.7185">
        <ele>72</ele>
        <time>2020-12-25T08:23:02.000Z</time>
      </trkpt>
      <trkpt lat="47.14574" lon="-1.71841">
        <ele>72</ele>
        <time>2020-12-25T08:23:05.000Z</time>
      </trkpt>
      <trkpt lat="47.14562" lon="-1.71835">
        <ele>71</ele>
        <time>2020-12-25T08:23:07.000Z</time>
      </trkpt>
      <trkpt lat="47.14548" lon="-1.71828">
        <ele>71</ele>
        <time>2020-12-25T08:23:09.000Z</time>
      </trkpt>
      <trkpt lat="47.14535" lon="-1.71821">
        <ele>71</ele>
        <time>2020-12-25T08:23:11.000Z</time>
      </trkpt>
      <trkpt lat="47.14522" lon="-1.71815">
        <ele>71</ele>
        <time>2020-12-25T08:23:13.000Z</time>
      </trkpt>
      <trkpt lat="47.14509" lon="-1.71809">
        <ele>71</ele>
        <time>2020-12-25T08:23:15.000Z</time>
      </trkpt>
      <trkpt lat="47.14489" lon="-1.718">
        <ele>71</ele>
        <time>2020-12-25T08:23:18.000Z</time>
      </trkpt>
      <trkpt lat="47.14475" lon="-1.71794">
        <ele>71</ele>
        <time>2020-12-25T08:23:20.000Z</time>
      </trkpt>
      <trkpt lat="47.14461" lon="-1.71788">
        <ele>71</ele>
        <time>2020-12-25T08:23:22.000Z</time>
      </trkpt>
      <trkpt lat="47.14447" lon="-1.71784">
        <ele>71</ele>
        <time>2020-12-25T08:23:24.000Z</time>
      </trkpt>
      <trkpt lat="47.14426" lon="-1.71781">
        <ele>71</ele>
        <time>2020-12-25T08:23:27.000Z</time>
      </trkpt>
      <trkpt lat="47.14411" lon="-1.71781">
        <ele>71</ele>
        <time>2020-12-25T08:23:29.000Z</time>
      </trkpt>
      <trkpt lat="47.14397" lon="-1.71784">
        <ele>71</ele>
        <time>2020-12-25T08:23:31.000Z</time>
      </trkpt>
      <trkpt lat="47.14382" lon="-1.71788">
        <ele>71</ele>
        <time>2020-12-25T08:23:33.000Z</time>
      </trkpt>
      <trkpt lat="47.14368" lon="-1.71793">
        <ele>71</ele>
        <time>2020-12-25T08:23:35.000Z</time>
      </trkpt>
      <trkpt lat="47.14354" lon="-1.71798">
        <ele>70</ele>
        <time>2020-12-25T08:23:37.000Z</time>
      </trkpt>
      <trkpt lat="47.14333" lon="-1.71805">
        <ele>70</ele>
        <time>2020-12-25T08:23:40.000Z</time>
      </trkpt>
      <trkpt lat="47.14319" lon="-1.71809">
        <ele>70</ele>
        <time>2020-12-25T08:23:42.000Z</time>
      </trkpt>
      <trkpt lat="47.14305" lon="-1.71813">
        <ele>70</ele>
        <time>2020-12-25T08:23:44.000Z</time>
      </trkpt>
      <trkpt lat="47.1429" lon="-1.71818">
        <ele>70</ele>
        <time>2020-12-25T08:23:46.000Z</time>
      </trkpt>
      <trkpt lat="47.14276" lon="-1.71822">
        <ele>69</ele>
        <time>2020-12-25T08:23:48.000Z</time>
      </trkpt>
      <trkpt lat="47.14262" lon="-1.71828">
        <ele>68</ele>
        <time>2020-12-25T08:23:50.000Z</time>
      </trkpt>
      <trkpt lat="47.14248" lon="-1.71832">
        <ele>69</ele>
        <time>2020-12-25T08:23:52.000Z</time>
      </trkpt>
      <trkpt lat="47.14234" lon="-1.71837">
        <ele>68</ele>
        <time>2020-12-25T08:23:54.000Z</time>
      </trkpt>
      <trkpt lat="47.14219" lon="-1.71842">
        <ele>68</ele>
        <time>2020-12-25T08:23:56.000Z</time>
      </trkpt>
      <trkpt lat="47.14205" lon="-1.71847">
        <ele>67</ele>
        <time>2020-12-25T08:23:58.000Z</time>
      </trkpt>
      <trkpt lat="47.14191" lon="-1.71851">
        <ele>66</ele>
        <time>2020-12-25T08:24:00.000Z</time>
      </trkpt>
      <trkpt lat="47.14176" lon="-1.71856">
        <ele>66</ele>
        <time>2020-12-25T08:24:02.000Z</time>
      </trkpt>
      <trkpt lat="47.14161" lon="-1.71861">
        <ele>65</ele>
        <time>2020-12-25T08:24:04.000Z</time>
      </trkpt>
      <trkpt lat="47.14146" lon="-1.71866">
        <ele>64</ele>
        <time>2020-12-25T08:24:06.000Z</time>
      </trkpt>
      <trkpt lat="47.14131" lon="-1.71871">
        <ele>64</ele>
        <time>2020-12-25T08:24:08.000Z</time>
      </trkpt>
      <trkpt lat="47.14114" lon="-1.71876">
        <ele>63</ele>
        <time>2020-12-25T08:24:10.000Z</time>
      </trkpt>
      <trkpt lat="47.14098" lon="-1.71881">
        <ele>62</ele>
        <time>2020-12-25T08:24:12.000Z</time>
      </trkpt>
      <trkpt lat="47.14081" lon="-1.71887">
        <ele>61</ele>
        <time>2020-12-25T08:24:14.000Z</time>
      </trkpt>
      <trkpt lat="47.14064" lon="-1.71892">
        <ele>60</ele>
        <time>2020-12-25T08:24:16.000Z</time>
      </trkpt>
      <trkpt lat="47.14048" lon="-1.71898">
        <ele>59</ele>
        <time>2020-12-25T08:24:18.000Z</time>
      </trkpt>
      <trkpt lat="47.14031" lon="-1.71903">
        <ele>59</ele>
        <time>2020-12-25T08:24:20.000Z</time>
      </trkpt>
      <trkpt lat="47.14014" lon="-1.71905">
        <ele>58</ele>
        <time>2020-12-25T08:24:22.000Z</time>
      </trkpt>
      <trkpt lat="47.14005" lon="-1.71904">
        <ele>57</ele>
        <time>2020-12-25T08:24:23.000Z</time>
      </trkpt>
      <trkpt lat="47.13996" lon="-1.71901">
        <ele>56</ele>
        <time>2020-12-25T08:24:24.000Z</time>
      </trkpt>
      <trkpt lat="47.13979" lon="-1.719">
        <ele>55</ele>
        <time>2020-12-25T08:24:26.000Z</time>
      </trkpt>
      <trkpt lat="47.13968" lon="-1.71916">
        <ele>55</ele>
        <time>2020-12-25T08:24:28.000Z</time>
      </trkpt>
      <trkpt lat="47.13968" lon="-1.71938">
        <ele>55</ele>
        <time>2020-12-25T08:24:30.000Z</time>
      </trkpt>
      <trkpt lat="47.13965" lon="-1.71957">
        <ele>56</ele>
        <time>2020-12-25T08:24:32.000Z</time>
      </trkpt>
      <trkpt lat="47.13957" lon="-1.71971">
        <ele>56</ele>
        <time>2020-12-25T08:24:34.000Z</time>
      </trkpt>
      <trkpt lat="47.13944" lon="-1.71979">
        <ele>56</ele>
        <time>2020-12-25T08:24:36.000Z</time>
      </trkpt>
      <trkpt lat="47.13932" lon="-1.71985">
        <ele>57</ele>
        <time>2020-12-25T08:24:38.000Z</time>
      </trkpt>
      <trkpt lat="47.1392" lon="-1.71991">
        <ele>57</ele>
        <time>2020-12-25T08:24:40.000Z</time>
      </trkpt>
      <trkpt lat="47.13908" lon="-1.71997">
        <ele>57</ele>
        <time>2020-12-25T08:24:42.000Z</time>
      </trkpt>
      <trkpt lat="47.13897" lon="-1.72004">
        <ele>58</ele>
        <time>2020-12-25T08:24:44.000Z</time>
      </trkpt>
      <trkpt lat="47.13886" lon="-1.72011">
        <ele>58</ele>
        <time>2020-12-25T08:24:46.000Z</time>
      </trkpt>
      <trkpt lat="47.13877" lon="-1.72021">
        <ele>58</ele>
        <time>2020-12-25T08:24:48.000Z</time>
      </trkpt>
      <trkpt lat="47.13867" lon="-1.72032">
        <ele>58</ele>
        <time>2020-12-25T08:24:50.000Z</time>
      </trkpt>
      <trkpt lat="47.13859" lon="-1.72045">
        <ele>57</ele>
        <time>2020-12-25T08:24:52.000Z</time>
      </trkpt>
      <trkpt lat="47.13851" lon="-1.72058">
        <ele>57</ele>
        <time>2020-12-25T08:24:54.000Z</time>
      </trkpt>
      <trkpt lat="47.13843" lon="-1.7207">
        <ele>57</ele>
        <time>2020-12-25T08:24:56.000Z</time>
      </trkpt>
      <trkpt lat="47.13835" lon="-1.72083">
        <ele>58</ele>
        <time>2020-12-25T08:24:58.000Z</time>
      </trkpt>
      <trkpt lat="47.13827" lon="-1.72096">
        <ele>58</ele>
        <time>2020-12-25T08:25:00.000Z</time>
      </trkpt>
      <trkpt lat="47.1382" lon="-1.72108">
        <ele>59</ele>
        <time>2020-12-25T08:25:02.000Z</time>
      </trkpt>
      <trkpt lat="47.13812" lon="-1.72122">
        <ele>58</ele>
        <time>2020-12-25T08:25:04.000Z</time>
      </trkpt>
      <trkpt lat="47.13804" lon="-1.72135">
        <ele>59</ele>
        <time>2020-12-25T08:25:06.000Z</time>
      </trkpt>
      <trkpt lat="47.13796" lon="-1.72147">
        <ele>59</ele>
        <time>2020-12-25T08:25:08.000Z</time>
      </trkpt>
      <trkpt lat="47.13789" lon="-1.7216">
        <ele>60</ele>
        <time>2020-12-25T08:25:10.000Z</time>
      </trkpt>
      <trkpt lat="47.13781" lon="-1.72173">
        <ele>60</ele>
        <time>2020-12-25T08:25:12.000Z</time>
      </trkpt>
      <trkpt lat="47.13774" lon="-1.72184">
        <ele>60</ele>
        <time>2020-12-25T08:25:14.000Z</time>
      </trkpt>
      <trkpt lat="47.13767" lon="-1.72196">
        <ele>60</ele>
        <time>2020-12-25T08:25:16.000Z</time>
      </trkpt>
      <trkpt lat="47.1376" lon="-1.7221">
        <ele>60</ele>
        <time>2020-12-25T08:25:18.000Z</time>
      </trkpt>
      <trkpt lat="47.13754" lon="-1.72223">
        <ele>60</ele>
        <time>2020-12-25T08:25:20.000Z</time>
      </trkpt>
      <trkpt lat="47.13747" lon="-1.72235">
        <ele>60</ele>
        <time>2020-12-25T08:25:22.000Z</time>
      </trkpt>
      <trkpt lat="47.13743" lon="-1.7225">
        <ele>60</ele>
        <time>2020-12-25T08:25:24.000Z</time>
      </trkpt>
      <trkpt lat="47.1374" lon="-1.72265">
        <ele>61</ele>
        <time>2020-12-25T08:25:26.000Z</time>
      </trkpt>
      <trkpt lat="47.13737" lon="-1.72282">
        <ele>62</ele>
        <time>2020-12-25T08:25:28.000Z</time>
      </trkpt>
      <trkpt lat="47.13735" lon="-1.72298">
        <ele>62</ele>
        <time>2020-12-25T08:25:30.000Z</time>
      </trkpt>
      <trkpt lat="47.13734" lon="-1.72313">
        <ele>62</ele>
        <time>2020-12-25T08:25:32.000Z</time>
      </trkpt>
      <trkpt lat="47.13732" lon="-1.72328">
        <ele>63</ele>
        <time>2020-12-25T08:25:34.000Z</time>
      </trkpt>
      <trkpt lat="47.1373" lon="-1.72343">
        <ele>64</ele>
        <time>2020-12-25T08:25:36.000Z</time>
      </trkpt>
      <trkpt lat="47.13728" lon="-1.72358">
        <ele>66</ele>
        <time>2020-12-25T08:25:38.000Z</time>
      </trkpt>
      <trkpt lat="47.13724" lon="-1.72373">
        <ele>66</ele>
        <time>2020-12-25T08:25:40.000Z</time>
      </trkpt>
      <trkpt lat="47.1372" lon="-1.72387">
        <ele>67</ele>
        <time>2020-12-25T08:25:42.000Z</time>
      </trkpt>
      <trkpt lat="47.13716" lon="-1.72402">
        <ele>68</ele>
        <time>2020-12-25T08:25:44.000Z</time>
      </trkpt>
      <trkpt lat="47.13712" lon="-1.72417">
        <ele>69</ele>
        <time>2020-12-25T08:25:46.000Z</time>
      </trkpt>
      <trkpt lat="47.13708" lon="-1.72432">
        <ele>69</ele>
        <time>2020-12-25T08:25:48.000Z</time>
      </trkpt>
      <trkpt lat="47.13704" lon="-1.72447">
        <ele>69</ele>
        <time>2020-12-25T08:25:50.000Z</time>
      </trkpt>
      <trkpt lat="47.137" lon="-1.72462">
        <ele>69</ele>
        <time>2020-12-25T08:25:52.000Z</time>
      </trkpt>
      <trkpt lat="47.13696" lon="-1.72477">
        <ele>69</ele>
        <time>2020-12-25T08:25:54.000Z</time>
      </trkpt>
      <trkpt lat="47.13692" lon="-1.72492">
        <ele>69</ele>
        <time>2020-12-25T08:25:56.000Z</time>
      </trkpt>
      <trkpt lat="47.13688" lon="-1.72507">
        <ele>69</ele>
        <time>2020-12-25T08:25:58.000Z</time>
      </trkpt>
      <trkpt lat="47.13685" lon="-1.72523">
        <ele>69</ele>
        <time>2020-12-25T08:26:00.000Z</time>
      </trkpt>
      <trkpt lat="47.13683" lon="-1.7254">
        <ele>69</ele>
        <time>2020-12-25T08:26:02.000Z</time>
      </trkpt>
      <trkpt lat="47.13682" lon="-1.72557">
        <ele>69</ele>
        <time>2020-12-25T08:26:04.000Z</time>
      </trkpt>
      <trkpt lat="47.13681" lon="-1.72574">
        <ele>70</ele>
        <time>2020-12-25T08:26:06.000Z</time>
      </trkpt>
      <trkpt lat="47.13681" lon="-1.7259">
        <ele>70</ele>
        <time>2020-12-25T08:26:08.000Z</time>
      </trkpt>
      <trkpt lat="47.1368" lon="-1.72607">
        <ele>71</ele>
        <time>2020-12-25T08:26:10.000Z</time>
      </trkpt>
      <trkpt lat="47.13679" lon="-1.72622">
        <ele>71</ele>
        <time>2020-12-25T08:26:12.000Z</time>
      </trkpt>
      <trkpt lat="47.13676" lon="-1.72638">
        <ele>71</ele>
        <time>2020-12-25T08:26:14.000Z</time>
      </trkpt>
      <trkpt lat="47.13674" lon="-1.72655">
        <ele>71</ele>
        <time>2020-12-25T08:26:16.000Z</time>
      </trkpt>
      <trkpt lat="47.13671" lon="-1.72671">
        <ele>71</ele>
        <time>2020-12-25T08:26:18.000Z</time>
      </trkpt>
      <trkpt lat="47.13668" lon="-1.72686">
        <ele>71</ele>
        <time>2020-12-25T08:26:20.000Z</time>
      </trkpt>
      <trkpt lat="47.13665" lon="-1.727">
        <ele>71</ele>
        <time>2020-12-25T08:26:22.000Z</time>
      </trkpt>
      <trkpt lat="47.13661" lon="-1.72717">
        <ele>71</ele>
        <time>2020-12-25T08:26:24.000Z</time>
      </trkpt>
      <trkpt lat="47.13659" lon="-1.72734">
        <ele>71</ele>
        <time>2020-12-25T08:26:26.000Z</time>
      </trkpt>
      <trkpt lat="47.13658" lon="-1.72751">
        <ele>71</ele>
        <time>2020-12-25T08:26:28.000Z</time>
      </trkpt>
      <trkpt lat="47.13656" lon="-1.72768">
        <ele>71</ele>
        <time>2020-12-25T08:26:30.000Z</time>
      </trkpt>
      <trkpt lat="47.13655" lon="-1.72786">
        <ele>71</ele>
        <time>2020-12-25T08:26:32.000Z</time>
      </trkpt>
      <trkpt lat="47.13655" lon="-1.72803">
        <ele>71</ele>
        <time>2020-12-25T08:26:34.000Z</time>
      </trkpt>
      <trkpt lat="47.13654" lon="-1.72821">
        <ele>70</ele>
        <time>2020-12-25T08:26:36.000Z</time>
      </trkpt>
      <trkpt lat="47.13654" lon="-1.7284">
        <ele>70</ele>
        <time>2020-12-25T08:26:38.000Z</time>
      </trkpt>
      <trkpt lat="47.13653" lon="-1.7286">
        <ele>69</ele>
        <time>2020-12-25T08:26:40.000Z</time>
      </trkpt>
      <trkpt lat="47.13652" lon="-1.72879">
        <ele>68</ele>
        <time>2020-12-25T08:26:42.000Z</time>
      </trkpt>
      <trkpt lat="47.1365" lon="-1.729">
        <ele>68</ele>
        <time>2020-12-25T08:26:44.000Z</time>
      </trkpt>
      <trkpt lat="47.13648" lon="-1.72922">
        <ele>67</ele>
        <time>2020-12-25T08:26:46.000Z</time>
      </trkpt>
      <trkpt lat="47.13646" lon="-1.72945">
        <ele>66</ele>
        <time>2020-12-25T08:26:48.000Z</time>
      </trkpt>
      <trkpt lat="47.13644" lon="-1.72969">
        <ele>64</ele>
        <time>2020-12-25T08:26:50.000Z</time>
      </trkpt>
      <trkpt lat="47.13642" lon="-1.72993">
        <ele>63</ele>
        <time>2020-12-25T08:26:52.000Z</time>
      </trkpt>
      <trkpt lat="47.13639" lon="-1.73017">
        <ele>63</ele>
        <time>2020-12-25T08:26:54.000Z</time>
      </trkpt>
      <trkpt lat="47.13632" lon="-1.73038">
        <ele>62</ele>
        <time>2020-12-25T08:26:56.000Z</time>
      </trkpt>
      <trkpt lat="47.13618" lon="-1.73054">
        <ele>61</ele>
        <time>2020-12-25T08:26:58.000Z</time>
      </trkpt>
      <trkpt lat="47.13604" lon="-1.73067">
        <ele>61</ele>
        <time>2020-12-25T08:27:00.000Z</time>
      </trkpt>
      <trkpt lat="47.13591" lon="-1.73079">
        <ele>60</ele>
        <time>2020-12-25T08:27:02.000Z</time>
      </trkpt>
      <trkpt lat="47.13578" lon="-1.7309">
        <ele>60</ele>
        <time>2020-12-25T08:27:04.000Z</time>
      </trkpt>
      <trkpt lat="47.13566" lon="-1.73102">
        <ele>60</ele>
        <time>2020-12-25T08:27:06.000Z</time>
      </trkpt>
      <trkpt lat="47.13554" lon="-1.73113">
        <ele>60</ele>
        <time>2020-12-25T08:27:08.000Z</time>
      </trkpt>
      <trkpt lat="47.13543" lon="-1.73125">
        <ele>60</ele>
        <time>2020-12-25T08:27:10.000Z</time>
      </trkpt>
      <trkpt lat="47.13531" lon="-1.73137">
        <ele>59</ele>
        <time>2020-12-25T08:27:12.000Z</time>
      </trkpt>
      <trkpt lat="47.13521" lon="-1.73152">
        <ele>58</ele>
        <time>2020-12-25T08:27:14.000Z</time>
      </trkpt>
      <trkpt lat="47.13515" lon="-1.73169">
        <ele>57</ele>
        <time>2020-12-25T08:27:16.000Z</time>
      </trkpt>
      <trkpt lat="47.13511" lon="-1.7319">
        <ele>57</ele>
        <time>2020-12-25T08:27:18.000Z</time>
      </trkpt>
      <trkpt lat="47.13508" lon="-1.73211">
        <ele>57</ele>
        <time>2020-12-25T08:27:20.000Z</time>
      </trkpt>
      <trkpt lat="47.13507" lon="-1.73233">
        <ele>56</ele>
        <time>2020-12-25T08:27:22.000Z</time>
      </trkpt>
      <trkpt lat="47.13506" lon="-1.73256">
        <ele>56</ele>
        <time>2020-12-25T08:27:24.000Z</time>
      </trkpt>
      <trkpt lat="47.13504" lon="-1.73279">
        <ele>56</ele>
        <time>2020-12-25T08:27:26.000Z</time>
      </trkpt>
      <trkpt lat="47.13505" lon="-1.73301">
        <ele>56</ele>
        <time>2020-12-25T08:27:28.000Z</time>
      </trkpt>
      <trkpt lat="47.13509" lon="-1.73321">
        <ele>55</ele>
        <time>2020-12-25T08:27:30.000Z</time>
      </trkpt>
      <trkpt lat="47.13515" lon="-1.73339">
        <ele>55</ele>
        <time>2020-12-25T08:27:32.000Z</time>
      </trkpt>
      <trkpt lat="47.13521" lon="-1.73357">
        <ele>55</ele>
        <time>2020-12-25T08:27:34.000Z</time>
      </trkpt>
      <trkpt lat="47.13526" lon="-1.73376">
        <ele>56</ele>
        <time>2020-12-25T08:27:36.000Z</time>
      </trkpt>
      <trkpt lat="47.1353" lon="-1.73394">
        <ele>56</ele>
        <time>2020-12-25T08:27:38.000Z</time>
      </trkpt>
      <trkpt lat="47.13535" lon="-1.73412">
        <ele>57</ele>
        <time>2020-12-25T08:27:40.000Z</time>
      </trkpt>
      <trkpt lat="47.13541" lon="-1.7343">
        <ele>58</ele>
        <time>2020-12-25T08:27:42.000Z</time>
      </trkpt>
      <trkpt lat="47.13547" lon="-1.73448">
        <ele>58</ele>
        <time>2020-12-25T08:27:44.000Z</time>
      </trkpt>
      <trkpt lat="47.13552" lon="-1.73466">
        <ele>58</ele>
        <time>2020-12-25T08:27:46.000Z</time>
      </trkpt>
      <trkpt lat="47.13558" lon="-1.73484">
        <ele>58</ele>
        <time>2020-12-25T08:27:48.000Z</time>
      </trkpt>
      <trkpt lat="47.13563" lon="-1.73501">
        <ele>58</ele>
        <time>2020-12-25T08:27:50.000Z</time>
      </trkpt>
      <trkpt lat="47.13568" lon="-1.73519">
        <ele>57</ele>
        <time>2020-12-25T08:27:52.000Z</time>
      </trkpt>
      <trkpt lat="47.13573" lon="-1.73537">
        <ele>58</ele>
        <time>2020-12-25T08:27:54.000Z</time>
      </trkpt>
      <trkpt lat="47.13579" lon="-1.73554">
        <ele>58</ele>
        <time>2020-12-25T08:27:56.000Z</time>
      </trkpt>
      <trkpt lat="47.13585" lon="-1.73572">
        <ele>57</ele>
        <time>2020-12-25T08:27:58.000Z</time>
      </trkpt>
      <trkpt lat="47.13591" lon="-1.73588">
        <ele>56</ele>
        <time>2020-12-25T08:28:00.000Z</time>
      </trkpt>
      <trkpt lat="47.13596" lon="-1.73605">
        <ele>57</ele>
        <time>2020-12-25T08:28:02.000Z</time>
      </trkpt>
      <trkpt lat="47.13604" lon="-1.7362">
        <ele>58</ele>
        <time>2020-12-25T08:28:04.000Z</time>
      </trkpt>
      <trkpt lat="47.13611" lon="-1.73636">
        <ele>58</ele>
        <time>2020-12-25T08:28:06.000Z</time>
      </trkpt>
      <trkpt lat="47.13617" lon="-1.73653">
        <ele>58</ele>
        <time>2020-12-25T08:28:08.000Z</time>
      </trkpt>
      <trkpt lat="47.13623" lon="-1.7367">
        <ele>58</ele>
        <time>2020-12-25T08:28:10.000Z</time>
      </trkpt>
      <trkpt lat="47.13628" lon="-1.73688">
        <ele>58</ele>
        <time>2020-12-25T08:28:12.000Z</time>
      </trkpt>
      <trkpt lat="47.13633" lon="-1.73707">
        <ele>57</ele>
        <time>2020-12-25T08:28:14.000Z</time>
      </trkpt>
      <trkpt lat="47.13636" lon="-1.73726">
        <ele>57</ele>
        <time>2020-12-25T08:28:16.000Z</time>
      </trkpt>
      <trkpt lat="47.13639" lon="-1.73745">
        <ele>57</ele>
        <time>2020-12-25T08:28:18.000Z</time>
      </trkpt>
      <trkpt lat="47.1364" lon="-1.73766">
        <ele>57</ele>
        <time>2020-12-25T08:28:20.000Z</time>
      </trkpt>
      <trkpt lat="47.13641" lon="-1.73787">
        <ele>56</ele>
        <time>2020-12-25T08:28:22.000Z</time>
      </trkpt>
      <trkpt lat="47.13643" lon="-1.7381">
        <ele>55</ele>
        <time>2020-12-25T08:28:24.000Z</time>
      </trkpt>
      <trkpt lat="47.13644" lon="-1.73831">
        <ele>55</ele>
        <time>2020-12-25T08:28:26.000Z</time>
      </trkpt>
      <trkpt lat="47.13646" lon="-1.73851">
        <ele>55</ele>
        <time>2020-12-25T08:28:28.000Z</time>
      </trkpt>
      <trkpt lat="47.13647" lon="-1.7387">
        <ele>54</ele>
        <time>2020-12-25T08:28:30.000Z</time>
      </trkpt>
      <trkpt lat="47.13648" lon="-1.73888">
        <ele>53</ele>
        <time>2020-12-25T08:28:32.000Z</time>
      </trkpt>
      <trkpt lat="47.13649" lon="-1.73906">
        <ele>54</ele>
        <time>2020-12-25T08:28:34.000Z</time>
      </trkpt>
      <trkpt lat="47.1365" lon="-1.73922">
        <ele>55</ele>
        <time>2020-12-25T08:28:36.000Z</time>
      </trkpt>
      <trkpt lat="47.1365" lon="-1.73938">
        <ele>56</ele>
        <time>2020-12-25T08:28:38.000Z</time>
      </trkpt>
      <trkpt lat="47.13651" lon="-1.73954">
        <ele>57</ele>
        <time>2020-12-25T08:28:40.000Z</time>
      </trkpt>
      <trkpt lat="47.13652" lon="-1.7397">
        <ele>57</ele>
        <time>2020-12-25T08:28:42.000Z</time>
      </trkpt>
      <trkpt lat="47.13651" lon="-1.73985">
        <ele>58</ele>
        <time>2020-12-25T08:28:44.000Z</time>
      </trkpt>
      <trkpt lat="47.1365" lon="-1.74">
        <ele>58</ele>
        <time>2020-12-25T08:28:46.000Z</time>
      </trkpt>
      <trkpt lat="47.13648" lon="-1.74016">
        <ele>59</ele>
        <time>2020-12-25T08:28:48.000Z</time>
      </trkpt>
      <trkpt lat="47.13646" lon="-1.74031">
        <ele>59</ele>
        <time>2020-12-25T08:28:50.000Z</time>
      </trkpt>
      <trkpt lat="47.13644" lon="-1.74046">
        <ele>60</ele>
        <time>2020-12-25T08:28:52.000Z</time>
      </trkpt>
      <trkpt lat="47.13643" lon="-1.74062">
        <ele>60</ele>
        <time>2020-12-25T08:28:54.000Z</time>
      </trkpt>
      <trkpt lat="47.13642" lon="-1.74078">
        <ele>61</ele>
        <time>2020-12-25T08:28:56.000Z</time>
      </trkpt>
      <trkpt lat="47.13642" lon="-1.74094">
        <ele>61</ele>
        <time>2020-12-25T08:28:58.000Z</time>
      </trkpt>
      <trkpt lat="47.13643" lon="-1.74109">
        <ele>61</ele>
        <time>2020-12-25T08:29:00.000Z</time>
      </trkpt>
      <trkpt lat="47.13645" lon="-1.74125">
        <ele>61</ele>
        <time>2020-12-25T08:29:02.000Z</time>
      </trkpt>
      <trkpt lat="47.13647" lon="-1.7414">
        <ele>61</ele>
        <time>2020-12-25T08:29:04.000Z</time>
      </trkpt>
      <trkpt lat="47.1365" lon="-1.74155">
        <ele>61</ele>
        <time>2020-12-25T08:29:06.000Z</time>
      </trkpt>
      <trkpt lat="47.13653" lon="-1.74171">
        <ele>61</ele>
        <time>2020-12-25T08:29:08.000Z</time>
      </trkpt>
      <trkpt lat="47.13656" lon="-1.74185">
        <ele>61</ele>
        <time>2020-12-25T08:29:10.000Z</time>
      </trkpt>
      <trkpt lat="47.1366" lon="-1.742">
        <ele>61</ele>
        <time>2020-12-25T08:29:12.000Z</time>
      </trkpt>
      <trkpt lat="47.13664" lon="-1.74215">
        <ele>60</ele>
        <time>2020-12-25T08:29:14.000Z</time>
      </trkpt>
      <trkpt lat="47.13668" lon="-1.7423">
        <ele>60</ele>
        <time>2020-12-25T08:29:16.000Z</time>
      </trkpt>
      <trkpt lat="47.13672" lon="-1.74246">
        <ele>60</ele>
        <time>2020-12-25T08:29:18.000Z</time>
      </trkpt>
      <trkpt lat="47.13676" lon="-1.74262">
        <ele>60</ele>
        <time>2020-12-25T08:29:20.000Z</time>
      </trkpt>
      <trkpt lat="47.13681" lon="-1.74278">
        <ele>60</ele>
        <time>2020-12-25T08:29:22.000Z</time>
      </trkpt>
      <trkpt lat="47.13687" lon="-1.74294">
        <ele>60</ele>
        <time>2020-12-25T08:29:24.000Z</time>
      </trkpt>
      <trkpt lat="47.13693" lon="-1.74311">
        <ele>59</ele>
        <time>2020-12-25T08:29:26.000Z</time>
      </trkpt>
      <trkpt lat="47.13697" lon="-1.7433">
        <ele>59</ele>
        <time>2020-12-25T08:29:28.000Z</time>
      </trkpt>
      <trkpt lat="47.13697" lon="-1.74352">
        <ele>58</ele>
        <time>2020-12-25T08:29:30.000Z</time>
      </trkpt>
      <trkpt lat="47.13698" lon="-1.74375">
        <ele>58</ele>
        <time>2020-12-25T08:29:32.000Z</time>
      </trkpt>
      <trkpt lat="47.13698" lon="-1.74398">
        <ele>57</ele>
        <time>2020-12-25T08:29:34.000Z</time>
      </trkpt>
      <trkpt lat="47.13698" lon="-1.74422">
        <ele>56</ele>
        <time>2020-12-25T08:29:36.000Z</time>
      </trkpt>
      <trkpt lat="47.13697" lon="-1.74445">
        <ele>56</ele>
        <time>2020-12-25T08:29:38.000Z</time>
      </trkpt>
      <trkpt lat="47.13688" lon="-1.74465">
        <ele>55</ele>
        <time>2020-12-25T08:29:40.000Z</time>
      </trkpt>
      <trkpt lat="47.13675" lon="-1.74479">
        <ele>54</ele>
        <time>2020-12-25T08:29:42.000Z</time>
      </trkpt>
      <trkpt lat="47.13662" lon="-1.74493">
        <ele>53</ele>
        <time>2020-12-25T08:29:44.000Z</time>
      </trkpt>
      <trkpt lat="47.13649" lon="-1.74506">
        <ele>53</ele>
        <time>2020-12-25T08:29:46.000Z</time>
      </trkpt>
      <trkpt lat="47.13637" lon="-1.74518">
        <ele>53</ele>
        <time>2020-12-25T08:29:48.000Z</time>
      </trkpt>
      <trkpt lat="47.13626" lon="-1.74529">
        <ele>53</ele>
        <time>2020-12-25T08:29:50.000Z</time>
      </trkpt>
      <trkpt lat="47.13615" lon="-1.74541">
        <ele>53</ele>
        <time>2020-12-25T08:29:52.000Z</time>
      </trkpt>
      <trkpt lat="47.13604" lon="-1.74552">
        <ele>52</ele>
        <time>2020-12-25T08:29:54.000Z</time>
      </trkpt>
      <trkpt lat="47.13592" lon="-1.74566">
        <ele>52</ele>
        <time>2020-12-25T08:29:56.000Z</time>
      </trkpt>
      <trkpt lat="47.1358" lon="-1.74579">
        <ele>51</ele>
        <time>2020-12-25T08:29:58.000Z</time>
      </trkpt>
      <trkpt lat="47.13567" lon="-1.74593">
        <ele>50</ele>
        <time>2020-12-25T08:30:00.000Z</time>
      </trkpt>
      <trkpt lat="47.13554" lon="-1.74604">
        <ele>49</ele>
        <time>2020-12-25T08:30:02.000Z</time>
      </trkpt>
      <trkpt lat="47.13541" lon="-1.74617">
        <ele>49</ele>
        <time>2020-12-25T08:30:04.000Z</time>
      </trkpt>
      <trkpt lat="47.13529" lon="-1.74626">
        <ele>50</ele>
        <time>2020-12-25T08:30:06.000Z</time>
      </trkpt>
      <trkpt lat="47.13516" lon="-1.74637">
        <ele>50</ele>
        <time>2020-12-25T08:30:08.000Z</time>
      </trkpt>
      <trkpt lat="47.13506" lon="-1.74646">
        <ele>50</ele>
        <time>2020-12-25T08:30:10.000Z</time>
      </trkpt>
      <trkpt lat="47.13498" lon="-1.74658">
        <ele>50</ele>
        <time>2020-12-25T08:30:12.000Z</time>
      </trkpt>
      <trkpt lat="47.13493" lon="-1.7467">
        <ele>51</ele>
        <time>2020-12-25T08:30:14.000Z</time>
      </trkpt>
      <trkpt lat="47.13488" lon="-1.74684">
        <ele>52</ele>
        <time>2020-12-25T08:30:16.000Z</time>
      </trkpt>
      <trkpt lat="47.13485" lon="-1.74698">
        <ele>51</ele>
        <time>2020-12-25T08:30:18.000Z</time>
      </trkpt>
      <trkpt lat="47.13482" lon="-1.74711">
        <ele>50</ele>
        <time>2020-12-25T08:30:20.000Z</time>
      </trkpt>
      <trkpt lat="47.13476" lon="-1.74723">
        <ele>50</ele>
        <time>2020-12-25T08:30:22.000Z</time>
      </trkpt>
      <trkpt lat="47.13466" lon="-1.74737">
        <ele>51</ele>
        <time>2020-12-25T08:30:25.000Z</time>
      </trkpt>
      <trkpt lat="47.13457" lon="-1.74745">
        <ele>53</ele>
        <time>2020-12-25T08:30:27.000Z</time>
      </trkpt>
      <trkpt lat="47.13448" lon="-1.74752">
        <ele>54</ele>
        <time>2020-12-25T08:30:29.000Z</time>
      </trkpt>
      <trkpt lat="47.13438" lon="-1.74758">
        <ele>54</ele>
        <time>2020-12-25T08:30:31.000Z</time>
      </trkpt>
      <trkpt lat="47.13429" lon="-1.74765">
        <ele>54</ele>
        <time>2020-12-25T08:30:33.000Z</time>
      </trkpt>
      <trkpt lat="47.1342" lon="-1.74773">
        <ele>54</ele>
        <time>2020-12-25T08:30:35.000Z</time>
      </trkpt>
      <trkpt lat="47.13412" lon="-1.74782">
        <ele>54</ele>
        <time>2020-12-25T08:30:37.000Z</time>
      </trkpt>
      <trkpt lat="47.13404" lon="-1.7479">
        <ele>56</ele>
        <time>2020-12-25T08:30:39.000Z</time>
      </trkpt>
      <trkpt lat="47.13396" lon="-1.74799">
        <ele>57</ele>
        <time>2020-12-25T08:30:41.000Z</time>
      </trkpt>
      <trkpt lat="47.13389" lon="-1.74809">
        <ele>58</ele>
        <time>2020-12-25T08:30:43.000Z</time>
      </trkpt>
      <trkpt lat="47.13384" lon="-1.7482">
        <ele>58</ele>
        <time>2020-12-25T08:30:45.000Z</time>
      </trkpt>
      <trkpt lat="47.13379" lon="-1.74833">
        <ele>58</ele>
        <time>2020-12-25T08:30:47.000Z</time>
      </trkpt>
      <trkpt lat="47.13376" lon="-1.74847">
        <ele>59</ele>
        <time>2020-12-25T08:30:49.000Z</time>
      </trkpt>
      <trkpt lat="47.13373" lon="-1.74862">
        <ele>59</ele>
        <time>2020-12-25T08:30:51.000Z</time>
      </trkpt>
      <trkpt lat="47.1337" lon="-1.74876">
        <ele>59</ele>
        <time>2020-12-25T08:30:53.000Z</time>
      </trkpt>
      <trkpt lat="47.13367" lon="-1.7489">
        <ele>60</ele>
        <time>2020-12-25T08:30:55.000Z</time>
      </trkpt>
      <trkpt lat="47.13361" lon="-1.74904">
        <ele>61</ele>
        <time>2020-12-25T08:30:57.000Z</time>
      </trkpt>
      <trkpt lat="47.13356" lon="-1.74917">
        <ele>62</ele>
        <time>2020-12-25T08:30:59.000Z</time>
      </trkpt>
      <trkpt lat="47.13351" lon="-1.74931">
        <ele>61</ele>
        <time>2020-12-25T08:31:01.000Z</time>
      </trkpt>
      <trkpt lat="47.13346" lon="-1.74943">
        <ele>61</ele>
        <time>2020-12-25T08:31:03.000Z</time>
      </trkpt>
      <trkpt lat="47.13341" lon="-1.74956">
        <ele>61</ele>
        <time>2020-12-25T08:31:05.000Z</time>
      </trkpt>
      <trkpt lat="47.13335" lon="-1.74967">
        <ele>61</ele>
        <time>2020-12-25T08:31:07.000Z</time>
      </trkpt>
      <trkpt lat="47.13329" lon="-1.74979">
        <ele>61</ele>
        <time>2020-12-25T08:31:09.000Z</time>
      </trkpt>
      <trkpt lat="47.13322" lon="-1.74989">
        <ele>61</ele>
        <time>2020-12-25T08:31:11.000Z</time>
      </trkpt>
      <trkpt lat="47.13314" lon="-1.74999">
        <ele>61</ele>
        <time>2020-12-25T08:31:13.000Z</time>
      </trkpt>
      <trkpt lat="47.13306" lon="-1.75007">
        <ele>62</ele>
        <time>2020-12-25T08:31:15.000Z</time>
      </trkpt>
      <trkpt lat="47.13297" lon="-1.75015">
        <ele>62</ele>
        <time>2020-12-25T08:31:17.000Z</time>
      </trkpt>
      <trkpt lat="47.13288" lon="-1.75023">
        <ele>61</ele>
        <time>2020-12-25T08:31:19.000Z</time>
      </trkpt>
      <trkpt lat="47.13279" lon="-1.7503">
        <ele>61</ele>
        <time>2020-12-25T08:31:21.000Z</time>
      </trkpt>
      <trkpt lat="47.1327" lon="-1.75036">
        <ele>62</ele>
        <time>2020-12-25T08:31:23.000Z</time>
      </trkpt>
      <trkpt lat="47.13261" lon="-1.75042">
        <ele>62</ele>
        <time>2020-12-25T08:31:25.000Z</time>
      </trkpt>
      <trkpt lat="47.13253" lon="-1.7505">
        <ele>62</ele>
        <time>2020-12-25T08:31:27.000Z</time>
      </trkpt>
      <trkpt lat="47.13244" lon="-1.75058">
        <ele>63</ele>
        <time>2020-12-25T08:31:29.000Z</time>
      </trkpt>
      <trkpt lat="47.13236" lon="-1.75066">
        <ele>64</ele>
        <time>2020-12-25T08:31:31.000Z</time>
      </trkpt>
      <trkpt lat="47.13228" lon="-1.75075">
        <ele>64</ele>
        <time>2020-12-25T08:31:33.000Z</time>
      </trkpt>
      <trkpt lat="47.1322" lon="-1.75084">
        <ele>64</ele>
        <time>2020-12-25T08:31:35.000Z</time>
      </trkpt>
      <trkpt lat="47.13213" lon="-1.75094">
        <ele>64</ele>
        <time>2020-12-25T08:31:37.000Z</time>
      </trkpt>
      <trkpt lat="47.13207" lon="-1.75106">
        <ele>65</ele>
        <time>2020-12-25T08:31:39.000Z</time>
      </trkpt>
      <trkpt lat="47.13201" lon="-1.75115">
        <ele>65</ele>
        <time>2020-12-25T08:31:41.000Z</time>
      </trkpt>
      <trkpt lat="47.13194" lon="-1.75127">
        <ele>64</ele>
        <time>2020-12-25T08:31:43.000Z</time>
      </trkpt>
      <trkpt lat="47.13188" lon="-1.7514">
        <ele>65</ele>
        <time>2020-12-25T08:31:45.000Z</time>
      </trkpt>
      <trkpt lat="47.13181" lon="-1.75152">
        <ele>65</ele>
        <time>2020-12-25T08:31:47.000Z</time>
      </trkpt>
      <trkpt lat="47.13176" lon="-1.75165">
        <ele>65</ele>
        <time>2020-12-25T08:31:49.000Z</time>
      </trkpt>
      <trkpt lat="47.13171" lon="-1.75179">
        <ele>64</ele>
        <time>2020-12-25T08:31:51.000Z</time>
      </trkpt>
      <trkpt lat="47.13167" lon="-1.75192">
        <ele>64</ele>
        <time>2020-12-25T08:31:53.000Z</time>
      </trkpt>
      <trkpt lat="47.13163" lon="-1.75206">
        <ele>64</ele>
        <time>2020-12-25T08:31:55.000Z</time>
      </trkpt>
      <trkpt lat="47.1316" lon="-1.7522">
        <ele>64</ele>
        <time>2020-12-25T08:31:57.000Z</time>
      </trkpt>
      <trkpt lat="47.13158" lon="-1.75233">
        <ele>64</ele>
        <time>2020-12-25T08:31:59.000Z</time>
      </trkpt>
      <trkpt lat="47.13155" lon="-1.75247">
        <ele>64</ele>
        <time>2020-12-25T08:32:01.000Z</time>
      </trkpt>
      <trkpt lat="47.13153" lon="-1.7526">
        <ele>64</ele>
        <time>2020-12-25T08:32:03.000Z</time>
      </trkpt>
      <trkpt lat="47.13151" lon="-1.75274">
        <ele>65</ele>
        <time>2020-12-25T08:32:05.000Z</time>
      </trkpt>
      <trkpt lat="47.1315" lon="-1.75289">
        <ele>65</ele>
        <time>2020-12-25T08:32:07.000Z</time>
      </trkpt>
      <trkpt lat="47.13148" lon="-1.75303">
        <ele>65</ele>
        <time>2020-12-25T08:32:09.000Z</time>
      </trkpt>
      <trkpt lat="47.13143" lon="-1.75317">
        <ele>66</ele>
        <time>2020-12-25T08:32:11.000Z</time>
      </trkpt>
      <trkpt lat="47.13139" lon="-1.7533">
        <ele>66</ele>
        <time>2020-12-25T08:32:13.000Z</time>
      </trkpt>
      <trkpt lat="47.13136" lon="-1.75344">
        <ele>66</ele>
        <time>2020-12-25T08:32:15.000Z</time>
      </trkpt>
      <trkpt lat="47.13132" lon="-1.75358">
        <ele>67</ele>
        <time>2020-12-25T08:32:17.000Z</time>
      </trkpt>
      <trkpt lat="47.1313" lon="-1.75372">
        <ele>67</ele>
        <time>2020-12-25T08:32:19.000Z</time>
      </trkpt>
      <trkpt lat="47.13127" lon="-1.75385">
        <ele>68</ele>
        <time>2020-12-25T08:32:21.000Z</time>
      </trkpt>
      <trkpt lat="47.13124" lon="-1.75399">
        <ele>68</ele>
        <time>2020-12-25T08:32:23.000Z</time>
      </trkpt>
      <trkpt lat="47.1312" lon="-1.75412">
        <ele>69</ele>
        <time>2020-12-25T08:32:25.000Z</time>
      </trkpt>
      <trkpt lat="47.13117" lon="-1.75425">
        <ele>69</ele>
        <time>2020-12-25T08:32:27.000Z</time>
      </trkpt>
      <trkpt lat="47.13117" lon="-1.75439">
        <ele>69</ele>
        <time>2020-12-25T08:32:29.000Z</time>
      </trkpt>
      <trkpt lat="47.13114" lon="-1.75454">
        <ele>70</ele>
        <time>2020-12-25T08:32:31.000Z</time>
      </trkpt>
      <trkpt lat="47.1311" lon="-1.75466">
        <ele>70</ele>
        <time>2020-12-25T08:32:33.000Z</time>
      </trkpt>
      <trkpt lat="47.13109" lon="-1.75479">
        <ele>71</ele>
        <time>2020-12-25T08:32:35.000Z</time>
      </trkpt>
      <trkpt lat="47.13108" lon="-1.75493">
        <ele>71</ele>
        <time>2020-12-25T08:32:37.000Z</time>
      </trkpt>
      <trkpt lat="47.13107" lon="-1.75507">
        <ele>71</ele>
        <time>2020-12-25T08:32:39.000Z</time>
      </trkpt>
      <trkpt lat="47.13105" lon="-1.75521">
        <ele>72</ele>
        <time>2020-12-25T08:32:41.000Z</time>
      </trkpt>
      <trkpt lat="47.13103" lon="-1.75536">
        <ele>72</ele>
        <time>2020-12-25T08:32:43.000Z</time>
      </trkpt>
      <trkpt lat="47.13101" lon="-1.75549">
        <ele>72</ele>
        <time>2020-12-25T08:32:45.000Z</time>
      </trkpt>
      <trkpt lat="47.13098" lon="-1.75562">
        <ele>73</ele>
        <time>2020-12-25T08:32:47.000Z</time>
      </trkpt>
      <trkpt lat="47.13095" lon="-1.75575">
        <ele>73</ele>
        <time>2020-12-25T08:32:49.000Z</time>
      </trkpt>
      <trkpt lat="47.13093" lon="-1.75589">
        <ele>73</ele>
        <time>2020-12-25T08:32:51.000Z</time>
      </trkpt>
      <trkpt lat="47.13091" lon="-1.75604">
        <ele>73</ele>
        <time>2020-12-25T08:32:53.000Z</time>
      </trkpt>
      <trkpt lat="47.13088" lon="-1.75618">
        <ele>73</ele>
        <time>2020-12-25T08:32:55.000Z</time>
      </trkpt>
      <trkpt lat="47.13085" lon="-1.75634">
        <ele>73</ele>
        <time>2020-12-25T08:32:57.000Z</time>
      </trkpt>
      <trkpt lat="47.13082" lon="-1.75649">
        <ele>73</ele>
        <time>2020-12-25T08:32:59.000Z</time>
      </trkpt>
      <trkpt lat="47.13079" lon="-1.75665">
        <ele>73</ele>
        <time>2020-12-25T08:33:01.000Z</time>
      </trkpt>
      <trkpt lat="47.13076" lon="-1.75681">
        <ele>73</ele>
        <time>2020-12-25T08:33:03.000Z</time>
      </trkpt>
      <trkpt lat="47.13072" lon="-1.75696">
        <ele>73</ele>
        <time>2020-12-25T08:33:05.000Z</time>
      </trkpt>
      <trkpt lat="47.13068" lon="-1.75711">
        <ele>73</ele>
        <time>2020-12-25T08:33:07.000Z</time>
      </trkpt>
      <trkpt lat="47.13064" lon="-1.75726">
        <ele>74</ele>
        <time>2020-12-25T08:33:09.000Z</time>
      </trkpt>
      <trkpt lat="47.13058" lon="-1.7574">
        <ele>74</ele>
        <time>2020-12-25T08:33:11.000Z</time>
      </trkpt>
      <trkpt lat="47.13051" lon="-1.75753">
        <ele>74</ele>
        <time>2020-12-25T08:33:13.000Z</time>
      </trkpt>
      <trkpt lat="47.13043" lon="-1.75765">
        <ele>74</ele>
        <time>2020-12-25T08:33:15.000Z</time>
      </trkpt>
      <trkpt lat="47.13034" lon="-1.75778">
        <ele>74</ele>
        <time>2020-12-25T08:33:17.000Z</time>
      </trkpt>
      <trkpt lat="47.13026" lon="-1.7579">
        <ele>74</ele>
        <time>2020-12-25T08:33:19.000Z</time>
      </trkpt>
      <trkpt lat="47.13018" lon="-1.75803">
        <ele>74</ele>
        <time>2020-12-25T08:33:21.000Z</time>
      </trkpt>
      <trkpt lat="47.13011" lon="-1.75816">
        <ele>73</ele>
        <time>2020-12-25T08:33:23.000Z</time>
      </trkpt>
      <trkpt lat="47.13007" lon="-1.75831">
        <ele>73</ele>
        <time>2020-12-25T08:33:25.000Z</time>
      </trkpt>
      <trkpt lat="47.13006" lon="-1.75846">
        <ele>74</ele>
        <time>2020-12-25T08:33:27.000Z</time>
      </trkpt>
      <trkpt lat="47.13008" lon="-1.75862">
        <ele>74</ele>
        <time>2020-12-25T08:33:29.000Z</time>
      </trkpt>
      <trkpt lat="47.13008" lon="-1.75878">
        <ele>74</ele>
        <time>2020-12-25T08:33:31.000Z</time>
      </trkpt>
      <trkpt lat="47.13007" lon="-1.75893">
        <ele>75</ele>
        <time>2020-12-25T08:33:33.000Z</time>
      </trkpt>
      <trkpt lat="47.13004" lon="-1.75909">
        <ele>76</ele>
        <time>2020-12-25T08:33:35.000Z</time>
      </trkpt>
      <trkpt lat="47.13" lon="-1.75924">
        <ele>76</ele>
        <time>2020-12-25T08:33:37.000Z</time>
      </trkpt>
      <trkpt lat="47.12997" lon="-1.7594">
        <ele>76</ele>
        <time>2020-12-25T08:33:39.000Z</time>
      </trkpt>
      <trkpt lat="47.12995" lon="-1.75956">
        <ele>76</ele>
        <time>2020-12-25T08:33:41.000Z</time>
      </trkpt>
      <trkpt lat="47.12993" lon="-1.75971">
        <ele>76</ele>
        <time>2020-12-25T08:33:43.000Z</time>
      </trkpt>
      <trkpt lat="47.12991" lon="-1.75987">
        <ele>76</ele>
        <time>2020-12-25T08:33:45.000Z</time>
      </trkpt>
      <trkpt lat="47.12989" lon="-1.76003">
        <ele>76</ele>
        <time>2020-12-25T08:33:47.000Z</time>
      </trkpt>
      <trkpt lat="47.12987" lon="-1.76019">
        <ele>76</ele>
        <time>2020-12-25T08:33:49.000Z</time>
      </trkpt>
      <trkpt lat="47.12987" lon="-1.76035">
        <ele>76</ele>
        <time>2020-12-25T08:33:51.000Z</time>
      </trkpt>
      <trkpt lat="47.12987" lon="-1.76051">
        <ele>76</ele>
        <time>2020-12-25T08:33:53.000Z</time>
      </trkpt>
      <trkpt lat="47.12987" lon="-1.76067">
        <ele>77</ele>
        <time>2020-12-25T08:33:55.000Z</time>
      </trkpt>
      <trkpt lat="47.12987" lon="-1.76084">
        <ele>77</ele>
        <time>2020-12-25T08:33:57.000Z</time>
      </trkpt>
      <trkpt lat="47.12988" lon="-1.76099">
        <ele>77</ele>
        <time>2020-12-25T08:33:59.000Z</time>
      </trkpt>
      <trkpt lat="47.1299" lon="-1.76114">
        <ele>77</ele>
        <time>2020-12-25T08:34:01.000Z</time>
      </trkpt>
      <trkpt lat="47.12993" lon="-1.7613">
        <ele>78</ele>
        <time>2020-12-25T08:34:03.000Z</time>
      </trkpt>
      <trkpt lat="47.12997" lon="-1.76145">
        <ele>78</ele>
        <time>2020-12-25T08:34:05.000Z</time>
      </trkpt>
      <trkpt lat="47.13" lon="-1.7616">
        <ele>78</ele>
        <time>2020-12-25T08:34:07.000Z</time>
      </trkpt>
      <trkpt lat="47.13004" lon="-1.76176">
        <ele>79</ele>
        <time>2020-12-25T08:34:09.000Z</time>
      </trkpt>
      <trkpt lat="47.13008" lon="-1.76191">
        <ele>78</ele>
        <time>2020-12-25T08:34:11.000Z</time>
      </trkpt>
      <trkpt lat="47.13012" lon="-1.76206">
        <ele>78</ele>
        <time>2020-12-25T08:34:13.000Z</time>
      </trkpt>
      <trkpt lat="47.13016" lon="-1.76221">
        <ele>79</ele>
        <time>2020-12-25T08:34:15.000Z</time>
      </trkpt>
      <trkpt lat="47.1302" lon="-1.76237">
        <ele>79</ele>
        <time>2020-12-25T08:34:17.000Z</time>
      </trkpt>
      <trkpt lat="47.13023" lon="-1.76253">
        <ele>79</ele>
        <time>2020-12-25T08:34:19.000Z</time>
      </trkpt>
      <trkpt lat="47.13027" lon="-1.76269">
        <ele>79</ele>
        <time>2020-12-25T08:34:21.000Z</time>
      </trkpt>
      <trkpt lat="47.13031" lon="-1.76285">
        <ele>79</ele>
        <time>2020-12-25T08:34:23.000Z</time>
      </trkpt>
      <trkpt lat="47.13034" lon="-1.76302">
        <ele>80</ele>
        <time>2020-12-25T08:34:25.000Z</time>
      </trkpt>
      <trkpt lat="47.13037" lon="-1.76318">
        <ele>80</ele>
        <time>2020-12-25T08:34:27.000Z</time>
      </trkpt>
      <trkpt lat="47.1304" lon="-1.76335">
        <ele>80</ele>
        <time>2020-12-25T08:34:29.000Z</time>
      </trkpt>
      <trkpt lat="47.13044" lon="-1.76351">
        <ele>80</ele>
        <time>2020-12-25T08:34:31.000Z</time>
      </trkpt>
      <trkpt lat="47.13046" lon="-1.76368">
        <ele>80</ele>
        <time>2020-12-25T08:34:33.000Z</time>
      </trkpt>
      <trkpt lat="47.13049" lon="-1.76384">
        <ele>80</ele>
        <time>2020-12-25T08:34:35.000Z</time>
      </trkpt>
      <trkpt lat="47.13051" lon="-1.76401">
        <ele>80</ele>
        <time>2020-12-25T08:34:37.000Z</time>
      </trkpt>
      <trkpt lat="47.13053" lon="-1.76418">
        <ele>81</ele>
        <time>2020-12-25T08:34:39.000Z</time>
      </trkpt>
      <trkpt lat="47.13054" lon="-1.76435">
        <ele>80</ele>
        <time>2020-12-25T08:34:41.000Z</time>
      </trkpt>
      <trkpt lat="47.13055" lon="-1.76452">
        <ele>80</ele>
        <time>2020-12-25T08:34:43.000Z</time>
      </trkpt>
      <trkpt lat="47.13056" lon="-1.76468">
        <ele>80</ele>
        <time>2020-12-25T08:34:45.000Z</time>
      </trkpt>
      <trkpt lat="47.13057" lon="-1.76485">
        <ele>80</ele>
        <time>2020-12-25T08:34:47.000Z</time>
      </trkpt>
      <trkpt lat="47.13058" lon="-1.76502">
        <ele>80</ele>
        <time>2020-12-25T08:34:49.000Z</time>
      </trkpt>
      <trkpt lat="47.13058" lon="-1.76518">
        <ele>80</ele>
        <time>2020-12-25T08:34:51.000Z</time>
      </trkpt>
      <trkpt lat="47.13059" lon="-1.76535">
        <ele>80</ele>
        <time>2020-12-25T08:34:53.000Z</time>
      </trkpt>
      <trkpt lat="47.1306" lon="-1.76553">
        <ele>79</ele>
        <time>2020-12-25T08:34:55.000Z</time>
      </trkpt>
      <trkpt lat="47.13061" lon="-1.7657">
        <ele>79</ele>
        <time>2020-12-25T08:34:57.000Z</time>
      </trkpt>
      <trkpt lat="47.13062" lon="-1.76587">
        <ele>79</ele>
        <time>2020-12-25T08:34:59.000Z</time>
      </trkpt>
      <trkpt lat="47.13064" lon="-1.76604">
        <ele>79</ele>
        <time>2020-12-25T08:35:01.000Z</time>
      </trkpt>
      <trkpt lat="47.13065" lon="-1.7662">
        <ele>79</ele>
        <time>2020-12-25T08:35:03.000Z</time>
      </trkpt>
      <trkpt lat="47.13067" lon="-1.76637">
        <ele>78</ele>
        <time>2020-12-25T08:35:05.000Z</time>
      </trkpt>
      <trkpt lat="47.1307" lon="-1.76654">
        <ele>77</ele>
        <time>2020-12-25T08:35:07.000Z</time>
      </trkpt>
      <trkpt lat="47.13071" lon="-1.7667">
        <ele>77</ele>
        <time>2020-12-25T08:35:09.000Z</time>
      </trkpt>
      <trkpt lat="47.13072" lon="-1.76686">
        <ele>77</ele>
        <time>2020-12-25T08:35:11.000Z</time>
      </trkpt>
      <trkpt lat="47.1307" lon="-1.76703">
        <ele>77</ele>
        <time>2020-12-25T08:35:13.000Z</time>
      </trkpt>
      <trkpt lat="47.13068" lon="-1.76718">
        <ele>78</ele>
        <time>2020-12-25T08:35:15.000Z</time>
      </trkpt>
      <trkpt lat="47.13066" lon="-1.76735">
        <ele>78</ele>
        <time>2020-12-25T08:35:17.000Z</time>
      </trkpt>
      <trkpt lat="47.13065" lon="-1.76752">
        <ele>78</ele>
        <time>2020-12-25T08:35:19.000Z</time>
      </trkpt>
      <trkpt lat="47.13063" lon="-1.76769">
        <ele>78</ele>
        <time>2020-12-25T08:35:21.000Z</time>
      </trkpt>
      <trkpt lat="47.1306" lon="-1.76787">
        <ele>78</ele>
        <time>2020-12-25T08:35:23.000Z</time>
      </trkpt>
      <trkpt lat="47.13058" lon="-1.76804">
        <ele>78</ele>
        <time>2020-12-25T08:35:25.000Z</time>
      </trkpt>
      <trkpt lat="47.13056" lon="-1.76822">
        <ele>77</ele>
        <time>2020-12-25T08:35:27.000Z</time>
      </trkpt>
      <trkpt lat="47.13053" lon="-1.76839">
        <ele>78</ele>
        <time>2020-12-25T08:35:29.000Z</time>
      </trkpt>
      <trkpt lat="47.13051" lon="-1.76855">
        <ele>78</ele>
        <time>2020-12-25T08:35:31.000Z</time>
      </trkpt>
      <trkpt lat="47.13049" lon="-1.76872">
        <ele>78</ele>
        <time>2020-12-25T08:35:33.000Z</time>
      </trkpt>
      <trkpt lat="47.13048" lon="-1.76889">
        <ele>78</ele>
        <time>2020-12-25T08:35:35.000Z</time>
      </trkpt>
      <trkpt lat="47.13046" lon="-1.76906">
        <ele>78</ele>
        <time>2020-12-25T08:35:37.000Z</time>
      </trkpt>
      <trkpt lat="47.13044" lon="-1.76923">
        <ele>78</ele>
        <time>2020-12-25T08:35:39.000Z</time>
      </trkpt>
      <trkpt lat="47.13043" lon="-1.76939">
        <ele>78</ele>
        <time>2020-12-25T08:35:41.000Z</time>
      </trkpt>
      <trkpt lat="47.13041" lon="-1.76956">
        <ele>79</ele>
        <time>2020-12-25T08:35:43.000Z</time>
      </trkpt>
      <trkpt lat="47.1304" lon="-1.76972">
        <ele>79</ele>
        <time>2020-12-25T08:35:45.000Z</time>
      </trkpt>
      <trkpt lat="47.1304" lon="-1.76988">
        <ele>79</ele>
        <time>2020-12-25T08:35:47.000Z</time>
      </trkpt>
      <trkpt lat="47.13039" lon="-1.77004">
        <ele>80</ele>
        <time>2020-12-25T08:35:49.000Z</time>
      </trkpt>
      <trkpt lat="47.13038" lon="-1.7702">
        <ele>80</ele>
        <time>2020-12-25T08:35:51.000Z</time>
      </trkpt>
      <trkpt lat="47.13037" lon="-1.77036">
        <ele>80</ele>
        <time>2020-12-25T08:35:53.000Z</time>
      </trkpt>
      <trkpt lat="47.13036" lon="-1.77051">
        <ele>80</ele>
        <time>2020-12-25T08:35:55.000Z</time>
      </trkpt>
      <trkpt lat="47.13035" lon="-1.77068">
        <ele>80</ele>
        <time>2020-12-25T08:35:57.000Z</time>
      </trkpt>
      <trkpt lat="47.13033" lon="-1.77084">
        <ele>80</ele>
        <time>2020-12-25T08:35:59.000Z</time>
      </trkpt>
      <trkpt lat="47.13031" lon="-1.771">
        <ele>79</ele>
        <time>2020-12-25T08:36:01.000Z</time>
      </trkpt>
      <trkpt lat="47.13029" lon="-1.77116">
        <ele>79</ele>
        <time>2020-12-25T08:36:03.000Z</time>
      </trkpt>
      <trkpt lat="47.13028" lon="-1.77132">
        <ele>79</ele>
        <time>2020-12-25T08:36:05.000Z</time>
      </trkpt>
      <trkpt lat="47.13025" lon="-1.77147">
        <ele>79</ele>
        <time>2020-12-25T08:36:07.000Z</time>
      </trkpt>
      <trkpt lat="47.13023" lon="-1.77162">
        <ele>79</ele>
        <time>2020-12-25T08:36:09.000Z</time>
      </trkpt>
      <trkpt lat="47.1302" lon="-1.77177">
        <ele>79</ele>
        <time>2020-12-25T08:36:11.000Z</time>
      </trkpt>
      <trkpt lat="47.13016" lon="-1.77193">
        <ele>79</ele>
        <time>2020-12-25T08:36:13.000Z</time>
      </trkpt>
      <trkpt lat="47.13013" lon="-1.77207">
        <ele>80</ele>
        <time>2020-12-25T08:36:15.000Z</time>
      </trkpt>
      <trkpt lat="47.13009" lon="-1.77223">
        <ele>80</ele>
        <time>2020-12-25T08:36:17.000Z</time>
      </trkpt>
      <trkpt lat="47.13004" lon="-1.77239">
        <ele>80</ele>
        <time>2020-12-25T08:36:19.000Z</time>
      </trkpt>
      <trkpt lat="47.13" lon="-1.77254">
        <ele>81</ele>
        <time>2020-12-25T08:36:21.000Z</time>
      </trkpt>
      <trkpt lat="47.12996" lon="-1.77269">
        <ele>81</ele>
        <time>2020-12-25T08:36:23.000Z</time>
      </trkpt>
      <trkpt lat="47.12991" lon="-1.77285">
        <ele>81</ele>
        <time>2020-12-25T08:36:25.000Z</time>
      </trkpt>
      <trkpt lat="47.12986" lon="-1.773">
        <ele>81</ele>
        <time>2020-12-25T08:36:27.000Z</time>
      </trkpt>
      <trkpt lat="47.12981" lon="-1.77314">
        <ele>81</ele>
        <time>2020-12-25T08:36:29.000Z</time>
      </trkpt>
      <trkpt lat="47.12975" lon="-1.77329">
        <ele>81</ele>
        <time>2020-12-25T08:36:31.000Z</time>
      </trkpt>
      <trkpt lat="47.12969" lon="-1.77345">
        <ele>81</ele>
        <time>2020-12-25T08:36:33.000Z</time>
      </trkpt>
      <trkpt lat="47.12963" lon="-1.7736">
        <ele>81</ele>
        <time>2020-12-25T08:36:35.000Z</time>
      </trkpt>
      <trkpt lat="47.12957" lon="-1.77375">
        <ele>80</ele>
        <time>2020-12-25T08:36:37.000Z</time>
      </trkpt>
      <trkpt lat="47.12951" lon="-1.77389">
        <ele>80</ele>
        <time>2020-12-25T08:36:39.000Z</time>
      </trkpt>
      <trkpt lat="47.12945" lon="-1.77404">
        <ele>80</ele>
        <time>2020-12-25T08:36:41.000Z</time>
      </trkpt>
      <trkpt lat="47.12939" lon="-1.77418">
        <ele>80</ele>
        <time>2020-12-25T08:36:43.000Z</time>
      </trkpt>
      <trkpt lat="47.12933" lon="-1.77433">
        <ele>80</ele>
        <time>2020-12-25T08:36:45.000Z</time>
      </trkpt>
      <trkpt lat="47.12927" lon="-1.77449">
        <ele>80</ele>
        <time>2020-12-25T08:36:47.000Z</time>
      </trkpt>
      <trkpt lat="47.12922" lon="-1.77465">
        <ele>80</ele>
        <time>2020-12-25T08:36:49.000Z</time>
      </trkpt>
      <trkpt lat="47.12917" lon="-1.77481">
        <ele>80</ele>
        <time>2020-12-25T08:36:51.000Z</time>
      </trkpt>
      <trkpt lat="47.12913" lon="-1.77497">
        <ele>80</ele>
        <time>2020-12-25T08:36:53.000Z</time>
      </trkpt>
      <trkpt lat="47.12909" lon="-1.77512">
        <ele>80</ele>
        <time>2020-12-25T08:36:55.000Z</time>
      </trkpt>
      <trkpt lat="47.12905" lon="-1.77528">
        <ele>80</ele>
        <time>2020-12-25T08:36:57.000Z</time>
      </trkpt>
      <trkpt lat="47.129" lon="-1.77543">
        <ele>80</ele>
        <time>2020-12-25T08:36:59.000Z</time>
      </trkpt>
      <trkpt lat="47.12896" lon="-1.77559">
        <ele>80</ele>
        <time>2020-12-25T08:37:01.000Z</time>
      </trkpt>
      <trkpt lat="47.12892" lon="-1.77574">
        <ele>80</ele>
        <time>2020-12-25T08:37:03.000Z</time>
      </trkpt>
      <trkpt lat="47.12889" lon="-1.77588">
        <ele>80</ele>
        <time>2020-12-25T08:37:05.000Z</time>
      </trkpt>
      <trkpt lat="47.12886" lon="-1.77603">
        <ele>80</ele>
        <time>2020-12-25T08:37:07.000Z</time>
      </trkpt>
      <trkpt lat="47.12883" lon="-1.77619">
        <ele>80</ele>
        <time>2020-12-25T08:37:09.000Z</time>
      </trkpt>
      <trkpt lat="47.12879" lon="-1.77633">
        <ele>80</ele>
        <time>2020-12-25T08:37:11.000Z</time>
      </trkpt>
      <trkpt lat="47.12876" lon="-1.77648">
        <ele>80</ele>
        <time>2020-12-25T08:37:13.000Z</time>
      </trkpt>
      <trkpt lat="47.12873" lon="-1.77663">
        <ele>80</ele>
        <time>2020-12-25T08:37:15.000Z</time>
      </trkpt>
      <trkpt lat="47.12871" lon="-1.77678">
        <ele>80</ele>
        <time>2020-12-25T08:37:17.000Z</time>
      </trkpt>
      <trkpt lat="47.12868" lon="-1.77692">
        <ele>80</ele>
        <time>2020-12-25T08:37:19.000Z</time>
      </trkpt>
      <trkpt lat="47.12864" lon="-1.77707">
        <ele>80</ele>
        <time>2020-12-25T08:37:21.000Z</time>
      </trkpt>
      <trkpt lat="47.1286" lon="-1.77722">
        <ele>80</ele>
        <time>2020-12-25T08:37:23.000Z</time>
      </trkpt>
      <trkpt lat="47.12855" lon="-1.77739">
        <ele>80</ele>
        <time>2020-12-25T08:37:25.000Z</time>
      </trkpt>
      <trkpt lat="47.12849" lon="-1.77754">
        <ele>79</ele>
        <time>2020-12-25T08:37:27.000Z</time>
      </trkpt>
      <trkpt lat="47.12843" lon="-1.7777">
        <ele>79</ele>
        <time>2020-12-25T08:37:29.000Z</time>
      </trkpt>
      <trkpt lat="47.12837" lon="-1.77786">
        <ele>80</ele>
        <time>2020-12-25T08:37:31.000Z</time>
      </trkpt>
      <trkpt lat="47.12831" lon="-1.77803">
        <ele>80</ele>
        <time>2020-12-25T08:37:33.000Z</time>
      </trkpt>
      <trkpt lat="47.12825" lon="-1.77819">
        <ele>80</ele>
        <time>2020-12-25T08:37:35.000Z</time>
      </trkpt>
      <trkpt lat="47.12818" lon="-1.77835">
        <ele>80</ele>
        <time>2020-12-25T08:37:37.000Z</time>
      </trkpt>
      <trkpt lat="47.12812" lon="-1.77851">
        <ele>81</ele>
        <time>2020-12-25T08:37:39.000Z</time>
      </trkpt>
      <trkpt lat="47.12807" lon="-1.77866">
        <ele>81</ele>
        <time>2020-12-25T08:37:41.000Z</time>
      </trkpt>
      <trkpt lat="47.12801" lon="-1.77882">
        <ele>81</ele>
        <time>2020-12-25T08:37:43.000Z</time>
      </trkpt>
      <trkpt lat="47.12796" lon="-1.77897">
        <ele>81</ele>
        <time>2020-12-25T08:37:45.000Z</time>
      </trkpt>
      <trkpt lat="47.12791" lon="-1.77913">
        <ele>81</ele>
        <time>2020-12-25T08:37:47.000Z</time>
      </trkpt>
      <trkpt lat="47.12787" lon="-1.77928">
        <ele>81</ele>
        <time>2020-12-25T08:37:49.000Z</time>
      </trkpt>
      <trkpt lat="47.12782" lon="-1.77945">
        <ele>81</ele>
        <time>2020-12-25T08:37:51.000Z</time>
      </trkpt>
      <trkpt lat="47.12779" lon="-1.77961">
        <ele>81</ele>
        <time>2020-12-25T08:37:53.000Z</time>
      </trkpt>
      <trkpt lat="47.12775" lon="-1.77976">
        <ele>81</ele>
        <time>2020-12-25T08:37:55.000Z</time>
      </trkpt>
      <trkpt lat="47.1277" lon="-1.77992">
        <ele>81</ele>
        <time>2020-12-25T08:37:57.000Z</time>
      </trkpt>
      <trkpt lat="47.12765" lon="-1.78007">
        <ele>81</ele>
        <time>2020-12-25T08:37:59.000Z</time>
      </trkpt>
      <trkpt lat="47.1276" lon="-1.78023">
        <ele>81</ele>
        <time>2020-12-25T08:38:01.000Z</time>
      </trkpt>
      <trkpt lat="47.12754" lon="-1.78038">
        <ele>80</ele>
        <time>2020-12-25T08:38:03.000Z</time>
      </trkpt>
      <trkpt lat="47.12748" lon="-1.78052">
        <ele>80</ele>
        <time>2020-12-25T08:38:05.000Z</time>
      </trkpt>
      <trkpt lat="47.1274" lon="-1.78065">
        <ele>80</ele>
        <time>2020-12-25T08:38:07.000Z</time>
      </trkpt>
      <trkpt lat="47.12732" lon="-1.78078">
        <ele>80</ele>
        <time>2020-12-25T08:38:09.000Z</time>
      </trkpt>
      <trkpt lat="47.12723" lon="-1.7809">
        <ele>80</ele>
        <time>2020-12-25T08:38:11.000Z</time>
      </trkpt>
      <trkpt lat="47.12715" lon="-1.78103">
        <ele>80</ele>
        <time>2020-12-25T08:38:13.000Z</time>
      </trkpt>
      <trkpt lat="47.12706" lon="-1.78114">
        <ele>80</ele>
        <time>2020-12-25T08:38:15.000Z</time>
      </trkpt>
      <trkpt lat="47.12698" lon="-1.78126">
        <ele>80</ele>
        <time>2020-12-25T08:38:17.000Z</time>
      </trkpt>
      <trkpt lat="47.12689" lon="-1.78138">
        <ele>80</ele>
        <time>2020-12-25T08:38:19.000Z</time>
      </trkpt>
      <trkpt lat="47.12681" lon="-1.78149">
        <ele>80</ele>
        <time>2020-12-25T08:38:21.000Z</time>
      </trkpt>
      <trkpt lat="47.12673" lon="-1.78161">
        <ele>80</ele>
        <time>2020-12-25T08:38:23.000Z</time>
      </trkpt>
      <trkpt lat="47.12664" lon="-1.78172">
        <ele>80</ele>
        <time>2020-12-25T08:38:25.000Z</time>
      </trkpt>
      <trkpt lat="47.12656" lon="-1.78184">
        <ele>80</ele>
        <time>2020-12-25T08:38:27.000Z</time>
      </trkpt>
      <trkpt lat="47.12647" lon="-1.78196">
        <ele>80</ele>
        <time>2020-12-25T08:38:29.000Z</time>
      </trkpt>
      <trkpt lat="47.12639" lon="-1.78208">
        <ele>79</ele>
        <time>2020-12-25T08:38:31.000Z</time>
      </trkpt>
      <trkpt lat="47.12631" lon="-1.78221">
        <ele>79</ele>
        <time>2020-12-25T08:38:33.000Z</time>
      </trkpt>
      <trkpt lat="47.12626" lon="-1.78236">
        <ele>79</ele>
        <time>2020-12-25T08:38:35.000Z</time>
      </trkpt>
      <trkpt lat="47.12621" lon="-1.78253">
        <ele>79</ele>
        <time>2020-12-25T08:38:37.000Z</time>
      </trkpt>
      <trkpt lat="47.12618" lon="-1.78269">
        <ele>79</ele>
        <time>2020-12-25T08:38:39.000Z</time>
      </trkpt>
      <trkpt lat="47.12614" lon="-1.78286">
        <ele>78</ele>
        <time>2020-12-25T08:38:41.000Z</time>
      </trkpt>
      <trkpt lat="47.1261" lon="-1.78302">
        <ele>78</ele>
        <time>2020-12-25T08:38:43.000Z</time>
      </trkpt>
      <trkpt lat="47.12606" lon="-1.78319">
        <ele>78</ele>
        <time>2020-12-25T08:38:45.000Z</time>
      </trkpt>
      <trkpt lat="47.12602" lon="-1.78337">
        <ele>78</ele>
        <time>2020-12-25T08:38:47.000Z</time>
      </trkpt>
      <trkpt lat="47.12598" lon="-1.78354">
        <ele>79</ele>
        <time>2020-12-25T08:38:49.000Z</time>
      </trkpt>
      <trkpt lat="47.12594" lon="-1.7837">
        <ele>79</ele>
        <time>2020-12-25T08:38:51.000Z</time>
      </trkpt>
      <trkpt lat="47.12591" lon="-1.78387">
        <ele>79</ele>
        <time>2020-12-25T08:38:53.000Z</time>
      </trkpt>
      <trkpt lat="47.12587" lon="-1.78404">
        <ele>79</ele>
        <time>2020-12-25T08:38:55.000Z</time>
      </trkpt>
      <trkpt lat="47.12583" lon="-1.7842">
        <ele>79</ele>
        <time>2020-12-25T08:38:57.000Z</time>
      </trkpt>
      <trkpt lat="47.12579" lon="-1.78437">
        <ele>78</ele>
        <time>2020-12-25T08:38:59.000Z</time>
      </trkpt>
      <trkpt lat="47.12575" lon="-1.78453">
        <ele>78</ele>
        <time>2020-12-25T08:39:01.000Z</time>
      </trkpt>
      <trkpt lat="47.12571" lon="-1.7847">
        <ele>78</ele>
        <time>2020-12-25T08:39:03.000Z</time>
      </trkpt>
      <trkpt lat="47.12567" lon="-1.78487">
        <ele>78</ele>
        <time>2020-12-25T08:39:05.000Z</time>
      </trkpt>
      <trkpt lat="47.12563" lon="-1.78504">
        <ele>78</ele>
        <time>2020-12-25T08:39:07.000Z</time>
      </trkpt>
      <trkpt lat="47.12559" lon="-1.78521">
        <ele>78</ele>
        <time>2020-12-25T08:39:09.000Z</time>
      </trkpt>
      <trkpt lat="47.12554" lon="-1.78539">
        <ele>77</ele>
        <time>2020-12-25T08:39:11.000Z</time>
      </trkpt>
      <trkpt lat="47.12551" lon="-1.78556">
        <ele>78</ele>
        <time>2020-12-25T08:39:13.000Z</time>
      </trkpt>
      <trkpt lat="47.12546" lon="-1.78573">
        <ele>77</ele>
        <time>2020-12-25T08:39:15.000Z</time>
      </trkpt>
      <trkpt lat="47.12542" lon="-1.78591">
        <ele>77</ele>
        <time>2020-12-25T08:39:17.000Z</time>
      </trkpt>
      <trkpt lat="47.12538" lon="-1.78608">
        <ele>77</ele>
        <time>2020-12-25T08:39:19.000Z</time>
      </trkpt>
      <trkpt lat="47.12533" lon="-1.78624">
        <ele>77</ele>
        <time>2020-12-25T08:39:21.000Z</time>
      </trkpt>
      <trkpt lat="47.12528" lon="-1.78641">
        <ele>76</ele>
        <time>2020-12-25T08:39:23.000Z</time>
      </trkpt>
      <trkpt lat="47.12522" lon="-1.78657">
        <ele>77</ele>
        <time>2020-12-25T08:39:25.000Z</time>
      </trkpt>
      <trkpt lat="47.12516" lon="-1.78672">
        <ele>76</ele>
        <time>2020-12-25T08:39:27.000Z</time>
      </trkpt>
      <trkpt lat="47.1251" lon="-1.78688">
        <ele>77</ele>
        <time>2020-12-25T08:39:29.000Z</time>
      </trkpt>
      <trkpt lat="47.12505" lon="-1.78704">
        <ele>77</ele>
        <time>2020-12-25T08:39:31.000Z</time>
      </trkpt>
      <trkpt lat="47.125" lon="-1.78721">
        <ele>77</ele>
        <time>2020-12-25T08:39:33.000Z</time>
      </trkpt>
      <trkpt lat="47.12495" lon="-1.78738">
        <ele>77</ele>
        <time>2020-12-25T08:39:35.000Z</time>
      </trkpt>
      <trkpt lat="47.12492" lon="-1.78754">
        <ele>77</ele>
        <time>2020-12-25T08:39:37.000Z</time>
      </trkpt>
      <trkpt lat="47.12488" lon="-1.78772">
        <ele>77</ele>
        <time>2020-12-25T08:39:39.000Z</time>
      </trkpt>
      <trkpt lat="47.12484" lon="-1.78788">
        <ele>77</ele>
        <time>2020-12-25T08:39:41.000Z</time>
      </trkpt>
      <trkpt lat="47.12479" lon="-1.78806">
        <ele>77</ele>
        <time>2020-12-25T08:39:43.000Z</time>
      </trkpt>
      <trkpt lat="47.12476" lon="-1.78823">
        <ele>77</ele>
        <time>2020-12-25T08:39:45.000Z</time>
      </trkpt>
      <trkpt lat="47.12473" lon="-1.7884">
        <ele>77</ele>
        <time>2020-12-25T08:39:47.000Z</time>
      </trkpt>
      <trkpt lat="47.12471" lon="-1.78858">
        <ele>77</ele>
        <time>2020-12-25T08:39:49.000Z</time>
      </trkpt>
      <trkpt lat="47.1247" lon="-1.78877">
        <ele>77</ele>
        <time>2020-12-25T08:39:51.000Z</time>
      </trkpt>
      <trkpt lat="47.12468" lon="-1.78895">
        <ele>77</ele>
        <time>2020-12-25T08:39:53.000Z</time>
      </trkpt>
      <trkpt lat="47.12466" lon="-1.78912">
        <ele>77</ele>
        <time>2020-12-25T08:39:55.000Z</time>
      </trkpt>
      <trkpt lat="47.12463" lon="-1.78929">
        <ele>77</ele>
        <time>2020-12-25T08:39:57.000Z</time>
      </trkpt>
      <trkpt lat="47.1246" lon="-1.78946">
        <ele>77</ele>
        <time>2020-12-25T08:39:59.000Z</time>
      </trkpt>
      <trkpt lat="47.12456" lon="-1.78963">
        <ele>77</ele>
        <time>2020-12-25T08:40:01.000Z</time>
      </trkpt>
      <trkpt lat="47.12452" lon="-1.78979">
        <ele>77</ele>
        <time>2020-12-25T08:40:03.000Z</time>
      </trkpt>
      <trkpt lat="47.12447" lon="-1.78996">
        <ele>77</ele>
        <time>2020-12-25T08:40:05.000Z</time>
      </trkpt>
      <trkpt lat="47.12443" lon="-1.79012">
        <ele>77</ele>
        <time>2020-12-25T08:40:07.000Z</time>
      </trkpt>
      <trkpt lat="47.12439" lon="-1.79029">
        <ele>76</ele>
        <time>2020-12-25T08:40:09.000Z</time>
      </trkpt>
      <trkpt lat="47.12435" lon="-1.79045">
        <ele>76</ele>
        <time>2020-12-25T08:40:11.000Z</time>
      </trkpt>
      <trkpt lat="47.12431" lon="-1.79062">
        <ele>76</ele>
        <time>2020-12-25T08:40:13.000Z</time>
      </trkpt>
      <trkpt lat="47.12429" lon="-1.79078">
        <ele>76</ele>
        <time>2020-12-25T08:40:15.000Z</time>
      </trkpt>
      <trkpt lat="47.12426" lon="-1.79095">
        <ele>76</ele>
        <time>2020-12-25T08:40:17.000Z</time>
      </trkpt>
      <trkpt lat="47.12422" lon="-1.79112">
        <ele>76</ele>
        <time>2020-12-25T08:40:19.000Z</time>
      </trkpt>
      <trkpt lat="47.1242" lon="-1.79128">
        <ele>77</ele>
        <time>2020-12-25T08:40:21.000Z</time>
      </trkpt>
      <trkpt lat="47.12419" lon="-1.79146">
        <ele>76</ele>
        <time>2020-12-25T08:40:23.000Z</time>
      </trkpt>
      <trkpt lat="47.12419" lon="-1.79164">
        <ele>76</ele>
        <time>2020-12-25T08:40:25.000Z</time>
      </trkpt>
      <trkpt lat="47.12421" lon="-1.79181">
        <ele>76</ele>
        <time>2020-12-25T08:40:27.000Z</time>
      </trkpt>
      <trkpt lat="47.12423" lon="-1.79198">
        <ele>76</ele>
        <time>2020-12-25T08:40:29.000Z</time>
      </trkpt>
      <trkpt lat="47.12424" lon="-1.79215">
        <ele>76</ele>
        <time>2020-12-25T08:40:31.000Z</time>
      </trkpt>
      <trkpt lat="47.12425" lon="-1.79233">
        <ele>76</ele>
        <time>2020-12-25T08:40:33.000Z</time>
      </trkpt>
      <trkpt lat="47.12426" lon="-1.7925">
        <ele>75</ele>
        <time>2020-12-25T08:40:35.000Z</time>
      </trkpt>
      <trkpt lat="47.12423" lon="-1.79266">
        <ele>75</ele>
        <time>2020-12-25T08:40:37.000Z</time>
      </trkpt>
      <trkpt lat="47.12419" lon="-1.79282">
        <ele>75</ele>
        <time>2020-12-25T08:40:39.000Z</time>
      </trkpt>
      <trkpt lat="47.12413" lon="-1.79296">
        <ele>76</ele>
        <time>2020-12-25T08:40:41.000Z</time>
      </trkpt>
      <trkpt lat="47.12406" lon="-1.79311">
        <ele>75</ele>
        <time>2020-12-25T08:40:43.000Z</time>
      </trkpt>
      <trkpt lat="47.12399" lon="-1.79325">
        <ele>75</ele>
        <time>2020-12-25T08:40:45.000Z</time>
      </trkpt>
      <trkpt lat="47.12393" lon="-1.79339">
        <ele>75</ele>
        <time>2020-12-25T08:40:47.000Z</time>
      </trkpt>
      <trkpt lat="47.12387" lon="-1.79353">
        <ele>75</ele>
        <time>2020-12-25T08:40:49.000Z</time>
      </trkpt>
      <trkpt lat="47.1238" lon="-1.79368">
        <ele>75</ele>
        <time>2020-12-25T08:40:51.000Z</time>
      </trkpt>
      <trkpt lat="47.12374" lon="-1.79382">
        <ele>75</ele>
        <time>2020-12-25T08:40:53.000Z</time>
      </trkpt>
      <trkpt lat="47.12369" lon="-1.79397">
        <ele>75</ele>
        <time>2020-12-25T08:40:55.000Z</time>
      </trkpt>
      <trkpt lat="47.12363" lon="-1.79411">
        <ele>76</ele>
        <time>2020-12-25T08:40:57.000Z</time>
      </trkpt>
      <trkpt lat="47.12358" lon="-1.79427">
        <ele>76</ele>
        <time>2020-12-25T08:40:59.000Z</time>
      </trkpt>
      <trkpt lat="47.12354" lon="-1.79443">
        <ele>75</ele>
        <time>2020-12-25T08:41:01.000Z</time>
      </trkpt>
      <trkpt lat="47.12351" lon="-1.79459">
        <ele>75</ele>
        <time>2020-12-25T08:41:03.000Z</time>
      </trkpt>
      <trkpt lat="47.12348" lon="-1.79476">
        <ele>75</ele>
        <time>2020-12-25T08:41:05.000Z</time>
      </trkpt>
      <trkpt lat="47.12346" lon="-1.79493">
        <ele>76</ele>
        <time>2020-12-25T08:41:07.000Z</time>
      </trkpt>
      <trkpt lat="47.12343" lon="-1.79509">
        <ele>76</ele>
        <time>2020-12-25T08:41:09.000Z</time>
      </trkpt>
      <trkpt lat="47.12342" lon="-1.79526">
        <ele>76</ele>
        <time>2020-12-25T08:41:11.000Z</time>
      </trkpt>
      <trkpt lat="47.1234" lon="-1.79543">
        <ele>76</ele>
        <time>2020-12-25T08:41:13.000Z</time>
      </trkpt>
      <trkpt lat="47.12337" lon="-1.7956">
        <ele>76</ele>
        <time>2020-12-25T08:41:15.000Z</time>
      </trkpt>
      <trkpt lat="47.12334" lon="-1.79575">
        <ele>76</ele>
        <time>2020-12-25T08:41:17.000Z</time>
      </trkpt>
      <trkpt lat="47.12326" lon="-1.79589">
        <ele>76</ele>
        <time>2020-12-25T08:41:19.000Z</time>
      </trkpt>
      <trkpt lat="47.12316" lon="-1.79595">
        <ele>77</ele>
        <time>2020-12-25T08:41:21.000Z</time>
      </trkpt>
      <trkpt lat="47.12303" lon="-1.79596">
        <ele>77</ele>
        <time>2020-12-25T08:41:23.000Z</time>
      </trkpt>
      <trkpt lat="47.12291" lon="-1.79596">
        <ele>76</ele>
        <time>2020-12-25T08:41:25.000Z</time>
      </trkpt>
      <trkpt lat="47.12279" lon="-1.79596">
        <ele>76</ele>
        <time>2020-12-25T08:41:27.000Z</time>
      </trkpt>
      <trkpt lat="47.12267" lon="-1.79596">
        <ele>76</ele>
        <time>2020-12-25T08:41:29.000Z</time>
      </trkpt>
      <trkpt lat="47.12256" lon="-1.79595">
        <ele>76</ele>
        <time>2020-12-25T08:41:31.000Z</time>
      </trkpt>
      <trkpt lat="47.12244" lon="-1.79595">
        <ele>76</ele>
        <time>2020-12-25T08:41:33.000Z</time>
      </trkpt>
      <trkpt lat="47.12232" lon="-1.79595">
        <ele>76</ele>
        <time>2020-12-25T08:41:35.000Z</time>
      </trkpt>
      <trkpt lat="47.12221" lon="-1.79595">
        <ele>76</ele>
        <time>2020-12-25T08:41:37.000Z</time>
      </trkpt>
      <trkpt lat="47.1221" lon="-1.79595">
        <ele>76</ele>
        <time>2020-12-25T08:41:39.000Z</time>
      </trkpt>
      <trkpt lat="47.12199" lon="-1.79594">
        <ele>76</ele>
        <time>2020-12-25T08:41:41.000Z</time>
      </trkpt>
      <trkpt lat="47.12187" lon="-1.79594">
        <ele>76</ele>
        <time>2020-12-25T08:41:43.000Z</time>
      </trkpt>
      <trkpt lat="47.12175" lon="-1.79594">
        <ele>76</ele>
        <time>2020-12-25T08:41:45.000Z</time>
      </trkpt>
      <trkpt lat="47.12163" lon="-1.79594">
        <ele>75</ele>
        <time>2020-12-25T08:41:47.000Z</time>
      </trkpt>
      <trkpt lat="47.12151" lon="-1.79594">
        <ele>75</ele>
        <time>2020-12-25T08:41:49.000Z</time>
      </trkpt>
      <trkpt lat="47.1214" lon="-1.79595">
        <ele>75</ele>
        <time>2020-12-25T08:41:51.000Z</time>
      </trkpt>
      <trkpt lat="47.12127" lon="-1.79596">
        <ele>75</ele>
        <time>2020-12-25T08:41:53.000Z</time>
      </trkpt>
      <trkpt lat="47.12115" lon="-1.79597">
        <ele>75</ele>
        <time>2020-12-25T08:41:55.000Z</time>
      </trkpt>
      <trkpt lat="47.12103" lon="-1.79599">
        <ele>75</ele>
        <time>2020-12-25T08:41:57.000Z</time>
      </trkpt>
      <trkpt lat="47.1209" lon="-1.79604">
        <ele>74</ele>
        <time>2020-12-25T08:41:59.000Z</time>
      </trkpt>
      <trkpt lat="47.1208" lon="-1.79615">
        <ele>74</ele>
        <time>2020-12-25T08:42:01.000Z</time>
      </trkpt>
      <trkpt lat="47.1207" lon="-1.79626">
        <ele>73</ele>
        <time>2020-12-25T08:42:03.000Z</time>
      </trkpt>
      <trkpt lat="47.1206" lon="-1.79635">
        <ele>73</ele>
        <time>2020-12-25T08:42:05.000Z</time>
      </trkpt>
      <trkpt lat="47.1205" lon="-1.79646">
        <ele>73</ele>
        <time>2020-12-25T08:42:07.000Z</time>
      </trkpt>
      <trkpt lat="47.1204" lon="-1.79657">
        <ele>73</ele>
        <time>2020-12-25T08:42:09.000Z</time>
      </trkpt>
      <trkpt lat="47.12029" lon="-1.79667">
        <ele>73</ele>
        <time>2020-12-25T08:42:11.000Z</time>
      </trkpt>
      <trkpt lat="47.12019" lon="-1.79678">
        <ele>73</ele>
        <time>2020-12-25T08:42:13.000Z</time>
      </trkpt>
      <trkpt lat="47.12008" lon="-1.79688">
        <ele>73</ele>
        <time>2020-12-25T08:42:15.000Z</time>
      </trkpt>
      <trkpt lat="47.11998" lon="-1.79698">
        <ele>72</ele>
        <time>2020-12-25T08:42:17.000Z</time>
      </trkpt>
      <trkpt lat="47.11988" lon="-1.79709">
        <ele>72</ele>
        <time>2020-12-25T08:42:19.000Z</time>
      </trkpt>
      <trkpt lat="47.11978" lon="-1.79719">
        <ele>72</ele>
        <time>2020-12-25T08:42:21.000Z</time>
      </trkpt>
      <trkpt lat="47.11968" lon="-1.7973">
        <ele>72</ele>
        <time>2020-12-25T08:42:23.000Z</time>
      </trkpt>
      <trkpt lat="47.11959" lon="-1.79742">
        <ele>72</ele>
        <time>2020-12-25T08:42:25.000Z</time>
      </trkpt>
      <trkpt lat="47.11949" lon="-1.79754">
        <ele>72</ele>
        <time>2020-12-25T08:42:27.000Z</time>
      </trkpt>
      <trkpt lat="47.1194" lon="-1.79765">
        <ele>72</ele>
        <time>2020-12-25T08:42:29.000Z</time>
      </trkpt>
      <trkpt lat="47.11931" lon="-1.79778">
        <ele>72</ele>
        <time>2020-12-25T08:42:31.000Z</time>
      </trkpt>
      <trkpt lat="47.11921" lon="-1.79789">
        <ele>72</ele>
        <time>2020-12-25T08:42:33.000Z</time>
      </trkpt>
      <trkpt lat="47.11912" lon="-1.79801">
        <ele>72</ele>
        <time>2020-12-25T08:42:35.000Z</time>
      </trkpt>
      <trkpt lat="47.11903" lon="-1.79813">
        <ele>72</ele>
        <time>2020-12-25T08:42:37.000Z</time>
      </trkpt>
      <trkpt lat="47.11894" lon="-1.79823">
        <ele>72</ele>
        <time>2020-12-25T08:42:39.000Z</time>
      </trkpt>
      <trkpt lat="47.11884" lon="-1.79834">
        <ele>72</ele>
        <time>2020-12-25T08:42:41.000Z</time>
      </trkpt>
      <trkpt lat="47.11875" lon="-1.79844">
        <ele>71</ele>
        <time>2020-12-25T08:42:43.000Z</time>
      </trkpt>
      <trkpt lat="47.11865" lon="-1.79855">
        <ele>71</ele>
        <time>2020-12-25T08:42:45.000Z</time>
      </trkpt>
      <trkpt lat="47.11856" lon="-1.79865">
        <ele>71</ele>
        <time>2020-12-25T08:42:47.000Z</time>
      </trkpt>
      <trkpt lat="47.11846" lon="-1.79876">
        <ele>71</ele>
        <time>2020-12-25T08:42:49.000Z</time>
      </trkpt>
      <trkpt lat="47.11837" lon="-1.79885">
        <ele>70</ele>
        <time>2020-12-25T08:42:51.000Z</time>
      </trkpt>
      <trkpt lat="47.11828" lon="-1.79895">
        <ele>70</ele>
        <time>2020-12-25T08:42:53.000Z</time>
      </trkpt>
      <trkpt lat="47.11818" lon="-1.79905">
        <ele>70</ele>
        <time>2020-12-25T08:42:55.000Z</time>
      </trkpt>
      <trkpt lat="47.11809" lon="-1.79916">
        <ele>69</ele>
        <time>2020-12-25T08:42:57.000Z</time>
      </trkpt>
      <trkpt lat="47.118" lon="-1.79926">
        <ele>69</ele>
        <time>2020-12-25T08:42:59.000Z</time>
      </trkpt>
      <trkpt lat="47.11791" lon="-1.79936">
        <ele>68</ele>
        <time>2020-12-25T08:43:01.000Z</time>
      </trkpt>
      <trkpt lat="47.11782" lon="-1.79945">
        <ele>68</ele>
        <time>2020-12-25T08:43:03.000Z</time>
      </trkpt>
      <trkpt lat="47.11774" lon="-1.79955">
        <ele>68</ele>
        <time>2020-12-25T08:43:05.000Z</time>
      </trkpt>
      <trkpt lat="47.11768" lon="-1.79965">
        <ele>68</ele>
        <time>2020-12-25T08:43:07.000Z</time>
      </trkpt>
      <trkpt lat="47.11758" lon="-1.79976">
        <ele>68</ele>
        <time>2020-12-25T08:43:10.000Z</time>
      </trkpt>
      <trkpt lat="47.11746" lon="-1.79977">
        <ele>68</ele>
        <time>2020-12-25T08:43:12.000Z</time>
      </trkpt>
      <trkpt lat="47.11734" lon="-1.79975">
        <ele>69</ele>
        <time>2020-12-25T08:43:14.000Z</time>
      </trkpt>
      <trkpt lat="47.11721" lon="-1.79973">
        <ele>69</ele>
        <time>2020-12-25T08:43:16.000Z</time>
      </trkpt>
      <trkpt lat="47.11709" lon="-1.79971">
        <ele>69</ele>
        <time>2020-12-25T08:43:18.000Z</time>
      </trkpt>
      <trkpt lat="47.11697" lon="-1.79969">
        <ele>69</ele>
        <time>2020-12-25T08:43:20.000Z</time>
      </trkpt>
      <trkpt lat="47.11685" lon="-1.79967">
        <ele>69</ele>
        <time>2020-12-25T08:43:22.000Z</time>
      </trkpt>
      <trkpt lat="47.11673" lon="-1.79966">
        <ele>69</ele>
        <time>2020-12-25T08:43:24.000Z</time>
      </trkpt>
      <trkpt lat="47.11661" lon="-1.79963">
        <ele>70</ele>
        <time>2020-12-25T08:43:26.000Z</time>
      </trkpt>
      <trkpt lat="47.11649" lon="-1.79962">
        <ele>70</ele>
        <time>2020-12-25T08:43:28.000Z</time>
      </trkpt>
      <trkpt lat="47.11638" lon="-1.79961">
        <ele>70</ele>
        <time>2020-12-25T08:43:30.000Z</time>
      </trkpt>
      <trkpt lat="47.11626" lon="-1.79959">
        <ele>70</ele>
        <time>2020-12-25T08:43:32.000Z</time>
      </trkpt>
      <trkpt lat="47.11615" lon="-1.79957">
        <ele>70</ele>
        <time>2020-12-25T08:43:34.000Z</time>
      </trkpt>
      <trkpt lat="47.11603" lon="-1.79956">
        <ele>70</ele>
        <time>2020-12-25T08:43:36.000Z</time>
      </trkpt>
      <trkpt lat="47.11591" lon="-1.79955">
        <ele>70</ele>
        <time>2020-12-25T08:43:38.000Z</time>
      </trkpt>
      <trkpt lat="47.11579" lon="-1.79954">
        <ele>70</ele>
        <time>2020-12-25T08:43:40.000Z</time>
      </trkpt>
      <trkpt lat="47.11567" lon="-1.79955">
        <ele>70</ele>
        <time>2020-12-25T08:43:42.000Z</time>
      </trkpt>
      <trkpt lat="47.11554" lon="-1.79959">
        <ele>69</ele>
        <time>2020-12-25T08:43:44.000Z</time>
      </trkpt>
      <trkpt lat="47.11542" lon="-1.79966">
        <ele>69</ele>
        <time>2020-12-25T08:43:46.000Z</time>
      </trkpt>
      <trkpt lat="47.11532" lon="-1.79975">
        <ele>69</ele>
        <time>2020-12-25T08:43:48.000Z</time>
      </trkpt>
      <trkpt lat="47.11522" lon="-1.79986">
        <ele>68</ele>
        <time>2020-12-25T08:43:50.000Z</time>
      </trkpt>
      <trkpt lat="47.11512" lon="-1.79997">
        <ele>68</ele>
        <time>2020-12-25T08:43:52.000Z</time>
      </trkpt>
      <trkpt lat="47.11503" lon="-1.80009">
        <ele>68</ele>
        <time>2020-12-25T08:43:54.000Z</time>
      </trkpt>
      <trkpt lat="47.11494" lon="-1.80021">
        <ele>68</ele>
        <time>2020-12-25T08:43:56.000Z</time>
      </trkpt>
      <trkpt lat="47.11485" lon="-1.80033">
        <ele>68</ele>
        <time>2020-12-25T08:43:58.000Z</time>
      </trkpt>
      <trkpt lat="47.11477" lon="-1.80044">
        <ele>68</ele>
        <time>2020-12-25T08:44:00.000Z</time>
      </trkpt>
      <trkpt lat="47.11468" lon="-1.80056">
        <ele>68</ele>
        <time>2020-12-25T08:44:02.000Z</time>
      </trkpt>
      <trkpt lat="47.11458" lon="-1.80068">
        <ele>67</ele>
        <time>2020-12-25T08:44:04.000Z</time>
      </trkpt>
      <trkpt lat="47.11449" lon="-1.8008">
        <ele>67</ele>
        <time>2020-12-25T08:44:06.000Z</time>
      </trkpt>
      <trkpt lat="47.1144" lon="-1.80093">
        <ele>66</ele>
        <time>2020-12-25T08:44:08.000Z</time>
      </trkpt>
      <trkpt lat="47.1143" lon="-1.80105">
        <ele>66</ele>
        <time>2020-12-25T08:44:10.000Z</time>
      </trkpt>
      <trkpt lat="47.11421" lon="-1.80118">
        <ele>66</ele>
        <time>2020-12-25T08:44:12.000Z</time>
      </trkpt>
      <trkpt lat="47.11412" lon="-1.80131">
        <ele>66</ele>
        <time>2020-12-25T08:44:14.000Z</time>
      </trkpt>
      <trkpt lat="47.11402" lon="-1.80144">
        <ele>66</ele>
        <time>2020-12-25T08:44:16.000Z</time>
      </trkpt>
      <trkpt lat="47.11392" lon="-1.80156">
        <ele>66</ele>
        <time>2020-12-25T08:44:18.000Z</time>
      </trkpt>
      <trkpt lat="47.11383" lon="-1.8017">
        <ele>65</ele>
        <time>2020-12-25T08:44:20.000Z</time>
      </trkpt>
      <trkpt lat="47.11373" lon="-1.80182">
        <ele>65</ele>
        <time>2020-12-25T08:44:22.000Z</time>
      </trkpt>
      <trkpt lat="47.11363" lon="-1.80194">
        <ele>65</ele>
        <time>2020-12-25T08:44:24.000Z</time>
      </trkpt>
      <trkpt lat="47.11353" lon="-1.80208">
        <ele>64</ele>
        <time>2020-12-25T08:44:26.000Z</time>
      </trkpt>
      <trkpt lat="47.11344" lon="-1.80222">
        <ele>64</ele>
        <time>2020-12-25T08:44:28.000Z</time>
      </trkpt>
      <trkpt lat="47.11334" lon="-1.80236">
        <ele>63</ele>
        <time>2020-12-25T08:44:30.000Z</time>
      </trkpt>
      <trkpt lat="47.11325" lon="-1.8025">
        <ele>63</ele>
        <time>2020-12-25T08:44:32.000Z</time>
      </trkpt>
      <trkpt lat="47.11316" lon="-1.80265">
        <ele>63</ele>
        <time>2020-12-25T08:44:34.000Z</time>
      </trkpt>
      <trkpt lat="47.11306" lon="-1.80278">
        <ele>63</ele>
        <time>2020-12-25T08:44:36.000Z</time>
      </trkpt>
      <trkpt lat="47.11296" lon="-1.80291">
        <ele>63</ele>
        <time>2020-12-25T08:44:38.000Z</time>
      </trkpt>
      <trkpt lat="47.11286" lon="-1.80305">
        <ele>63</ele>
        <time>2020-12-25T08:44:40.000Z</time>
      </trkpt>
      <trkpt lat="47.11276" lon="-1.80318">
        <ele>63</ele>
        <time>2020-12-25T08:44:42.000Z</time>
      </trkpt>
      <trkpt lat="47.11266" lon="-1.80332">
        <ele>63</ele>
        <time>2020-12-25T08:44:44.000Z</time>
      </trkpt>
      <trkpt lat="47.11257" lon="-1.80344">
        <ele>63</ele>
        <time>2020-12-25T08:44:46.000Z</time>
      </trkpt>
      <trkpt lat="47.11247" lon="-1.80358">
        <ele>63</ele>
        <time>2020-12-25T08:44:48.000Z</time>
      </trkpt>
      <trkpt lat="47.11237" lon="-1.8037">
        <ele>63</ele>
        <time>2020-12-25T08:44:50.000Z</time>
      </trkpt>
      <trkpt lat="47.11227" lon="-1.80382">
        <ele>63</ele>
        <time>2020-12-25T08:44:52.000Z</time>
      </trkpt>
      <trkpt lat="47.11216" lon="-1.80395">
        <ele>63</ele>
        <time>2020-12-25T08:44:54.000Z</time>
      </trkpt>
      <trkpt lat="47.11206" lon="-1.80407">
        <ele>63</ele>
        <time>2020-12-25T08:44:56.000Z</time>
      </trkpt>
      <trkpt lat="47.11195" lon="-1.80417">
        <ele>63</ele>
        <time>2020-12-25T08:44:58.000Z</time>
      </trkpt>
      <trkpt lat="47.11184" lon="-1.80427">
        <ele>63</ele>
        <time>2020-12-25T08:45:00.000Z</time>
      </trkpt>
      <trkpt lat="47.11172" lon="-1.80435">
        <ele>63</ele>
        <time>2020-12-25T08:45:02.000Z</time>
      </trkpt>
      <trkpt lat="47.11161" lon="-1.80443">
        <ele>63</ele>
        <time>2020-12-25T08:45:04.000Z</time>
      </trkpt>
      <trkpt lat="47.11149" lon="-1.80451">
        <ele>63</ele>
        <time>2020-12-25T08:45:06.000Z</time>
      </trkpt>
      <trkpt lat="47.11137" lon="-1.80459">
        <ele>63</ele>
        <time>2020-12-25T08:45:08.000Z</time>
      </trkpt>
      <trkpt lat="47.11125" lon="-1.80467">
        <ele>63</ele>
        <time>2020-12-25T08:45:10.000Z</time>
      </trkpt>
      <trkpt lat="47.11114" lon="-1.80474">
        <ele>63</ele>
        <time>2020-12-25T08:45:12.000Z</time>
      </trkpt>
      <trkpt lat="47.11102" lon="-1.80481">
        <ele>63</ele>
        <time>2020-12-25T08:45:14.000Z</time>
      </trkpt>
      <trkpt lat="47.1109" lon="-1.8049">
        <ele>62</ele>
        <time>2020-12-25T08:45:16.000Z</time>
      </trkpt>
      <trkpt lat="47.11078" lon="-1.80497">
        <ele>63</ele>
        <time>2020-12-25T08:45:18.000Z</time>
      </trkpt>
      <trkpt lat="47.11067" lon="-1.80504">
        <ele>63</ele>
        <time>2020-12-25T08:45:20.000Z</time>
      </trkpt>
      <trkpt lat="47.11056" lon="-1.80512">
        <ele>63</ele>
        <time>2020-12-25T08:45:22.000Z</time>
      </trkpt>
      <trkpt lat="47.11044" lon="-1.8052">
        <ele>63</ele>
        <time>2020-12-25T08:45:24.000Z</time>
      </trkpt>
      <trkpt lat="47.11033" lon="-1.80527">
        <ele>63</ele>
        <time>2020-12-25T08:45:26.000Z</time>
      </trkpt>
      <trkpt lat="47.11022" lon="-1.80535">
        <ele>62</ele>
        <time>2020-12-25T08:45:28.000Z</time>
      </trkpt>
      <trkpt lat="47.11011" lon="-1.80542">
        <ele>62</ele>
        <time>2020-12-25T08:45:30.000Z</time>
      </trkpt>
      <trkpt lat="47.11" lon="-1.80549">
        <ele>62</ele>
        <time>2020-12-25T08:45:32.000Z</time>
      </trkpt>
      <trkpt lat="47.10988" lon="-1.80557">
        <ele>61</ele>
        <time>2020-12-25T08:45:34.000Z</time>
      </trkpt>
      <trkpt lat="47.10977" lon="-1.80566">
        <ele>61</ele>
        <time>2020-12-25T08:45:36.000Z</time>
      </trkpt>
      <trkpt lat="47.10965" lon="-1.80574">
        <ele>61</ele>
        <time>2020-12-25T08:45:38.000Z</time>
      </trkpt>
      <trkpt lat="47.10953" lon="-1.80581">
        <ele>61</ele>
        <time>2020-12-25T08:45:40.000Z</time>
      </trkpt>
      <trkpt lat="47.10941" lon="-1.80588">
        <ele>61</ele>
        <time>2020-12-25T08:45:42.000Z</time>
      </trkpt>
      <trkpt lat="47.10929" lon="-1.80596">
        <ele>61</ele>
        <time>2020-12-25T08:45:44.000Z</time>
      </trkpt>
      <trkpt lat="47.10917" lon="-1.80604">
        <ele>61</ele>
        <time>2020-12-25T08:45:46.000Z</time>
      </trkpt>
      <trkpt lat="47.10906" lon="-1.80612">
        <ele>61</ele>
        <time>2020-12-25T08:45:48.000Z</time>
      </trkpt>
      <trkpt lat="47.10894" lon="-1.8062">
        <ele>62</ele>
        <time>2020-12-25T08:45:50.000Z</time>
      </trkpt>
      <trkpt lat="47.10883" lon="-1.80626">
        <ele>62</ele>
        <time>2020-12-25T08:45:52.000Z</time>
      </trkpt>
      <trkpt lat="47.10872" lon="-1.80632">
        <ele>62</ele>
        <time>2020-12-25T08:45:54.000Z</time>
      </trkpt>
      <trkpt lat="47.1086" lon="-1.80638">
        <ele>62</ele>
        <time>2020-12-25T08:45:56.000Z</time>
      </trkpt>
      <trkpt lat="47.10849" lon="-1.80643">
        <ele>62</ele>
        <time>2020-12-25T08:45:58.000Z</time>
      </trkpt>
      <trkpt lat="47.10837" lon="-1.80649">
        <ele>62</ele>
        <time>2020-12-25T08:46:00.000Z</time>
      </trkpt>
      <trkpt lat="47.10825" lon="-1.80653">
        <ele>62</ele>
        <time>2020-12-25T08:46:02.000Z</time>
      </trkpt>
      <trkpt lat="47.10812" lon="-1.80658">
        <ele>61</ele>
        <time>2020-12-25T08:46:04.000Z</time>
      </trkpt>
      <trkpt lat="47.10799" lon="-1.80663">
        <ele>61</ele>
        <time>2020-12-25T08:46:06.000Z</time>
      </trkpt>
      <trkpt lat="47.10786" lon="-1.80667">
        <ele>60</ele>
        <time>2020-12-25T08:46:08.000Z</time>
      </trkpt>
      <trkpt lat="47.10773" lon="-1.80672">
        <ele>61</ele>
        <time>2020-12-25T08:46:10.000Z</time>
      </trkpt>
      <trkpt lat="47.1076" lon="-1.80676">
        <ele>60</ele>
        <time>2020-12-25T08:46:12.000Z</time>
      </trkpt>
      <trkpt lat="47.10747" lon="-1.80679">
        <ele>60</ele>
        <time>2020-12-25T08:46:14.000Z</time>
      </trkpt>
      <trkpt lat="47.10734" lon="-1.80681">
        <ele>60</ele>
        <time>2020-12-25T08:46:16.000Z</time>
      </trkpt>
      <trkpt lat="47.10721" lon="-1.80684">
        <ele>60</ele>
        <time>2020-12-25T08:46:18.000Z</time>
      </trkpt>
      <trkpt lat="47.10709" lon="-1.80685">
        <ele>60</ele>
        <time>2020-12-25T08:46:20.000Z</time>
      </trkpt>
      <trkpt lat="47.10696" lon="-1.80687">
        <ele>60</ele>
        <time>2020-12-25T08:46:22.000Z</time>
      </trkpt>
      <trkpt lat="47.10684" lon="-1.80688">
        <ele>60</ele>
        <time>2020-12-25T08:46:24.000Z</time>
      </trkpt>
      <trkpt lat="47.10672" lon="-1.80689">
        <ele>60</ele>
        <time>2020-12-25T08:46:26.000Z</time>
      </trkpt>
      <trkpt lat="47.10659" lon="-1.80691">
        <ele>60</ele>
        <time>2020-12-25T08:46:28.000Z</time>
      </trkpt>
      <trkpt lat="47.10646" lon="-1.80692">
        <ele>60</ele>
        <time>2020-12-25T08:46:30.000Z</time>
      </trkpt>
      <trkpt lat="47.10634" lon="-1.80695">
        <ele>59</ele>
        <time>2020-12-25T08:46:32.000Z</time>
      </trkpt>
      <trkpt lat="47.10622" lon="-1.80699">
        <ele>60</ele>
        <time>2020-12-25T08:46:34.000Z</time>
      </trkpt>
      <trkpt lat="47.1061" lon="-1.80703">
        <ele>59</ele>
        <time>2020-12-25T08:46:36.000Z</time>
      </trkpt>
      <trkpt lat="47.10598" lon="-1.80708">
        <ele>59</ele>
        <time>2020-12-25T08:46:38.000Z</time>
      </trkpt>
      <trkpt lat="47.10586" lon="-1.80716">
        <ele>59</ele>
        <time>2020-12-25T08:46:40.000Z</time>
      </trkpt>
      <trkpt lat="47.10575" lon="-1.80726">
        <ele>59</ele>
        <time>2020-12-25T08:46:42.000Z</time>
      </trkpt>
      <trkpt lat="47.10565" lon="-1.80736">
        <ele>59</ele>
        <time>2020-12-25T08:46:44.000Z</time>
      </trkpt>
      <trkpt lat="47.10556" lon="-1.80748">
        <ele>59</ele>
        <time>2020-12-25T08:46:46.000Z</time>
      </trkpt>
      <trkpt lat="47.10546" lon="-1.8076">
        <ele>59</ele>
        <time>2020-12-25T08:46:48.000Z</time>
      </trkpt>
      <trkpt lat="47.10537" lon="-1.80771">
        <ele>58</ele>
        <time>2020-12-25T08:46:50.000Z</time>
      </trkpt>
      <trkpt lat="47.10528" lon="-1.80782">
        <ele>58</ele>
        <time>2020-12-25T08:46:52.000Z</time>
      </trkpt>
      <trkpt lat="47.10518" lon="-1.80795">
        <ele>58</ele>
        <time>2020-12-25T08:46:54.000Z</time>
      </trkpt>
      <trkpt lat="47.10508" lon="-1.80808">
        <ele>58</ele>
        <time>2020-12-25T08:46:56.000Z</time>
      </trkpt>
      <trkpt lat="47.10496" lon="-1.80815">
        <ele>58</ele>
        <time>2020-12-25T08:46:58.000Z</time>
      </trkpt>
      <trkpt lat="47.10485" lon="-1.80826">
        <ele>58</ele>
        <time>2020-12-25T08:47:00.000Z</time>
      </trkpt>
      <trkpt lat="47.10476" lon="-1.80838">
        <ele>57</ele>
        <time>2020-12-25T08:47:02.000Z</time>
      </trkpt>
      <trkpt lat="47.10467" lon="-1.80852">
        <ele>57</ele>
        <time>2020-12-25T08:47:04.000Z</time>
      </trkpt>
      <trkpt lat="47.10459" lon="-1.80865">
        <ele>57</ele>
        <time>2020-12-25T08:47:06.000Z</time>
      </trkpt>
      <trkpt lat="47.10451" lon="-1.8088">
        <ele>58</ele>
        <time>2020-12-25T08:47:08.000Z</time>
      </trkpt>
      <trkpt lat="47.10444" lon="-1.80893">
        <ele>57</ele>
        <time>2020-12-25T08:47:10.000Z</time>
      </trkpt>
      <trkpt lat="47.10436" lon="-1.80904">
        <ele>57</ele>
        <time>2020-12-25T08:47:12.000Z</time>
      </trkpt>
      <trkpt lat="47.10429" lon="-1.80916">
        <ele>58</ele>
        <time>2020-12-25T08:47:14.000Z</time>
      </trkpt>
      <trkpt lat="47.1042" lon="-1.80925">
        <ele>59</ele>
        <time>2020-12-25T08:47:16.000Z</time>
      </trkpt>
      <trkpt lat="47.10412" lon="-1.80936">
        <ele>60</ele>
        <time>2020-12-25T08:47:18.000Z</time>
      </trkpt>
      <trkpt lat="47.10405" lon="-1.80948">
        <ele>61</ele>
        <time>2020-12-25T08:47:20.000Z</time>
      </trkpt>
      <trkpt lat="47.10398" lon="-1.80961">
        <ele>61</ele>
        <time>2020-12-25T08:47:22.000Z</time>
      </trkpt>
      <trkpt lat="47.10391" lon="-1.80972">
        <ele>61</ele>
        <time>2020-12-25T08:47:24.000Z</time>
      </trkpt>
      <trkpt lat="47.10384" lon="-1.80982">
        <ele>62</ele>
        <time>2020-12-25T08:47:26.000Z</time>
      </trkpt>
      <trkpt lat="47.10379" lon="-1.80992">
        <ele>61</ele>
        <time>2020-12-25T08:47:28.000Z</time>
      </trkpt>
      <trkpt lat="47.10376" lon="-1.81007">
        <ele>62</ele>
        <time>2020-12-25T08:47:30.000Z</time>
      </trkpt>
      <trkpt lat="47.10371" lon="-1.81022">
        <ele>62</ele>
        <time>2020-12-25T08:47:32.000Z</time>
      </trkpt>
      <trkpt lat="47.10366" lon="-1.81036">
        <ele>62</ele>
        <time>2020-12-25T08:47:34.000Z</time>
      </trkpt>
      <trkpt lat="47.10359" lon="-1.81045">
        <ele>62</ele>
        <time>2020-12-25T08:47:36.000Z</time>
      </trkpt>
      <trkpt lat="47.10348" lon="-1.81036">
        <ele>62</ele>
        <time>2020-12-25T08:47:39.000Z</time>
      </trkpt>
      <trkpt lat="47.10341" lon="-1.81022">
        <ele>61</ele>
        <time>2020-12-25T08:47:42.000Z</time>
      </trkpt>
      <trkpt lat="47.1033" lon="-1.81016">
        <ele>61</ele>
        <time>2020-12-25T08:47:44.000Z</time>
      </trkpt>
      <trkpt lat="47.10318" lon="-1.81012">
        <ele>61</ele>
        <time>2020-12-25T08:47:46.000Z</time>
      </trkpt>
      <trkpt lat="47.10306" lon="-1.8101">
        <ele>60</ele>
        <time>2020-12-25T08:47:48.000Z</time>
      </trkpt>
      <trkpt lat="47.10293" lon="-1.81009">
        <ele>60</ele>
        <time>2020-12-25T08:47:50.000Z</time>
      </trkpt>
      <trkpt lat="47.10279" lon="-1.81007">
        <ele>61</ele>
        <time>2020-12-25T08:47:52.000Z</time>
      </trkpt>
      <trkpt lat="47.10265" lon="-1.81008">
        <ele>61</ele>
        <time>2020-12-25T08:47:54.000Z</time>
      </trkpt>
      <trkpt lat="47.10251" lon="-1.81008">
        <ele>61</ele>
        <time>2020-12-25T08:47:56.000Z</time>
      </trkpt>
      <trkpt lat="47.10237" lon="-1.8101">
        <ele>61</ele>
        <time>2020-12-25T08:47:58.000Z</time>
      </trkpt>
      <trkpt lat="47.10223" lon="-1.81009">
        <ele>62</ele>
        <time>2020-12-25T08:48:00.000Z</time>
      </trkpt>
      <trkpt lat="47.10209" lon="-1.81005">
        <ele>61</ele>
        <time>2020-12-25T08:48:02.000Z</time>
      </trkpt>
      <trkpt lat="47.10195" lon="-1.80998">
        <ele>61</ele>
        <time>2020-12-25T08:48:04.000Z</time>
      </trkpt>
      <trkpt lat="47.10183" lon="-1.80992">
        <ele>60</ele>
        <time>2020-12-25T08:48:06.000Z</time>
      </trkpt>
      <trkpt lat="47.10171" lon="-1.80987">
        <ele>60</ele>
        <time>2020-12-25T08:48:08.000Z</time>
      </trkpt>
      <trkpt lat="47.1016" lon="-1.8098">
        <ele>60</ele>
        <time>2020-12-25T08:48:10.000Z</time>
      </trkpt>
      <trkpt lat="47.1015" lon="-1.80973">
        <ele>60</ele>
        <time>2020-12-25T08:48:12.000Z</time>
      </trkpt>
      <trkpt lat="47.10139" lon="-1.80971">
        <ele>60</ele>
        <time>2020-12-25T08:48:14.000Z</time>
      </trkpt>
      <trkpt lat="47.10128" lon="-1.80971">
        <ele>59</ele>
        <time>2020-12-25T08:48:16.000Z</time>
      </trkpt>
      <trkpt lat="47.10117" lon="-1.80971">
        <ele>57</ele>
        <time>2020-12-25T08:48:18.000Z</time>
      </trkpt>
      <trkpt lat="47.10105" lon="-1.80972">
        <ele>57</ele>
        <time>2020-12-25T08:48:20.000Z</time>
      </trkpt>
      <trkpt lat="47.10093" lon="-1.80972">
        <ele>56</ele>
        <time>2020-12-25T08:48:22.000Z</time>
      </trkpt>
      <trkpt lat="47.10082" lon="-1.80972">
        <ele>56</ele>
        <time>2020-12-25T08:48:24.000Z</time>
      </trkpt>
      <trkpt lat="47.1007" lon="-1.80972">
        <ele>56</ele>
        <time>2020-12-25T08:48:26.000Z</time>
      </trkpt>
      <trkpt lat="47.10059" lon="-1.80972">
        <ele>55</ele>
        <time>2020-12-25T08:48:28.000Z</time>
      </trkpt>
      <trkpt lat="47.10048" lon="-1.80972">
        <ele>55</ele>
        <time>2020-12-25T08:48:30.000Z</time>
      </trkpt>
      <trkpt lat="47.10037" lon="-1.80974">
        <ele>55</ele>
        <time>2020-12-25T08:48:32.000Z</time>
      </trkpt>
      <trkpt lat="47.10025" lon="-1.80976">
        <ele>55</ele>
        <time>2020-12-25T08:48:34.000Z</time>
      </trkpt>
      <trkpt lat="47.10014" lon="-1.80977">
        <ele>55</ele>
        <time>2020-12-25T08:48:36.000Z</time>
      </trkpt>
      <trkpt lat="47.10003" lon="-1.80977">
        <ele>55</ele>
        <time>2020-12-25T08:48:38.000Z</time>
      </trkpt>
      <trkpt lat="47.09991" lon="-1.80977">
        <ele>55</ele>
        <time>2020-12-25T08:48:40.000Z</time>
      </trkpt>
      <trkpt lat="47.09981" lon="-1.80976">
        <ele>56</ele>
        <time>2020-12-25T08:48:42.000Z</time>
      </trkpt>
      <trkpt lat="47.0997" lon="-1.80976">
        <ele>56</ele>
        <time>2020-12-25T08:48:44.000Z</time>
      </trkpt>
      <trkpt lat="47.09959" lon="-1.80977">
        <ele>57</ele>
        <time>2020-12-25T08:48:46.000Z</time>
      </trkpt>
      <trkpt lat="47.09948" lon="-1.80979">
        <ele>58</ele>
        <time>2020-12-25T08:48:48.000Z</time>
      </trkpt>
      <trkpt lat="47.09938" lon="-1.80981">
        <ele>58</ele>
        <time>2020-12-25T08:48:50.000Z</time>
      </trkpt>
      <trkpt lat="47.09927" lon="-1.80982">
        <ele>58</ele>
        <time>2020-12-25T08:48:52.000Z</time>
      </trkpt>
      <trkpt lat="47.09917" lon="-1.80982">
        <ele>58</ele>
        <time>2020-12-25T08:48:54.000Z</time>
      </trkpt>
      <trkpt lat="47.09906" lon="-1.80983">
        <ele>58</ele>
        <time>2020-12-25T08:48:56.000Z</time>
      </trkpt>
      <trkpt lat="47.09895" lon="-1.80984">
        <ele>59</ele>
        <time>2020-12-25T08:48:58.000Z</time>
      </trkpt>
      <trkpt lat="47.09883" lon="-1.80984">
        <ele>60</ele>
        <time>2020-12-25T08:49:00.000Z</time>
      </trkpt>
      <trkpt lat="47.09873" lon="-1.80985">
        <ele>60</ele>
        <time>2020-12-25T08:49:02.000Z</time>
      </trkpt>
      <trkpt lat="47.09862" lon="-1.80986">
        <ele>60</ele>
        <time>2020-12-25T08:49:04.000Z</time>
      </trkpt>
      <trkpt lat="47.09851" lon="-1.80986">
        <ele>60</ele>
        <time>2020-12-25T08:49:06.000Z</time>
      </trkpt>
      <trkpt lat="47.09841" lon="-1.80986">
        <ele>60</ele>
        <time>2020-12-25T08:49:08.000Z</time>
      </trkpt>
      <trkpt lat="47.09831" lon="-1.80987">
        <ele>60</ele>
        <time>2020-12-25T08:49:10.000Z</time>
      </trkpt>
      <trkpt lat="47.09822" lon="-1.80988">
        <ele>59</ele>
        <time>2020-12-25T08:49:12.000Z</time>
      </trkpt>
      <trkpt lat="47.09813" lon="-1.8099">
        <ele>60</ele>
        <time>2020-12-25T08:49:14.000Z</time>
      </trkpt>
      <trkpt lat="47.09802" lon="-1.80989">
        <ele>60</ele>
        <time>2020-12-25T08:49:16.000Z</time>
      </trkpt>
      <trkpt lat="47.09792" lon="-1.80988">
        <ele>60</ele>
        <time>2020-12-25T08:49:18.000Z</time>
      </trkpt>
      <trkpt lat="47.0978" lon="-1.80987">
        <ele>60</ele>
        <time>2020-12-25T08:49:20.000Z</time>
      </trkpt>
      <trkpt lat="47.09769" lon="-1.80985">
        <ele>60</ele>
        <time>2020-12-25T08:49:22.000Z</time>
      </trkpt>
      <trkpt lat="47.09757" lon="-1.80983">
        <ele>60</ele>
        <time>2020-12-25T08:49:24.000Z</time>
      </trkpt>
      <trkpt lat="47.09745" lon="-1.8098">
        <ele>60</ele>
        <time>2020-12-25T08:49:26.000Z</time>
      </trkpt>
      <trkpt lat="47.09733" lon="-1.80978">
        <ele>59</ele>
        <time>2020-12-25T08:49:28.000Z</time>
      </trkpt>
      <trkpt lat="47.09722" lon="-1.80975">
        <ele>60</ele>
        <time>2020-12-25T08:49:30.000Z</time>
      </trkpt>
      <trkpt lat="47.0971" lon="-1.80972">
        <ele>60</ele>
        <time>2020-12-25T08:49:32.000Z</time>
      </trkpt>
      <trkpt lat="47.09698" lon="-1.8097">
        <ele>60</ele>
        <time>2020-12-25T08:49:34.000Z</time>
      </trkpt>
      <trkpt lat="47.09685" lon="-1.80968">
        <ele>59</ele>
        <time>2020-12-25T08:49:36.000Z</time>
      </trkpt>
      <trkpt lat="47.09673" lon="-1.80965">
        <ele>59</ele>
        <time>2020-12-25T08:49:38.000Z</time>
      </trkpt>
      <trkpt lat="47.0966" lon="-1.80962">
        <ele>58</ele>
        <time>2020-12-25T08:49:40.000Z</time>
      </trkpt>
      <trkpt lat="47.09647" lon="-1.80959">
        <ele>57</ele>
        <time>2020-12-25T08:49:42.000Z</time>
      </trkpt>
      <trkpt lat="47.09635" lon="-1.80955">
        <ele>57</ele>
        <time>2020-12-25T08:49:44.000Z</time>
      </trkpt>
      <trkpt lat="47.09622" lon="-1.80952">
        <ele>59</ele>
        <time>2020-12-25T08:49:46.000Z</time>
      </trkpt>
      <trkpt lat="47.0961" lon="-1.8095">
        <ele>59</ele>
        <time>2020-12-25T08:49:48.000Z</time>
      </trkpt>
      <trkpt lat="47.09598" lon="-1.80948">
        <ele>59</ele>
        <time>2020-12-25T08:49:50.000Z</time>
      </trkpt>
      <trkpt lat="47.09586" lon="-1.80944">
        <ele>59</ele>
        <time>2020-12-25T08:49:52.000Z</time>
      </trkpt>
      <trkpt lat="47.09574" lon="-1.8094">
        <ele>59</ele>
        <time>2020-12-25T08:49:54.000Z</time>
      </trkpt>
      <trkpt lat="47.09561" lon="-1.80938">
        <ele>59</ele>
        <time>2020-12-25T08:49:56.000Z</time>
      </trkpt>
      <trkpt lat="47.09548" lon="-1.80935">
        <ele>58</ele>
        <time>2020-12-25T08:49:58.000Z</time>
      </trkpt>
      <trkpt lat="47.09536" lon="-1.80932">
        <ele>58</ele>
        <time>2020-12-25T08:50:00.000Z</time>
      </trkpt>
      <trkpt lat="47.09523" lon="-1.80929">
        <ele>58</ele>
        <time>2020-12-25T08:50:02.000Z</time>
      </trkpt>
      <trkpt lat="47.09511" lon="-1.80926">
        <ele>58</ele>
        <time>2020-12-25T08:50:04.000Z</time>
      </trkpt>
      <trkpt lat="47.09498" lon="-1.80925">
        <ele>58</ele>
        <time>2020-12-25T08:50:06.000Z</time>
      </trkpt>
      <trkpt lat="47.09486" lon="-1.80927">
        <ele>57</ele>
        <time>2020-12-25T08:50:08.000Z</time>
      </trkpt>
      <trkpt lat="47.09473" lon="-1.80932">
        <ele>57</ele>
        <time>2020-12-25T08:50:10.000Z</time>
      </trkpt>
      <trkpt lat="47.09461" lon="-1.80939">
        <ele>58</ele>
        <time>2020-12-25T08:50:12.000Z</time>
      </trkpt>
      <trkpt lat="47.0945" lon="-1.80945">
        <ele>58</ele>
        <time>2020-12-25T08:50:14.000Z</time>
      </trkpt>
      <trkpt lat="47.09438" lon="-1.80952">
        <ele>57</ele>
        <time>2020-12-25T08:50:16.000Z</time>
      </trkpt>
      <trkpt lat="47.09426" lon="-1.80959">
        <ele>57</ele>
        <time>2020-12-25T08:50:18.000Z</time>
      </trkpt>
      <trkpt lat="47.09414" lon="-1.80966">
        <ele>57</ele>
        <time>2020-12-25T08:50:20.000Z</time>
      </trkpt>
      <trkpt lat="47.09403" lon="-1.80974">
        <ele>56</ele>
        <time>2020-12-25T08:50:22.000Z</time>
      </trkpt>
      <trkpt lat="47.09391" lon="-1.80982">
        <ele>56</ele>
        <time>2020-12-25T08:50:24.000Z</time>
      </trkpt>
      <trkpt lat="47.09378" lon="-1.80989">
        <ele>57</ele>
        <time>2020-12-25T08:50:26.000Z</time>
      </trkpt>
      <trkpt lat="47.09365" lon="-1.80996">
        <ele>56</ele>
        <time>2020-12-25T08:50:28.000Z</time>
      </trkpt>
      <trkpt lat="47.09352" lon="-1.81004">
        <ele>56</ele>
        <time>2020-12-25T08:50:30.000Z</time>
      </trkpt>
      <trkpt lat="47.09339" lon="-1.81011">
        <ele>55</ele>
        <time>2020-12-25T08:50:32.000Z</time>
      </trkpt>
      <trkpt lat="47.09325" lon="-1.81019">
        <ele>54</ele>
        <time>2020-12-25T08:50:34.000Z</time>
      </trkpt>
      <trkpt lat="47.09312" lon="-1.81027">
        <ele>54</ele>
        <time>2020-12-25T08:50:36.000Z</time>
      </trkpt>
      <trkpt lat="47.09299" lon="-1.81035">
        <ele>54</ele>
        <time>2020-12-25T08:50:38.000Z</time>
      </trkpt>
      <trkpt lat="47.09286" lon="-1.81043">
        <ele>54</ele>
        <time>2020-12-25T08:50:40.000Z</time>
      </trkpt>
      <trkpt lat="47.09274" lon="-1.8105">
        <ele>53</ele>
        <time>2020-12-25T08:50:42.000Z</time>
      </trkpt>
      <trkpt lat="47.09261" lon="-1.81057">
        <ele>53</ele>
        <time>2020-12-25T08:50:44.000Z</time>
      </trkpt>
      <trkpt lat="47.09249" lon="-1.81064">
        <ele>52</ele>
        <time>2020-12-25T08:50:46.000Z</time>
      </trkpt>
      <trkpt lat="47.09238" lon="-1.81074">
        <ele>52</ele>
        <time>2020-12-25T08:50:48.000Z</time>
      </trkpt>
      <trkpt lat="47.0923" lon="-1.81084">
        <ele>52</ele>
        <time>2020-12-25T08:50:50.000Z</time>
      </trkpt>
      <trkpt lat="47.0922" lon="-1.81088">
        <ele>52</ele>
        <time>2020-12-25T08:50:53.000Z</time>
      </trkpt>
      <trkpt lat="47.09211" lon="-1.81084">
        <ele>52</ele>
        <time>2020-12-25T08:50:55.000Z</time>
      </trkpt>
      <trkpt lat="47.09201" lon="-1.81076">
        <ele>52</ele>
        <time>2020-12-25T08:50:57.000Z</time>
      </trkpt>
      <trkpt lat="47.09192" lon="-1.81067">
        <ele>52</ele>
        <time>2020-12-25T08:50:59.000Z</time>
      </trkpt>
      <trkpt lat="47.09182" lon="-1.81058">
        <ele>53</ele>
        <time>2020-12-25T08:51:01.000Z</time>
      </trkpt>
      <trkpt lat="47.09173" lon="-1.81054">
        <ele>52</ele>
        <time>2020-12-25T08:51:03.000Z</time>
      </trkpt>
      <trkpt lat="47.09164" lon="-1.81063">
        <ele>52</ele>
        <time>2020-12-25T08:51:05.000Z</time>
      </trkpt>
      <trkpt lat="47.09157" lon="-1.81078">
        <ele>52</ele>
        <time>2020-12-25T08:51:07.000Z</time>
      </trkpt>
      <trkpt lat="47.09148" lon="-1.81093">
        <ele>52</ele>
        <time>2020-12-25T08:51:09.000Z</time>
      </trkpt>
      <trkpt lat="47.09138" lon="-1.81104">
        <ele>51</ele>
        <time>2020-12-25T08:51:11.000Z</time>
      </trkpt>
      <trkpt lat="47.09126" lon="-1.81111">
        <ele>51</ele>
        <time>2020-12-25T08:51:13.000Z</time>
      </trkpt>
      <trkpt lat="47.09115" lon="-1.81115">
        <ele>51</ele>
        <time>2020-12-25T08:51:15.000Z</time>
      </trkpt>
      <trkpt lat="47.09102" lon="-1.81117">
        <ele>50</ele>
        <time>2020-12-25T08:51:17.000Z</time>
      </trkpt>
      <trkpt lat="47.09089" lon="-1.81117">
        <ele>50</ele>
        <time>2020-12-25T08:51:19.000Z</time>
      </trkpt>
      <trkpt lat="47.09075" lon="-1.81121">
        <ele>49</ele>
        <time>2020-12-25T08:51:21.000Z</time>
      </trkpt>
      <trkpt lat="47.09064" lon="-1.81131">
        <ele>50</ele>
        <time>2020-12-25T08:51:23.000Z</time>
      </trkpt>
      <trkpt lat="47.09055" lon="-1.81144">
        <ele>49</ele>
        <time>2020-12-25T08:51:25.000Z</time>
      </trkpt>
      <trkpt lat="47.09049" lon="-1.8116">
        <ele>49</ele>
        <time>2020-12-25T08:51:27.000Z</time>
      </trkpt>
      <trkpt lat="47.09044" lon="-1.81176">
        <ele>50</ele>
        <time>2020-12-25T08:51:29.000Z</time>
      </trkpt>
      <trkpt lat="47.09039" lon="-1.81192">
        <ele>50</ele>
        <time>2020-12-25T08:51:31.000Z</time>
      </trkpt>
      <trkpt lat="47.09035" lon="-1.81208">
        <ele>51</ele>
        <time>2020-12-25T08:51:33.000Z</time>
      </trkpt>
      <trkpt lat="47.0903" lon="-1.81224">
        <ele>51</ele>
        <time>2020-12-25T08:51:35.000Z</time>
      </trkpt>
      <trkpt lat="47.09024" lon="-1.81238">
        <ele>52</ele>
        <time>2020-12-25T08:51:37.000Z</time>
      </trkpt>
      <trkpt lat="47.09017" lon="-1.81252">
        <ele>53</ele>
        <time>2020-12-25T08:51:39.000Z</time>
      </trkpt>
      <trkpt lat="47.0901" lon="-1.81265">
        <ele>53</ele>
        <time>2020-12-25T08:51:41.000Z</time>
      </trkpt>
      <trkpt lat="47.09002" lon="-1.81277">
        <ele>54</ele>
        <time>2020-12-25T08:51:43.000Z</time>
      </trkpt>
      <trkpt lat="47.08993" lon="-1.81288">
        <ele>54</ele>
        <time>2020-12-25T08:51:45.000Z</time>
      </trkpt>
      <trkpt lat="47.08985" lon="-1.81299">
        <ele>54</ele>
        <time>2020-12-25T08:51:47.000Z</time>
      </trkpt>
      <trkpt lat="47.08976" lon="-1.8131">
        <ele>54</ele>
        <time>2020-12-25T08:51:49.000Z</time>
      </trkpt>
      <trkpt lat="47.08968" lon="-1.8132">
        <ele>55</ele>
        <time>2020-12-25T08:51:51.000Z</time>
      </trkpt>
      <trkpt lat="47.0896" lon="-1.81332">
        <ele>55</ele>
        <time>2020-12-25T08:51:53.000Z</time>
      </trkpt>
      <trkpt lat="47.08952" lon="-1.81343">
        <ele>55</ele>
        <time>2020-12-25T08:51:55.000Z</time>
      </trkpt>
      <trkpt lat="47.08943" lon="-1.81353">
        <ele>55</ele>
        <time>2020-12-25T08:51:57.000Z</time>
      </trkpt>
      <trkpt lat="47.08934" lon="-1.81363">
        <ele>55</ele>
        <time>2020-12-25T08:51:59.000Z</time>
      </trkpt>
      <trkpt lat="47.08925" lon="-1.81373">
        <ele>55</ele>
        <time>2020-12-25T08:52:01.000Z</time>
      </trkpt>
      <trkpt lat="47.08916" lon="-1.81382">
        <ele>55</ele>
        <time>2020-12-25T08:52:03.000Z</time>
      </trkpt>
      <trkpt lat="47.08907" lon="-1.81392">
        <ele>55</ele>
        <time>2020-12-25T08:52:05.000Z</time>
      </trkpt>
      <trkpt lat="47.08898" lon="-1.81402">
        <ele>55</ele>
        <time>2020-12-25T08:52:07.000Z</time>
      </trkpt>
      <trkpt lat="47.0889" lon="-1.81413">
        <ele>56</ele>
        <time>2020-12-25T08:52:09.000Z</time>
      </trkpt>
      <trkpt lat="47.08881" lon="-1.81423">
        <ele>56</ele>
        <time>2020-12-25T08:52:11.000Z</time>
      </trkpt>
      <trkpt lat="47.08872" lon="-1.81434">
        <ele>56</ele>
        <time>2020-12-25T08:52:13.000Z</time>
      </trkpt>
      <trkpt lat="47.08864" lon="-1.81444">
        <ele>56</ele>
        <time>2020-12-25T08:52:15.000Z</time>
      </trkpt>
      <trkpt lat="47.08855" lon="-1.81454">
        <ele>56</ele>
        <time>2020-12-25T08:52:17.000Z</time>
      </trkpt>
      <trkpt lat="47.08846" lon="-1.81462">
        <ele>55</ele>
        <time>2020-12-25T08:52:19.000Z</time>
      </trkpt>
      <trkpt lat="47.08836" lon="-1.8147">
        <ele>56</ele>
        <time>2020-12-25T08:52:21.000Z</time>
      </trkpt>
      <trkpt lat="47.08827" lon="-1.81478">
        <ele>56</ele>
        <time>2020-12-25T08:52:23.000Z</time>
      </trkpt>
      <trkpt lat="47.08817" lon="-1.81486">
        <ele>56</ele>
        <time>2020-12-25T08:52:25.000Z</time>
      </trkpt>
      <trkpt lat="47.08809" lon="-1.81494">
        <ele>57</ele>
        <time>2020-12-25T08:52:27.000Z</time>
      </trkpt>
      <trkpt lat="47.088" lon="-1.81502">
        <ele>57</ele>
        <time>2020-12-25T08:52:29.000Z</time>
      </trkpt>
      <trkpt lat="47.0879" lon="-1.81509">
        <ele>57</ele>
        <time>2020-12-25T08:52:31.000Z</time>
      </trkpt>
      <trkpt lat="47.0878" lon="-1.81517">
        <ele>57</ele>
        <time>2020-12-25T08:52:33.000Z</time>
      </trkpt>
      <trkpt lat="47.08772" lon="-1.81524">
        <ele>57</ele>
        <time>2020-12-25T08:52:35.000Z</time>
      </trkpt>
      <trkpt lat="47.08763" lon="-1.81531">
        <ele>57</ele>
        <time>2020-12-25T08:52:37.000Z</time>
      </trkpt>
      <trkpt lat="47.08754" lon="-1.8154">
        <ele>58</ele>
        <time>2020-12-25T08:52:39.000Z</time>
      </trkpt>
      <trkpt lat="47.08746" lon="-1.81548">
        <ele>58</ele>
        <time>2020-12-25T08:52:41.000Z</time>
      </trkpt>
      <trkpt lat="47.08738" lon="-1.81558">
        <ele>59</ele>
        <time>2020-12-25T08:52:43.000Z</time>
      </trkpt>
      <trkpt lat="47.08731" lon="-1.81571">
        <ele>60</ele>
        <time>2020-12-25T08:52:45.000Z</time>
      </trkpt>
      <trkpt lat="47.08725" lon="-1.81584">
        <ele>60</ele>
        <time>2020-12-25T08:52:47.000Z</time>
      </trkpt>
      <trkpt lat="47.0872" lon="-1.81597">
        <ele>60</ele>
        <time>2020-12-25T08:52:49.000Z</time>
      </trkpt>
      <trkpt lat="47.08715" lon="-1.8161">
        <ele>60</ele>
        <time>2020-12-25T08:52:51.000Z</time>
      </trkpt>
      <trkpt lat="47.0871" lon="-1.81624">
        <ele>61</ele>
        <time>2020-12-25T08:52:53.000Z</time>
      </trkpt>
      <trkpt lat="47.08706" lon="-1.81637">
        <ele>62</ele>
        <time>2020-12-25T08:52:55.000Z</time>
      </trkpt>
      <trkpt lat="47.08701" lon="-1.8165">
        <ele>61</ele>
        <time>2020-12-25T08:52:57.000Z</time>
      </trkpt>
      <trkpt lat="47.08696" lon="-1.81663">
        <ele>61</ele>
        <time>2020-12-25T08:52:59.000Z</time>
      </trkpt>
      <trkpt lat="47.08689" lon="-1.81675">
        <ele>62</ele>
        <time>2020-12-25T08:53:01.000Z</time>
      </trkpt>
      <trkpt lat="47.0868" lon="-1.81684">
        <ele>62</ele>
        <time>2020-12-25T08:53:03.000Z</time>
      </trkpt>
      <trkpt lat="47.0867" lon="-1.8169">
        <ele>62</ele>
        <time>2020-12-25T08:53:05.000Z</time>
      </trkpt>
      <trkpt lat="47.08659" lon="-1.81694">
        <ele>62</ele>
        <time>2020-12-25T08:53:07.000Z</time>
      </trkpt>
      <trkpt lat="47.08649" lon="-1.81695">
        <ele>62</ele>
        <time>2020-12-25T08:53:09.000Z</time>
      </trkpt>
      <trkpt lat="47.08638" lon="-1.81694">
        <ele>62</ele>
        <time>2020-12-25T08:53:11.000Z</time>
      </trkpt>
      <trkpt lat="47.08628" lon="-1.81691">
        <ele>62</ele>
        <time>2020-12-25T08:53:13.000Z</time>
      </trkpt>
      <trkpt lat="47.08618" lon="-1.81689">
        <ele>62</ele>
        <time>2020-12-25T08:53:15.000Z</time>
      </trkpt>
      <trkpt lat="47.08608" lon="-1.81687">
        <ele>63</ele>
        <time>2020-12-25T08:53:17.000Z</time>
      </trkpt>
      <trkpt lat="47.08598" lon="-1.81684">
        <ele>63</ele>
        <time>2020-12-25T08:53:19.000Z</time>
      </trkpt>
      <trkpt lat="47.08588" lon="-1.81681">
        <ele>62</ele>
        <time>2020-12-25T08:53:21.000Z</time>
      </trkpt>
      <trkpt lat="47.08578" lon="-1.81679">
        <ele>63</ele>
        <time>2020-12-25T08:53:23.000Z</time>
      </trkpt>
      <trkpt lat="47.08567" lon="-1.81676">
        <ele>62</ele>
        <time>2020-12-25T08:53:25.000Z</time>
      </trkpt>
      <trkpt lat="47.08556" lon="-1.81673">
        <ele>62</ele>
        <time>2020-12-25T08:53:27.000Z</time>
      </trkpt>
      <trkpt lat="47.08545" lon="-1.81671">
        <ele>62</ele>
        <time>2020-12-25T08:53:29.000Z</time>
      </trkpt>
      <trkpt lat="47.08534" lon="-1.81668">
        <ele>63</ele>
        <time>2020-12-25T08:53:31.000Z</time>
      </trkpt>
      <trkpt lat="47.08524" lon="-1.81667">
        <ele>62</ele>
        <time>2020-12-25T08:53:33.000Z</time>
      </trkpt>
      <trkpt lat="47.08513" lon="-1.81664">
        <ele>62</ele>
        <time>2020-12-25T08:53:35.000Z</time>
      </trkpt>
      <trkpt lat="47.08502" lon="-1.81663">
        <ele>63</ele>
        <time>2020-12-25T08:53:37.000Z</time>
      </trkpt>
      <trkpt lat="47.0849" lon="-1.81661">
        <ele>62</ele>
        <time>2020-12-25T08:53:39.000Z</time>
      </trkpt>
      <trkpt lat="47.08479" lon="-1.81659">
        <ele>62</ele>
        <time>2020-12-25T08:53:41.000Z</time>
      </trkpt>
      <trkpt lat="47.08468" lon="-1.81658">
        <ele>63</ele>
        <time>2020-12-25T08:53:43.000Z</time>
      </trkpt>
      <trkpt lat="47.08456" lon="-1.81656">
        <ele>62</ele>
        <time>2020-12-25T08:53:45.000Z</time>
      </trkpt>
      <trkpt lat="47.08445" lon="-1.81654">
        <ele>62</ele>
        <time>2020-12-25T08:53:47.000Z</time>
      </trkpt>
      <trkpt lat="47.08433" lon="-1.81652">
        <ele>62</ele>
        <time>2020-12-25T08:53:49.000Z</time>
      </trkpt>
      <trkpt lat="47.08422" lon="-1.81651">
        <ele>63</ele>
        <time>2020-12-25T08:53:51.000Z</time>
      </trkpt>
      <trkpt lat="47.08411" lon="-1.81649">
        <ele>63</ele>
        <time>2020-12-25T08:53:53.000Z</time>
      </trkpt>
      <trkpt lat="47.08399" lon="-1.81648">
        <ele>64</ele>
        <time>2020-12-25T08:53:55.000Z</time>
      </trkpt>
      <trkpt lat="47.08387" lon="-1.81647">
        <ele>64</ele>
        <time>2020-12-25T08:53:57.000Z</time>
      </trkpt>
      <trkpt lat="47.08375" lon="-1.81645">
        <ele>64</ele>
        <time>2020-12-25T08:53:59.000Z</time>
      </trkpt>
      <trkpt lat="47.08364" lon="-1.81643">
        <ele>64</ele>
        <time>2020-12-25T08:54:01.000Z</time>
      </trkpt>
      <trkpt lat="47.08352" lon="-1.81642">
        <ele>65</ele>
        <time>2020-12-25T08:54:03.000Z</time>
      </trkpt>
      <trkpt lat="47.08341" lon="-1.81641">
        <ele>65</ele>
        <time>2020-12-25T08:54:05.000Z</time>
      </trkpt>
      <trkpt lat="47.0833" lon="-1.81639">
        <ele>65</ele>
        <time>2020-12-25T08:54:07.000Z</time>
      </trkpt>
      <trkpt lat="47.08319" lon="-1.81637">
        <ele>65</ele>
        <time>2020-12-25T08:54:09.000Z</time>
      </trkpt>
      <trkpt lat="47.08309" lon="-1.81635">
        <ele>65</ele>
        <time>2020-12-25T08:54:11.000Z</time>
      </trkpt>
      <trkpt lat="47.08297" lon="-1.81635">
        <ele>65</ele>
        <time>2020-12-25T08:54:13.000Z</time>
      </trkpt>
      <trkpt lat="47.08285" lon="-1.81635">
        <ele>66</ele>
        <time>2020-12-25T08:54:15.000Z</time>
      </trkpt>
      <trkpt lat="47.08274" lon="-1.81634">
        <ele>67</ele>
        <time>2020-12-25T08:54:17.000Z</time>
      </trkpt>
      <trkpt lat="47.08262" lon="-1.81634">
        <ele>67</ele>
        <time>2020-12-25T08:54:19.000Z</time>
      </trkpt>
      <trkpt lat="47.0825" lon="-1.81634">
        <ele>67</ele>
        <time>2020-12-25T08:54:21.000Z</time>
      </trkpt>
      <trkpt lat="47.08238" lon="-1.81633">
        <ele>68</ele>
        <time>2020-12-25T08:54:23.000Z</time>
      </trkpt>
      <trkpt lat="47.08226" lon="-1.81633">
        <ele>68</ele>
        <time>2020-12-25T08:54:25.000Z</time>
      </trkpt>
      <trkpt lat="47.08213" lon="-1.81632">
        <ele>68</ele>
        <time>2020-12-25T08:54:27.000Z</time>
      </trkpt>
      <trkpt lat="47.08201" lon="-1.81632">
        <ele>68</ele>
        <time>2020-12-25T08:54:29.000Z</time>
      </trkpt>
      <trkpt lat="47.08189" lon="-1.81631">
        <ele>68</ele>
        <time>2020-12-25T08:54:31.000Z</time>
      </trkpt>
      <trkpt lat="47.08177" lon="-1.81631">
        <ele>67</ele>
        <time>2020-12-25T08:54:33.000Z</time>
      </trkpt>
      <trkpt lat="47.08165" lon="-1.8163">
        <ele>67</ele>
        <time>2020-12-25T08:54:35.000Z</time>
      </trkpt>
      <trkpt lat="47.08153" lon="-1.8163">
        <ele>68</ele>
        <time>2020-12-25T08:54:37.000Z</time>
      </trkpt>
      <trkpt lat="47.08141" lon="-1.81628">
        <ele>67</ele>
        <time>2020-12-25T08:54:39.000Z</time>
      </trkpt>
      <trkpt lat="47.08129" lon="-1.81627">
        <ele>67</ele>
        <time>2020-12-25T08:54:41.000Z</time>
      </trkpt>
      <trkpt lat="47.08117" lon="-1.81626">
        <ele>67</ele>
        <time>2020-12-25T08:54:43.000Z</time>
      </trkpt>
      <trkpt lat="47.08105" lon="-1.81623">
        <ele>67</ele>
        <time>2020-12-25T08:54:45.000Z</time>
      </trkpt>
      <trkpt lat="47.08093" lon="-1.81619">
        <ele>67</ele>
        <time>2020-12-25T08:54:47.000Z</time>
      </trkpt>
      <trkpt lat="47.08082" lon="-1.81615">
        <ele>67</ele>
        <time>2020-12-25T08:54:49.000Z</time>
      </trkpt>
      <trkpt lat="47.08072" lon="-1.81611">
        <ele>66</ele>
        <time>2020-12-25T08:54:51.000Z</time>
      </trkpt>
      <trkpt lat="47.08062" lon="-1.81605">
        <ele>66</ele>
        <time>2020-12-25T08:54:53.000Z</time>
      </trkpt>
      <trkpt lat="47.08051" lon="-1.81599">
        <ele>66</ele>
        <time>2020-12-25T08:54:55.000Z</time>
      </trkpt>
      <trkpt lat="47.0804" lon="-1.81593">
        <ele>66</ele>
        <time>2020-12-25T08:54:57.000Z</time>
      </trkpt>
      <trkpt lat="47.08029" lon="-1.81587">
        <ele>66</ele>
        <time>2020-12-25T08:54:59.000Z</time>
      </trkpt>
      <trkpt lat="47.08018" lon="-1.81582">
        <ele>67</ele>
        <time>2020-12-25T08:55:01.000Z</time>
      </trkpt>
      <trkpt lat="47.08007" lon="-1.81577">
        <ele>67</ele>
        <time>2020-12-25T08:55:03.000Z</time>
      </trkpt>
      <trkpt lat="47.07997" lon="-1.81572">
        <ele>66</ele>
        <time>2020-12-25T08:55:05.000Z</time>
      </trkpt>
      <trkpt lat="47.07985" lon="-1.81569">
        <ele>67</ele>
        <time>2020-12-25T08:55:07.000Z</time>
      </trkpt>
      <trkpt lat="47.07973" lon="-1.81566">
        <ele>67</ele>
        <time>2020-12-25T08:55:09.000Z</time>
      </trkpt>
      <trkpt lat="47.07961" lon="-1.81564">
        <ele>67</ele>
        <time>2020-12-25T08:55:11.000Z</time>
      </trkpt>
      <trkpt lat="47.07947" lon="-1.81563">
        <ele>66</ele>
        <time>2020-12-25T08:55:13.000Z</time>
      </trkpt>
      <trkpt lat="47.07934" lon="-1.81562">
        <ele>65</ele>
        <time>2020-12-25T08:55:15.000Z</time>
      </trkpt>
      <trkpt lat="47.07921" lon="-1.81562">
        <ele>65</ele>
        <time>2020-12-25T08:55:17.000Z</time>
      </trkpt>
      <trkpt lat="47.07909" lon="-1.81562">
        <ele>66</ele>
        <time>2020-12-25T08:55:19.000Z</time>
      </trkpt>
      <trkpt lat="47.07896" lon="-1.81563">
        <ele>65</ele>
        <time>2020-12-25T08:55:21.000Z</time>
      </trkpt>
      <trkpt lat="47.07884" lon="-1.81564">
        <ele>65</ele>
        <time>2020-12-25T08:55:23.000Z</time>
      </trkpt>
      <trkpt lat="47.07873" lon="-1.81564">
        <ele>65</ele>
        <time>2020-12-25T08:55:25.000Z</time>
      </trkpt>
      <trkpt lat="47.07861" lon="-1.81564">
        <ele>65</ele>
        <time>2020-12-25T08:55:27.000Z</time>
      </trkpt>
      <trkpt lat="47.07848" lon="-1.81563">
        <ele>66</ele>
        <time>2020-12-25T08:55:29.000Z</time>
      </trkpt>
      <trkpt lat="47.07837" lon="-1.81561">
        <ele>66</ele>
        <time>2020-12-25T08:55:31.000Z</time>
      </trkpt>
      <trkpt lat="47.07825" lon="-1.81558">
        <ele>66</ele>
        <time>2020-12-25T08:55:33.000Z</time>
      </trkpt>
      <trkpt lat="47.07814" lon="-1.81556">
        <ele>66</ele>
        <time>2020-12-25T08:55:35.000Z</time>
      </trkpt>
      <trkpt lat="47.07802" lon="-1.81553">
        <ele>66</ele>
        <time>2020-12-25T08:55:37.000Z</time>
      </trkpt>
      <trkpt lat="47.07791" lon="-1.81552">
        <ele>66</ele>
        <time>2020-12-25T08:55:39.000Z</time>
      </trkpt>
      <trkpt lat="47.07779" lon="-1.8155">
        <ele>66</ele>
        <time>2020-12-25T08:55:41.000Z</time>
      </trkpt>
      <trkpt lat="47.07767" lon="-1.81549">
        <ele>66</ele>
        <time>2020-12-25T08:55:43.000Z</time>
      </trkpt>
      <trkpt lat="47.07756" lon="-1.81549">
        <ele>66</ele>
        <time>2020-12-25T08:55:45.000Z</time>
      </trkpt>
      <trkpt lat="47.07744" lon="-1.81549">
        <ele>66</ele>
        <time>2020-12-25T08:55:47.000Z</time>
      </trkpt>
      <trkpt lat="47.07733" lon="-1.81548">
        <ele>66</ele>
        <time>2020-12-25T08:55:49.000Z</time>
      </trkpt>
      <trkpt lat="47.07721" lon="-1.81546">
        <ele>66</ele>
        <time>2020-12-25T08:55:51.000Z</time>
      </trkpt>
      <trkpt lat="47.07709" lon="-1.81546">
        <ele>66</ele>
        <time>2020-12-25T08:55:53.000Z</time>
      </trkpt>
      <trkpt lat="47.07698" lon="-1.81545">
        <ele>66</ele>
        <time>2020-12-25T08:55:55.000Z</time>
      </trkpt>
      <trkpt lat="47.07686" lon="-1.81545">
        <ele>66</ele>
        <time>2020-12-25T08:55:57.000Z</time>
      </trkpt>
      <trkpt lat="47.07674" lon="-1.81545">
        <ele>66</ele>
        <time>2020-12-25T08:55:59.000Z</time>
      </trkpt>
      <trkpt lat="47.07663" lon="-1.81544">
        <ele>66</ele>
        <time>2020-12-25T08:56:01.000Z</time>
      </trkpt>
      <trkpt lat="47.07651" lon="-1.81541">
        <ele>67</ele>
        <time>2020-12-25T08:56:03.000Z</time>
      </trkpt>
      <trkpt lat="47.0764" lon="-1.81537">
        <ele>66</ele>
        <time>2020-12-25T08:56:05.000Z</time>
      </trkpt>
      <trkpt lat="47.07629" lon="-1.81531">
        <ele>66</ele>
        <time>2020-12-25T08:56:07.000Z</time>
      </trkpt>
      <trkpt lat="47.07619" lon="-1.81523">
        <ele>66</ele>
        <time>2020-12-25T08:56:09.000Z</time>
      </trkpt>
      <trkpt lat="47.0761" lon="-1.81514">
        <ele>66</ele>
        <time>2020-12-25T08:56:11.000Z</time>
      </trkpt>
      <trkpt lat="47.07601" lon="-1.81505">
        <ele>66</ele>
        <time>2020-12-25T08:56:13.000Z</time>
      </trkpt>
      <trkpt lat="47.07592" lon="-1.81496">
        <ele>66</ele>
        <time>2020-12-25T08:56:15.000Z</time>
      </trkpt>
      <trkpt lat="47.07582" lon="-1.81486">
        <ele>66</ele>
        <time>2020-12-25T08:56:17.000Z</time>
      </trkpt>
      <trkpt lat="47.07573" lon="-1.81477">
        <ele>67</ele>
        <time>2020-12-25T08:56:19.000Z</time>
      </trkpt>
      <trkpt lat="47.07564" lon="-1.81467">
        <ele>66</ele>
        <time>2020-12-25T08:56:21.000Z</time>
      </trkpt>
      <trkpt lat="47.07555" lon="-1.81458">
        <ele>66</ele>
        <time>2020-12-25T08:56:23.000Z</time>
      </trkpt>
      <trkpt lat="47.07545" lon="-1.8145">
        <ele>66</ele>
        <time>2020-12-25T08:56:25.000Z</time>
      </trkpt>
      <trkpt lat="47.07535" lon="-1.81445">
        <ele>66</ele>
        <time>2020-12-25T08:56:27.000Z</time>
      </trkpt>
      <trkpt lat="47.07523" lon="-1.81445">
        <ele>66</ele>
        <time>2020-12-25T08:56:29.000Z</time>
      </trkpt>
      <trkpt lat="47.07511" lon="-1.81449">
        <ele>66</ele>
        <time>2020-12-25T08:56:31.000Z</time>
      </trkpt>
      <trkpt lat="47.075" lon="-1.81455">
        <ele>67</ele>
        <time>2020-12-25T08:56:33.000Z</time>
      </trkpt>
      <trkpt lat="47.0749" lon="-1.81461">
        <ele>67</ele>
        <time>2020-12-25T08:56:35.000Z</time>
      </trkpt>
      <trkpt lat="47.07479" lon="-1.81468">
        <ele>67</ele>
        <time>2020-12-25T08:56:37.000Z</time>
      </trkpt>
      <trkpt lat="47.07468" lon="-1.81474">
        <ele>67</ele>
        <time>2020-12-25T08:56:39.000Z</time>
      </trkpt>
      <trkpt lat="47.07457" lon="-1.81479">
        <ele>67</ele>
        <time>2020-12-25T08:56:41.000Z</time>
      </trkpt>
      <trkpt lat="47.07445" lon="-1.81483">
        <ele>66</ele>
        <time>2020-12-25T08:56:43.000Z</time>
      </trkpt>
      <trkpt lat="47.07434" lon="-1.81485">
        <ele>66</ele>
        <time>2020-12-25T08:56:45.000Z</time>
      </trkpt>
      <trkpt lat="47.07422" lon="-1.81487">
        <ele>65</ele>
        <time>2020-12-25T08:56:47.000Z</time>
      </trkpt>
      <trkpt lat="47.07411" lon="-1.81487">
        <ele>65</ele>
        <time>2020-12-25T08:56:49.000Z</time>
      </trkpt>
      <trkpt lat="47.07399" lon="-1.81487">
        <ele>65</ele>
        <time>2020-12-25T08:56:51.000Z</time>
      </trkpt>
      <trkpt lat="47.07388" lon="-1.81488">
        <ele>65</ele>
        <time>2020-12-25T08:56:53.000Z</time>
      </trkpt>
      <trkpt lat="47.07376" lon="-1.81487">
        <ele>65</ele>
        <time>2020-12-25T08:56:55.000Z</time>
      </trkpt>
      <trkpt lat="47.07364" lon="-1.81486">
        <ele>64</ele>
        <time>2020-12-25T08:56:57.000Z</time>
      </trkpt>
      <trkpt lat="47.07352" lon="-1.81482">
        <ele>64</ele>
        <time>2020-12-25T08:56:59.000Z</time>
      </trkpt>
      <trkpt lat="47.07341" lon="-1.81476">
        <ele>64</ele>
        <time>2020-12-25T08:57:01.000Z</time>
      </trkpt>
      <trkpt lat="47.0733" lon="-1.8147">
        <ele>65</ele>
        <time>2020-12-25T08:57:03.000Z</time>
      </trkpt>
      <trkpt lat="47.07319" lon="-1.81464">
        <ele>65</ele>
        <time>2020-12-25T08:57:05.000Z</time>
      </trkpt>
      <trkpt lat="47.07308" lon="-1.81458">
        <ele>64</ele>
        <time>2020-12-25T08:57:07.000Z</time>
      </trkpt>
      <trkpt lat="47.07298" lon="-1.81451">
        <ele>65</ele>
        <time>2020-12-25T08:57:09.000Z</time>
      </trkpt>
      <trkpt lat="47.07289" lon="-1.81444">
        <ele>65</ele>
        <time>2020-12-25T08:57:11.000Z</time>
      </trkpt>
      <trkpt lat="47.0728" lon="-1.81438">
        <ele>65</ele>
        <time>2020-12-25T08:57:13.000Z</time>
      </trkpt>
      <trkpt lat="47.0727" lon="-1.8143">
        <ele>65</ele>
        <time>2020-12-25T08:57:15.000Z</time>
      </trkpt>
      <trkpt lat="47.07261" lon="-1.81421">
        <ele>66</ele>
        <time>2020-12-25T08:57:17.000Z</time>
      </trkpt>
      <trkpt lat="47.07251" lon="-1.81412">
        <ele>66</ele>
        <time>2020-12-25T08:57:19.000Z</time>
      </trkpt>
      <trkpt lat="47.07241" lon="-1.81402">
        <ele>66</ele>
        <time>2020-12-25T08:57:21.000Z</time>
      </trkpt>
      <trkpt lat="47.07232" lon="-1.81393">
        <ele>65</ele>
        <time>2020-12-25T08:57:23.000Z</time>
      </trkpt>
      <trkpt lat="47.07221" lon="-1.81383">
        <ele>65</ele>
        <time>2020-12-25T08:57:25.000Z</time>
      </trkpt>
      <trkpt lat="47.07211" lon="-1.81373">
        <ele>64</ele>
        <time>2020-12-25T08:57:27.000Z</time>
      </trkpt>
      <trkpt lat="47.07201" lon="-1.81363">
        <ele>64</ele>
        <time>2020-12-25T08:57:29.000Z</time>
      </trkpt>
      <trkpt lat="47.0719" lon="-1.81353">
        <ele>65</ele>
        <time>2020-12-25T08:57:31.000Z</time>
      </trkpt>
      <trkpt lat="47.07178" lon="-1.81347">
        <ele>65</ele>
        <time>2020-12-25T08:57:33.000Z</time>
      </trkpt>
      <trkpt lat="47.07166" lon="-1.81349">
        <ele>66</ele>
        <time>2020-12-25T08:57:35.000Z</time>
      </trkpt>
      <trkpt lat="47.07156" lon="-1.81358">
        <ele>67</ele>
        <time>2020-12-25T08:57:37.000Z</time>
      </trkpt>
      <trkpt lat="47.07147" lon="-1.81368">
        <ele>67</ele>
        <time>2020-12-25T08:57:39.000Z</time>
      </trkpt>
      <trkpt lat="47.07138" lon="-1.81379">
        <ele>67</ele>
        <time>2020-12-25T08:57:41.000Z</time>
      </trkpt>
      <trkpt lat="47.07129" lon="-1.81388">
        <ele>67</ele>
        <time>2020-12-25T08:57:43.000Z</time>
      </trkpt>
      <trkpt lat="47.0712" lon="-1.81398">
        <ele>68</ele>
        <time>2020-12-25T08:57:45.000Z</time>
      </trkpt>
      <trkpt lat="47.07112" lon="-1.81409">
        <ele>68</ele>
        <time>2020-12-25T08:57:47.000Z</time>
      </trkpt>
      <trkpt lat="47.07104" lon="-1.81421">
        <ele>68</ele>
        <time>2020-12-25T08:57:49.000Z</time>
      </trkpt>
      <trkpt lat="47.07096" lon="-1.81433">
        <ele>69</ele>
        <time>2020-12-25T08:57:51.000Z</time>
      </trkpt>
      <trkpt lat="47.07087" lon="-1.81445">
        <ele>69</ele>
        <time>2020-12-25T08:57:53.000Z</time>
      </trkpt>
      <trkpt lat="47.07079" lon="-1.81457">
        <ele>70</ele>
        <time>2020-12-25T08:57:55.000Z</time>
      </trkpt>
      <trkpt lat="47.07072" lon="-1.81469">
        <ele>70</ele>
        <time>2020-12-25T08:57:57.000Z</time>
      </trkpt>
      <trkpt lat="47.07066" lon="-1.81481">
        <ele>70</ele>
        <time>2020-12-25T08:57:59.000Z</time>
      </trkpt>
      <trkpt lat="47.07059" lon="-1.81494">
        <ele>70</ele>
        <time>2020-12-25T08:58:01.000Z</time>
      </trkpt>
      <trkpt lat="47.07053" lon="-1.81507">
        <ele>71</ele>
        <time>2020-12-25T08:58:03.000Z</time>
      </trkpt>
      <trkpt lat="47.07046" lon="-1.81521">
        <ele>71</ele>
        <time>2020-12-25T08:58:05.000Z</time>
      </trkpt>
      <trkpt lat="47.07041" lon="-1.81534">
        <ele>71</ele>
        <time>2020-12-25T08:58:07.000Z</time>
      </trkpt>
      <trkpt lat="47.07034" lon="-1.81547">
        <ele>71</ele>
        <time>2020-12-25T08:58:09.000Z</time>
      </trkpt>
      <trkpt lat="47.07028" lon="-1.81561">
        <ele>71</ele>
        <time>2020-12-25T08:58:11.000Z</time>
      </trkpt>
      <trkpt lat="47.07023" lon="-1.81576">
        <ele>72</ele>
        <time>2020-12-25T08:58:13.000Z</time>
      </trkpt>
      <trkpt lat="47.07019" lon="-1.81591">
        <ele>72</ele>
        <time>2020-12-25T08:58:15.000Z</time>
      </trkpt>
      <trkpt lat="47.07015" lon="-1.81605">
        <ele>72</ele>
        <time>2020-12-25T08:58:17.000Z</time>
      </trkpt>
      <trkpt lat="47.07011" lon="-1.81619">
        <ele>72</ele>
        <time>2020-12-25T08:58:19.000Z</time>
      </trkpt>
      <trkpt lat="47.07007" lon="-1.81634">
        <ele>71</ele>
        <time>2020-12-25T08:58:21.000Z</time>
      </trkpt>
      <trkpt lat="47.07003" lon="-1.81649">
        <ele>72</ele>
        <time>2020-12-25T08:58:23.000Z</time>
      </trkpt>
      <trkpt lat="47.06999" lon="-1.81663">
        <ele>72</ele>
        <time>2020-12-25T08:58:25.000Z</time>
      </trkpt>
      <trkpt lat="47.06995" lon="-1.81678">
        <ele>72</ele>
        <time>2020-12-25T08:58:27.000Z</time>
      </trkpt>
      <trkpt lat="47.06991" lon="-1.81691">
        <ele>71</ele>
        <time>2020-12-25T08:58:29.000Z</time>
      </trkpt>
      <trkpt lat="47.06986" lon="-1.81706">
        <ele>72</ele>
        <time>2020-12-25T08:58:31.000Z</time>
      </trkpt>
      <trkpt lat="47.06982" lon="-1.81719">
        <ele>72</ele>
        <time>2020-12-25T08:58:33.000Z</time>
      </trkpt>
      <trkpt lat="47.06976" lon="-1.81733">
        <ele>73</ele>
        <time>2020-12-25T08:58:35.000Z</time>
      </trkpt>
      <trkpt lat="47.06971" lon="-1.81747">
        <ele>73</ele>
        <time>2020-12-25T08:58:37.000Z</time>
      </trkpt>
      <trkpt lat="47.06965" lon="-1.8176">
        <ele>73</ele>
        <time>2020-12-25T08:58:39.000Z</time>
      </trkpt>
      <trkpt lat="47.06959" lon="-1.81773">
        <ele>74</ele>
        <time>2020-12-25T08:58:41.000Z</time>
      </trkpt>
      <trkpt lat="47.06954" lon="-1.81786">
        <ele>74</ele>
        <time>2020-12-25T08:58:43.000Z</time>
      </trkpt>
      <trkpt lat="47.06948" lon="-1.81799">
        <ele>74</ele>
        <time>2020-12-25T08:58:45.000Z</time>
      </trkpt>
      <trkpt lat="47.06942" lon="-1.81813">
        <ele>74</ele>
        <time>2020-12-25T08:58:47.000Z</time>
      </trkpt>
      <trkpt lat="47.06937" lon="-1.81826">
        <ele>74</ele>
        <time>2020-12-25T08:58:49.000Z</time>
      </trkpt>
      <trkpt lat="47.06932" lon="-1.81839">
        <ele>75</ele>
        <time>2020-12-25T08:58:51.000Z</time>
      </trkpt>
      <trkpt lat="47.06926" lon="-1.81853">
        <ele>75</ele>
        <time>2020-12-25T08:58:53.000Z</time>
      </trkpt>
      <trkpt lat="47.06921" lon="-1.81865">
        <ele>75</ele>
        <time>2020-12-25T08:58:55.000Z</time>
      </trkpt>
      <trkpt lat="47.06915" lon="-1.8188">
        <ele>75</ele>
        <time>2020-12-25T08:58:57.000Z</time>
      </trkpt>
      <trkpt lat="47.06909" lon="-1.81893">
        <ele>75</ele>
        <time>2020-12-25T08:58:59.000Z</time>
      </trkpt>
      <trkpt lat="47.06904" lon="-1.81906">
        <ele>75</ele>
        <time>2020-12-25T08:59:01.000Z</time>
      </trkpt>
      <trkpt lat="47.06899" lon="-1.8192">
        <ele>76</ele>
        <time>2020-12-25T08:59:03.000Z</time>
      </trkpt>
      <trkpt lat="47.06895" lon="-1.81934">
        <ele>76</ele>
        <time>2020-12-25T08:59:05.000Z</time>
      </trkpt>
      <trkpt lat="47.06893" lon="-1.81949">
        <ele>76</ele>
        <time>2020-12-25T08:59:07.000Z</time>
      </trkpt>
      <trkpt lat="47.06893" lon="-1.81964">
        <ele>76</ele>
        <time>2020-12-25T08:59:09.000Z</time>
      </trkpt>
      <trkpt lat="47.06893" lon="-1.81979">
        <ele>76</ele>
        <time>2020-12-25T08:59:11.000Z</time>
      </trkpt>
      <trkpt lat="47.06895" lon="-1.81993">
        <ele>76</ele>
        <time>2020-12-25T08:59:13.000Z</time>
      </trkpt>
      <trkpt lat="47.06896" lon="-1.82007">
        <ele>76</ele>
        <time>2020-12-25T08:59:15.000Z</time>
      </trkpt>
      <trkpt lat="47.06898" lon="-1.82021">
        <ele>76</ele>
        <time>2020-12-25T08:59:17.000Z</time>
      </trkpt>
      <trkpt lat="47.06899" lon="-1.82035">
        <ele>76</ele>
        <time>2020-12-25T08:59:19.000Z</time>
      </trkpt>
      <trkpt lat="47.06902" lon="-1.82048">
        <ele>76</ele>
        <time>2020-12-25T08:59:21.000Z</time>
      </trkpt>
      <trkpt lat="47.06904" lon="-1.82062">
        <ele>76</ele>
        <time>2020-12-25T08:59:23.000Z</time>
      </trkpt>
      <trkpt lat="47.06904" lon="-1.82076">
        <ele>75</ele>
        <time>2020-12-25T08:59:25.000Z</time>
      </trkpt>
      <trkpt lat="47.06906" lon="-1.82092">
        <ele>75</ele>
        <time>2020-12-25T08:59:27.000Z</time>
      </trkpt>
      <trkpt lat="47.06907" lon="-1.82107">
        <ele>75</ele>
        <time>2020-12-25T08:59:29.000Z</time>
      </trkpt>
      <trkpt lat="47.06907" lon="-1.82123">
        <ele>75</ele>
        <time>2020-12-25T08:59:31.000Z</time>
      </trkpt>
      <trkpt lat="47.06907" lon="-1.8214">
        <ele>75</ele>
        <time>2020-12-25T08:59:33.000Z</time>
      </trkpt>
      <trkpt lat="47.06907" lon="-1.82158">
        <ele>75</ele>
        <time>2020-12-25T08:59:35.000Z</time>
      </trkpt>
      <trkpt lat="47.06906" lon="-1.82174">
        <ele>74</ele>
        <time>2020-12-25T08:59:37.000Z</time>
      </trkpt>
      <trkpt lat="47.06904" lon="-1.82191">
        <ele>74</ele>
        <time>2020-12-25T08:59:39.000Z</time>
      </trkpt>
      <trkpt lat="47.06904" lon="-1.82207">
        <ele>74</ele>
        <time>2020-12-25T08:59:41.000Z</time>
      </trkpt>
      <trkpt lat="47.06903" lon="-1.82223">
        <ele>74</ele>
        <time>2020-12-25T08:59:43.000Z</time>
      </trkpt>
      <trkpt lat="47.06902" lon="-1.82239">
        <ele>75</ele>
        <time>2020-12-25T08:59:45.000Z</time>
      </trkpt>
      <trkpt lat="47.06902" lon="-1.82254">
        <ele>75</ele>
        <time>2020-12-25T08:59:47.000Z</time>
      </trkpt>
      <trkpt lat="47.06901" lon="-1.82271">
        <ele>76</ele>
        <time>2020-12-25T08:59:49.000Z</time>
      </trkpt>
      <trkpt lat="47.06901" lon="-1.82287">
        <ele>76</ele>
        <time>2020-12-25T08:59:51.000Z</time>
      </trkpt>
      <trkpt lat="47.069" lon="-1.82303">
        <ele>76</ele>
        <time>2020-12-25T08:59:53.000Z</time>
      </trkpt>
      <trkpt lat="47.06899" lon="-1.82318">
        <ele>76</ele>
        <time>2020-12-25T08:59:55.000Z</time>
      </trkpt>
      <trkpt lat="47.06898" lon="-1.82334">
        <ele>76</ele>
        <time>2020-12-25T08:59:57.000Z</time>
      </trkpt>
      <trkpt lat="47.06896" lon="-1.82349">
        <ele>76</ele>
        <time>2020-12-25T08:59:59.000Z</time>
      </trkpt>
      <trkpt lat="47.06894" lon="-1.82364">
        <ele>76</ele>
        <time>2020-12-25T09:00:01.000Z</time>
      </trkpt>
      <trkpt lat="47.06892" lon="-1.82379">
        <ele>76</ele>
        <time>2020-12-25T09:00:03.000Z</time>
      </trkpt>
      <trkpt lat="47.0689" lon="-1.82394">
        <ele>76</ele>
        <time>2020-12-25T09:00:05.000Z</time>
      </trkpt>
      <trkpt lat="47.06888" lon="-1.82409">
        <ele>76</ele>
        <time>2020-12-25T09:00:07.000Z</time>
      </trkpt>
      <trkpt lat="47.06886" lon="-1.82424">
        <ele>75</ele>
        <time>2020-12-25T09:00:09.000Z</time>
      </trkpt>
      <trkpt lat="47.06884" lon="-1.82438">
        <ele>75</ele>
        <time>2020-12-25T09:00:11.000Z</time>
      </trkpt>
      <trkpt lat="47.06883" lon="-1.82454">
        <ele>75</ele>
        <time>2020-12-25T09:00:13.000Z</time>
      </trkpt>
      <trkpt lat="47.06882" lon="-1.82471">
        <ele>76</ele>
        <time>2020-12-25T09:00:15.000Z</time>
      </trkpt>
      <trkpt lat="47.06882" lon="-1.82489">
        <ele>75</ele>
        <time>2020-12-25T09:00:17.000Z</time>
      </trkpt>
      <trkpt lat="47.06884" lon="-1.82505">
        <ele>75</ele>
        <time>2020-12-25T09:00:19.000Z</time>
      </trkpt>
      <trkpt lat="47.06885" lon="-1.82521">
        <ele>75</ele>
        <time>2020-12-25T09:00:21.000Z</time>
      </trkpt>
      <trkpt lat="47.06887" lon="-1.82536">
        <ele>74</ele>
        <time>2020-12-25T09:00:23.000Z</time>
      </trkpt>
      <trkpt lat="47.06889" lon="-1.82552">
        <ele>74</ele>
        <time>2020-12-25T09:00:25.000Z</time>
      </trkpt>
      <trkpt lat="47.0689" lon="-1.82568">
        <ele>74</ele>
        <time>2020-12-25T09:00:27.000Z</time>
      </trkpt>
      <trkpt lat="47.06891" lon="-1.82586">
        <ele>74</ele>
        <time>2020-12-25T09:00:29.000Z</time>
      </trkpt>
      <trkpt lat="47.06892" lon="-1.82603">
        <ele>73</ele>
        <time>2020-12-25T09:00:31.000Z</time>
      </trkpt>
      <trkpt lat="47.06893" lon="-1.8262">
        <ele>74</ele>
        <time>2020-12-25T09:00:33.000Z</time>
      </trkpt>
      <trkpt lat="47.06894" lon="-1.82637">
        <ele>74</ele>
        <time>2020-12-25T09:00:35.000Z</time>
      </trkpt>
      <trkpt lat="47.06895" lon="-1.82653">
        <ele>74</ele>
        <time>2020-12-25T09:00:37.000Z</time>
      </trkpt>
      <trkpt lat="47.06896" lon="-1.82669">
        <ele>74</ele>
        <time>2020-12-25T09:00:39.000Z</time>
      </trkpt>
      <trkpt lat="47.06896" lon="-1.82686">
        <ele>75</ele>
        <time>2020-12-25T09:00:41.000Z</time>
      </trkpt>
      <trkpt lat="47.06895" lon="-1.82703">
        <ele>76</ele>
        <time>2020-12-25T09:00:43.000Z</time>
      </trkpt>
      <trkpt lat="47.06896" lon="-1.82719">
        <ele>76</ele>
        <time>2020-12-25T09:00:45.000Z</time>
      </trkpt>
      <trkpt lat="47.06896" lon="-1.82736">
        <ele>76</ele>
        <time>2020-12-25T09:00:47.000Z</time>
      </trkpt>
      <trkpt lat="47.06896" lon="-1.82752">
        <ele>76</ele>
        <time>2020-12-25T09:00:49.000Z</time>
      </trkpt>
      <trkpt lat="47.06897" lon="-1.82768">
        <ele>76</ele>
        <time>2020-12-25T09:00:51.000Z</time>
      </trkpt>
      <trkpt lat="47.06897" lon="-1.82785">
        <ele>77</ele>
        <time>2020-12-25T09:00:53.000Z</time>
      </trkpt>
      <trkpt lat="47.06897" lon="-1.82801">
        <ele>77</ele>
        <time>2020-12-25T09:00:55.000Z</time>
      </trkpt>
      <trkpt lat="47.06898" lon="-1.82818">
        <ele>77</ele>
        <time>2020-12-25T09:00:57.000Z</time>
      </trkpt>
      <trkpt lat="47.06899" lon="-1.82833">
        <ele>76</ele>
        <time>2020-12-25T09:00:59.000Z</time>
      </trkpt>
      <trkpt lat="47.069" lon="-1.82849">
        <ele>76</ele>
        <time>2020-12-25T09:01:01.000Z</time>
      </trkpt>
      <trkpt lat="47.06902" lon="-1.82865">
        <ele>76</ele>
        <time>2020-12-25T09:01:03.000Z</time>
      </trkpt>
      <trkpt lat="47.06902" lon="-1.82882">
        <ele>76</ele>
        <time>2020-12-25T09:01:05.000Z</time>
      </trkpt>
      <trkpt lat="47.06904" lon="-1.82898">
        <ele>76</ele>
        <time>2020-12-25T09:01:07.000Z</time>
      </trkpt>
      <trkpt lat="47.06905" lon="-1.82914">
        <ele>75</ele>
        <time>2020-12-25T09:01:09.000Z</time>
      </trkpt>
      <trkpt lat="47.06905" lon="-1.8293">
        <ele>75</ele>
        <time>2020-12-25T09:01:11.000Z</time>
      </trkpt>
      <trkpt lat="47.06906" lon="-1.82946">
        <ele>76</ele>
        <time>2020-12-25T09:01:13.000Z</time>
      </trkpt>
      <trkpt lat="47.06907" lon="-1.82963">
        <ele>76</ele>
        <time>2020-12-25T09:01:15.000Z</time>
      </trkpt>
      <trkpt lat="47.06908" lon="-1.8298">
        <ele>76</ele>
        <time>2020-12-25T09:01:17.000Z</time>
      </trkpt>
      <trkpt lat="47.06909" lon="-1.82997">
        <ele>76</ele>
        <time>2020-12-25T09:01:19.000Z</time>
      </trkpt>
      <trkpt lat="47.06912" lon="-1.83013">
        <ele>76</ele>
        <time>2020-12-25T09:01:21.000Z</time>
      </trkpt>
      <trkpt lat="47.06915" lon="-1.83027">
        <ele>77</ele>
        <time>2020-12-25T09:01:23.000Z</time>
      </trkpt>
      <trkpt lat="47.06909" lon="-1.83039">
        <ele>77</ele>
        <time>2020-12-25T09:01:25.000Z</time>
      </trkpt>
      <trkpt lat="47.06898" lon="-1.83042">
        <ele>77</ele>
        <time>2020-12-25T09:01:27.000Z</time>
      </trkpt>
      <trkpt lat="47.06886" lon="-1.8304">
        <ele>77</ele>
        <time>2020-12-25T09:01:29.000Z</time>
      </trkpt>
      <trkpt lat="47.06874" lon="-1.83039">
        <ele>78</ele>
        <time>2020-12-25T09:01:31.000Z</time>
      </trkpt>
      <trkpt lat="47.06862" lon="-1.83037">
        <ele>78</ele>
        <time>2020-12-25T09:01:33.000Z</time>
      </trkpt>
      <trkpt lat="47.0685" lon="-1.83035">
        <ele>77</ele>
        <time>2020-12-25T09:01:35.000Z</time>
      </trkpt>
      <trkpt lat="47.06838" lon="-1.83034">
        <ele>77</ele>
        <time>2020-12-25T09:01:37.000Z</time>
      </trkpt>
      <trkpt lat="47.06826" lon="-1.83033">
        <ele>77</ele>
        <time>2020-12-25T09:01:39.000Z</time>
      </trkpt>
      <trkpt lat="47.06814" lon="-1.83034">
        <ele>78</ele>
        <time>2020-12-25T09:01:41.000Z</time>
      </trkpt>
      <trkpt lat="47.06795" lon="-1.83036">
        <ele>78</ele>
        <time>2020-12-25T09:01:44.000Z</time>
      </trkpt>
      <trkpt lat="47.06783" lon="-1.83038">
        <ele>78</ele>
        <time>2020-12-25T09:01:46.000Z</time>
      </trkpt>
      <trkpt lat="47.06771" lon="-1.83039">
        <ele>77</ele>
        <time>2020-12-25T09:01:48.000Z</time>
      </trkpt>
      <trkpt lat="47.06758" lon="-1.83041">
        <ele>77</ele>
        <time>2020-12-25T09:01:50.000Z</time>
      </trkpt>
      <trkpt lat="47.06746" lon="-1.83044">
        <ele>77</ele>
        <time>2020-12-25T09:01:52.000Z</time>
      </trkpt>
      <trkpt lat="47.06734" lon="-1.83045">
        <ele>77</ele>
        <time>2020-12-25T09:01:54.000Z</time>
      </trkpt>
      <trkpt lat="47.06722" lon="-1.83047">
        <ele>77</ele>
        <time>2020-12-25T09:01:56.000Z</time>
      </trkpt>
      <trkpt lat="47.06709" lon="-1.83049">
        <ele>77</ele>
        <time>2020-12-25T09:01:58.000Z</time>
      </trkpt>
      <trkpt lat="47.06697" lon="-1.83052">
        <ele>77</ele>
        <time>2020-12-25T09:02:00.000Z</time>
      </trkpt>
      <trkpt lat="47.06685" lon="-1.83055">
        <ele>77</ele>
        <time>2020-12-25T09:02:02.000Z</time>
      </trkpt>
      <trkpt lat="47.06673" lon="-1.83057">
        <ele>77</ele>
        <time>2020-12-25T09:02:04.000Z</time>
      </trkpt>
      <trkpt lat="47.06661" lon="-1.8306">
        <ele>77</ele>
        <time>2020-12-25T09:02:06.000Z</time>
      </trkpt>
      <trkpt lat="47.06648" lon="-1.83063">
        <ele>76</ele>
        <time>2020-12-25T09:02:08.000Z</time>
      </trkpt>
      <trkpt lat="47.06636" lon="-1.83066">
        <ele>76</ele>
        <time>2020-12-25T09:02:10.000Z</time>
      </trkpt>
      <trkpt lat="47.06624" lon="-1.83068">
        <ele>76</ele>
        <time>2020-12-25T09:02:12.000Z</time>
      </trkpt>
      <trkpt lat="47.06613" lon="-1.83072">
        <ele>77</ele>
        <time>2020-12-25T09:02:14.000Z</time>
      </trkpt>
      <trkpt lat="47.06601" lon="-1.83074">
        <ele>77</ele>
        <time>2020-12-25T09:02:16.000Z</time>
      </trkpt>
      <trkpt lat="47.0659" lon="-1.83077">
        <ele>76</ele>
        <time>2020-12-25T09:02:18.000Z</time>
      </trkpt>
      <trkpt lat="47.06578" lon="-1.83081">
        <ele>76</ele>
        <time>2020-12-25T09:02:20.000Z</time>
      </trkpt>
      <trkpt lat="47.06567" lon="-1.83085">
        <ele>76</ele>
        <time>2020-12-25T09:02:22.000Z</time>
      </trkpt>
      <trkpt lat="47.06556" lon="-1.83089">
        <ele>77</ele>
        <time>2020-12-25T09:02:24.000Z</time>
      </trkpt>
      <trkpt lat="47.06545" lon="-1.83093">
        <ele>77</ele>
        <time>2020-12-25T09:02:26.000Z</time>
      </trkpt>
      <trkpt lat="47.06534" lon="-1.83097">
        <ele>77</ele>
        <time>2020-12-25T09:02:28.000Z</time>
      </trkpt>
      <trkpt lat="47.06523" lon="-1.83102">
        <ele>77</ele>
        <time>2020-12-25T09:02:30.000Z</time>
      </trkpt>
      <trkpt lat="47.06512" lon="-1.83107">
        <ele>77</ele>
        <time>2020-12-25T09:02:32.000Z</time>
      </trkpt>
      <trkpt lat="47.06502" lon="-1.83111">
        <ele>77</ele>
        <time>2020-12-25T09:02:34.000Z</time>
      </trkpt>
      <trkpt lat="47.06491" lon="-1.83116">
        <ele>77</ele>
        <time>2020-12-25T09:02:36.000Z</time>
      </trkpt>
      <trkpt lat="47.0648" lon="-1.83121">
        <ele>78</ele>
        <time>2020-12-25T09:02:38.000Z</time>
      </trkpt>
      <trkpt lat="47.06463" lon="-1.83128">
        <ele>78</ele>
        <time>2020-12-25T09:02:41.000Z</time>
      </trkpt>
      <trkpt lat="47.06446" lon="-1.83135">
        <ele>78</ele>
        <time>2020-12-25T09:02:44.000Z</time>
      </trkpt>
      <trkpt lat="47.06435" lon="-1.83141">
        <ele>79</ele>
        <time>2020-12-25T09:02:46.000Z</time>
      </trkpt>
      <trkpt lat="47.06425" lon="-1.83145">
        <ele>79</ele>
        <time>2020-12-25T09:02:48.000Z</time>
      </trkpt>
      <trkpt lat="47.06413" lon="-1.83151">
        <ele>79</ele>
        <time>2020-12-25T09:02:50.000Z</time>
      </trkpt>
      <trkpt lat="47.06403" lon="-1.83156">
        <ele>79</ele>
        <time>2020-12-25T09:02:52.000Z</time>
      </trkpt>
      <trkpt lat="47.06392" lon="-1.8316">
        <ele>79</ele>
        <time>2020-12-25T09:02:54.000Z</time>
      </trkpt>
      <trkpt lat="47.06381" lon="-1.83165">
        <ele>80</ele>
        <time>2020-12-25T09:02:56.000Z</time>
      </trkpt>
      <trkpt lat="47.0637" lon="-1.8317">
        <ele>80</ele>
        <time>2020-12-25T09:02:58.000Z</time>
      </trkpt>
      <trkpt lat="47.06354" lon="-1.83177">
        <ele>80</ele>
        <time>2020-12-25T09:03:01.000Z</time>
      </trkpt>
      <trkpt lat="47.06338" lon="-1.83183">
        <ele>80</ele>
        <time>2020-12-25T09:03:04.000Z</time>
      </trkpt>
      <trkpt lat="47.06322" lon="-1.8319">
        <ele>80</ele>
        <time>2020-12-25T09:03:07.000Z</time>
      </trkpt>
      <trkpt lat="47.06311" lon="-1.83194">
        <ele>81</ele>
        <time>2020-12-25T09:03:09.000Z</time>
      </trkpt>
      <trkpt lat="47.063" lon="-1.83198">
        <ele>81</ele>
        <time>2020-12-25T09:03:11.000Z</time>
      </trkpt>
      <trkpt lat="47.06289" lon="-1.83201">
        <ele>81</ele>
        <time>2020-12-25T09:03:13.000Z</time>
      </trkpt>
      <trkpt lat="47.06272" lon="-1.83204">
        <ele>81</ele>
        <time>2020-12-25T09:03:16.000Z</time>
      </trkpt>
      <trkpt lat="47.06262" lon="-1.83205">
        <ele>81</ele>
        <time>2020-12-25T09:03:18.000Z</time>
      </trkpt>
      <trkpt lat="47.06251" lon="-1.83206">
        <ele>81</ele>
        <time>2020-12-25T09:03:20.000Z</time>
      </trkpt>
      <trkpt lat="47.06239" lon="-1.83205">
        <ele>81</ele>
        <time>2020-12-25T09:03:22.000Z</time>
      </trkpt>
      <trkpt lat="47.06228" lon="-1.83206">
        <ele>81</ele>
        <time>2020-12-25T09:03:24.000Z</time>
      </trkpt>
      <trkpt lat="47.06216" lon="-1.83207">
        <ele>82</ele>
        <time>2020-12-25T09:03:26.000Z</time>
      </trkpt>
      <trkpt lat="47.06205" lon="-1.83207">
        <ele>82</ele>
        <time>2020-12-25T09:03:28.000Z</time>
      </trkpt>
      <trkpt lat="47.06193" lon="-1.83208">
        <ele>82</ele>
        <time>2020-12-25T09:03:30.000Z</time>
      </trkpt>
      <trkpt lat="47.06182" lon="-1.83209">
        <ele>82</ele>
        <time>2020-12-25T09:03:32.000Z</time>
      </trkpt>
      <trkpt lat="47.0617" lon="-1.8321">
        <ele>81</ele>
        <time>2020-12-25T09:03:34.000Z</time>
      </trkpt>
      <trkpt lat="47.06159" lon="-1.8321">
        <ele>81</ele>
        <time>2020-12-25T09:03:36.000Z</time>
      </trkpt>
      <trkpt lat="47.06148" lon="-1.8321">
        <ele>81</ele>
        <time>2020-12-25T09:03:38.000Z</time>
      </trkpt>
      <trkpt lat="47.06136" lon="-1.83211">
        <ele>82</ele>
        <time>2020-12-25T09:03:40.000Z</time>
      </trkpt>
      <trkpt lat="47.06125" lon="-1.83211">
        <ele>82</ele>
        <time>2020-12-25T09:03:42.000Z</time>
      </trkpt>
      <trkpt lat="47.06113" lon="-1.83211">
        <ele>82</ele>
        <time>2020-12-25T09:03:44.000Z</time>
      </trkpt>
      <trkpt lat="47.06102" lon="-1.83212">
        <ele>82</ele>
        <time>2020-12-25T09:03:46.000Z</time>
      </trkpt>
      <trkpt lat="47.0609" lon="-1.83213">
        <ele>82</ele>
        <time>2020-12-25T09:03:48.000Z</time>
      </trkpt>
      <trkpt lat="47.06078" lon="-1.83214">
        <ele>82</ele>
        <time>2020-12-25T09:03:50.000Z</time>
      </trkpt>
      <trkpt lat="47.06066" lon="-1.83214">
        <ele>82</ele>
        <time>2020-12-25T09:03:52.000Z</time>
      </trkpt>
      <trkpt lat="47.06055" lon="-1.83215">
        <ele>82</ele>
        <time>2020-12-25T09:03:54.000Z</time>
      </trkpt>
      <trkpt lat="47.06043" lon="-1.83216">
        <ele>82</ele>
        <time>2020-12-25T09:03:56.000Z</time>
      </trkpt>
      <trkpt lat="47.06031" lon="-1.83217">
        <ele>82</ele>
        <time>2020-12-25T09:03:58.000Z</time>
      </trkpt>
      <trkpt lat="47.06019" lon="-1.83217">
        <ele>82</ele>
        <time>2020-12-25T09:04:00.000Z</time>
      </trkpt>
      <trkpt lat="47.06008" lon="-1.83218">
        <ele>82</ele>
        <time>2020-12-25T09:04:02.000Z</time>
      </trkpt>
      <trkpt lat="47.05997" lon="-1.83218">
        <ele>82</ele>
        <time>2020-12-25T09:04:04.000Z</time>
      </trkpt>
      <trkpt lat="47.05985" lon="-1.83219">
        <ele>81</ele>
        <time>2020-12-25T09:04:06.000Z</time>
      </trkpt>
      <trkpt lat="47.05975" lon="-1.83224">
        <ele>81</ele>
        <time>2020-12-25T09:04:08.000Z</time>
      </trkpt>
      <trkpt lat="47.05965" lon="-1.83235">
        <ele>81</ele>
        <time>2020-12-25T09:04:10.000Z</time>
      </trkpt>
      <trkpt lat="47.05957" lon="-1.83248">
        <ele>81</ele>
        <time>2020-12-25T09:04:12.000Z</time>
      </trkpt>
      <trkpt lat="47.05948" lon="-1.83261">
        <ele>81</ele>
        <time>2020-12-25T09:04:14.000Z</time>
      </trkpt>
      <trkpt lat="47.0594" lon="-1.83274">
        <ele>81</ele>
        <time>2020-12-25T09:04:16.000Z</time>
      </trkpt>
      <trkpt lat="47.05931" lon="-1.83286">
        <ele>81</ele>
        <time>2020-12-25T09:04:18.000Z</time>
      </trkpt>
      <trkpt lat="47.05923" lon="-1.83298">
        <ele>80</ele>
        <time>2020-12-25T09:04:20.000Z</time>
      </trkpt>
      <trkpt lat="47.05914" lon="-1.83311">
        <ele>81</ele>
        <time>2020-12-25T09:04:22.000Z</time>
      </trkpt>
      <trkpt lat="47.05906" lon="-1.83323">
        <ele>81</ele>
        <time>2020-12-25T09:04:24.000Z</time>
      </trkpt>
      <trkpt lat="47.05898" lon="-1.83335">
        <ele>81</ele>
        <time>2020-12-25T09:04:26.000Z</time>
      </trkpt>
      <trkpt lat="47.0589" lon="-1.83347">
        <ele>81</ele>
        <time>2020-12-25T09:04:28.000Z</time>
      </trkpt>
      <trkpt lat="47.05882" lon="-1.83359">
        <ele>81</ele>
        <time>2020-12-25T09:04:30.000Z</time>
      </trkpt>
      <trkpt lat="47.05874" lon="-1.83372">
        <ele>81</ele>
        <time>2020-12-25T09:04:32.000Z</time>
      </trkpt>
      <trkpt lat="47.05865" lon="-1.83384">
        <ele>82</ele>
        <time>2020-12-25T09:04:34.000Z</time>
      </trkpt>
      <trkpt lat="47.05858" lon="-1.83395">
        <ele>82</ele>
        <time>2020-12-25T09:04:36.000Z</time>
      </trkpt>
      <trkpt lat="47.0585" lon="-1.83407">
        <ele>82</ele>
        <time>2020-12-25T09:04:38.000Z</time>
      </trkpt>
      <trkpt lat="47.05842" lon="-1.83419">
        <ele>82</ele>
        <time>2020-12-25T09:04:40.000Z</time>
      </trkpt>
      <trkpt lat="47.05835" lon="-1.8343">
        <ele>82</ele>
        <time>2020-12-25T09:04:42.000Z</time>
      </trkpt>
      <trkpt lat="47.05826" lon="-1.83442">
        <ele>82</ele>
        <time>2020-12-25T09:04:44.000Z</time>
      </trkpt>
      <trkpt lat="47.05818" lon="-1.83453">
        <ele>82</ele>
        <time>2020-12-25T09:04:46.000Z</time>
      </trkpt>
      <trkpt lat="47.0581" lon="-1.83465">
        <ele>83</ele>
        <time>2020-12-25T09:04:48.000Z</time>
      </trkpt>
      <trkpt lat="47.05802" lon="-1.83475">
        <ele>82</ele>
        <time>2020-12-25T09:04:50.000Z</time>
      </trkpt>
      <trkpt lat="47.05794" lon="-1.83486">
        <ele>82</ele>
        <time>2020-12-25T09:04:52.000Z</time>
      </trkpt>
      <trkpt lat="47.05785" lon="-1.83497">
        <ele>82</ele>
        <time>2020-12-25T09:04:54.000Z</time>
      </trkpt>
      <trkpt lat="47.05777" lon="-1.83507">
        <ele>83</ele>
        <time>2020-12-25T09:04:56.000Z</time>
      </trkpt>
      <trkpt lat="47.05768" lon="-1.83518">
        <ele>83</ele>
        <time>2020-12-25T09:04:58.000Z</time>
      </trkpt>
      <trkpt lat="47.05759" lon="-1.83529">
        <ele>83</ele>
        <time>2020-12-25T09:05:00.000Z</time>
      </trkpt>
      <trkpt lat="47.0575" lon="-1.83539">
        <ele>83</ele>
        <time>2020-12-25T09:05:02.000Z</time>
      </trkpt>
      <trkpt lat="47.05741" lon="-1.8355">
        <ele>83</ele>
        <time>2020-12-25T09:05:04.000Z</time>
      </trkpt>
      <trkpt lat="47.05733" lon="-1.8356">
        <ele>83</ele>
        <time>2020-12-25T09:05:06.000Z</time>
      </trkpt>
      <trkpt lat="47.05725" lon="-1.83571">
        <ele>83</ele>
        <time>2020-12-25T09:05:08.000Z</time>
      </trkpt>
      <trkpt lat="47.05719" lon="-1.83585">
        <ele>83</ele>
        <time>2020-12-25T09:05:10.000Z</time>
      </trkpt>
      <trkpt lat="47.05711" lon="-1.83598">
        <ele>83</ele>
        <time>2020-12-25T09:05:12.000Z</time>
      </trkpt>
      <trkpt lat="47.05704" lon="-1.8361">
        <ele>83</ele>
        <time>2020-12-25T09:05:14.000Z</time>
      </trkpt>
      <trkpt lat="47.05696" lon="-1.83624">
        <ele>83</ele>
        <time>2020-12-25T09:05:16.000Z</time>
      </trkpt>
      <trkpt lat="47.05689" lon="-1.83637">
        <ele>83</ele>
        <time>2020-12-25T09:05:18.000Z</time>
      </trkpt>
      <trkpt lat="47.05681" lon="-1.8365">
        <ele>83</ele>
        <time>2020-12-25T09:05:20.000Z</time>
      </trkpt>
      <trkpt lat="47.05674" lon="-1.83663">
        <ele>83</ele>
        <time>2020-12-25T09:05:22.000Z</time>
      </trkpt>
      <trkpt lat="47.05666" lon="-1.83677">
        <ele>83</ele>
        <time>2020-12-25T09:05:24.000Z</time>
      </trkpt>
      <trkpt lat="47.05659" lon="-1.8369">
        <ele>83</ele>
        <time>2020-12-25T09:05:26.000Z</time>
      </trkpt>
      <trkpt lat="47.05651" lon="-1.83702">
        <ele>83</ele>
        <time>2020-12-25T09:05:28.000Z</time>
      </trkpt>
      <trkpt lat="47.05644" lon="-1.83715">
        <ele>83</ele>
        <time>2020-12-25T09:05:30.000Z</time>
      </trkpt>
      <trkpt lat="47.05636" lon="-1.83728">
        <ele>83</ele>
        <time>2020-12-25T09:05:32.000Z</time>
      </trkpt>
      <trkpt lat="47.05629" lon="-1.83741">
        <ele>83</ele>
        <time>2020-12-25T09:05:34.000Z</time>
      </trkpt>
      <trkpt lat="47.05622" lon="-1.83754">
        <ele>83</ele>
        <time>2020-12-25T09:05:36.000Z</time>
      </trkpt>
      <trkpt lat="47.05615" lon="-1.83768">
        <ele>83</ele>
        <time>2020-12-25T09:05:38.000Z</time>
      </trkpt>
      <trkpt lat="47.05607" lon="-1.83781">
        <ele>83</ele>
        <time>2020-12-25T09:05:40.000Z</time>
      </trkpt>
      <trkpt lat="47.056" lon="-1.83794">
        <ele>83</ele>
        <time>2020-12-25T09:05:42.000Z</time>
      </trkpt>
      <trkpt lat="47.05593" lon="-1.83807">
        <ele>82</ele>
        <time>2020-12-25T09:05:44.000Z</time>
      </trkpt>
      <trkpt lat="47.05586" lon="-1.8382">
        <ele>83</ele>
        <time>2020-12-25T09:05:46.000Z</time>
      </trkpt>
      <trkpt lat="47.05578" lon="-1.83833">
        <ele>83</ele>
        <time>2020-12-25T09:05:48.000Z</time>
      </trkpt>
      <trkpt lat="47.05571" lon="-1.83846">
        <ele>83</ele>
        <time>2020-12-25T09:05:50.000Z</time>
      </trkpt>
      <trkpt lat="47.05563" lon="-1.8386">
        <ele>83</ele>
        <time>2020-12-25T09:05:52.000Z</time>
      </trkpt>
      <trkpt lat="47.05556" lon="-1.83873">
        <ele>83</ele>
        <time>2020-12-25T09:05:54.000Z</time>
      </trkpt>
      <trkpt lat="47.05549" lon="-1.83886">
        <ele>83</ele>
        <time>2020-12-25T09:05:56.000Z</time>
      </trkpt>
      <trkpt lat="47.05542" lon="-1.83899">
        <ele>83</ele>
        <time>2020-12-25T09:05:58.000Z</time>
      </trkpt>
      <trkpt lat="47.05534" lon="-1.83912">
        <ele>83</ele>
        <time>2020-12-25T09:06:00.000Z</time>
      </trkpt>
      <trkpt lat="47.05527" lon="-1.83926">
        <ele>83</ele>
        <time>2020-12-25T09:06:02.000Z</time>
      </trkpt>
      <trkpt lat="47.05519" lon="-1.83938">
        <ele>83</ele>
        <time>2020-12-25T09:06:04.000Z</time>
      </trkpt>
      <trkpt lat="47.05512" lon="-1.83952">
        <ele>83</ele>
        <time>2020-12-25T09:06:06.000Z</time>
      </trkpt>
      <trkpt lat="47.05506" lon="-1.83965">
        <ele>83</ele>
        <time>2020-12-25T09:06:08.000Z</time>
      </trkpt>
      <trkpt lat="47.05498" lon="-1.83978">
        <ele>83</ele>
        <time>2020-12-25T09:06:10.000Z</time>
      </trkpt>
      <trkpt lat="47.05491" lon="-1.83991">
        <ele>83</ele>
        <time>2020-12-25T09:06:12.000Z</time>
      </trkpt>
      <trkpt lat="47.05484" lon="-1.84004">
        <ele>83</ele>
        <time>2020-12-25T09:06:14.000Z</time>
      </trkpt>
      <trkpt lat="47.05478" lon="-1.84017">
        <ele>83</ele>
        <time>2020-12-25T09:06:16.000Z</time>
      </trkpt>
      <trkpt lat="47.05471" lon="-1.84031">
        <ele>83</ele>
        <time>2020-12-25T09:06:18.000Z</time>
      </trkpt>
      <trkpt lat="47.05464" lon="-1.84044">
        <ele>83</ele>
        <time>2020-12-25T09:06:20.000Z</time>
      </trkpt>
      <trkpt lat="47.05457" lon="-1.84058">
        <ele>83</ele>
        <time>2020-12-25T09:06:22.000Z</time>
      </trkpt>
      <trkpt lat="47.0545" lon="-1.84072">
        <ele>84</ele>
        <time>2020-12-25T09:06:24.000Z</time>
      </trkpt>
      <trkpt lat="47.05443" lon="-1.84086">
        <ele>83</ele>
        <time>2020-12-25T09:06:26.000Z</time>
      </trkpt>
      <trkpt lat="47.05436" lon="-1.841">
        <ele>83</ele>
        <time>2020-12-25T09:06:28.000Z</time>
      </trkpt>
      <trkpt lat="47.05429" lon="-1.84113">
        <ele>83</ele>
        <time>2020-12-25T09:06:30.000Z</time>
      </trkpt>
      <trkpt lat="47.05423" lon="-1.84126">
        <ele>83</ele>
        <time>2020-12-25T09:06:32.000Z</time>
      </trkpt>
      <trkpt lat="47.05416" lon="-1.8414">
        <ele>83</ele>
        <time>2020-12-25T09:06:34.000Z</time>
      </trkpt>
      <trkpt lat="47.0541" lon="-1.84153">
        <ele>84</ele>
        <time>2020-12-25T09:06:36.000Z</time>
      </trkpt>
      <trkpt lat="47.05403" lon="-1.84166">
        <ele>84</ele>
        <time>2020-12-25T09:06:38.000Z</time>
      </trkpt>
      <trkpt lat="47.05396" lon="-1.8418">
        <ele>84</ele>
        <time>2020-12-25T09:06:40.000Z</time>
      </trkpt>
      <trkpt lat="47.05389" lon="-1.84192">
        <ele>84</ele>
        <time>2020-12-25T09:06:42.000Z</time>
      </trkpt>
      <trkpt lat="47.05383" lon="-1.84206">
        <ele>84</ele>
        <time>2020-12-25T09:06:44.000Z</time>
      </trkpt>
      <trkpt lat="47.05376" lon="-1.8422">
        <ele>83</ele>
        <time>2020-12-25T09:06:46.000Z</time>
      </trkpt>
      <trkpt lat="47.05369" lon="-1.84233">
        <ele>83</ele>
        <time>2020-12-25T09:06:48.000Z</time>
      </trkpt>
      <trkpt lat="47.05362" lon="-1.84246">
        <ele>83</ele>
        <time>2020-12-25T09:06:50.000Z</time>
      </trkpt>
      <trkpt lat="47.05355" lon="-1.8426">
        <ele>83</ele>
        <time>2020-12-25T09:06:52.000Z</time>
      </trkpt>
      <trkpt lat="47.05349" lon="-1.84273">
        <ele>83</ele>
        <time>2020-12-25T09:06:54.000Z</time>
      </trkpt>
      <trkpt lat="47.05342" lon="-1.84287">
        <ele>84</ele>
        <time>2020-12-25T09:06:56.000Z</time>
      </trkpt>
      <trkpt lat="47.05335" lon="-1.84301">
        <ele>83</ele>
        <time>2020-12-25T09:06:58.000Z</time>
      </trkpt>
      <trkpt lat="47.05327" lon="-1.84316">
        <ele>84</ele>
        <time>2020-12-25T09:07:00.000Z</time>
      </trkpt>
      <trkpt lat="47.0532" lon="-1.8433">
        <ele>84</ele>
        <time>2020-12-25T09:07:02.000Z</time>
      </trkpt>
      <trkpt lat="47.05313" lon="-1.84345">
        <ele>83</ele>
        <time>2020-12-25T09:07:04.000Z</time>
      </trkpt>
      <trkpt lat="47.05306" lon="-1.84358">
        <ele>83</ele>
        <time>2020-12-25T09:07:06.000Z</time>
      </trkpt>
      <trkpt lat="47.05299" lon="-1.84373">
        <ele>84</ele>
        <time>2020-12-25T09:07:08.000Z</time>
      </trkpt>
      <trkpt lat="47.05292" lon="-1.84387">
        <ele>84</ele>
        <time>2020-12-25T09:07:10.000Z</time>
      </trkpt>
      <trkpt lat="47.05285" lon="-1.84401">
        <ele>84</ele>
        <time>2020-12-25T09:07:12.000Z</time>
      </trkpt>
      <trkpt lat="47.05278" lon="-1.84415">
        <ele>84</ele>
        <time>2020-12-25T09:07:14.000Z</time>
      </trkpt>
      <trkpt lat="47.05271" lon="-1.84428">
        <ele>84</ele>
        <time>2020-12-25T09:07:16.000Z</time>
      </trkpt>
      <trkpt lat="47.05265" lon="-1.84441">
        <ele>84</ele>
        <time>2020-12-25T09:07:18.000Z</time>
      </trkpt>
      <trkpt lat="47.05258" lon="-1.84455">
        <ele>84</ele>
        <time>2020-12-25T09:07:20.000Z</time>
      </trkpt>
      <trkpt lat="47.05251" lon="-1.84468">
        <ele>84</ele>
        <time>2020-12-25T09:07:22.000Z</time>
      </trkpt>
      <trkpt lat="47.05244" lon="-1.84482">
        <ele>84</ele>
        <time>2020-12-25T09:07:24.000Z</time>
      </trkpt>
      <trkpt lat="47.05237" lon="-1.84495">
        <ele>85</ele>
        <time>2020-12-25T09:07:26.000Z</time>
      </trkpt>
      <trkpt lat="47.05231" lon="-1.84509">
        <ele>85</ele>
        <time>2020-12-25T09:07:28.000Z</time>
      </trkpt>
      <trkpt lat="47.05224" lon="-1.84522">
        <ele>84</ele>
        <time>2020-12-25T09:07:30.000Z</time>
      </trkpt>
      <trkpt lat="47.05218" lon="-1.84534">
        <ele>84</ele>
        <time>2020-12-25T09:07:32.000Z</time>
      </trkpt>
      <trkpt lat="47.05206" lon="-1.84543">
        <ele>84</ele>
        <time>2020-12-25T09:07:35.000Z</time>
      </trkpt>
      <trkpt lat="47.05197" lon="-1.84537">
        <ele>85</ele>
        <time>2020-12-25T09:07:37.000Z</time>
      </trkpt>
      <trkpt lat="47.05188" lon="-1.84525">
        <ele>84</ele>
        <time>2020-12-25T09:07:39.000Z</time>
      </trkpt>
      <trkpt lat="47.05179" lon="-1.84513">
        <ele>84</ele>
        <time>2020-12-25T09:07:41.000Z</time>
      </trkpt>
      <trkpt lat="47.0517" lon="-1.84501">
        <ele>83</ele>
        <time>2020-12-25T09:07:43.000Z</time>
      </trkpt>
      <trkpt lat="47.05161" lon="-1.84489">
        <ele>83</ele>
        <time>2020-12-25T09:07:45.000Z</time>
      </trkpt>
      <trkpt lat="47.05152" lon="-1.84477">
        <ele>83</ele>
        <time>2020-12-25T09:07:47.000Z</time>
      </trkpt>
      <trkpt lat="47.05144" lon="-1.84464">
        <ele>83</ele>
        <time>2020-12-25T09:07:49.000Z</time>
      </trkpt>
      <trkpt lat="47.05136" lon="-1.84452">
        <ele>83</ele>
        <time>2020-12-25T09:07:51.000Z</time>
      </trkpt>
      <trkpt lat="47.05128" lon="-1.8444">
        <ele>83</ele>
        <time>2020-12-25T09:07:53.000Z</time>
      </trkpt>
      <trkpt lat="47.05119" lon="-1.84428">
        <ele>83</ele>
        <time>2020-12-25T09:07:55.000Z</time>
      </trkpt>
      <trkpt lat="47.05109" lon="-1.84416">
        <ele>83</ele>
        <time>2020-12-25T09:07:57.000Z</time>
      </trkpt>
      <trkpt lat="47.051" lon="-1.84404">
        <ele>82</ele>
        <time>2020-12-25T09:07:59.000Z</time>
      </trkpt>
      <trkpt lat="47.0509" lon="-1.84393">
        <ele>82</ele>
        <time>2020-12-25T09:08:01.000Z</time>
      </trkpt>
      <trkpt lat="47.05081" lon="-1.84381">
        <ele>82</ele>
        <time>2020-12-25T09:08:03.000Z</time>
      </trkpt>
      <trkpt lat="47.0507" lon="-1.84369">
        <ele>82</ele>
        <time>2020-12-25T09:08:05.000Z</time>
      </trkpt>
      <trkpt lat="47.0506" lon="-1.84358">
        <ele>82</ele>
        <time>2020-12-25T09:08:07.000Z</time>
      </trkpt>
      <trkpt lat="47.05051" lon="-1.84347">
        <ele>82</ele>
        <time>2020-12-25T09:08:09.000Z</time>
      </trkpt>
      <trkpt lat="47.05041" lon="-1.84337">
        <ele>81</ele>
        <time>2020-12-25T09:08:11.000Z</time>
      </trkpt>
      <trkpt lat="47.05032" lon="-1.84327">
        <ele>81</ele>
        <time>2020-12-25T09:08:13.000Z</time>
      </trkpt>
      <trkpt lat="47.05021" lon="-1.84317">
        <ele>81</ele>
        <time>2020-12-25T09:08:15.000Z</time>
      </trkpt>
      <trkpt lat="47.0501" lon="-1.84308">
        <ele>80</ele>
        <time>2020-12-25T09:08:17.000Z</time>
      </trkpt>
      <trkpt lat="47.04999" lon="-1.84299">
        <ele>80</ele>
        <time>2020-12-25T09:08:19.000Z</time>
      </trkpt>
      <trkpt lat="47.04988" lon="-1.8429">
        <ele>80</ele>
        <time>2020-12-25T09:08:21.000Z</time>
      </trkpt>
      <trkpt lat="47.04977" lon="-1.84281">
        <ele>80</ele>
        <time>2020-12-25T09:08:23.000Z</time>
      </trkpt>
      <trkpt lat="47.04966" lon="-1.84271">
        <ele>80</ele>
        <time>2020-12-25T09:08:25.000Z</time>
      </trkpt>
      <trkpt lat="47.04956" lon="-1.84262">
        <ele>81</ele>
        <time>2020-12-25T09:08:27.000Z</time>
      </trkpt>
      <trkpt lat="47.04946" lon="-1.84252">
        <ele>81</ele>
        <time>2020-12-25T09:08:29.000Z</time>
      </trkpt>
      <trkpt lat="47.04937" lon="-1.84242">
        <ele>81</ele>
        <time>2020-12-25T09:08:31.000Z</time>
      </trkpt>
      <trkpt lat="47.04926" lon="-1.84232">
        <ele>81</ele>
        <time>2020-12-25T09:08:33.000Z</time>
      </trkpt>
      <trkpt lat="47.04916" lon="-1.84223">
        <ele>82</ele>
        <time>2020-12-25T09:08:35.000Z</time>
      </trkpt>
      <trkpt lat="47.04906" lon="-1.84213">
        <ele>82</ele>
        <time>2020-12-25T09:08:37.000Z</time>
      </trkpt>
      <trkpt lat="47.04895" lon="-1.84203">
        <ele>81</ele>
        <time>2020-12-25T09:08:39.000Z</time>
      </trkpt>
      <trkpt lat="47.04886" lon="-1.84192">
        <ele>81</ele>
        <time>2020-12-25T09:08:41.000Z</time>
      </trkpt>
      <trkpt lat="47.04877" lon="-1.84182">
        <ele>81</ele>
        <time>2020-12-25T09:08:43.000Z</time>
      </trkpt>
      <trkpt lat="47.04867" lon="-1.84173">
        <ele>82</ele>
        <time>2020-12-25T09:08:45.000Z</time>
      </trkpt>
      <trkpt lat="47.04858" lon="-1.84163">
        <ele>82</ele>
        <time>2020-12-25T09:08:47.000Z</time>
      </trkpt>
      <trkpt lat="47.04848" lon="-1.84153">
        <ele>82</ele>
        <time>2020-12-25T09:08:49.000Z</time>
      </trkpt>
      <trkpt lat="47.04839" lon="-1.84142">
        <ele>82</ele>
        <time>2020-12-25T09:08:51.000Z</time>
      </trkpt>
      <trkpt lat="47.04829" lon="-1.84131">
        <ele>82</ele>
        <time>2020-12-25T09:08:53.000Z</time>
      </trkpt>
      <trkpt lat="47.0482" lon="-1.84119">
        <ele>82</ele>
        <time>2020-12-25T09:08:55.000Z</time>
      </trkpt>
      <trkpt lat="47.0481" lon="-1.84107">
        <ele>82</ele>
        <time>2020-12-25T09:08:57.000Z</time>
      </trkpt>
      <trkpt lat="47.04801" lon="-1.84095">
        <ele>82</ele>
        <time>2020-12-25T09:08:59.000Z</time>
      </trkpt>
      <trkpt lat="47.04792" lon="-1.84082">
        <ele>81</ele>
        <time>2020-12-25T09:09:01.000Z</time>
      </trkpt>
      <trkpt lat="47.04782" lon="-1.8407">
        <ele>81</ele>
        <time>2020-12-25T09:09:03.000Z</time>
      </trkpt>
      <trkpt lat="47.04772" lon="-1.84057">
        <ele>81</ele>
        <time>2020-12-25T09:09:05.000Z</time>
      </trkpt>
      <trkpt lat="47.04762" lon="-1.84045">
        <ele>81</ele>
        <time>2020-12-25T09:09:07.000Z</time>
      </trkpt>
      <trkpt lat="47.04752" lon="-1.84032">
        <ele>81</ele>
        <time>2020-12-25T09:09:09.000Z</time>
      </trkpt>
      <trkpt lat="47.04742" lon="-1.84019">
        <ele>81</ele>
        <time>2020-12-25T09:09:11.000Z</time>
      </trkpt>
      <trkpt lat="47.04732" lon="-1.84007">
        <ele>81</ele>
        <time>2020-12-25T09:09:13.000Z</time>
      </trkpt>
      <trkpt lat="47.04722" lon="-1.83995">
        <ele>80</ele>
        <time>2020-12-25T09:09:15.000Z</time>
      </trkpt>
      <trkpt lat="47.04711" lon="-1.83982">
        <ele>80</ele>
        <time>2020-12-25T09:09:17.000Z</time>
      </trkpt>
      <trkpt lat="47.04701" lon="-1.8397">
        <ele>80</ele>
        <time>2020-12-25T09:09:19.000Z</time>
      </trkpt>
      <trkpt lat="47.04691" lon="-1.83958">
        <ele>79</ele>
        <time>2020-12-25T09:09:21.000Z</time>
      </trkpt>
      <trkpt lat="47.04681" lon="-1.83946">
        <ele>79</ele>
        <time>2020-12-25T09:09:23.000Z</time>
      </trkpt>
      <trkpt lat="47.04671" lon="-1.83933">
        <ele>79</ele>
        <time>2020-12-25T09:09:25.000Z</time>
      </trkpt>
      <trkpt lat="47.04661" lon="-1.8392">
        <ele>79</ele>
        <time>2020-12-25T09:09:27.000Z</time>
      </trkpt>
      <trkpt lat="47.04651" lon="-1.83906">
        <ele>80</ele>
        <time>2020-12-25T09:09:29.000Z</time>
      </trkpt>
      <trkpt lat="47.04642" lon="-1.83893">
        <ele>79</ele>
        <time>2020-12-25T09:09:31.000Z</time>
      </trkpt>
      <trkpt lat="47.04633" lon="-1.8388">
        <ele>79</ele>
        <time>2020-12-25T09:09:33.000Z</time>
      </trkpt>
      <trkpt lat="47.04624" lon="-1.83868">
        <ele>79</ele>
        <time>2020-12-25T09:09:35.000Z</time>
      </trkpt>
      <trkpt lat="47.04614" lon="-1.83855">
        <ele>79</ele>
        <time>2020-12-25T09:09:37.000Z</time>
      </trkpt>
      <trkpt lat="47.04604" lon="-1.83842">
        <ele>79</ele>
        <time>2020-12-25T09:09:39.000Z</time>
      </trkpt>
      <trkpt lat="47.04593" lon="-1.83832">
        <ele>78</ele>
        <time>2020-12-25T09:09:41.000Z</time>
      </trkpt>
      <trkpt lat="47.04581" lon="-1.83822">
        <ele>78</ele>
        <time>2020-12-25T09:09:43.000Z</time>
      </trkpt>
      <trkpt lat="47.04569" lon="-1.83814">
        <ele>78</ele>
        <time>2020-12-25T09:09:45.000Z</time>
      </trkpt>
      <trkpt lat="47.04557" lon="-1.83806">
        <ele>78</ele>
        <time>2020-12-25T09:09:47.000Z</time>
      </trkpt>
      <trkpt lat="47.04545" lon="-1.83797">
        <ele>78</ele>
        <time>2020-12-25T09:09:49.000Z</time>
      </trkpt>
      <trkpt lat="47.04533" lon="-1.83789">
        <ele>78</ele>
        <time>2020-12-25T09:09:51.000Z</time>
      </trkpt>
      <trkpt lat="47.04522" lon="-1.83781">
        <ele>79</ele>
        <time>2020-12-25T09:09:53.000Z</time>
      </trkpt>
      <trkpt lat="47.0451" lon="-1.83772">
        <ele>79</ele>
        <time>2020-12-25T09:09:55.000Z</time>
      </trkpt>
      <trkpt lat="47.04498" lon="-1.83763">
        <ele>79</ele>
        <time>2020-12-25T09:09:57.000Z</time>
      </trkpt>
      <trkpt lat="47.04487" lon="-1.83755">
        <ele>79</ele>
        <time>2020-12-25T09:09:59.000Z</time>
      </trkpt>
      <trkpt lat="47.04476" lon="-1.83746">
        <ele>79</ele>
        <time>2020-12-25T09:10:01.000Z</time>
      </trkpt>
      <trkpt lat="47.04465" lon="-1.83736">
        <ele>79</ele>
        <time>2020-12-25T09:10:03.000Z</time>
      </trkpt>
      <trkpt lat="47.04453" lon="-1.83727">
        <ele>79</ele>
        <time>2020-12-25T09:10:05.000Z</time>
      </trkpt>
      <trkpt lat="47.04442" lon="-1.83718">
        <ele>78</ele>
        <time>2020-12-25T09:10:07.000Z</time>
      </trkpt>
      <trkpt lat="47.0443" lon="-1.83709">
        <ele>78</ele>
        <time>2020-12-25T09:10:09.000Z</time>
      </trkpt>
      <trkpt lat="47.04419" lon="-1.837">
        <ele>78</ele>
        <time>2020-12-25T09:10:11.000Z</time>
      </trkpt>
      <trkpt lat="47.04407" lon="-1.83691">
        <ele>79</ele>
        <time>2020-12-25T09:10:13.000Z</time>
      </trkpt>
      <trkpt lat="47.04395" lon="-1.83682">
        <ele>79</ele>
        <time>2020-12-25T09:10:15.000Z</time>
      </trkpt>
      <trkpt lat="47.04383" lon="-1.83675">
        <ele>79</ele>
        <time>2020-12-25T09:10:17.000Z</time>
      </trkpt>
      <trkpt lat="47.0437" lon="-1.8367">
        <ele>79</ele>
        <time>2020-12-25T09:10:19.000Z</time>
      </trkpt>
      <trkpt lat="47.04358" lon="-1.83666">
        <ele>79</ele>
        <time>2020-12-25T09:10:21.000Z</time>
      </trkpt>
      <trkpt lat="47.04345" lon="-1.83662">
        <ele>78</ele>
        <time>2020-12-25T09:10:23.000Z</time>
      </trkpt>
      <trkpt lat="47.04332" lon="-1.8366">
        <ele>78</ele>
        <time>2020-12-25T09:10:25.000Z</time>
      </trkpt>
      <trkpt lat="47.04319" lon="-1.83657">
        <ele>78</ele>
        <time>2020-12-25T09:10:27.000Z</time>
      </trkpt>
      <trkpt lat="47.04306" lon="-1.83654">
        <ele>78</ele>
        <time>2020-12-25T09:10:29.000Z</time>
      </trkpt>
      <trkpt lat="47.04294" lon="-1.83651">
        <ele>77</ele>
        <time>2020-12-25T09:10:31.000Z</time>
      </trkpt>
      <trkpt lat="47.04282" lon="-1.83647">
        <ele>77</ele>
        <time>2020-12-25T09:10:33.000Z</time>
      </trkpt>
      <trkpt lat="47.04269" lon="-1.83643">
        <ele>77</ele>
        <time>2020-12-25T09:10:35.000Z</time>
      </trkpt>
      <trkpt lat="47.04256" lon="-1.8364">
        <ele>78</ele>
        <time>2020-12-25T09:10:37.000Z</time>
      </trkpt>
      <trkpt lat="47.04243" lon="-1.83637">
        <ele>78</ele>
        <time>2020-12-25T09:10:39.000Z</time>
      </trkpt>
      <trkpt lat="47.04231" lon="-1.83632">
        <ele>78</ele>
        <time>2020-12-25T09:10:41.000Z</time>
      </trkpt>
      <trkpt lat="47.04219" lon="-1.83625">
        <ele>78</ele>
        <time>2020-12-25T09:10:43.000Z</time>
      </trkpt>
      <trkpt lat="47.04208" lon="-1.83617">
        <ele>79</ele>
        <time>2020-12-25T09:10:45.000Z</time>
      </trkpt>
      <trkpt lat="47.04196" lon="-1.83614">
        <ele>79</ele>
        <time>2020-12-25T09:10:47.000Z</time>
      </trkpt>
      <trkpt lat="47.04183" lon="-1.83614">
        <ele>79</ele>
        <time>2020-12-25T09:10:49.000Z</time>
      </trkpt>
      <trkpt lat="47.0417" lon="-1.8361">
        <ele>79</ele>
        <time>2020-12-25T09:10:51.000Z</time>
      </trkpt>
      <trkpt lat="47.04158" lon="-1.83604">
        <ele>79</ele>
        <time>2020-12-25T09:10:53.000Z</time>
      </trkpt>
      <trkpt lat="47.04146" lon="-1.83597">
        <ele>79</ele>
        <time>2020-12-25T09:10:55.000Z</time>
      </trkpt>
      <trkpt lat="47.04134" lon="-1.83591">
        <ele>78</ele>
        <time>2020-12-25T09:10:57.000Z</time>
      </trkpt>
      <trkpt lat="47.04122" lon="-1.83586">
        <ele>78</ele>
        <time>2020-12-25T09:10:59.000Z</time>
      </trkpt>
      <trkpt lat="47.0411" lon="-1.83581">
        <ele>78</ele>
        <time>2020-12-25T09:11:01.000Z</time>
      </trkpt>
      <trkpt lat="47.04097" lon="-1.83577">
        <ele>78</ele>
        <time>2020-12-25T09:11:03.000Z</time>
      </trkpt>
      <trkpt lat="47.04085" lon="-1.83573">
        <ele>78</ele>
        <time>2020-12-25T09:11:05.000Z</time>
      </trkpt>
      <trkpt lat="47.04073" lon="-1.83571">
        <ele>78</ele>
        <time>2020-12-25T09:11:07.000Z</time>
      </trkpt>
      <trkpt lat="47.04061" lon="-1.83569">
        <ele>78</ele>
        <time>2020-12-25T09:11:09.000Z</time>
      </trkpt>
      <trkpt lat="47.04048" lon="-1.83567">
        <ele>77</ele>
        <time>2020-12-25T09:11:11.000Z</time>
      </trkpt>
      <trkpt lat="47.04036" lon="-1.83565">
        <ele>77</ele>
        <time>2020-12-25T09:11:13.000Z</time>
      </trkpt>
      <trkpt lat="47.04024" lon="-1.83563">
        <ele>78</ele>
        <time>2020-12-25T09:11:15.000Z</time>
      </trkpt>
      <trkpt lat="47.04011" lon="-1.83562">
        <ele>78</ele>
        <time>2020-12-25T09:11:17.000Z</time>
      </trkpt>
      <trkpt lat="47.03998" lon="-1.83559">
        <ele>78</ele>
        <time>2020-12-25T09:11:19.000Z</time>
      </trkpt>
      <trkpt lat="47.03986" lon="-1.83558">
        <ele>78</ele>
        <time>2020-12-25T09:11:21.000Z</time>
      </trkpt>
      <trkpt lat="47.03974" lon="-1.83556">
        <ele>78</ele>
        <time>2020-12-25T09:11:23.000Z</time>
      </trkpt>
      <trkpt lat="47.03961" lon="-1.83554">
        <ele>78</ele>
        <time>2020-12-25T09:11:25.000Z</time>
      </trkpt>
      <trkpt lat="47.03949" lon="-1.83553">
        <ele>79</ele>
        <time>2020-12-25T09:11:27.000Z</time>
      </trkpt>
      <trkpt lat="47.03936" lon="-1.83551">
        <ele>79</ele>
        <time>2020-12-25T09:11:29.000Z</time>
      </trkpt>
      <trkpt lat="47.03923" lon="-1.8355">
        <ele>79</ele>
        <time>2020-12-25T09:11:31.000Z</time>
      </trkpt>
      <trkpt lat="47.0391" lon="-1.83548">
        <ele>79</ele>
        <time>2020-12-25T09:11:33.000Z</time>
      </trkpt>
      <trkpt lat="47.03897" lon="-1.83545">
        <ele>79</ele>
        <time>2020-12-25T09:11:35.000Z</time>
      </trkpt>
      <trkpt lat="47.03885" lon="-1.83544">
        <ele>79</ele>
        <time>2020-12-25T09:11:37.000Z</time>
      </trkpt>
      <trkpt lat="47.03872" lon="-1.83543">
        <ele>79</ele>
        <time>2020-12-25T09:11:39.000Z</time>
      </trkpt>
      <trkpt lat="47.0386" lon="-1.83541">
        <ele>80</ele>
        <time>2020-12-25T09:11:41.000Z</time>
      </trkpt>
      <trkpt lat="47.03847" lon="-1.83539">
        <ele>79</ele>
        <time>2020-12-25T09:11:43.000Z</time>
      </trkpt>
      <trkpt lat="47.03834" lon="-1.83539">
        <ele>79</ele>
        <time>2020-12-25T09:11:45.000Z</time>
      </trkpt>
      <trkpt lat="47.03821" lon="-1.83537">
        <ele>80</ele>
        <time>2020-12-25T09:11:47.000Z</time>
      </trkpt>
      <trkpt lat="47.03808" lon="-1.83536">
        <ele>80</ele>
        <time>2020-12-25T09:11:49.000Z</time>
      </trkpt>
      <trkpt lat="47.03795" lon="-1.83535">
        <ele>80</ele>
        <time>2020-12-25T09:11:51.000Z</time>
      </trkpt>
      <trkpt lat="47.03782" lon="-1.83534">
        <ele>80</ele>
        <time>2020-12-25T09:11:53.000Z</time>
      </trkpt>
      <trkpt lat="47.03769" lon="-1.83534">
        <ele>80</ele>
        <time>2020-12-25T09:11:55.000Z</time>
      </trkpt>
      <trkpt lat="47.03756" lon="-1.83535">
        <ele>80</ele>
        <time>2020-12-25T09:11:57.000Z</time>
      </trkpt>
      <trkpt lat="47.03742" lon="-1.83535">
        <ele>80</ele>
        <time>2020-12-25T09:11:59.000Z</time>
      </trkpt>
      <trkpt lat="47.03729" lon="-1.83535">
        <ele>80</ele>
        <time>2020-12-25T09:12:01.000Z</time>
      </trkpt>
      <trkpt lat="47.03716" lon="-1.83535">
        <ele>80</ele>
        <time>2020-12-25T09:12:03.000Z</time>
      </trkpt>
      <trkpt lat="47.03703" lon="-1.83535">
        <ele>79</ele>
        <time>2020-12-25T09:12:05.000Z</time>
      </trkpt>
      <trkpt lat="47.0369" lon="-1.83536">
        <ele>79</ele>
        <time>2020-12-25T09:12:07.000Z</time>
      </trkpt>
      <trkpt lat="47.03677" lon="-1.83536">
        <ele>79</ele>
        <time>2020-12-25T09:12:09.000Z</time>
      </trkpt>
      <trkpt lat="47.03663" lon="-1.83536">
        <ele>79</ele>
        <time>2020-12-25T09:12:11.000Z</time>
      </trkpt>
      <trkpt lat="47.03649" lon="-1.83536">
        <ele>78</ele>
        <time>2020-12-25T09:12:13.000Z</time>
      </trkpt>
      <trkpt lat="47.03636" lon="-1.83536">
        <ele>78</ele>
        <time>2020-12-25T09:12:15.000Z</time>
      </trkpt>
      <trkpt lat="47.03623" lon="-1.83537">
        <ele>78</ele>
        <time>2020-12-25T09:12:17.000Z</time>
      </trkpt>
      <trkpt lat="47.03609" lon="-1.83537">
        <ele>78</ele>
        <time>2020-12-25T09:12:19.000Z</time>
      </trkpt>
      <trkpt lat="47.03596" lon="-1.83537">
        <ele>78</ele>
        <time>2020-12-25T09:12:21.000Z</time>
      </trkpt>
      <trkpt lat="47.03582" lon="-1.83538">
        <ele>78</ele>
        <time>2020-12-25T09:12:23.000Z</time>
      </trkpt>
      <trkpt lat="47.03568" lon="-1.83538">
        <ele>78</ele>
        <time>2020-12-25T09:12:25.000Z</time>
      </trkpt>
      <trkpt lat="47.03555" lon="-1.83539">
        <ele>78</ele>
        <time>2020-12-25T09:12:27.000Z</time>
      </trkpt>
      <trkpt lat="47.03541" lon="-1.83539">
        <ele>78</ele>
        <time>2020-12-25T09:12:29.000Z</time>
      </trkpt>
      <trkpt lat="47.03527" lon="-1.83539">
        <ele>78</ele>
        <time>2020-12-25T09:12:31.000Z</time>
      </trkpt>
      <trkpt lat="47.03513" lon="-1.83538">
        <ele>78</ele>
        <time>2020-12-25T09:12:33.000Z</time>
      </trkpt>
      <trkpt lat="47.03499" lon="-1.83536">
        <ele>78</ele>
        <time>2020-12-25T09:12:35.000Z</time>
      </trkpt>
      <trkpt lat="47.03485" lon="-1.83533">
        <ele>77</ele>
        <time>2020-12-25T09:12:37.000Z</time>
      </trkpt>
      <trkpt lat="47.03472" lon="-1.8353">
        <ele>77</ele>
        <time>2020-12-25T09:12:39.000Z</time>
      </trkpt>
      <trkpt lat="47.03459" lon="-1.83527">
        <ele>78</ele>
        <time>2020-12-25T09:12:41.000Z</time>
      </trkpt>
      <trkpt lat="47.03444" lon="-1.83524">
        <ele>77</ele>
        <time>2020-12-25T09:12:43.000Z</time>
      </trkpt>
      <trkpt lat="47.0343" lon="-1.83518">
        <ele>77</ele>
        <time>2020-12-25T09:12:45.000Z</time>
      </trkpt>
      <trkpt lat="47.03416" lon="-1.83514">
        <ele>77</ele>
        <time>2020-12-25T09:12:47.000Z</time>
      </trkpt>
      <trkpt lat="47.03402" lon="-1.8351">
        <ele>76</ele>
        <time>2020-12-25T09:12:49.000Z</time>
      </trkpt>
      <trkpt lat="47.03389" lon="-1.83506">
        <ele>76</ele>
        <time>2020-12-25T09:12:51.000Z</time>
      </trkpt>
      <trkpt lat="47.03375" lon="-1.83502">
        <ele>76</ele>
        <time>2020-12-25T09:12:53.000Z</time>
      </trkpt>
      <trkpt lat="47.03361" lon="-1.83498">
        <ele>76</ele>
        <time>2020-12-25T09:12:55.000Z</time>
      </trkpt>
      <trkpt lat="47.03347" lon="-1.83495">
        <ele>76</ele>
        <time>2020-12-25T09:12:57.000Z</time>
      </trkpt>
      <trkpt lat="47.03333" lon="-1.83491">
        <ele>76</ele>
        <time>2020-12-25T09:12:59.000Z</time>
      </trkpt>
      <trkpt lat="47.03319" lon="-1.83487">
        <ele>76</ele>
        <time>2020-12-25T09:13:01.000Z</time>
      </trkpt>
      <trkpt lat="47.03305" lon="-1.83483">
        <ele>76</ele>
        <time>2020-12-25T09:13:03.000Z</time>
      </trkpt>
      <trkpt lat="47.03291" lon="-1.83479">
        <ele>76</ele>
        <time>2020-12-25T09:13:05.000Z</time>
      </trkpt>
      <trkpt lat="47.03278" lon="-1.83476">
        <ele>76</ele>
        <time>2020-12-25T09:13:07.000Z</time>
      </trkpt>
      <trkpt lat="47.03264" lon="-1.83473">
        <ele>76</ele>
        <time>2020-12-25T09:13:09.000Z</time>
      </trkpt>
      <trkpt lat="47.03251" lon="-1.83469">
        <ele>76</ele>
        <time>2020-12-25T09:13:11.000Z</time>
      </trkpt>
      <trkpt lat="47.03238" lon="-1.83465">
        <ele>76</ele>
        <time>2020-12-25T09:13:13.000Z</time>
      </trkpt>
      <trkpt lat="47.03225" lon="-1.83462">
        <ele>76</ele>
        <time>2020-12-25T09:13:15.000Z</time>
      </trkpt>
      <trkpt lat="47.03212" lon="-1.83458">
        <ele>76</ele>
        <time>2020-12-25T09:13:17.000Z</time>
      </trkpt>
      <trkpt lat="47.032" lon="-1.83455">
        <ele>76</ele>
        <time>2020-12-25T09:13:19.000Z</time>
      </trkpt>
      <trkpt lat="47.03189" lon="-1.83453">
        <ele>76</ele>
        <time>2020-12-25T09:13:21.000Z</time>
      </trkpt>
      <trkpt lat="47.03178" lon="-1.83448">
        <ele>75</ele>
        <time>2020-12-25T09:13:23.000Z</time>
      </trkpt>
      <trkpt lat="47.03169" lon="-1.83444">
        <ele>75</ele>
        <time>2020-12-25T09:13:25.000Z</time>
      </trkpt>
      <trkpt lat="47.03165" lon="-1.83428">
        <ele>74</ele>
        <time>2020-12-25T09:13:27.000Z</time>
      </trkpt>
      <trkpt lat="47.03164" lon="-1.83407">
        <ele>74</ele>
        <time>2020-12-25T09:13:29.000Z</time>
      </trkpt>
      <trkpt lat="47.03163" lon="-1.83385">
        <ele>73</ele>
        <time>2020-12-25T09:13:31.000Z</time>
      </trkpt>
      <trkpt lat="47.0316" lon="-1.83364">
        <ele>73</ele>
        <time>2020-12-25T09:13:33.000Z</time>
      </trkpt>
      <trkpt lat="47.03155" lon="-1.83343">
        <ele>72</ele>
        <time>2020-12-25T09:13:35.000Z</time>
      </trkpt>
      <trkpt lat="47.03149" lon="-1.83323">
        <ele>71</ele>
        <time>2020-12-25T09:13:37.000Z</time>
      </trkpt>
      <trkpt lat="47.03143" lon="-1.83304">
        <ele>70</ele>
        <time>2020-12-25T09:13:39.000Z</time>
      </trkpt>
      <trkpt lat="47.03136" lon="-1.83284">
        <ele>69</ele>
        <time>2020-12-25T09:13:41.000Z</time>
      </trkpt>
      <trkpt lat="47.0313" lon="-1.83264">
        <ele>69</ele>
        <time>2020-12-25T09:13:43.000Z</time>
      </trkpt>
      <trkpt lat="47.03123" lon="-1.83244">
        <ele>69</ele>
        <time>2020-12-25T09:13:45.000Z</time>
      </trkpt>
      <trkpt lat="47.03117" lon="-1.83224">
        <ele>69</ele>
        <time>2020-12-25T09:13:47.000Z</time>
      </trkpt>
      <trkpt lat="47.0311" lon="-1.83205">
        <ele>69</ele>
        <time>2020-12-25T09:13:49.000Z</time>
      </trkpt>
      <trkpt lat="47.03104" lon="-1.83185">
        <ele>70</ele>
        <time>2020-12-25T09:13:51.000Z</time>
      </trkpt>
      <trkpt lat="47.03098" lon="-1.83165">
        <ele>69</ele>
        <time>2020-12-25T09:13:53.000Z</time>
      </trkpt>
      <trkpt lat="47.03092" lon="-1.83145">
        <ele>69</ele>
        <time>2020-12-25T09:13:55.000Z</time>
      </trkpt>
      <trkpt lat="47.03086" lon="-1.83125">
        <ele>69</ele>
        <time>2020-12-25T09:13:57.000Z</time>
      </trkpt>
      <trkpt lat="47.0308" lon="-1.83106">
        <ele>69</ele>
        <time>2020-12-25T09:13:59.000Z</time>
      </trkpt>
      <trkpt lat="47.03072" lon="-1.83087">
        <ele>69</ele>
        <time>2020-12-25T09:14:01.000Z</time>
      </trkpt>
      <trkpt lat="47.03065" lon="-1.83068">
        <ele>68</ele>
        <time>2020-12-25T09:14:03.000Z</time>
      </trkpt>
      <trkpt lat="47.03056" lon="-1.8305">
        <ele>68</ele>
        <time>2020-12-25T09:14:05.000Z</time>
      </trkpt>
      <trkpt lat="47.03047" lon="-1.83033">
        <ele>68</ele>
        <time>2020-12-25T09:14:07.000Z</time>
      </trkpt>
      <trkpt lat="47.03038" lon="-1.83017">
        <ele>68</ele>
        <time>2020-12-25T09:14:09.000Z</time>
      </trkpt>
      <trkpt lat="47.03029" lon="-1.83">
        <ele>67</ele>
        <time>2020-12-25T09:14:11.000Z</time>
      </trkpt>
      <trkpt lat="47.0302" lon="-1.82984">
        <ele>67</ele>
        <time>2020-12-25T09:14:13.000Z</time>
      </trkpt>
      <trkpt lat="47.03011" lon="-1.82967">
        <ele>67</ele>
        <time>2020-12-25T09:14:15.000Z</time>
      </trkpt>
      <trkpt lat="47.03003" lon="-1.82951">
        <ele>68</ele>
        <time>2020-12-25T09:14:17.000Z</time>
      </trkpt>
      <trkpt lat="47.02994" lon="-1.82935">
        <ele>67</ele>
        <time>2020-12-25T09:14:19.000Z</time>
      </trkpt>
      <trkpt lat="47.02986" lon="-1.82919">
        <ele>67</ele>
        <time>2020-12-25T09:14:21.000Z</time>
      </trkpt>
      <trkpt lat="47.02978" lon="-1.82902">
        <ele>67</ele>
        <time>2020-12-25T09:14:23.000Z</time>
      </trkpt>
      <trkpt lat="47.02971" lon="-1.82885">
        <ele>67</ele>
        <time>2020-12-25T09:14:25.000Z</time>
      </trkpt>
      <trkpt lat="47.02964" lon="-1.82868">
        <ele>66</ele>
        <time>2020-12-25T09:14:27.000Z</time>
      </trkpt>
      <trkpt lat="47.02956" lon="-1.8285">
        <ele>65</ele>
        <time>2020-12-25T09:14:29.000Z</time>
      </trkpt>
      <trkpt lat="47.02949" lon="-1.82834">
        <ele>65</ele>
        <time>2020-12-25T09:14:31.000Z</time>
      </trkpt>
      <trkpt lat="47.02942" lon="-1.82816">
        <ele>65</ele>
        <time>2020-12-25T09:14:33.000Z</time>
      </trkpt>
      <trkpt lat="47.02934" lon="-1.82799">
        <ele>66</ele>
        <time>2020-12-25T09:14:35.000Z</time>
      </trkpt>
      <trkpt lat="47.02927" lon="-1.82781">
        <ele>66</ele>
        <time>2020-12-25T09:14:37.000Z</time>
      </trkpt>
      <trkpt lat="47.02919" lon="-1.82764">
        <ele>65</ele>
        <time>2020-12-25T09:14:39.000Z</time>
      </trkpt>
      <trkpt lat="47.02913" lon="-1.82747">
        <ele>64</ele>
        <time>2020-12-25T09:14:41.000Z</time>
      </trkpt>
      <trkpt lat="47.02906" lon="-1.82729">
        <ele>64</ele>
        <time>2020-12-25T09:14:43.000Z</time>
      </trkpt>
      <trkpt lat="47.02899" lon="-1.82712">
        <ele>65</ele>
        <time>2020-12-25T09:14:45.000Z</time>
      </trkpt>
      <trkpt lat="47.02893" lon="-1.82695">
        <ele>65</ele>
        <time>2020-12-25T09:14:47.000Z</time>
      </trkpt>
      <trkpt lat="47.02886" lon="-1.82677">
        <ele>65</ele>
        <time>2020-12-25T09:14:49.000Z</time>
      </trkpt>
      <trkpt lat="47.02879" lon="-1.8266">
        <ele>65</ele>
        <time>2020-12-25T09:14:51.000Z</time>
      </trkpt>
      <trkpt lat="47.02872" lon="-1.82644">
        <ele>65</ele>
        <time>2020-12-25T09:14:53.000Z</time>
      </trkpt>
      <trkpt lat="47.02866" lon="-1.82628">
        <ele>65</ele>
        <time>2020-12-25T09:14:55.000Z</time>
      </trkpt>
      <trkpt lat="47.02859" lon="-1.82614">
        <ele>65</ele>
        <time>2020-12-25T09:14:57.000Z</time>
      </trkpt>
      <trkpt lat="47.02851" lon="-1.82599">
        <ele>65</ele>
        <time>2020-12-25T09:14:59.000Z</time>
      </trkpt>
      <trkpt lat="47.02844" lon="-1.82584">
        <ele>65</ele>
        <time>2020-12-25T09:15:01.000Z</time>
      </trkpt>
      <trkpt lat="47.02836" lon="-1.8257">
        <ele>65</ele>
        <time>2020-12-25T09:15:03.000Z</time>
      </trkpt>
      <trkpt lat="47.02829" lon="-1.82556">
        <ele>66</ele>
        <time>2020-12-25T09:15:05.000Z</time>
      </trkpt>
      <trkpt lat="47.02822" lon="-1.82543">
        <ele>66</ele>
        <time>2020-12-25T09:15:07.000Z</time>
      </trkpt>
      <trkpt lat="47.02814" lon="-1.8253">
        <ele>66</ele>
        <time>2020-12-25T09:15:09.000Z</time>
      </trkpt>
      <trkpt lat="47.02807" lon="-1.82518">
        <ele>67</ele>
        <time>2020-12-25T09:15:11.000Z</time>
      </trkpt>
      <trkpt lat="47.028" lon="-1.82506">
        <ele>67</ele>
        <time>2020-12-25T09:15:13.000Z</time>
      </trkpt>
      <trkpt lat="47.02792" lon="-1.82495">
        <ele>66</ele>
        <time>2020-12-25T09:15:15.000Z</time>
      </trkpt>
      <trkpt lat="47.02785" lon="-1.82485">
        <ele>66</ele>
        <time>2020-12-25T09:15:17.000Z</time>
      </trkpt>
      <trkpt lat="47.02778" lon="-1.82475">
        <ele>66</ele>
        <time>2020-12-25T09:15:19.000Z</time>
      </trkpt>
      <trkpt lat="47.02771" lon="-1.82465">
        <ele>66</ele>
        <time>2020-12-25T09:15:21.000Z</time>
      </trkpt>
      <trkpt lat="47.02764" lon="-1.82453">
        <ele>66</ele>
        <time>2020-12-25T09:15:23.000Z</time>
      </trkpt>
      <trkpt lat="47.02756" lon="-1.82442">
        <ele>67</ele>
        <time>2020-12-25T09:15:25.000Z</time>
      </trkpt>
      <trkpt lat="47.02749" lon="-1.8243">
        <ele>67</ele>
        <time>2020-12-25T09:15:27.000Z</time>
      </trkpt>
      <trkpt lat="47.02741" lon="-1.82417">
        <ele>67</ele>
        <time>2020-12-25T09:15:29.000Z</time>
      </trkpt>
      <trkpt lat="47.02733" lon="-1.82405">
        <ele>67</ele>
        <time>2020-12-25T09:15:31.000Z</time>
      </trkpt>
      <trkpt lat="47.02725" lon="-1.82392">
        <ele>68</ele>
        <time>2020-12-25T09:15:33.000Z</time>
      </trkpt>
      <trkpt lat="47.02716" lon="-1.82379">
        <ele>69</ele>
        <time>2020-12-25T09:15:35.000Z</time>
      </trkpt>
      <trkpt lat="47.02707" lon="-1.82368">
        <ele>69</ele>
        <time>2020-12-25T09:15:37.000Z</time>
      </trkpt>
      <trkpt lat="47.02699" lon="-1.82355">
        <ele>69</ele>
        <time>2020-12-25T09:15:39.000Z</time>
      </trkpt>
      <trkpt lat="47.02691" lon="-1.82342">
        <ele>70</ele>
        <time>2020-12-25T09:15:41.000Z</time>
      </trkpt>
      <trkpt lat="47.02682" lon="-1.82329">
        <ele>70</ele>
        <time>2020-12-25T09:15:43.000Z</time>
      </trkpt>
      <trkpt lat="47.02674" lon="-1.82317">
        <ele>71</ele>
        <time>2020-12-25T09:15:45.000Z</time>
      </trkpt>
      <trkpt lat="47.02666" lon="-1.82303">
        <ele>71</ele>
        <time>2020-12-25T09:15:47.000Z</time>
      </trkpt>
      <trkpt lat="47.02658" lon="-1.82289">
        <ele>72</ele>
        <time>2020-12-25T09:15:49.000Z</time>
      </trkpt>
      <trkpt lat="47.0265" lon="-1.82277">
        <ele>72</ele>
        <time>2020-12-25T09:15:51.000Z</time>
      </trkpt>
      <trkpt lat="47.02643" lon="-1.82262">
        <ele>72</ele>
        <time>2020-12-25T09:15:53.000Z</time>
      </trkpt>
      <trkpt lat="47.02636" lon="-1.82248">
        <ele>72</ele>
        <time>2020-12-25T09:15:55.000Z</time>
      </trkpt>
      <trkpt lat="47.0263" lon="-1.82232">
        <ele>72</ele>
        <time>2020-12-25T09:15:57.000Z</time>
      </trkpt>
      <trkpt lat="47.02624" lon="-1.82216">
        <ele>72</ele>
        <time>2020-12-25T09:15:59.000Z</time>
      </trkpt>
      <trkpt lat="47.02619" lon="-1.82199">
        <ele>72</ele>
        <time>2020-12-25T09:16:01.000Z</time>
      </trkpt>
      <trkpt lat="47.02613" lon="-1.82183">
        <ele>72</ele>
        <time>2020-12-25T09:16:03.000Z</time>
      </trkpt>
      <trkpt lat="47.02608" lon="-1.82167">
        <ele>72</ele>
        <time>2020-12-25T09:16:05.000Z</time>
      </trkpt>
      <trkpt lat="47.02603" lon="-1.82152">
        <ele>72</ele>
        <time>2020-12-25T09:16:07.000Z</time>
      </trkpt>
      <trkpt lat="47.02597" lon="-1.82136">
        <ele>72</ele>
        <time>2020-12-25T09:16:09.000Z</time>
      </trkpt>
      <trkpt lat="47.02593" lon="-1.82121">
        <ele>72</ele>
        <time>2020-12-25T09:16:11.000Z</time>
      </trkpt>
      <trkpt lat="47.02589" lon="-1.82105">
        <ele>72</ele>
        <time>2020-12-25T09:16:13.000Z</time>
      </trkpt>
      <trkpt lat="47.02584" lon="-1.8209">
        <ele>72</ele>
        <time>2020-12-25T09:16:15.000Z</time>
      </trkpt>
      <trkpt lat="47.0258" lon="-1.82078">
        <ele>72</ele>
        <time>2020-12-25T09:16:17.000Z</time>
      </trkpt>
      <trkpt lat="47.02575" lon="-1.82067">
        <ele>72</ele>
        <time>2020-12-25T09:16:19.000Z</time>
      </trkpt>
      <trkpt lat="47.02569" lon="-1.8205">
        <ele>71</ele>
        <time>2020-12-25T09:16:21.000Z</time>
      </trkpt>
      <trkpt lat="47.02564" lon="-1.82032">
        <ele>71</ele>
        <time>2020-12-25T09:16:23.000Z</time>
      </trkpt>
      <trkpt lat="47.02558" lon="-1.82014">
        <ele>71</ele>
        <time>2020-12-25T09:16:25.000Z</time>
      </trkpt>
      <trkpt lat="47.02552" lon="-1.81996">
        <ele>70</ele>
        <time>2020-12-25T09:16:27.000Z</time>
      </trkpt>
      <trkpt lat="47.02545" lon="-1.81978">
        <ele>70</ele>
        <time>2020-12-25T09:16:29.000Z</time>
      </trkpt>
      <trkpt lat="47.02539" lon="-1.8196">
        <ele>70</ele>
        <time>2020-12-25T09:16:31.000Z</time>
      </trkpt>
      <trkpt lat="47.02532" lon="-1.81941">
        <ele>70</ele>
        <time>2020-12-25T09:16:33.000Z</time>
      </trkpt>
      <trkpt lat="47.02526" lon="-1.81923">
        <ele>71</ele>
        <time>2020-12-25T09:16:35.000Z</time>
      </trkpt>
      <trkpt lat="47.0252" lon="-1.81905">
        <ele>71</ele>
        <time>2020-12-25T09:16:37.000Z</time>
      </trkpt>
      <trkpt lat="47.02514" lon="-1.81886">
        <ele>71</ele>
        <time>2020-12-25T09:16:39.000Z</time>
      </trkpt>
      <trkpt lat="47.02508" lon="-1.81866">
        <ele>71</ele>
        <time>2020-12-25T09:16:41.000Z</time>
      </trkpt>
      <trkpt lat="47.02501" lon="-1.81847">
        <ele>70</ele>
        <time>2020-12-25T09:16:43.000Z</time>
      </trkpt>
      <trkpt lat="47.02495" lon="-1.8183">
        <ele>70</ele>
        <time>2020-12-25T09:16:45.000Z</time>
      </trkpt>
      <trkpt lat="47.02488" lon="-1.81811">
        <ele>70</ele>
        <time>2020-12-25T09:16:47.000Z</time>
      </trkpt>
      <trkpt lat="47.02481" lon="-1.81792">
        <ele>69</ele>
        <time>2020-12-25T09:16:49.000Z</time>
      </trkpt>
      <trkpt lat="47.02474" lon="-1.81773">
        <ele>68</ele>
        <time>2020-12-25T09:16:51.000Z</time>
      </trkpt>
      <trkpt lat="47.02468" lon="-1.81754">
        <ele>68</ele>
        <time>2020-12-25T09:16:53.000Z</time>
      </trkpt>
      <trkpt lat="47.02462" lon="-1.81737">
        <ele>68</ele>
        <time>2020-12-25T09:16:55.000Z</time>
      </trkpt>
      <trkpt lat="47.02456" lon="-1.81719">
        <ele>68</ele>
        <time>2020-12-25T09:16:57.000Z</time>
      </trkpt>
      <trkpt lat="47.0245" lon="-1.81701">
        <ele>68</ele>
        <time>2020-12-25T09:16:59.000Z</time>
      </trkpt>
      <trkpt lat="47.02444" lon="-1.81683">
        <ele>67</ele>
        <time>2020-12-25T09:17:01.000Z</time>
      </trkpt>
      <trkpt lat="47.02439" lon="-1.81665">
        <ele>67</ele>
        <time>2020-12-25T09:17:03.000Z</time>
      </trkpt>
      <trkpt lat="47.02433" lon="-1.81648">
        <ele>67</ele>
        <time>2020-12-25T09:17:05.000Z</time>
      </trkpt>
      <trkpt lat="47.02427" lon="-1.8163">
        <ele>67</ele>
        <time>2020-12-25T09:17:07.000Z</time>
      </trkpt>
      <trkpt lat="47.0242" lon="-1.81612">
        <ele>66</ele>
        <time>2020-12-25T09:17:09.000Z</time>
      </trkpt>
      <trkpt lat="47.02414" lon="-1.81595">
        <ele>66</ele>
        <time>2020-12-25T09:17:11.000Z</time>
      </trkpt>
      <trkpt lat="47.02408" lon="-1.81578">
        <ele>67</ele>
        <time>2020-12-25T09:17:13.000Z</time>
      </trkpt>
      <trkpt lat="47.02401" lon="-1.81561">
        <ele>67</ele>
        <time>2020-12-25T09:17:15.000Z</time>
      </trkpt>
      <trkpt lat="47.02395" lon="-1.81544">
        <ele>67</ele>
        <time>2020-12-25T09:17:17.000Z</time>
      </trkpt>
      <trkpt lat="47.02388" lon="-1.81525">
        <ele>67</ele>
        <time>2020-12-25T09:17:19.000Z</time>
      </trkpt>
      <trkpt lat="47.02381" lon="-1.81505">
        <ele>67</ele>
        <time>2020-12-25T09:17:21.000Z</time>
      </trkpt>
      <trkpt lat="47.02375" lon="-1.81484">
        <ele>66</ele>
        <time>2020-12-25T09:17:23.000Z</time>
      </trkpt>
      <trkpt lat="47.02368" lon="-1.81463">
        <ele>66</ele>
        <time>2020-12-25T09:17:25.000Z</time>
      </trkpt>
      <trkpt lat="47.02361" lon="-1.81441">
        <ele>65</ele>
        <time>2020-12-25T09:17:27.000Z</time>
      </trkpt>
      <trkpt lat="47.02354" lon="-1.8142">
        <ele>65</ele>
        <time>2020-12-25T09:17:29.000Z</time>
      </trkpt>
      <trkpt lat="47.02346" lon="-1.81398">
        <ele>64</ele>
        <time>2020-12-25T09:17:31.000Z</time>
      </trkpt>
      <trkpt lat="47.02339" lon="-1.81375">
        <ele>64</ele>
        <time>2020-12-25T09:17:33.000Z</time>
      </trkpt>
      <trkpt lat="47.02331" lon="-1.81354">
        <ele>64</ele>
        <time>2020-12-25T09:17:35.000Z</time>
      </trkpt>
      <trkpt lat="47.02324" lon="-1.81332">
        <ele>64</ele>
        <time>2020-12-25T09:17:37.000Z</time>
      </trkpt>
      <trkpt lat="47.02316" lon="-1.8131">
        <ele>63</ele>
        <time>2020-12-25T09:17:39.000Z</time>
      </trkpt>
      <trkpt lat="47.02309" lon="-1.81289">
        <ele>62</ele>
        <time>2020-12-25T09:17:41.000Z</time>
      </trkpt>
      <trkpt lat="47.02301" lon="-1.81268">
        <ele>62</ele>
        <time>2020-12-25T09:17:43.000Z</time>
      </trkpt>
      <trkpt lat="47.02294" lon="-1.81247">
        <ele>61</ele>
        <time>2020-12-25T09:17:45.000Z</time>
      </trkpt>
      <trkpt lat="47.02287" lon="-1.81227">
        <ele>61</ele>
        <time>2020-12-25T09:17:47.000Z</time>
      </trkpt>
      <trkpt lat="47.0228" lon="-1.81208">
        <ele>60</ele>
        <time>2020-12-25T09:17:49.000Z</time>
      </trkpt>
      <trkpt lat="47.02273" lon="-1.81189">
        <ele>59</ele>
        <time>2020-12-25T09:17:51.000Z</time>
      </trkpt>
      <trkpt lat="47.02267" lon="-1.81169">
        <ele>59</ele>
        <time>2020-12-25T09:17:53.000Z</time>
      </trkpt>
      <trkpt lat="47.0226" lon="-1.81148">
        <ele>59</ele>
        <time>2020-12-25T09:17:55.000Z</time>
      </trkpt>
      <trkpt lat="47.02253" lon="-1.81128">
        <ele>59</ele>
        <time>2020-12-25T09:17:57.000Z</time>
      </trkpt>
      <trkpt lat="47.02247" lon="-1.8111">
        <ele>59</ele>
        <time>2020-12-25T09:17:59.000Z</time>
      </trkpt>
      <trkpt lat="47.02239" lon="-1.81092">
        <ele>60</ele>
        <time>2020-12-25T09:18:01.000Z</time>
      </trkpt>
      <trkpt lat="47.02232" lon="-1.81076">
        <ele>60</ele>
        <time>2020-12-25T09:18:03.000Z</time>
      </trkpt>
      <trkpt lat="47.02224" lon="-1.81061">
        <ele>59</ele>
        <time>2020-12-25T09:18:05.000Z</time>
      </trkpt>
      <trkpt lat="47.02217" lon="-1.81046">
        <ele>60</ele>
        <time>2020-12-25T09:18:07.000Z</time>
      </trkpt>
      <trkpt lat="47.0221" lon="-1.81031">
        <ele>60</ele>
        <time>2020-12-25T09:18:09.000Z</time>
      </trkpt>
      <trkpt lat="47.02203" lon="-1.81018">
        <ele>60</ele>
        <time>2020-12-25T09:18:11.000Z</time>
      </trkpt>
      <trkpt lat="47.02195" lon="-1.81005">
        <ele>60</ele>
        <time>2020-12-25T09:18:13.000Z</time>
      </trkpt>
      <trkpt lat="47.02188" lon="-1.80991">
        <ele>60</ele>
        <time>2020-12-25T09:18:15.000Z</time>
      </trkpt>
      <trkpt lat="47.02181" lon="-1.80978">
        <ele>60</ele>
        <time>2020-12-25T09:18:17.000Z</time>
      </trkpt>
      <trkpt lat="47.02175" lon="-1.80965">
        <ele>60</ele>
        <time>2020-12-25T09:18:19.000Z</time>
      </trkpt>
      <trkpt lat="47.02168" lon="-1.80952">
        <ele>60</ele>
        <time>2020-12-25T09:18:21.000Z</time>
      </trkpt>
      <trkpt lat="47.02161" lon="-1.80939">
        <ele>61</ele>
        <time>2020-12-25T09:18:23.000Z</time>
      </trkpt>
      <trkpt lat="47.02155" lon="-1.80926">
        <ele>62</ele>
        <time>2020-12-25T09:18:25.000Z</time>
      </trkpt>
      <trkpt lat="47.02148" lon="-1.80913">
        <ele>62</ele>
        <time>2020-12-25T09:18:27.000Z</time>
      </trkpt>
      <trkpt lat="47.02142" lon="-1.80901">
        <ele>63</ele>
        <time>2020-12-25T09:18:29.000Z</time>
      </trkpt>
      <trkpt lat="47.02135" lon="-1.80887">
        <ele>64</ele>
        <time>2020-12-25T09:18:31.000Z</time>
      </trkpt>
      <trkpt lat="47.0213" lon="-1.80874">
        <ele>65</ele>
        <time>2020-12-25T09:18:33.000Z</time>
      </trkpt>
      <trkpt lat="47.02124" lon="-1.8086">
        <ele>66</ele>
        <time>2020-12-25T09:18:35.000Z</time>
      </trkpt>
      <trkpt lat="47.02121" lon="-1.80845">
        <ele>65</ele>
        <time>2020-12-25T09:18:37.000Z</time>
      </trkpt>
      <trkpt lat="47.02118" lon="-1.8083">
        <ele>66</ele>
        <time>2020-12-25T09:18:39.000Z</time>
      </trkpt>
      <trkpt lat="47.02116" lon="-1.80814">
        <ele>66</ele>
        <time>2020-12-25T09:18:41.000Z</time>
      </trkpt>
      <trkpt lat="47.02115" lon="-1.80797">
        <ele>66</ele>
        <time>2020-12-25T09:18:43.000Z</time>
      </trkpt>
      <trkpt lat="47.02114" lon="-1.80781">
        <ele>66</ele>
        <time>2020-12-25T09:18:45.000Z</time>
      </trkpt>
      <trkpt lat="47.02114" lon="-1.80764">
        <ele>66</ele>
        <time>2020-12-25T09:18:47.000Z</time>
      </trkpt>
      <trkpt lat="47.02114" lon="-1.80747">
        <ele>66</ele>
        <time>2020-12-25T09:18:49.000Z</time>
      </trkpt>
      <trkpt lat="47.02114" lon="-1.8073">
        <ele>65</ele>
        <time>2020-12-25T09:18:51.000Z</time>
      </trkpt>
      <trkpt lat="47.02114" lon="-1.80714">
        <ele>66</ele>
        <time>2020-12-25T09:18:53.000Z</time>
      </trkpt>
      <trkpt lat="47.02113" lon="-1.80696">
        <ele>65</ele>
        <time>2020-12-25T09:18:55.000Z</time>
      </trkpt>
      <trkpt lat="47.02113" lon="-1.80677">
        <ele>65</ele>
        <time>2020-12-25T09:18:57.000Z</time>
      </trkpt>
      <trkpt lat="47.02112" lon="-1.80659">
        <ele>65</ele>
        <time>2020-12-25T09:18:59.000Z</time>
      </trkpt>
      <trkpt lat="47.02112" lon="-1.80639">
        <ele>65</ele>
        <time>2020-12-25T09:19:01.000Z</time>
      </trkpt>
      <trkpt lat="47.02111" lon="-1.80618">
        <ele>65</ele>
        <time>2020-12-25T09:19:03.000Z</time>
      </trkpt>
      <trkpt lat="47.02111" lon="-1.80597">
        <ele>65</ele>
        <time>2020-12-25T09:19:05.000Z</time>
      </trkpt>
      <trkpt lat="47.02111" lon="-1.80576">
        <ele>64</ele>
        <time>2020-12-25T09:19:07.000Z</time>
      </trkpt>
      <trkpt lat="47.02111" lon="-1.80555">
        <ele>64</ele>
        <time>2020-12-25T09:19:09.000Z</time>
      </trkpt>
      <trkpt lat="47.0211" lon="-1.80534">
        <ele>63</ele>
        <time>2020-12-25T09:19:11.000Z</time>
      </trkpt>
      <trkpt lat="47.0211" lon="-1.80511">
        <ele>63</ele>
        <time>2020-12-25T09:19:13.000Z</time>
      </trkpt>
      <trkpt lat="47.0211" lon="-1.80488">
        <ele>63</ele>
        <time>2020-12-25T09:19:15.000Z</time>
      </trkpt>
      <trkpt lat="47.02109" lon="-1.80465">
        <ele>63</ele>
        <time>2020-12-25T09:19:17.000Z</time>
      </trkpt>
      <trkpt lat="47.02109" lon="-1.80442">
        <ele>63</ele>
        <time>2020-12-25T09:19:19.000Z</time>
      </trkpt>
      <trkpt lat="47.02108" lon="-1.80419">
        <ele>62</ele>
        <time>2020-12-25T09:19:21.000Z</time>
      </trkpt>
      <trkpt lat="47.02108" lon="-1.80395">
        <ele>61</ele>
        <time>2020-12-25T09:19:23.000Z</time>
      </trkpt>
      <trkpt lat="47.02108" lon="-1.80371">
        <ele>61</ele>
        <time>2020-12-25T09:19:25.000Z</time>
      </trkpt>
      <trkpt lat="47.02107" lon="-1.80347">
        <ele>61</ele>
        <time>2020-12-25T09:19:27.000Z</time>
      </trkpt>
      <trkpt lat="47.02107" lon="-1.80323">
        <ele>60</ele>
        <time>2020-12-25T09:19:29.000Z</time>
      </trkpt>
      <trkpt lat="47.02106" lon="-1.80298">
        <ele>59</ele>
        <time>2020-12-25T09:19:31.000Z</time>
      </trkpt>
      <trkpt lat="47.02106" lon="-1.80274">
        <ele>59</ele>
        <time>2020-12-25T09:19:33.000Z</time>
      </trkpt>
      <trkpt lat="47.02106" lon="-1.8025">
        <ele>58</ele>
        <time>2020-12-25T09:19:35.000Z</time>
      </trkpt>
      <trkpt lat="47.02106" lon="-1.80226">
        <ele>58</ele>
        <time>2020-12-25T09:19:37.000Z</time>
      </trkpt>
      <trkpt lat="47.02105" lon="-1.80203">
        <ele>58</ele>
        <time>2020-12-25T09:19:39.000Z</time>
      </trkpt>
      <trkpt lat="47.02105" lon="-1.8018">
        <ele>58</ele>
        <time>2020-12-25T09:19:41.000Z</time>
      </trkpt>
      <trkpt lat="47.02105" lon="-1.80157">
        <ele>58</ele>
        <time>2020-12-25T09:19:43.000Z</time>
      </trkpt>
      <trkpt lat="47.02104" lon="-1.80133">
        <ele>57</ele>
        <time>2020-12-25T09:19:45.000Z</time>
      </trkpt>
      <trkpt lat="47.02104" lon="-1.8011">
        <ele>57</ele>
        <time>2020-12-25T09:19:47.000Z</time>
      </trkpt>
      <trkpt lat="47.02103" lon="-1.80087">
        <ele>56</ele>
        <time>2020-12-25T09:19:49.000Z</time>
      </trkpt>
      <trkpt lat="47.02103" lon="-1.80063">
        <ele>56</ele>
        <time>2020-12-25T09:19:51.000Z</time>
      </trkpt>
      <trkpt lat="47.02103" lon="-1.8004">
        <ele>56</ele>
        <time>2020-12-25T09:19:53.000Z</time>
      </trkpt>
      <trkpt lat="47.02102" lon="-1.80018">
        <ele>55</ele>
        <time>2020-12-25T09:19:55.000Z</time>
      </trkpt>
      <trkpt lat="47.02101" lon="-1.79996">
        <ele>55</ele>
        <time>2020-12-25T09:19:57.000Z</time>
      </trkpt>
      <trkpt lat="47.021" lon="-1.79974">
        <ele>55</ele>
        <time>2020-12-25T09:19:59.000Z</time>
      </trkpt>
      <trkpt lat="47.02098" lon="-1.79952">
        <ele>54</ele>
        <time>2020-12-25T09:20:01.000Z</time>
      </trkpt>
      <trkpt lat="47.02097" lon="-1.7993">
        <ele>54</ele>
        <time>2020-12-25T09:20:03.000Z</time>
      </trkpt>
      <trkpt lat="47.02095" lon="-1.79907">
        <ele>53</ele>
        <time>2020-12-25T09:20:05.000Z</time>
      </trkpt>
      <trkpt lat="47.02093" lon="-1.79886">
        <ele>54</ele>
        <time>2020-12-25T09:20:07.000Z</time>
      </trkpt>
      <trkpt lat="47.0209" lon="-1.79864">
        <ele>53</ele>
        <time>2020-12-25T09:20:09.000Z</time>
      </trkpt>
      <trkpt lat="47.02089" lon="-1.79841">
        <ele>53</ele>
        <time>2020-12-25T09:20:11.000Z</time>
      </trkpt>
      <trkpt lat="47.02088" lon="-1.79819">
        <ele>52</ele>
        <time>2020-12-25T09:20:13.000Z</time>
      </trkpt>
      <trkpt lat="47.02087" lon="-1.79797">
        <ele>52</ele>
        <time>2020-12-25T09:20:15.000Z</time>
      </trkpt>
      <trkpt lat="47.02086" lon="-1.79777">
        <ele>52</ele>
        <time>2020-12-25T09:20:17.000Z</time>
      </trkpt>
      <trkpt lat="47.02085" lon="-1.79757">
        <ele>53</ele>
        <time>2020-12-25T09:20:19.000Z</time>
      </trkpt>
      <trkpt lat="47.02085" lon="-1.79737">
        <ele>53</ele>
        <time>2020-12-25T09:20:21.000Z</time>
      </trkpt>
      <trkpt lat="47.02086" lon="-1.79717">
        <ele>53</ele>
        <time>2020-12-25T09:20:23.000Z</time>
      </trkpt>
      <trkpt lat="47.02086" lon="-1.79697">
        <ele>53</ele>
        <time>2020-12-25T09:20:25.000Z</time>
      </trkpt>
      <trkpt lat="47.02086" lon="-1.79676">
        <ele>53</ele>
        <time>2020-12-25T09:20:27.000Z</time>
      </trkpt>
      <trkpt lat="47.02086" lon="-1.79656">
        <ele>53</ele>
        <time>2020-12-25T09:20:29.000Z</time>
      </trkpt>
      <trkpt lat="47.02085" lon="-1.79635">
        <ele>53</ele>
        <time>2020-12-25T09:20:31.000Z</time>
      </trkpt>
      <trkpt lat="47.02085" lon="-1.79614">
        <ele>52</ele>
        <time>2020-12-25T09:20:33.000Z</time>
      </trkpt>
      <trkpt lat="47.02084" lon="-1.79594">
        <ele>53</ele>
        <time>2020-12-25T09:20:35.000Z</time>
      </trkpt>
      <trkpt lat="47.02085" lon="-1.79573">
        <ele>52</ele>
        <time>2020-12-25T09:20:37.000Z</time>
      </trkpt>
      <trkpt lat="47.02086" lon="-1.79552">
        <ele>52</ele>
        <time>2020-12-25T09:20:39.000Z</time>
      </trkpt>
      <trkpt lat="47.02087" lon="-1.7953">
        <ele>51</ele>
        <time>2020-12-25T09:20:41.000Z</time>
      </trkpt>
      <trkpt lat="47.02088" lon="-1.79508">
        <ele>51</ele>
        <time>2020-12-25T09:20:43.000Z</time>
      </trkpt>
      <trkpt lat="47.02087" lon="-1.79487">
        <ele>51</ele>
        <time>2020-12-25T09:20:45.000Z</time>
      </trkpt>
      <trkpt lat="47.02087" lon="-1.79465">
        <ele>50</ele>
        <time>2020-12-25T09:20:47.000Z</time>
      </trkpt>
      <trkpt lat="47.02088" lon="-1.79446">
        <ele>50</ele>
        <time>2020-12-25T09:20:49.000Z</time>
      </trkpt>
      <trkpt lat="47.02089" lon="-1.79426">
        <ele>51</ele>
        <time>2020-12-25T09:20:51.000Z</time>
      </trkpt>
      <trkpt lat="47.02089" lon="-1.7941">
        <ele>50</ele>
        <time>2020-12-25T09:20:53.000Z</time>
      </trkpt>
      <trkpt lat="47.02094" lon="-1.79395">
        <ele>50</ele>
        <time>2020-12-25T09:20:55.000Z</time>
      </trkpt>
      <trkpt lat="47.021" lon="-1.79378">
        <ele>50</ele>
        <time>2020-12-25T09:20:57.000Z</time>
      </trkpt>
      <trkpt lat="47.02104" lon="-1.7936">
        <ele>50</ele>
        <time>2020-12-25T09:20:59.000Z</time>
      </trkpt>
      <trkpt lat="47.02108" lon="-1.79341">
        <ele>51</ele>
        <time>2020-12-25T09:21:01.000Z</time>
      </trkpt>
      <trkpt lat="47.02112" lon="-1.79322">
        <ele>51</ele>
        <time>2020-12-25T09:21:03.000Z</time>
      </trkpt>
      <trkpt lat="47.02117" lon="-1.79302">
        <ele>50</ele>
        <time>2020-12-25T09:21:05.000Z</time>
      </trkpt>
      <trkpt lat="47.02122" lon="-1.79283">
        <ele>50</ele>
        <time>2020-12-25T09:21:07.000Z</time>
      </trkpt>
      <trkpt lat="47.02127" lon="-1.79265">
        <ele>50</ele>
        <time>2020-12-25T09:21:09.000Z</time>
      </trkpt>
      <trkpt lat="47.02131" lon="-1.79247">
        <ele>50</ele>
        <time>2020-12-25T09:21:11.000Z</time>
      </trkpt>
      <trkpt lat="47.02134" lon="-1.7923">
        <ele>50</ele>
        <time>2020-12-25T09:21:13.000Z</time>
      </trkpt>
      <trkpt lat="47.02138" lon="-1.79213">
        <ele>50</ele>
        <time>2020-12-25T09:21:15.000Z</time>
      </trkpt>
      <trkpt lat="47.02143" lon="-1.79196">
        <ele>49</ele>
        <time>2020-12-25T09:21:17.000Z</time>
      </trkpt>
      <trkpt lat="47.02148" lon="-1.79178">
        <ele>50</ele>
        <time>2020-12-25T09:21:19.000Z</time>
      </trkpt>
      <trkpt lat="47.02152" lon="-1.79159">
        <ele>50</ele>
        <time>2020-12-25T09:21:21.000Z</time>
      </trkpt>
      <trkpt lat="47.02157" lon="-1.7914">
        <ele>50</ele>
        <time>2020-12-25T09:21:23.000Z</time>
      </trkpt>
      <trkpt lat="47.02163" lon="-1.79121">
        <ele>50</ele>
        <time>2020-12-25T09:21:25.000Z</time>
      </trkpt>
      <trkpt lat="47.02169" lon="-1.79102">
        <ele>50</ele>
        <time>2020-12-25T09:21:27.000Z</time>
      </trkpt>
      <trkpt lat="47.02174" lon="-1.79084">
        <ele>50</ele>
        <time>2020-12-25T09:21:29.000Z</time>
      </trkpt>
      <trkpt lat="47.0218" lon="-1.79066">
        <ele>50</ele>
        <time>2020-12-25T09:21:31.000Z</time>
      </trkpt>
      <trkpt lat="47.02186" lon="-1.79049">
        <ele>51</ele>
        <time>2020-12-25T09:21:33.000Z</time>
      </trkpt>
      <trkpt lat="47.02188" lon="-1.79032">
        <ele>51</ele>
        <time>2020-12-25T09:21:35.000Z</time>
      </trkpt>
      <trkpt lat="47.02183" lon="-1.79014">
        <ele>51</ele>
        <time>2020-12-25T09:21:37.000Z</time>
      </trkpt>
      <trkpt lat="47.02177" lon="-1.78997">
        <ele>51</ele>
        <time>2020-12-25T09:21:39.000Z</time>
      </trkpt>
      <trkpt lat="47.02172" lon="-1.7898">
        <ele>51</ele>
        <time>2020-12-25T09:21:41.000Z</time>
      </trkpt>
      <trkpt lat="47.02167" lon="-1.78962">
        <ele>52</ele>
        <time>2020-12-25T09:21:43.000Z</time>
      </trkpt>
      <trkpt lat="47.02162" lon="-1.78944">
        <ele>52</ele>
        <time>2020-12-25T09:21:45.000Z</time>
      </trkpt>
      <trkpt lat="47.02157" lon="-1.78927">
        <ele>52</ele>
        <time>2020-12-25T09:21:47.000Z</time>
      </trkpt>
      <trkpt lat="47.02152" lon="-1.78909">
        <ele>53</ele>
        <time>2020-12-25T09:21:49.000Z</time>
      </trkpt>
      <trkpt lat="47.02147" lon="-1.78891">
        <ele>53</ele>
        <time>2020-12-25T09:21:51.000Z</time>
      </trkpt>
      <trkpt lat="47.02142" lon="-1.78875">
        <ele>52</ele>
        <time>2020-12-25T09:21:53.000Z</time>
      </trkpt>
      <trkpt lat="47.02136" lon="-1.78859">
        <ele>52</ele>
        <time>2020-12-25T09:21:55.000Z</time>
      </trkpt>
      <trkpt lat="47.02131" lon="-1.78841">
        <ele>52</ele>
        <time>2020-12-25T09:21:57.000Z</time>
      </trkpt>
      <trkpt lat="47.02126" lon="-1.78824">
        <ele>52</ele>
        <time>2020-12-25T09:21:59.000Z</time>
      </trkpt>
      <trkpt lat="47.02121" lon="-1.78808">
        <ele>52</ele>
        <time>2020-12-25T09:22:01.000Z</time>
      </trkpt>
      <trkpt lat="47.02117" lon="-1.78791">
        <ele>52</ele>
        <time>2020-12-25T09:22:03.000Z</time>
      </trkpt>
      <trkpt lat="47.02112" lon="-1.78774">
        <ele>53</ele>
        <time>2020-12-25T09:22:05.000Z</time>
      </trkpt>
      <trkpt lat="47.02108" lon="-1.78758">
        <ele>53</ele>
        <time>2020-12-25T09:22:07.000Z</time>
      </trkpt>
      <trkpt lat="47.02103" lon="-1.78743">
        <ele>53</ele>
        <time>2020-12-25T09:22:09.000Z</time>
      </trkpt>
      <trkpt lat="47.02097" lon="-1.78727">
        <ele>53</ele>
        <time>2020-12-25T09:22:11.000Z</time>
      </trkpt>
      <trkpt lat="47.02091" lon="-1.78711">
        <ele>53</ele>
        <time>2020-12-25T09:22:13.000Z</time>
      </trkpt>
      <trkpt lat="47.02084" lon="-1.78695">
        <ele>53</ele>
        <time>2020-12-25T09:22:15.000Z</time>
      </trkpt>
      <trkpt lat="47.02077" lon="-1.7868">
        <ele>53</ele>
        <time>2020-12-25T09:22:17.000Z</time>
      </trkpt>
      <trkpt lat="47.02068" lon="-1.78665">
        <ele>52</ele>
        <time>2020-12-25T09:22:19.000Z</time>
      </trkpt>
      <trkpt lat="47.02057" lon="-1.7865">
        <ele>52</ele>
        <time>2020-12-25T09:22:21.000Z</time>
      </trkpt>
      <trkpt lat="47.02047" lon="-1.78636">
        <ele>51</ele>
        <time>2020-12-25T09:22:23.000Z</time>
      </trkpt>
      <trkpt lat="47.02036" lon="-1.78622">
        <ele>50</ele>
        <time>2020-12-25T09:22:25.000Z</time>
      </trkpt>
      <trkpt lat="47.02024" lon="-1.78609">
        <ele>50</ele>
        <time>2020-12-25T09:22:27.000Z</time>
      </trkpt>
      <trkpt lat="47.02012" lon="-1.78595">
        <ele>50</ele>
        <time>2020-12-25T09:22:29.000Z</time>
      </trkpt>
      <trkpt lat="47.02001" lon="-1.78582">
        <ele>49</ele>
        <time>2020-12-25T09:22:31.000Z</time>
      </trkpt>
      <trkpt lat="47.01989" lon="-1.78568">
        <ele>49</ele>
        <time>2020-12-25T09:22:33.000Z</time>
      </trkpt>
      <trkpt lat="47.01978" lon="-1.78555">
        <ele>49</ele>
        <time>2020-12-25T09:22:35.000Z</time>
      </trkpt>
      <trkpt lat="47.01968" lon="-1.78542">
        <ele>49</ele>
        <time>2020-12-25T09:22:37.000Z</time>
      </trkpt>
      <trkpt lat="47.01957" lon="-1.78529">
        <ele>50</ele>
        <time>2020-12-25T09:22:39.000Z</time>
      </trkpt>
      <trkpt lat="47.01947" lon="-1.78517">
        <ele>49</ele>
        <time>2020-12-25T09:22:41.000Z</time>
      </trkpt>
      <trkpt lat="47.01937" lon="-1.78505">
        <ele>49</ele>
        <time>2020-12-25T09:22:43.000Z</time>
      </trkpt>
      <trkpt lat="47.01928" lon="-1.78493">
        <ele>49</ele>
        <time>2020-12-25T09:22:45.000Z</time>
      </trkpt>
      <trkpt lat="47.01918" lon="-1.78481">
        <ele>50</ele>
        <time>2020-12-25T09:22:47.000Z</time>
      </trkpt>
      <trkpt lat="47.01909" lon="-1.7847">
        <ele>50</ele>
        <time>2020-12-25T09:22:49.000Z</time>
      </trkpt>
      <trkpt lat="47.01899" lon="-1.78458">
        <ele>50</ele>
        <time>2020-12-25T09:22:51.000Z</time>
      </trkpt>
      <trkpt lat="47.01889" lon="-1.78446">
        <ele>51</ele>
        <time>2020-12-25T09:22:53.000Z</time>
      </trkpt>
      <trkpt lat="47.0188" lon="-1.78434">
        <ele>51</ele>
        <time>2020-12-25T09:22:55.000Z</time>
      </trkpt>
      <trkpt lat="47.01871" lon="-1.78423">
        <ele>51</ele>
        <time>2020-12-25T09:22:57.000Z</time>
      </trkpt>
      <trkpt lat="47.01861" lon="-1.78411">
        <ele>51</ele>
        <time>2020-12-25T09:22:59.000Z</time>
      </trkpt>
      <trkpt lat="47.01851" lon="-1.784">
        <ele>52</ele>
        <time>2020-12-25T09:23:01.000Z</time>
      </trkpt>
      <trkpt lat="47.01841" lon="-1.78388">
        <ele>52</ele>
        <time>2020-12-25T09:23:03.000Z</time>
      </trkpt>
      <trkpt lat="47.01831" lon="-1.78376">
        <ele>52</ele>
        <time>2020-12-25T09:23:05.000Z</time>
      </trkpt>
      <trkpt lat="47.01821" lon="-1.78364">
        <ele>52</ele>
        <time>2020-12-25T09:23:07.000Z</time>
      </trkpt>
      <trkpt lat="47.01811" lon="-1.78353">
        <ele>53</ele>
        <time>2020-12-25T09:23:09.000Z</time>
      </trkpt>
      <trkpt lat="47.01802" lon="-1.78342">
        <ele>53</ele>
        <time>2020-12-25T09:23:11.000Z</time>
      </trkpt>
      <trkpt lat="47.01792" lon="-1.78331">
        <ele>53</ele>
        <time>2020-12-25T09:23:13.000Z</time>
      </trkpt>
      <trkpt lat="47.01783" lon="-1.7832">
        <ele>53</ele>
        <time>2020-12-25T09:23:15.000Z</time>
      </trkpt>
      <trkpt lat="47.01774" lon="-1.78308">
        <ele>54</ele>
        <time>2020-12-25T09:23:17.000Z</time>
      </trkpt>
      <trkpt lat="47.01765" lon="-1.78297">
        <ele>54</ele>
        <time>2020-12-25T09:23:19.000Z</time>
      </trkpt>
      <trkpt lat="47.01756" lon="-1.78285">
        <ele>55</ele>
        <time>2020-12-25T09:23:21.000Z</time>
      </trkpt>
      <trkpt lat="47.01746" lon="-1.78274">
        <ele>55</ele>
        <time>2020-12-25T09:23:23.000Z</time>
      </trkpt>
      <trkpt lat="47.01736" lon="-1.78263">
        <ele>56</ele>
        <time>2020-12-25T09:23:25.000Z</time>
      </trkpt>
      <trkpt lat="47.01726" lon="-1.78252">
        <ele>56</ele>
        <time>2020-12-25T09:23:27.000Z</time>
      </trkpt>
      <trkpt lat="47.01716" lon="-1.7824">
        <ele>56</ele>
        <time>2020-12-25T09:23:29.000Z</time>
      </trkpt>
      <trkpt lat="47.01707" lon="-1.78227">
        <ele>56</ele>
        <time>2020-12-25T09:23:31.000Z</time>
      </trkpt>
      <trkpt lat="47.01697" lon="-1.78215">
        <ele>55</ele>
        <time>2020-12-25T09:23:33.000Z</time>
      </trkpt>
      <trkpt lat="47.01688" lon="-1.78203">
        <ele>56</ele>
        <time>2020-12-25T09:23:35.000Z</time>
      </trkpt>
      <trkpt lat="47.01678" lon="-1.78192">
        <ele>56</ele>
        <time>2020-12-25T09:23:37.000Z</time>
      </trkpt>
      <trkpt lat="47.01668" lon="-1.78179">
        <ele>56</ele>
        <time>2020-12-25T09:23:39.000Z</time>
      </trkpt>
      <trkpt lat="47.01657" lon="-1.78167">
        <ele>55</ele>
        <time>2020-12-25T09:23:41.000Z</time>
      </trkpt>
      <trkpt lat="47.01647" lon="-1.78154">
        <ele>55</ele>
        <time>2020-12-25T09:23:43.000Z</time>
      </trkpt>
      <trkpt lat="47.01636" lon="-1.78142">
        <ele>55</ele>
        <time>2020-12-25T09:23:45.000Z</time>
      </trkpt>
      <trkpt lat="47.01626" lon="-1.78131">
        <ele>55</ele>
        <time>2020-12-25T09:23:47.000Z</time>
      </trkpt>
      <trkpt lat="47.01616" lon="-1.78119">
        <ele>56</ele>
        <time>2020-12-25T09:23:49.000Z</time>
      </trkpt>
      <trkpt lat="47.01607" lon="-1.78107">
        <ele>56</ele>
        <time>2020-12-25T09:23:51.000Z</time>
      </trkpt>
      <trkpt lat="47.01597" lon="-1.78096">
        <ele>57</ele>
        <time>2020-12-25T09:23:53.000Z</time>
      </trkpt>
      <trkpt lat="47.01587" lon="-1.78084">
        <ele>57</ele>
        <time>2020-12-25T09:23:55.000Z</time>
      </trkpt>
      <trkpt lat="47.01578" lon="-1.78072">
        <ele>58</ele>
        <time>2020-12-25T09:23:57.000Z</time>
      </trkpt>
      <trkpt lat="47.01568" lon="-1.78061">
        <ele>58</ele>
        <time>2020-12-25T09:23:59.000Z</time>
      </trkpt>
      <trkpt lat="47.01559" lon="-1.78051">
        <ele>58</ele>
        <time>2020-12-25T09:24:01.000Z</time>
      </trkpt>
      <trkpt lat="47.0155" lon="-1.78039">
        <ele>58</ele>
        <time>2020-12-25T09:24:03.000Z</time>
      </trkpt>
      <trkpt lat="47.01541" lon="-1.78028">
        <ele>58</ele>
        <time>2020-12-25T09:24:05.000Z</time>
      </trkpt>
      <trkpt lat="47.01532" lon="-1.78016">
        <ele>58</ele>
        <time>2020-12-25T09:24:07.000Z</time>
      </trkpt>
      <trkpt lat="47.01523" lon="-1.78005">
        <ele>58</ele>
        <time>2020-12-25T09:24:09.000Z</time>
      </trkpt>
      <trkpt lat="47.01514" lon="-1.77995">
        <ele>58</ele>
        <time>2020-12-25T09:24:11.000Z</time>
      </trkpt>
      <trkpt lat="47.01505" lon="-1.77983">
        <ele>58</ele>
        <time>2020-12-25T09:24:13.000Z</time>
      </trkpt>
      <trkpt lat="47.01495" lon="-1.77973">
        <ele>58</ele>
        <time>2020-12-25T09:24:15.000Z</time>
      </trkpt>
      <trkpt lat="47.01486" lon="-1.77961">
        <ele>58</ele>
        <time>2020-12-25T09:24:17.000Z</time>
      </trkpt>
      <trkpt lat="47.01475" lon="-1.7795">
        <ele>58</ele>
        <time>2020-12-25T09:24:19.000Z</time>
      </trkpt>
      <trkpt lat="47.01465" lon="-1.77937">
        <ele>58</ele>
        <time>2020-12-25T09:24:21.000Z</time>
      </trkpt>
      <trkpt lat="47.01456" lon="-1.77926">
        <ele>58</ele>
        <time>2020-12-25T09:24:23.000Z</time>
      </trkpt>
      <trkpt lat="47.01446" lon="-1.77916">
        <ele>58</ele>
        <time>2020-12-25T09:24:25.000Z</time>
      </trkpt>
      <trkpt lat="47.01438" lon="-1.77905">
        <ele>58</ele>
        <time>2020-12-25T09:24:27.000Z</time>
      </trkpt>
      <trkpt lat="47.01428" lon="-1.77894">
        <ele>58</ele>
        <time>2020-12-25T09:24:29.000Z</time>
      </trkpt>
      <trkpt lat="47.01419" lon="-1.77883">
        <ele>58</ele>
        <time>2020-12-25T09:24:31.000Z</time>
      </trkpt>
      <trkpt lat="47.0141" lon="-1.77872">
        <ele>58</ele>
        <time>2020-12-25T09:24:33.000Z</time>
      </trkpt>
      <trkpt lat="47.01399" lon="-1.7786">
        <ele>58</ele>
        <time>2020-12-25T09:24:35.000Z</time>
      </trkpt>
      <trkpt lat="47.01389" lon="-1.77848">
        <ele>59</ele>
        <time>2020-12-25T09:24:37.000Z</time>
      </trkpt>
      <trkpt lat="47.0138" lon="-1.77836">
        <ele>59</ele>
        <time>2020-12-25T09:24:39.000Z</time>
      </trkpt>
      <trkpt lat="47.0137" lon="-1.77823">
        <ele>59</ele>
        <time>2020-12-25T09:24:41.000Z</time>
      </trkpt>
      <trkpt lat="47.01361" lon="-1.77812">
        <ele>60</ele>
        <time>2020-12-25T09:24:43.000Z</time>
      </trkpt>
      <trkpt lat="47.01351" lon="-1.77801">
        <ele>60</ele>
        <time>2020-12-25T09:24:45.000Z</time>
      </trkpt>
      <trkpt lat="47.01341" lon="-1.77789">
        <ele>60</ele>
        <time>2020-12-25T09:24:47.000Z</time>
      </trkpt>
      <trkpt lat="47.01332" lon="-1.77778">
        <ele>60</ele>
        <time>2020-12-25T09:24:49.000Z</time>
      </trkpt>
      <trkpt lat="47.01322" lon="-1.77766">
        <ele>60</ele>
        <time>2020-12-25T09:24:51.000Z</time>
      </trkpt>
      <trkpt lat="47.01312" lon="-1.77754">
        <ele>60</ele>
        <time>2020-12-25T09:24:53.000Z</time>
      </trkpt>
      <trkpt lat="47.01303" lon="-1.77742">
        <ele>60</ele>
        <time>2020-12-25T09:24:55.000Z</time>
      </trkpt>
      <trkpt lat="47.01293" lon="-1.77731">
        <ele>60</ele>
        <time>2020-12-25T09:24:57.000Z</time>
      </trkpt>
      <trkpt lat="47.01283" lon="-1.77718">
        <ele>60</ele>
        <time>2020-12-25T09:24:59.000Z</time>
      </trkpt>
      <trkpt lat="47.01273" lon="-1.77706">
        <ele>60</ele>
        <time>2020-12-25T09:25:01.000Z</time>
      </trkpt>
      <trkpt lat="47.01264" lon="-1.77695">
        <ele>60</ele>
        <time>2020-12-25T09:25:03.000Z</time>
      </trkpt>
      <trkpt lat="47.01254" lon="-1.77684">
        <ele>59</ele>
        <time>2020-12-25T09:25:05.000Z</time>
      </trkpt>
      <trkpt lat="47.01243" lon="-1.77671">
        <ele>59</ele>
        <time>2020-12-25T09:25:07.000Z</time>
      </trkpt>
      <trkpt lat="47.01232" lon="-1.77658">
        <ele>58</ele>
        <time>2020-12-25T09:25:09.000Z</time>
      </trkpt>
      <trkpt lat="47.01222" lon="-1.77646">
        <ele>58</ele>
        <time>2020-12-25T09:25:11.000Z</time>
      </trkpt>
      <trkpt lat="47.01212" lon="-1.77634">
        <ele>59</ele>
        <time>2020-12-25T09:25:13.000Z</time>
      </trkpt>
      <trkpt lat="47.01203" lon="-1.77621">
        <ele>59</ele>
        <time>2020-12-25T09:25:15.000Z</time>
      </trkpt>
      <trkpt lat="47.01193" lon="-1.77607">
        <ele>60</ele>
        <time>2020-12-25T09:25:17.000Z</time>
      </trkpt>
      <trkpt lat="47.01183" lon="-1.77595">
        <ele>60</ele>
        <time>2020-12-25T09:25:19.000Z</time>
      </trkpt>
      <trkpt lat="47.01173" lon="-1.7758">
        <ele>60</ele>
        <time>2020-12-25T09:25:21.000Z</time>
      </trkpt>
      <trkpt lat="47.01164" lon="-1.77564">
        <ele>59</ele>
        <time>2020-12-25T09:25:23.000Z</time>
      </trkpt>
      <trkpt lat="47.01156" lon="-1.77549">
        <ele>59</ele>
        <time>2020-12-25T09:25:25.000Z</time>
      </trkpt>
      <trkpt lat="47.01147" lon="-1.77532">
        <ele>59</ele>
        <time>2020-12-25T09:25:27.000Z</time>
      </trkpt>
      <trkpt lat="47.0114" lon="-1.77514">
        <ele>58</ele>
        <time>2020-12-25T09:25:29.000Z</time>
      </trkpt>
      <trkpt lat="47.01133" lon="-1.77497">
        <ele>58</ele>
        <time>2020-12-25T09:25:31.000Z</time>
      </trkpt>
      <trkpt lat="47.01126" lon="-1.77479">
        <ele>57</ele>
        <time>2020-12-25T09:25:33.000Z</time>
      </trkpt>
      <trkpt lat="47.01119" lon="-1.77462">
        <ele>57</ele>
        <time>2020-12-25T09:25:35.000Z</time>
      </trkpt>
      <trkpt lat="47.01112" lon="-1.77444">
        <ele>57</ele>
        <time>2020-12-25T09:25:37.000Z</time>
      </trkpt>
      <trkpt lat="47.01104" lon="-1.77426">
        <ele>57</ele>
        <time>2020-12-25T09:25:39.000Z</time>
      </trkpt>
      <trkpt lat="47.01097" lon="-1.77408">
        <ele>57</ele>
        <time>2020-12-25T09:25:41.000Z</time>
      </trkpt>
      <trkpt lat="47.01089" lon="-1.77392">
        <ele>57</ele>
        <time>2020-12-25T09:25:43.000Z</time>
      </trkpt>
      <trkpt lat="47.0108" lon="-1.77377">
        <ele>57</ele>
        <time>2020-12-25T09:25:45.000Z</time>
      </trkpt>
      <trkpt lat="47.01071" lon="-1.77362">
        <ele>57</ele>
        <time>2020-12-25T09:25:47.000Z</time>
      </trkpt>
      <trkpt lat="47.01062" lon="-1.77345">
        <ele>56</ele>
        <time>2020-12-25T09:25:49.000Z</time>
      </trkpt>
      <trkpt lat="47.01054" lon="-1.77329">
        <ele>56</ele>
        <time>2020-12-25T09:25:51.000Z</time>
      </trkpt>
      <trkpt lat="47.01045" lon="-1.77313">
        <ele>56</ele>
        <time>2020-12-25T09:25:53.000Z</time>
      </trkpt>
      <trkpt lat="47.01037" lon="-1.77297">
        <ele>56</ele>
        <time>2020-12-25T09:25:55.000Z</time>
      </trkpt>
      <trkpt lat="47.01029" lon="-1.77281">
        <ele>56</ele>
        <time>2020-12-25T09:25:57.000Z</time>
      </trkpt>
      <trkpt lat="47.01021" lon="-1.77266">
        <ele>56</ele>
        <time>2020-12-25T09:25:59.000Z</time>
      </trkpt>
      <trkpt lat="47.01012" lon="-1.77251">
        <ele>55</ele>
        <time>2020-12-25T09:26:01.000Z</time>
      </trkpt>
      <trkpt lat="47.01004" lon="-1.77236">
        <ele>55</ele>
        <time>2020-12-25T09:26:03.000Z</time>
      </trkpt>
      <trkpt lat="47.00996" lon="-1.77221">
        <ele>55</ele>
        <time>2020-12-25T09:26:05.000Z</time>
      </trkpt>
      <trkpt lat="47.00988" lon="-1.77207">
        <ele>55</ele>
        <time>2020-12-25T09:26:07.000Z</time>
      </trkpt>
      <trkpt lat="47.00981" lon="-1.77192">
        <ele>56</ele>
        <time>2020-12-25T09:26:09.000Z</time>
      </trkpt>
      <trkpt lat="47.00973" lon="-1.77178">
        <ele>56</ele>
        <time>2020-12-25T09:26:11.000Z</time>
      </trkpt>
      <trkpt lat="47.00968" lon="-1.77163">
        <ele>57</ele>
        <time>2020-12-25T09:26:13.000Z</time>
      </trkpt>
      <trkpt lat="47.00975" lon="-1.77148">
        <ele>58</ele>
        <time>2020-12-25T09:26:15.000Z</time>
      </trkpt>
      <trkpt lat="47.00985" lon="-1.77137">
        <ele>59</ele>
        <time>2020-12-25T09:26:17.000Z</time>
      </trkpt>
      <trkpt lat="47.00995" lon="-1.77127">
        <ele>59</ele>
        <time>2020-12-25T09:26:19.000Z</time>
      </trkpt>
      <trkpt lat="47.01006" lon="-1.77115">
        <ele>60</ele>
        <time>2020-12-25T09:26:21.000Z</time>
      </trkpt>
      <trkpt lat="47.01016" lon="-1.77104">
        <ele>60</ele>
        <time>2020-12-25T09:26:23.000Z</time>
      </trkpt>
      <trkpt lat="47.01026" lon="-1.77092">
        <ele>60</ele>
        <time>2020-12-25T09:26:25.000Z</time>
      </trkpt>
      <trkpt lat="47.01036" lon="-1.77081">
        <ele>60</ele>
        <time>2020-12-25T09:26:27.000Z</time>
      </trkpt>
      <trkpt lat="47.01046" lon="-1.7707">
        <ele>61</ele>
        <time>2020-12-25T09:26:29.000Z</time>
      </trkpt>
      <trkpt lat="47.01056" lon="-1.77059">
        <ele>61</ele>
        <time>2020-12-25T09:26:31.000Z</time>
      </trkpt>
      <trkpt lat="47.01067" lon="-1.77048">
        <ele>61</ele>
        <time>2020-12-25T09:26:33.000Z</time>
      </trkpt>
      <trkpt lat="47.01076" lon="-1.77036">
        <ele>62</ele>
        <time>2020-12-25T09:26:35.000Z</time>
      </trkpt>
      <trkpt lat="47.01086" lon="-1.77024">
        <ele>62</ele>
        <time>2020-12-25T09:26:37.000Z</time>
      </trkpt>
      <trkpt lat="47.01096" lon="-1.77013">
        <ele>63</ele>
        <time>2020-12-25T09:26:39.000Z</time>
      </trkpt>
      <trkpt lat="47.01105" lon="-1.77001">
        <ele>63</ele>
        <time>2020-12-25T09:26:41.000Z</time>
      </trkpt>
      <trkpt lat="47.01114" lon="-1.7699">
        <ele>63</ele>
        <time>2020-12-25T09:26:43.000Z</time>
      </trkpt>
      <trkpt lat="47.01123" lon="-1.76978">
        <ele>63</ele>
        <time>2020-12-25T09:26:45.000Z</time>
      </trkpt>
      <trkpt lat="47.01131" lon="-1.76966">
        <ele>63</ele>
        <time>2020-12-25T09:26:47.000Z</time>
      </trkpt>
      <trkpt lat="47.01141" lon="-1.76955">
        <ele>63</ele>
        <time>2020-12-25T09:26:49.000Z</time>
      </trkpt>
      <trkpt lat="47.01151" lon="-1.76944">
        <ele>62</ele>
        <time>2020-12-25T09:26:51.000Z</time>
      </trkpt>
      <trkpt lat="47.0116" lon="-1.76932">
        <ele>63</ele>
        <time>2020-12-25T09:26:53.000Z</time>
      </trkpt>
      <trkpt lat="47.0117" lon="-1.76921">
        <ele>63</ele>
        <time>2020-12-25T09:26:55.000Z</time>
      </trkpt>
      <trkpt lat="47.0118" lon="-1.76911">
        <ele>63</ele>
        <time>2020-12-25T09:26:57.000Z</time>
      </trkpt>
      <trkpt lat="47.01189" lon="-1.76901">
        <ele>64</ele>
        <time>2020-12-25T09:26:59.000Z</time>
      </trkpt>
      <trkpt lat="47.01199" lon="-1.76891">
        <ele>63</ele>
        <time>2020-12-25T09:27:01.000Z</time>
      </trkpt>
      <trkpt lat="47.01209" lon="-1.76882">
        <ele>64</ele>
        <time>2020-12-25T09:27:03.000Z</time>
      </trkpt>
      <trkpt lat="47.0122" lon="-1.76874">
        <ele>65</ele>
        <time>2020-12-25T09:27:05.000Z</time>
      </trkpt>
      <trkpt lat="47.0123" lon="-1.76866">
        <ele>65</ele>
        <time>2020-12-25T09:27:07.000Z</time>
      </trkpt>
      <trkpt lat="47.0124" lon="-1.76859">
        <ele>66</ele>
        <time>2020-12-25T09:27:09.000Z</time>
      </trkpt>
      <trkpt lat="47.0125" lon="-1.76851">
        <ele>66</ele>
        <time>2020-12-25T09:27:11.000Z</time>
      </trkpt>
      <trkpt lat="47.0126" lon="-1.76843">
        <ele>66</ele>
        <time>2020-12-25T09:27:13.000Z</time>
      </trkpt>
      <trkpt lat="47.0127" lon="-1.76834">
        <ele>66</ele>
        <time>2020-12-25T09:27:15.000Z</time>
      </trkpt>
      <trkpt lat="47.01279" lon="-1.76825">
        <ele>66</ele>
        <time>2020-12-25T09:27:17.000Z</time>
      </trkpt>
      <trkpt lat="47.01288" lon="-1.76814">
        <ele>67</ele>
        <time>2020-12-25T09:27:19.000Z</time>
      </trkpt>
      <trkpt lat="47.01296" lon="-1.76804">
        <ele>66</ele>
        <time>2020-12-25T09:27:21.000Z</time>
      </trkpt>
      <trkpt lat="47.01304" lon="-1.76791">
        <ele>67</ele>
        <time>2020-12-25T09:27:23.000Z</time>
      </trkpt>
      <trkpt lat="47.01312" lon="-1.76779">
        <ele>67</ele>
        <time>2020-12-25T09:27:25.000Z</time>
      </trkpt>
      <trkpt lat="47.01319" lon="-1.76767">
        <ele>67</ele>
        <time>2020-12-25T09:27:27.000Z</time>
      </trkpt>
      <trkpt lat="47.01327" lon="-1.76755">
        <ele>67</ele>
        <time>2020-12-25T09:27:29.000Z</time>
      </trkpt>
      <trkpt lat="47.01334" lon="-1.76743">
        <ele>67</ele>
        <time>2020-12-25T09:27:31.000Z</time>
      </trkpt>
      <trkpt lat="47.01341" lon="-1.7673">
        <ele>67</ele>
        <time>2020-12-25T09:27:33.000Z</time>
      </trkpt>
      <trkpt lat="47.01348" lon="-1.76717">
        <ele>68</ele>
        <time>2020-12-25T09:27:35.000Z</time>
      </trkpt>
      <trkpt lat="47.01355" lon="-1.76703">
        <ele>67</ele>
        <time>2020-12-25T09:27:37.000Z</time>
      </trkpt>
      <trkpt lat="47.0136" lon="-1.76689">
        <ele>67</ele>
        <time>2020-12-25T09:27:39.000Z</time>
      </trkpt>
      <trkpt lat="47.01364" lon="-1.76673">
        <ele>67</ele>
        <time>2020-12-25T09:27:41.000Z</time>
      </trkpt>
      <trkpt lat="47.01368" lon="-1.76657">
        <ele>67</ele>
        <time>2020-12-25T09:27:43.000Z</time>
      </trkpt>
      <trkpt lat="47.01372" lon="-1.7664">
        <ele>67</ele>
        <time>2020-12-25T09:27:45.000Z</time>
      </trkpt>
      <trkpt lat="47.01376" lon="-1.76623">
        <ele>67</ele>
        <time>2020-12-25T09:27:47.000Z</time>
      </trkpt>
      <trkpt lat="47.01379" lon="-1.76606">
        <ele>67</ele>
        <time>2020-12-25T09:27:49.000Z</time>
      </trkpt>
      <trkpt lat="47.01383" lon="-1.76589">
        <ele>66</ele>
        <time>2020-12-25T09:27:51.000Z</time>
      </trkpt>
      <trkpt lat="47.01386" lon="-1.76572">
        <ele>66</ele>
        <time>2020-12-25T09:27:53.000Z</time>
      </trkpt>
      <trkpt lat="47.01389" lon="-1.76555">
        <ele>65</ele>
        <time>2020-12-25T09:27:55.000Z</time>
      </trkpt>
      <trkpt lat="47.01393" lon="-1.76537">
        <ele>66</ele>
        <time>2020-12-25T09:27:57.000Z</time>
      </trkpt>
      <trkpt lat="47.01397" lon="-1.7652">
        <ele>65</ele>
        <time>2020-12-25T09:27:59.000Z</time>
      </trkpt>
      <trkpt lat="47.01401" lon="-1.76504">
        <ele>65</ele>
        <time>2020-12-25T09:28:01.000Z</time>
      </trkpt>
      <trkpt lat="47.01406" lon="-1.76487">
        <ele>65</ele>
        <time>2020-12-25T09:28:03.000Z</time>
      </trkpt>
      <trkpt lat="47.01412" lon="-1.7647">
        <ele>66</ele>
        <time>2020-12-25T09:28:05.000Z</time>
      </trkpt>
      <trkpt lat="47.01419" lon="-1.76454">
        <ele>66</ele>
        <time>2020-12-25T09:28:07.000Z</time>
      </trkpt>
      <trkpt lat="47.01426" lon="-1.76438">
        <ele>65</ele>
        <time>2020-12-25T09:28:09.000Z</time>
      </trkpt>
      <trkpt lat="47.01434" lon="-1.76422">
        <ele>65</ele>
        <time>2020-12-25T09:28:11.000Z</time>
      </trkpt>
      <trkpt lat="47.01442" lon="-1.76406">
        <ele>65</ele>
        <time>2020-12-25T09:28:13.000Z</time>
      </trkpt>
      <trkpt lat="47.01449" lon="-1.76389">
        <ele>64</ele>
        <time>2020-12-25T09:28:15.000Z</time>
      </trkpt>
      <trkpt lat="47.01457" lon="-1.76372">
        <ele>64</ele>
        <time>2020-12-25T09:28:17.000Z</time>
      </trkpt>
      <trkpt lat="47.01465" lon="-1.76355">
        <ele>64</ele>
        <time>2020-12-25T09:28:19.000Z</time>
      </trkpt>
      <trkpt lat="47.01472" lon="-1.76338">
        <ele>63</ele>
        <time>2020-12-25T09:28:21.000Z</time>
      </trkpt>
      <trkpt lat="47.0148" lon="-1.7632">
        <ele>63</ele>
        <time>2020-12-25T09:28:23.000Z</time>
      </trkpt>
      <trkpt lat="47.01487" lon="-1.76304">
        <ele>63</ele>
        <time>2020-12-25T09:28:25.000Z</time>
      </trkpt>
      <trkpt lat="47.01495" lon="-1.76288">
        <ele>63</ele>
        <time>2020-12-25T09:28:27.000Z</time>
      </trkpt>
      <trkpt lat="47.01503" lon="-1.7627">
        <ele>63</ele>
        <time>2020-12-25T09:28:29.000Z</time>
      </trkpt>
      <trkpt lat="47.0151" lon="-1.76252">
        <ele>62</ele>
        <time>2020-12-25T09:28:31.000Z</time>
      </trkpt>
      <trkpt lat="47.01517" lon="-1.76234">
        <ele>62</ele>
        <time>2020-12-25T09:28:33.000Z</time>
      </trkpt>
      <trkpt lat="47.01524" lon="-1.76217">
        <ele>62</ele>
        <time>2020-12-25T09:28:35.000Z</time>
      </trkpt>
      <trkpt lat="47.01532" lon="-1.76199">
        <ele>62</ele>
        <time>2020-12-25T09:28:37.000Z</time>
      </trkpt>
      <trkpt lat="47.01539" lon="-1.76183">
        <ele>63</ele>
        <time>2020-12-25T09:28:39.000Z</time>
      </trkpt>
      <trkpt lat="47.01548" lon="-1.76168">
        <ele>63</ele>
        <time>2020-12-25T09:28:41.000Z</time>
      </trkpt>
      <trkpt lat="47.01558" lon="-1.76156">
        <ele>63</ele>
        <time>2020-12-25T09:28:43.000Z</time>
      </trkpt>
      <trkpt lat="47.01569" lon="-1.76145">
        <ele>63</ele>
        <time>2020-12-25T09:28:45.000Z</time>
      </trkpt>
      <trkpt lat="47.0158" lon="-1.76134">
        <ele>64</ele>
        <time>2020-12-25T09:28:47.000Z</time>
      </trkpt>
      <trkpt lat="47.01591" lon="-1.76125">
        <ele>64</ele>
        <time>2020-12-25T09:28:49.000Z</time>
      </trkpt>
      <trkpt lat="47.01603" lon="-1.76115">
        <ele>64</ele>
        <time>2020-12-25T09:28:51.000Z</time>
      </trkpt>
      <trkpt lat="47.01614" lon="-1.76106">
        <ele>65</ele>
        <time>2020-12-25T09:28:53.000Z</time>
      </trkpt>
      <trkpt lat="47.01625" lon="-1.76097">
        <ele>65</ele>
        <time>2020-12-25T09:28:55.000Z</time>
      </trkpt>
      <trkpt lat="47.01636" lon="-1.76088">
        <ele>66</ele>
        <time>2020-12-25T09:28:57.000Z</time>
      </trkpt>
      <trkpt lat="47.01646" lon="-1.76079">
        <ele>66</ele>
        <time>2020-12-25T09:28:59.000Z</time>
      </trkpt>
      <trkpt lat="47.01656" lon="-1.76069">
        <ele>67</ele>
        <time>2020-12-25T09:29:01.000Z</time>
      </trkpt>
      <trkpt lat="47.01667" lon="-1.76061">
        <ele>67</ele>
        <time>2020-12-25T09:29:03.000Z</time>
      </trkpt>
      <trkpt lat="47.01678" lon="-1.76052">
        <ele>67</ele>
        <time>2020-12-25T09:29:05.000Z</time>
      </trkpt>
      <trkpt lat="47.01689" lon="-1.76042">
        <ele>66</ele>
        <time>2020-12-25T09:29:07.000Z</time>
      </trkpt>
      <trkpt lat="47.017" lon="-1.76032">
        <ele>66</ele>
        <time>2020-12-25T09:29:09.000Z</time>
      </trkpt>
      <trkpt lat="47.0171" lon="-1.76021">
        <ele>66</ele>
        <time>2020-12-25T09:29:11.000Z</time>
      </trkpt>
      <trkpt lat="47.01719" lon="-1.76008">
        <ele>66</ele>
        <time>2020-12-25T09:29:13.000Z</time>
      </trkpt>
      <trkpt lat="47.01727" lon="-1.75993">
        <ele>67</ele>
        <time>2020-12-25T09:29:15.000Z</time>
      </trkpt>
      <trkpt lat="47.01736" lon="-1.75979">
        <ele>67</ele>
        <time>2020-12-25T09:29:17.000Z</time>
      </trkpt>
      <trkpt lat="47.01744" lon="-1.75965">
        <ele>67</ele>
        <time>2020-12-25T09:29:19.000Z</time>
      </trkpt>
      <trkpt lat="47.01753" lon="-1.75952">
        <ele>67</ele>
        <time>2020-12-25T09:29:21.000Z</time>
      </trkpt>
      <trkpt lat="47.01761" lon="-1.75938">
        <ele>67</ele>
        <time>2020-12-25T09:29:23.000Z</time>
      </trkpt>
      <trkpt lat="47.01769" lon="-1.75923">
        <ele>67</ele>
        <time>2020-12-25T09:29:25.000Z</time>
      </trkpt>
      <trkpt lat="47.01777" lon="-1.75909">
        <ele>67</ele>
        <time>2020-12-25T09:29:27.000Z</time>
      </trkpt>
      <trkpt lat="47.01786" lon="-1.75894">
        <ele>67</ele>
        <time>2020-12-25T09:29:29.000Z</time>
      </trkpt>
      <trkpt lat="47.01794" lon="-1.75881">
        <ele>68</ele>
        <time>2020-12-25T09:29:31.000Z</time>
      </trkpt>
      <trkpt lat="47.01802" lon="-1.75867">
        <ele>68</ele>
        <time>2020-12-25T09:29:33.000Z</time>
      </trkpt>
      <trkpt lat="47.01809" lon="-1.75854">
        <ele>68</ele>
        <time>2020-12-25T09:29:35.000Z</time>
      </trkpt>
      <trkpt lat="47.01817" lon="-1.75842">
        <ele>68</ele>
        <time>2020-12-25T09:29:37.000Z</time>
      </trkpt>
      <trkpt lat="47.01824" lon="-1.75829">
        <ele>69</ele>
        <time>2020-12-25T09:29:39.000Z</time>
      </trkpt>
      <trkpt lat="47.0183" lon="-1.75817">
        <ele>69</ele>
        <time>2020-12-25T09:29:41.000Z</time>
      </trkpt>
      <trkpt lat="47.01837" lon="-1.75805">
        <ele>70</ele>
        <time>2020-12-25T09:29:43.000Z</time>
      </trkpt>
      <trkpt lat="47.01844" lon="-1.75793">
        <ele>70</ele>
        <time>2020-12-25T09:29:45.000Z</time>
      </trkpt>
      <trkpt lat="47.01852" lon="-1.75781">
        <ele>70</ele>
        <time>2020-12-25T09:29:47.000Z</time>
      </trkpt>
      <trkpt lat="47.01859" lon="-1.75769">
        <ele>70</ele>
        <time>2020-12-25T09:29:49.000Z</time>
      </trkpt>
      <trkpt lat="47.01866" lon="-1.75757">
        <ele>71</ele>
        <time>2020-12-25T09:29:51.000Z</time>
      </trkpt>
      <trkpt lat="47.01873" lon="-1.75745">
        <ele>71</ele>
        <time>2020-12-25T09:29:53.000Z</time>
      </trkpt>
      <trkpt lat="47.0188" lon="-1.75733">
        <ele>71</ele>
        <time>2020-12-25T09:29:55.000Z</time>
      </trkpt>
      <trkpt lat="47.01887" lon="-1.75721">
        <ele>71</ele>
        <time>2020-12-25T09:29:57.000Z</time>
      </trkpt>
      <trkpt lat="47.01894" lon="-1.75709">
        <ele>71</ele>
        <time>2020-12-25T09:29:59.000Z</time>
      </trkpt>
      <trkpt lat="47.01901" lon="-1.75697">
        <ele>71</ele>
        <time>2020-12-25T09:30:01.000Z</time>
      </trkpt>
      <trkpt lat="47.01909" lon="-1.75685">
        <ele>71</ele>
        <time>2020-12-25T09:30:03.000Z</time>
      </trkpt>
      <trkpt lat="47.01916" lon="-1.75672">
        <ele>71</ele>
        <time>2020-12-25T09:30:05.000Z</time>
      </trkpt>
      <trkpt lat="47.01922" lon="-1.7566">
        <ele>71</ele>
        <time>2020-12-25T09:30:07.000Z</time>
      </trkpt>
      <trkpt lat="47.0193" lon="-1.75648">
        <ele>71</ele>
        <time>2020-12-25T09:30:09.000Z</time>
      </trkpt>
      <trkpt lat="47.01937" lon="-1.75636">
        <ele>71</ele>
        <time>2020-12-25T09:30:11.000Z</time>
      </trkpt>
      <trkpt lat="47.01943" lon="-1.75624">
        <ele>71</ele>
        <time>2020-12-25T09:30:13.000Z</time>
      </trkpt>
      <trkpt lat="47.0195" lon="-1.75611">
        <ele>71</ele>
        <time>2020-12-25T09:30:15.000Z</time>
      </trkpt>
      <trkpt lat="47.01957" lon="-1.75598">
        <ele>71</ele>
        <time>2020-12-25T09:30:17.000Z</time>
      </trkpt>
      <trkpt lat="47.01965" lon="-1.75585">
        <ele>70</ele>
        <time>2020-12-25T09:30:19.000Z</time>
      </trkpt>
      <trkpt lat="47.01973" lon="-1.75572">
        <ele>70</ele>
        <time>2020-12-25T09:30:21.000Z</time>
      </trkpt>
      <trkpt lat="47.0198" lon="-1.75558">
        <ele>69</ele>
        <time>2020-12-25T09:30:23.000Z</time>
      </trkpt>
      <trkpt lat="47.01988" lon="-1.75545">
        <ele>69</ele>
        <time>2020-12-25T09:30:25.000Z</time>
      </trkpt>
      <trkpt lat="47.01996" lon="-1.75531">
        <ele>68</ele>
        <time>2020-12-25T09:30:27.000Z</time>
      </trkpt>
      <trkpt lat="47.02004" lon="-1.75518">
        <ele>68</ele>
        <time>2020-12-25T09:30:29.000Z</time>
      </trkpt>
      <trkpt lat="47.02012" lon="-1.75504">
        <ele>68</ele>
        <time>2020-12-25T09:30:31.000Z</time>
      </trkpt>
      <trkpt lat="47.02019" lon="-1.75491">
        <ele>68</ele>
        <time>2020-12-25T09:30:33.000Z</time>
      </trkpt>
      <trkpt lat="47.02027" lon="-1.75477">
        <ele>69</ele>
        <time>2020-12-25T09:30:35.000Z</time>
      </trkpt>
      <trkpt lat="47.02034" lon="-1.75463">
        <ele>69</ele>
        <time>2020-12-25T09:30:37.000Z</time>
      </trkpt>
      <trkpt lat="47.02041" lon="-1.7545">
        <ele>69</ele>
        <time>2020-12-25T09:30:39.000Z</time>
      </trkpt>
      <trkpt lat="47.02048" lon="-1.75435">
        <ele>69</ele>
        <time>2020-12-25T09:30:41.000Z</time>
      </trkpt>
      <trkpt lat="47.02054" lon="-1.75419">
        <ele>69</ele>
        <time>2020-12-25T09:30:43.000Z</time>
      </trkpt>
      <trkpt lat="47.0206" lon="-1.75403">
        <ele>69</ele>
        <time>2020-12-25T09:30:45.000Z</time>
      </trkpt>
      <trkpt lat="47.02064" lon="-1.75387">
        <ele>68</ele>
        <time>2020-12-25T09:30:47.000Z</time>
      </trkpt>
      <trkpt lat="47.02068" lon="-1.7537">
        <ele>69</ele>
        <time>2020-12-25T09:30:49.000Z</time>
      </trkpt>
      <trkpt lat="47.02071" lon="-1.75352">
        <ele>69</ele>
        <time>2020-12-25T09:30:51.000Z</time>
      </trkpt>
      <trkpt lat="47.02074" lon="-1.75336">
        <ele>69</ele>
        <time>2020-12-25T09:30:53.000Z</time>
      </trkpt>
      <trkpt lat="47.02076" lon="-1.75319">
        <ele>68</ele>
        <time>2020-12-25T09:30:55.000Z</time>
      </trkpt>
      <trkpt lat="47.02079" lon="-1.75302">
        <ele>68</ele>
        <time>2020-12-25T09:30:57.000Z</time>
      </trkpt>
      <trkpt lat="47.02082" lon="-1.75286">
        <ele>68</ele>
        <time>2020-12-25T09:30:59.000Z</time>
      </trkpt>
      <trkpt lat="47.02086" lon="-1.75269">
        <ele>68</ele>
        <time>2020-12-25T09:31:01.000Z</time>
      </trkpt>
      <trkpt lat="47.02089" lon="-1.75252">
        <ele>68</ele>
        <time>2020-12-25T09:31:03.000Z</time>
      </trkpt>
      <trkpt lat="47.02092" lon="-1.75236">
        <ele>68</ele>
        <time>2020-12-25T09:31:05.000Z</time>
      </trkpt>
      <trkpt lat="47.02095" lon="-1.75219">
        <ele>68</ele>
        <time>2020-12-25T09:31:07.000Z</time>
      </trkpt>
      <trkpt lat="47.02098" lon="-1.75203">
        <ele>68</ele>
        <time>2020-12-25T09:31:09.000Z</time>
      </trkpt>
      <trkpt lat="47.02102" lon="-1.75186">
        <ele>68</ele>
        <time>2020-12-25T09:31:11.000Z</time>
      </trkpt>
      <trkpt lat="47.02105" lon="-1.75169">
        <ele>68</ele>
        <time>2020-12-25T09:31:13.000Z</time>
      </trkpt>
      <trkpt lat="47.02108" lon="-1.75152">
        <ele>68</ele>
        <time>2020-12-25T09:31:15.000Z</time>
      </trkpt>
      <trkpt lat="47.02111" lon="-1.75134">
        <ele>68</ele>
        <time>2020-12-25T09:31:17.000Z</time>
      </trkpt>
      <trkpt lat="47.02114" lon="-1.75118">
        <ele>68</ele>
        <time>2020-12-25T09:31:19.000Z</time>
      </trkpt>
      <trkpt lat="47.02117" lon="-1.75101">
        <ele>69</ele>
        <time>2020-12-25T09:31:21.000Z</time>
      </trkpt>
      <trkpt lat="47.0212" lon="-1.75085">
        <ele>69</ele>
        <time>2020-12-25T09:31:23.000Z</time>
      </trkpt>
      <trkpt lat="47.02123" lon="-1.75068">
        <ele>69</ele>
        <time>2020-12-25T09:31:25.000Z</time>
      </trkpt>
      <trkpt lat="47.02126" lon="-1.75051">
        <ele>69</ele>
        <time>2020-12-25T09:31:27.000Z</time>
      </trkpt>
      <trkpt lat="47.02129" lon="-1.75035">
        <ele>69</ele>
        <time>2020-12-25T09:31:29.000Z</time>
      </trkpt>
      <trkpt lat="47.02131" lon="-1.75019">
        <ele>69</ele>
        <time>2020-12-25T09:31:31.000Z</time>
      </trkpt>
      <trkpt lat="47.02135" lon="-1.75003">
        <ele>69</ele>
        <time>2020-12-25T09:31:33.000Z</time>
      </trkpt>
      <trkpt lat="47.02138" lon="-1.74986">
        <ele>69</ele>
        <time>2020-12-25T09:31:35.000Z</time>
      </trkpt>
      <trkpt lat="47.0214" lon="-1.74969">
        <ele>69</ele>
        <time>2020-12-25T09:31:37.000Z</time>
      </trkpt>
      <trkpt lat="47.02143" lon="-1.74952">
        <ele>69</ele>
        <time>2020-12-25T09:31:39.000Z</time>
      </trkpt>
      <trkpt lat="47.02145" lon="-1.74935">
        <ele>69</ele>
        <time>2020-12-25T09:31:41.000Z</time>
      </trkpt>
      <trkpt lat="47.02148" lon="-1.74918">
        <ele>69</ele>
        <time>2020-12-25T09:31:43.000Z</time>
      </trkpt>
      <trkpt lat="47.02151" lon="-1.74901">
        <ele>69</ele>
        <time>2020-12-25T09:31:45.000Z</time>
      </trkpt>
      <trkpt lat="47.02154" lon="-1.74884">
        <ele>69</ele>
        <time>2020-12-25T09:31:47.000Z</time>
      </trkpt>
      <trkpt lat="47.02157" lon="-1.74867">
        <ele>69</ele>
        <time>2020-12-25T09:31:49.000Z</time>
      </trkpt>
      <trkpt lat="47.0216" lon="-1.7485">
        <ele>69</ele>
        <time>2020-12-25T09:31:51.000Z</time>
      </trkpt>
      <trkpt lat="47.02163" lon="-1.74833">
        <ele>68</ele>
        <time>2020-12-25T09:31:53.000Z</time>
      </trkpt>
      <trkpt lat="47.02165" lon="-1.74816">
        <ele>68</ele>
        <time>2020-12-25T09:31:55.000Z</time>
      </trkpt>
      <trkpt lat="47.02167" lon="-1.748">
        <ele>67</ele>
        <time>2020-12-25T09:31:57.000Z</time>
      </trkpt>
      <trkpt lat="47.02168" lon="-1.74784">
        <ele>67</ele>
        <time>2020-12-25T09:31:59.000Z</time>
      </trkpt>
      <trkpt lat="47.0217" lon="-1.74766">
        <ele>67</ele>
        <time>2020-12-25T09:32:01.000Z</time>
      </trkpt>
      <trkpt lat="47.02173" lon="-1.74748">
        <ele>67</ele>
        <time>2020-12-25T09:32:03.000Z</time>
      </trkpt>
      <trkpt lat="47.02175" lon="-1.7473">
        <ele>66</ele>
        <time>2020-12-25T09:32:05.000Z</time>
      </trkpt>
      <trkpt lat="47.02178" lon="-1.74712">
        <ele>65</ele>
        <time>2020-12-25T09:32:07.000Z</time>
      </trkpt>
      <trkpt lat="47.02181" lon="-1.74695">
        <ele>65</ele>
        <time>2020-12-25T09:32:09.000Z</time>
      </trkpt>
      <trkpt lat="47.02183" lon="-1.74677">
        <ele>64</ele>
        <time>2020-12-25T09:32:11.000Z</time>
      </trkpt>
      <trkpt lat="47.02185" lon="-1.74659">
        <ele>63</ele>
        <time>2020-12-25T09:32:13.000Z</time>
      </trkpt>
      <trkpt lat="47.02189" lon="-1.7464">
        <ele>62</ele>
        <time>2020-12-25T09:32:15.000Z</time>
      </trkpt>
      <trkpt lat="47.02193" lon="-1.74621">
        <ele>62</ele>
        <time>2020-12-25T09:32:17.000Z</time>
      </trkpt>
      <trkpt lat="47.02196" lon="-1.74603">
        <ele>62</ele>
        <time>2020-12-25T09:32:19.000Z</time>
      </trkpt>
      <trkpt lat="47.022" lon="-1.74584">
        <ele>61</ele>
        <time>2020-12-25T09:32:21.000Z</time>
      </trkpt>
      <trkpt lat="47.02203" lon="-1.74566">
        <ele>61</ele>
        <time>2020-12-25T09:32:23.000Z</time>
      </trkpt>
      <trkpt lat="47.02205" lon="-1.74547">
        <ele>60</ele>
        <time>2020-12-25T09:32:25.000Z</time>
      </trkpt>
      <trkpt lat="47.02208" lon="-1.74529">
        <ele>60</ele>
        <time>2020-12-25T09:32:27.000Z</time>
      </trkpt>
      <trkpt lat="47.02212" lon="-1.74511">
        <ele>61</ele>
        <time>2020-12-25T09:32:29.000Z</time>
      </trkpt>
      <trkpt lat="47.02215" lon="-1.74493">
        <ele>61</ele>
        <time>2020-12-25T09:32:31.000Z</time>
      </trkpt>
      <trkpt lat="47.02217" lon="-1.74476">
        <ele>61</ele>
        <time>2020-12-25T09:32:33.000Z</time>
      </trkpt>
      <trkpt lat="47.02219" lon="-1.74459">
        <ele>61</ele>
        <time>2020-12-25T09:32:35.000Z</time>
      </trkpt>
      <trkpt lat="47.0222" lon="-1.7444">
        <ele>61</ele>
        <time>2020-12-25T09:32:37.000Z</time>
      </trkpt>
      <trkpt lat="47.02222" lon="-1.74422">
        <ele>61</ele>
        <time>2020-12-25T09:32:39.000Z</time>
      </trkpt>
      <trkpt lat="47.02225" lon="-1.74404">
        <ele>62</ele>
        <time>2020-12-25T09:32:41.000Z</time>
      </trkpt>
      <trkpt lat="47.02229" lon="-1.74385">
        <ele>62</ele>
        <time>2020-12-25T09:32:43.000Z</time>
      </trkpt>
      <trkpt lat="47.02232" lon="-1.74367">
        <ele>62</ele>
        <time>2020-12-25T09:32:45.000Z</time>
      </trkpt>
      <trkpt lat="47.02234" lon="-1.7435">
        <ele>63</ele>
        <time>2020-12-25T09:32:47.000Z</time>
      </trkpt>
      <trkpt lat="47.02236" lon="-1.74333">
        <ele>63</ele>
        <time>2020-12-25T09:32:49.000Z</time>
      </trkpt>
      <trkpt lat="47.02239" lon="-1.74316">
        <ele>64</ele>
        <time>2020-12-25T09:32:51.000Z</time>
      </trkpt>
      <trkpt lat="47.02243" lon="-1.74299">
        <ele>65</ele>
        <time>2020-12-25T09:32:53.000Z</time>
      </trkpt>
      <trkpt lat="47.02246" lon="-1.74282">
        <ele>65</ele>
        <time>2020-12-25T09:32:55.000Z</time>
      </trkpt>
      <trkpt lat="47.02249" lon="-1.74265">
        <ele>65</ele>
        <time>2020-12-25T09:32:57.000Z</time>
      </trkpt>
      <trkpt lat="47.0225" lon="-1.74248">
        <ele>66</ele>
        <time>2020-12-25T09:32:59.000Z</time>
      </trkpt>
      <trkpt lat="47.02252" lon="-1.7423">
        <ele>66</ele>
        <time>2020-12-25T09:33:01.000Z</time>
      </trkpt>
      <trkpt lat="47.02254" lon="-1.74214">
        <ele>66</ele>
        <time>2020-12-25T09:33:03.000Z</time>
      </trkpt>
      <trkpt lat="47.02256" lon="-1.74196">
        <ele>66</ele>
        <time>2020-12-25T09:33:05.000Z</time>
      </trkpt>
      <trkpt lat="47.02259" lon="-1.74178">
        <ele>66</ele>
        <time>2020-12-25T09:33:07.000Z</time>
      </trkpt>
      <trkpt lat="47.02261" lon="-1.7416">
        <ele>66</ele>
        <time>2020-12-25T09:33:09.000Z</time>
      </trkpt>
      <trkpt lat="47.02264" lon="-1.74142">
        <ele>66</ele>
        <time>2020-12-25T09:33:11.000Z</time>
      </trkpt>
      <trkpt lat="47.02266" lon="-1.74124">
        <ele>66</ele>
        <time>2020-12-25T09:33:13.000Z</time>
      </trkpt>
      <trkpt lat="47.0227" lon="-1.74107">
        <ele>66</ele>
        <time>2020-12-25T09:33:15.000Z</time>
      </trkpt>
      <trkpt lat="47.02273" lon="-1.74089">
        <ele>66</ele>
        <time>2020-12-25T09:33:17.000Z</time>
      </trkpt>
      <trkpt lat="47.02277" lon="-1.7407">
        <ele>65</ele>
        <time>2020-12-25T09:33:19.000Z</time>
      </trkpt>
      <trkpt lat="47.02279" lon="-1.74051">
        <ele>66</ele>
        <time>2020-12-25T09:33:21.000Z</time>
      </trkpt>
      <trkpt lat="47.0228" lon="-1.74032">
        <ele>66</ele>
        <time>2020-12-25T09:33:23.000Z</time>
      </trkpt>
      <trkpt lat="47.0228" lon="-1.74014">
        <ele>66</ele>
        <time>2020-12-25T09:33:25.000Z</time>
      </trkpt>
      <trkpt lat="47.02279" lon="-1.73997">
        <ele>66</ele>
        <time>2020-12-25T09:33:27.000Z</time>
      </trkpt>
      <trkpt lat="47.02279" lon="-1.7398">
        <ele>66</ele>
        <time>2020-12-25T09:33:29.000Z</time>
      </trkpt>
      <trkpt lat="47.02279" lon="-1.73962">
        <ele>67</ele>
        <time>2020-12-25T09:33:31.000Z</time>
      </trkpt>
      <trkpt lat="47.02277" lon="-1.73945">
        <ele>67</ele>
        <time>2020-12-25T09:33:33.000Z</time>
      </trkpt>
      <trkpt lat="47.02276" lon="-1.73926">
        <ele>67</ele>
        <time>2020-12-25T09:33:35.000Z</time>
      </trkpt>
      <trkpt lat="47.02276" lon="-1.73906">
        <ele>67</ele>
        <time>2020-12-25T09:33:37.000Z</time>
      </trkpt>
      <trkpt lat="47.02277" lon="-1.73885">
        <ele>68</ele>
        <time>2020-12-25T09:33:39.000Z</time>
      </trkpt>
      <trkpt lat="47.02277" lon="-1.73866">
        <ele>68</ele>
        <time>2020-12-25T09:33:41.000Z</time>
      </trkpt>
      <trkpt lat="47.02277" lon="-1.73846">
        <ele>68</ele>
        <time>2020-12-25T09:33:43.000Z</time>
      </trkpt>
      <trkpt lat="47.02277" lon="-1.73829">
        <ele>68</ele>
        <time>2020-12-25T09:33:45.000Z</time>
      </trkpt>
      <trkpt lat="47.02276" lon="-1.73811">
        <ele>68</ele>
        <time>2020-12-25T09:33:47.000Z</time>
      </trkpt>
      <trkpt lat="47.02276" lon="-1.73794">
        <ele>68</ele>
        <time>2020-12-25T09:33:49.000Z</time>
      </trkpt>
      <trkpt lat="47.02275" lon="-1.73777">
        <ele>68</ele>
        <time>2020-12-25T09:33:51.000Z</time>
      </trkpt>
      <trkpt lat="47.02274" lon="-1.73763">
        <ele>68</ele>
        <time>2020-12-25T09:33:53.000Z</time>
      </trkpt>
      <trkpt lat="47.02278" lon="-1.73747">
        <ele>68</ele>
        <time>2020-12-25T09:33:56.000Z</time>
      </trkpt>
      <trkpt lat="47.02287" lon="-1.73742">
        <ele>69</ele>
        <time>2020-12-25T09:33:58.000Z</time>
      </trkpt>
      <trkpt lat="47.02299" lon="-1.7374">
        <ele>70</ele>
        <time>2020-12-25T09:34:00.000Z</time>
      </trkpt>
      <trkpt lat="47.0231" lon="-1.73738">
        <ele>70</ele>
        <time>2020-12-25T09:34:02.000Z</time>
      </trkpt>
      <trkpt lat="47.02321" lon="-1.73736">
        <ele>70</ele>
        <time>2020-12-25T09:34:04.000Z</time>
      </trkpt>
      <trkpt lat="47.02332" lon="-1.73735">
        <ele>70</ele>
        <time>2020-12-25T09:34:06.000Z</time>
      </trkpt>
      <trkpt lat="47.02343" lon="-1.73733">
        <ele>70</ele>
        <time>2020-12-25T09:34:08.000Z</time>
      </trkpt>
      <trkpt lat="47.02354" lon="-1.7373">
        <ele>70</ele>
        <time>2020-12-25T09:34:10.000Z</time>
      </trkpt>
      <trkpt lat="47.02365" lon="-1.73728">
        <ele>70</ele>
        <time>2020-12-25T09:34:12.000Z</time>
      </trkpt>
      <trkpt lat="47.02377" lon="-1.73727">
        <ele>70</ele>
        <time>2020-12-25T09:34:14.000Z</time>
      </trkpt>
      <trkpt lat="47.02389" lon="-1.73724">
        <ele>69</ele>
        <time>2020-12-25T09:34:16.000Z</time>
      </trkpt>
      <trkpt lat="47.024" lon="-1.73722">
        <ele>70</ele>
        <time>2020-12-25T09:34:18.000Z</time>
      </trkpt>
      <trkpt lat="47.02411" lon="-1.73721">
        <ele>70</ele>
        <time>2020-12-25T09:34:20.000Z</time>
      </trkpt>
      <trkpt lat="47.02422" lon="-1.73719">
        <ele>71</ele>
        <time>2020-12-25T09:34:22.000Z</time>
      </trkpt>
      <trkpt lat="47.02434" lon="-1.73717">
        <ele>72</ele>
        <time>2020-12-25T09:34:24.000Z</time>
      </trkpt>
      <trkpt lat="47.02445" lon="-1.73715">
        <ele>71</ele>
        <time>2020-12-25T09:34:26.000Z</time>
      </trkpt>
      <trkpt lat="47.02456" lon="-1.73712">
        <ele>72</ele>
        <time>2020-12-25T09:34:28.000Z</time>
      </trkpt>
      <trkpt lat="47.02467" lon="-1.7371">
        <ele>72</ele>
        <time>2020-12-25T09:34:30.000Z</time>
      </trkpt>
      <trkpt lat="47.02479" lon="-1.73708">
        <ele>71</ele>
        <time>2020-12-25T09:34:32.000Z</time>
      </trkpt>
      <trkpt lat="47.0249" lon="-1.73705">
        <ele>71</ele>
        <time>2020-12-25T09:34:34.000Z</time>
      </trkpt>
      <trkpt lat="47.02501" lon="-1.73702">
        <ele>72</ele>
        <time>2020-12-25T09:34:36.000Z</time>
      </trkpt>
      <trkpt lat="47.02511" lon="-1.73699">
        <ele>72</ele>
        <time>2020-12-25T09:34:38.000Z</time>
      </trkpt>
      <trkpt lat="47.02522" lon="-1.73698">
        <ele>73</ele>
        <time>2020-12-25T09:34:40.000Z</time>
      </trkpt>
      <trkpt lat="47.02533" lon="-1.73696">
        <ele>73</ele>
        <time>2020-12-25T09:34:42.000Z</time>
      </trkpt>
      <trkpt lat="47.02544" lon="-1.73694">
        <ele>72</ele>
        <time>2020-12-25T09:34:44.000Z</time>
      </trkpt>
      <trkpt lat="47.02555" lon="-1.73692">
        <ele>73</ele>
        <time>2020-12-25T09:34:46.000Z</time>
      </trkpt>
      <trkpt lat="47.02567" lon="-1.7369">
        <ele>74</ele>
        <time>2020-12-25T09:34:48.000Z</time>
      </trkpt>
      <trkpt lat="47.02578" lon="-1.73688">
        <ele>74</ele>
        <time>2020-12-25T09:34:50.000Z</time>
      </trkpt>
      <trkpt lat="47.0259" lon="-1.73685">
        <ele>75</ele>
        <time>2020-12-25T09:34:52.000Z</time>
      </trkpt>
      <trkpt lat="47.02601" lon="-1.73683">
        <ele>75</ele>
        <time>2020-12-25T09:34:54.000Z</time>
      </trkpt>
      <trkpt lat="47.02613" lon="-1.7368">
        <ele>75</ele>
        <time>2020-12-25T09:34:56.000Z</time>
      </trkpt>
      <trkpt lat="47.02624" lon="-1.73678">
        <ele>75</ele>
        <time>2020-12-25T09:34:58.000Z</time>
      </trkpt>
      <trkpt lat="47.02634" lon="-1.73676">
        <ele>76</ele>
        <time>2020-12-25T09:35:00.000Z</time>
      </trkpt>
      <trkpt lat="47.02646" lon="-1.73675">
        <ele>76</ele>
        <time>2020-12-25T09:35:02.000Z</time>
      </trkpt>
      <trkpt lat="47.02657" lon="-1.73673">
        <ele>76</ele>
        <time>2020-12-25T09:35:04.000Z</time>
      </trkpt>
      <trkpt lat="47.02668" lon="-1.7367">
        <ele>76</ele>
        <time>2020-12-25T09:35:06.000Z</time>
      </trkpt>
      <trkpt lat="47.02679" lon="-1.73668">
        <ele>76</ele>
        <time>2020-12-25T09:35:08.000Z</time>
      </trkpt>
      <trkpt lat="47.0269" lon="-1.73666">
        <ele>77</ele>
        <time>2020-12-25T09:35:10.000Z</time>
      </trkpt>
      <trkpt lat="47.02701" lon="-1.73664">
        <ele>77</ele>
        <time>2020-12-25T09:35:12.000Z</time>
      </trkpt>
      <trkpt lat="47.02711" lon="-1.73662">
        <ele>77</ele>
        <time>2020-12-25T09:35:14.000Z</time>
      </trkpt>
      <trkpt lat="47.02723" lon="-1.73659">
        <ele>78</ele>
        <time>2020-12-25T09:35:16.000Z</time>
      </trkpt>
      <trkpt lat="47.02733" lon="-1.73656">
        <ele>79</ele>
        <time>2020-12-25T09:35:18.000Z</time>
      </trkpt>
      <trkpt lat="47.02744" lon="-1.73655">
        <ele>79</ele>
        <time>2020-12-25T09:35:20.000Z</time>
      </trkpt>
      <trkpt lat="47.02755" lon="-1.73652">
        <ele>80</ele>
        <time>2020-12-25T09:35:22.000Z</time>
      </trkpt>
      <trkpt lat="47.02767" lon="-1.7365">
        <ele>79</ele>
        <time>2020-12-25T09:35:24.000Z</time>
      </trkpt>
      <trkpt lat="47.02778" lon="-1.73648">
        <ele>79</ele>
        <time>2020-12-25T09:35:26.000Z</time>
      </trkpt>
      <trkpt lat="47.0279" lon="-1.73647">
        <ele>79</ele>
        <time>2020-12-25T09:35:28.000Z</time>
      </trkpt>
      <trkpt lat="47.02801" lon="-1.73645">
        <ele>79</ele>
        <time>2020-12-25T09:35:30.000Z</time>
      </trkpt>
      <trkpt lat="47.02812" lon="-1.73643">
        <ele>78</ele>
        <time>2020-12-25T09:35:32.000Z</time>
      </trkpt>
      <trkpt lat="47.02824" lon="-1.73641">
        <ele>78</ele>
        <time>2020-12-25T09:35:34.000Z</time>
      </trkpt>
      <trkpt lat="47.02835" lon="-1.73639">
        <ele>78</ele>
        <time>2020-12-25T09:35:36.000Z</time>
      </trkpt>
      <trkpt lat="47.02846" lon="-1.73637">
        <ele>77</ele>
        <time>2020-12-25T09:35:38.000Z</time>
      </trkpt>
      <trkpt lat="47.02856" lon="-1.73635">
        <ele>77</ele>
        <time>2020-12-25T09:35:40.000Z</time>
      </trkpt>
      <trkpt lat="47.02867" lon="-1.73633">
        <ele>77</ele>
        <time>2020-12-25T09:35:42.000Z</time>
      </trkpt>
      <trkpt lat="47.02877" lon="-1.73631">
        <ele>77</ele>
        <time>2020-12-25T09:35:44.000Z</time>
      </trkpt>
      <trkpt lat="47.02888" lon="-1.73629">
        <ele>78</ele>
        <time>2020-12-25T09:35:46.000Z</time>
      </trkpt>
      <trkpt lat="47.02898" lon="-1.73626">
        <ele>78</ele>
        <time>2020-12-25T09:35:48.000Z</time>
      </trkpt>
      <trkpt lat="47.02909" lon="-1.73624">
        <ele>78</ele>
        <time>2020-12-25T09:35:50.000Z</time>
      </trkpt>
      <trkpt lat="47.02919" lon="-1.73622">
        <ele>79</ele>
        <time>2020-12-25T09:35:52.000Z</time>
      </trkpt>
      <trkpt lat="47.0293" lon="-1.7362">
        <ele>79</ele>
        <time>2020-12-25T09:35:54.000Z</time>
      </trkpt>
      <trkpt lat="47.02941" lon="-1.73618">
        <ele>79</ele>
        <time>2020-12-25T09:35:56.000Z</time>
      </trkpt>
      <trkpt lat="47.02951" lon="-1.73616">
        <ele>79</ele>
        <time>2020-12-25T09:35:58.000Z</time>
      </trkpt>
      <trkpt lat="47.02962" lon="-1.73614">
        <ele>79</ele>
        <time>2020-12-25T09:36:00.000Z</time>
      </trkpt>
      <trkpt lat="47.02973" lon="-1.73612">
        <ele>80</ele>
        <time>2020-12-25T09:36:02.000Z</time>
      </trkpt>
      <trkpt lat="47.02984" lon="-1.7361">
        <ele>80</ele>
        <time>2020-12-25T09:36:04.000Z</time>
      </trkpt>
      <trkpt lat="47.02995" lon="-1.73608">
        <ele>81</ele>
        <time>2020-12-25T09:36:06.000Z</time>
      </trkpt>
      <trkpt lat="47.03005" lon="-1.73605">
        <ele>80</ele>
        <time>2020-12-25T09:36:08.000Z</time>
      </trkpt>
      <trkpt lat="47.03016" lon="-1.73604">
        <ele>80</ele>
        <time>2020-12-25T09:36:10.000Z</time>
      </trkpt>
      <trkpt lat="47.03026" lon="-1.73601">
        <ele>80</ele>
        <time>2020-12-25T09:36:12.000Z</time>
      </trkpt>
      <trkpt lat="47.03038" lon="-1.73599">
        <ele>80</ele>
        <time>2020-12-25T09:36:14.000Z</time>
      </trkpt>
      <trkpt lat="47.03049" lon="-1.73597">
        <ele>80</ele>
        <time>2020-12-25T09:36:16.000Z</time>
      </trkpt>
      <trkpt lat="47.0306" lon="-1.73595">
        <ele>80</ele>
        <time>2020-12-25T09:36:18.000Z</time>
      </trkpt>
      <trkpt lat="47.03071" lon="-1.73593">
        <ele>81</ele>
        <time>2020-12-25T09:36:20.000Z</time>
      </trkpt>
      <trkpt lat="47.03082" lon="-1.73591">
        <ele>80</ele>
        <time>2020-12-25T09:36:22.000Z</time>
      </trkpt>
      <trkpt lat="47.03093" lon="-1.73589">
        <ele>80</ele>
        <time>2020-12-25T09:36:24.000Z</time>
      </trkpt>
      <trkpt lat="47.03105" lon="-1.73587">
        <ele>80</ele>
        <time>2020-12-25T09:36:26.000Z</time>
      </trkpt>
      <trkpt lat="47.03117" lon="-1.73584">
        <ele>80</ele>
        <time>2020-12-25T09:36:28.000Z</time>
      </trkpt>
      <trkpt lat="47.03128" lon="-1.73582">
        <ele>80</ele>
        <time>2020-12-25T09:36:30.000Z</time>
      </trkpt>
      <trkpt lat="47.03139" lon="-1.7358">
        <ele>80</ele>
        <time>2020-12-25T09:36:32.000Z</time>
      </trkpt>
      <trkpt lat="47.0315" lon="-1.73579">
        <ele>80</ele>
        <time>2020-12-25T09:36:34.000Z</time>
      </trkpt>
      <trkpt lat="47.03161" lon="-1.73579">
        <ele>80</ele>
        <time>2020-12-25T09:36:36.000Z</time>
      </trkpt>
      <trkpt lat="47.03173" lon="-1.7358">
        <ele>80</ele>
        <time>2020-12-25T09:36:38.000Z</time>
      </trkpt>
      <trkpt lat="47.03185" lon="-1.73582">
        <ele>80</ele>
        <time>2020-12-25T09:36:40.000Z</time>
      </trkpt>
      <trkpt lat="47.03196" lon="-1.73585">
        <ele>80</ele>
        <time>2020-12-25T09:36:42.000Z</time>
      </trkpt>
      <trkpt lat="47.03208" lon="-1.7359">
        <ele>80</ele>
        <time>2020-12-25T09:36:44.000Z</time>
      </trkpt>
      <trkpt lat="47.03219" lon="-1.73595">
        <ele>80</ele>
        <time>2020-12-25T09:36:46.000Z</time>
      </trkpt>
      <trkpt lat="47.0323" lon="-1.73602">
        <ele>80</ele>
        <time>2020-12-25T09:36:48.000Z</time>
      </trkpt>
      <trkpt lat="47.03241" lon="-1.73608">
        <ele>80</ele>
        <time>2020-12-25T09:36:50.000Z</time>
      </trkpt>
      <trkpt lat="47.03252" lon="-1.73615">
        <ele>79</ele>
        <time>2020-12-25T09:36:52.000Z</time>
      </trkpt>
      <trkpt lat="47.03264" lon="-1.73621">
        <ele>79</ele>
        <time>2020-12-25T09:36:54.000Z</time>
      </trkpt>
      <trkpt lat="47.03275" lon="-1.73627">
        <ele>79</ele>
        <time>2020-12-25T09:36:56.000Z</time>
      </trkpt>
      <trkpt lat="47.03287" lon="-1.73634">
        <ele>79</ele>
        <time>2020-12-25T09:36:58.000Z</time>
      </trkpt>
      <trkpt lat="47.03298" lon="-1.73641">
        <ele>79</ele>
        <time>2020-12-25T09:37:00.000Z</time>
      </trkpt>
      <trkpt lat="47.0331" lon="-1.73647">
        <ele>79</ele>
        <time>2020-12-25T09:37:02.000Z</time>
      </trkpt>
      <trkpt lat="47.03322" lon="-1.73654">
        <ele>79</ele>
        <time>2020-12-25T09:37:04.000Z</time>
      </trkpt>
      <trkpt lat="47.03333" lon="-1.7366">
        <ele>79</ele>
        <time>2020-12-25T09:37:06.000Z</time>
      </trkpt>
      <trkpt lat="47.03344" lon="-1.73666">
        <ele>79</ele>
        <time>2020-12-25T09:37:08.000Z</time>
      </trkpt>
      <trkpt lat="47.03355" lon="-1.73671">
        <ele>79</ele>
        <time>2020-12-25T09:37:10.000Z</time>
      </trkpt>
      <trkpt lat="47.03366" lon="-1.73677">
        <ele>79</ele>
        <time>2020-12-25T09:37:12.000Z</time>
      </trkpt>
      <trkpt lat="47.03378" lon="-1.73683">
        <ele>79</ele>
        <time>2020-12-25T09:37:14.000Z</time>
      </trkpt>
      <trkpt lat="47.0339" lon="-1.73691">
        <ele>79</ele>
        <time>2020-12-25T09:37:16.000Z</time>
      </trkpt>
      <trkpt lat="47.03402" lon="-1.73698">
        <ele>78</ele>
        <time>2020-12-25T09:37:18.000Z</time>
      </trkpt>
      <trkpt lat="47.03414" lon="-1.73706">
        <ele>77</ele>
        <time>2020-12-25T09:37:20.000Z</time>
      </trkpt>
      <trkpt lat="47.03425" lon="-1.73712">
        <ele>77</ele>
        <time>2020-12-25T09:37:22.000Z</time>
      </trkpt>
      <trkpt lat="47.03437" lon="-1.73718">
        <ele>77</ele>
        <time>2020-12-25T09:37:24.000Z</time>
      </trkpt>
      <trkpt lat="47.03449" lon="-1.73724">
        <ele>77</ele>
        <time>2020-12-25T09:37:26.000Z</time>
      </trkpt>
      <trkpt lat="47.03461" lon="-1.73731">
        <ele>77</ele>
        <time>2020-12-25T09:37:28.000Z</time>
      </trkpt>
      <trkpt lat="47.03473" lon="-1.73736">
        <ele>77</ele>
        <time>2020-12-25T09:37:30.000Z</time>
      </trkpt>
      <trkpt lat="47.03485" lon="-1.73741">
        <ele>77</ele>
        <time>2020-12-25T09:37:32.000Z</time>
      </trkpt>
      <trkpt lat="47.03496" lon="-1.73745">
        <ele>76</ele>
        <time>2020-12-25T09:37:34.000Z</time>
      </trkpt>
      <trkpt lat="47.03509" lon="-1.7375">
        <ele>76</ele>
        <time>2020-12-25T09:37:36.000Z</time>
      </trkpt>
      <trkpt lat="47.03521" lon="-1.73755">
        <ele>76</ele>
        <time>2020-12-25T09:37:38.000Z</time>
      </trkpt>
      <trkpt lat="47.03533" lon="-1.73759">
        <ele>76</ele>
        <time>2020-12-25T09:37:40.000Z</time>
      </trkpt>
      <trkpt lat="47.03545" lon="-1.73764">
        <ele>76</ele>
        <time>2020-12-25T09:37:42.000Z</time>
      </trkpt>
      <trkpt lat="47.03557" lon="-1.73768">
        <ele>76</ele>
        <time>2020-12-25T09:37:44.000Z</time>
      </trkpt>
      <trkpt lat="47.03568" lon="-1.73773">
        <ele>76</ele>
        <time>2020-12-25T09:37:46.000Z</time>
      </trkpt>
      <trkpt lat="47.03581" lon="-1.73778">
        <ele>76</ele>
        <time>2020-12-25T09:37:48.000Z</time>
      </trkpt>
      <trkpt lat="47.03593" lon="-1.73782">
        <ele>76</ele>
        <time>2020-12-25T09:37:50.000Z</time>
      </trkpt>
      <trkpt lat="47.03605" lon="-1.73786">
        <ele>76</ele>
        <time>2020-12-25T09:37:52.000Z</time>
      </trkpt>
      <trkpt lat="47.03618" lon="-1.7379">
        <ele>76</ele>
        <time>2020-12-25T09:37:54.000Z</time>
      </trkpt>
      <trkpt lat="47.03631" lon="-1.73796">
        <ele>75</ele>
        <time>2020-12-25T09:37:56.000Z</time>
      </trkpt>
      <trkpt lat="47.03643" lon="-1.73801">
        <ele>75</ele>
        <time>2020-12-25T09:37:58.000Z</time>
      </trkpt>
      <trkpt lat="47.03656" lon="-1.73806">
        <ele>74</ele>
        <time>2020-12-25T09:38:00.000Z</time>
      </trkpt>
      <trkpt lat="47.03668" lon="-1.7381">
        <ele>74</ele>
        <time>2020-12-25T09:38:02.000Z</time>
      </trkpt>
      <trkpt lat="47.03681" lon="-1.73813">
        <ele>73</ele>
        <time>2020-12-25T09:38:04.000Z</time>
      </trkpt>
      <trkpt lat="47.03693" lon="-1.73813">
        <ele>73</ele>
        <time>2020-12-25T09:38:06.000Z</time>
      </trkpt>
      <trkpt lat="47.03705" lon="-1.73812">
        <ele>73</ele>
        <time>2020-12-25T09:38:08.000Z</time>
      </trkpt>
      <trkpt lat="47.03717" lon="-1.7381">
        <ele>74</ele>
        <time>2020-12-25T09:38:10.000Z</time>
      </trkpt>
      <trkpt lat="47.03728" lon="-1.73808">
        <ele>74</ele>
        <time>2020-12-25T09:38:12.000Z</time>
      </trkpt>
      <trkpt lat="47.0374" lon="-1.73806">
        <ele>74</ele>
        <time>2020-12-25T09:38:14.000Z</time>
      </trkpt>
      <trkpt lat="47.03751" lon="-1.73804">
        <ele>74</ele>
        <time>2020-12-25T09:38:16.000Z</time>
      </trkpt>
      <trkpt lat="47.03763" lon="-1.73803">
        <ele>74</ele>
        <time>2020-12-25T09:38:18.000Z</time>
      </trkpt>
      <trkpt lat="47.03775" lon="-1.73801">
        <ele>74</ele>
        <time>2020-12-25T09:38:20.000Z</time>
      </trkpt>
      <trkpt lat="47.03787" lon="-1.738">
        <ele>75</ele>
        <time>2020-12-25T09:38:22.000Z</time>
      </trkpt>
      <trkpt lat="47.03799" lon="-1.73798">
        <ele>74</ele>
        <time>2020-12-25T09:38:24.000Z</time>
      </trkpt>
      <trkpt lat="47.03811" lon="-1.73797">
        <ele>74</ele>
        <time>2020-12-25T09:38:26.000Z</time>
      </trkpt>
      <trkpt lat="47.03822" lon="-1.73796">
        <ele>74</ele>
        <time>2020-12-25T09:38:28.000Z</time>
      </trkpt>
      <trkpt lat="47.03834" lon="-1.73794">
        <ele>74</ele>
        <time>2020-12-25T09:38:30.000Z</time>
      </trkpt>
      <trkpt lat="47.03845" lon="-1.73792">
        <ele>74</ele>
        <time>2020-12-25T09:38:32.000Z</time>
      </trkpt>
      <trkpt lat="47.03856" lon="-1.73788">
        <ele>74</ele>
        <time>2020-12-25T09:38:34.000Z</time>
      </trkpt>
      <trkpt lat="47.03866" lon="-1.73783">
        <ele>74</ele>
        <time>2020-12-25T09:38:36.000Z</time>
      </trkpt>
      <trkpt lat="47.03877" lon="-1.73778">
        <ele>74</ele>
        <time>2020-12-25T09:38:38.000Z</time>
      </trkpt>
      <trkpt lat="47.03888" lon="-1.73772">
        <ele>74</ele>
        <time>2020-12-25T09:38:40.000Z</time>
      </trkpt>
      <trkpt lat="47.03898" lon="-1.73764">
        <ele>76</ele>
        <time>2020-12-25T09:38:42.000Z</time>
      </trkpt>
      <trkpt lat="47.03907" lon="-1.73756">
        <ele>76</ele>
        <time>2020-12-25T09:38:44.000Z</time>
      </trkpt>
      <trkpt lat="47.03917" lon="-1.73747">
        <ele>76</ele>
        <time>2020-12-25T09:38:46.000Z</time>
      </trkpt>
      <trkpt lat="47.03925" lon="-1.73739">
        <ele>76</ele>
        <time>2020-12-25T09:38:48.000Z</time>
      </trkpt>
      <trkpt lat="47.03935" lon="-1.7373">
        <ele>77</ele>
        <time>2020-12-25T09:38:50.000Z</time>
      </trkpt>
      <trkpt lat="47.03944" lon="-1.73721">
        <ele>77</ele>
        <time>2020-12-25T09:38:52.000Z</time>
      </trkpt>
      <trkpt lat="47.03953" lon="-1.73712">
        <ele>77</ele>
        <time>2020-12-25T09:38:54.000Z</time>
      </trkpt>
      <trkpt lat="47.03963" lon="-1.73703">
        <ele>78</ele>
        <time>2020-12-25T09:38:56.000Z</time>
      </trkpt>
      <trkpt lat="47.03972" lon="-1.73693">
        <ele>78</ele>
        <time>2020-12-25T09:38:58.000Z</time>
      </trkpt>
      <trkpt lat="47.03981" lon="-1.73684">
        <ele>78</ele>
        <time>2020-12-25T09:39:00.000Z</time>
      </trkpt>
      <trkpt lat="47.03991" lon="-1.73675">
        <ele>78</ele>
        <time>2020-12-25T09:39:02.000Z</time>
      </trkpt>
      <trkpt lat="47.04" lon="-1.73666">
        <ele>78</ele>
        <time>2020-12-25T09:39:04.000Z</time>
      </trkpt>
      <trkpt lat="47.04009" lon="-1.73656">
        <ele>79</ele>
        <time>2020-12-25T09:39:06.000Z</time>
      </trkpt>
      <trkpt lat="47.04018" lon="-1.73647">
        <ele>79</ele>
        <time>2020-12-25T09:39:08.000Z</time>
      </trkpt>
      <trkpt lat="47.04027" lon="-1.73638">
        <ele>79</ele>
        <time>2020-12-25T09:39:10.000Z</time>
      </trkpt>
      <trkpt lat="47.04036" lon="-1.7363">
        <ele>79</ele>
        <time>2020-12-25T09:39:12.000Z</time>
      </trkpt>
      <trkpt lat="47.04045" lon="-1.7362">
        <ele>79</ele>
        <time>2020-12-25T09:39:14.000Z</time>
      </trkpt>
      <trkpt lat="47.04054" lon="-1.73611">
        <ele>79</ele>
        <time>2020-12-25T09:39:16.000Z</time>
      </trkpt>
      <trkpt lat="47.04064" lon="-1.73602">
        <ele>80</ele>
        <time>2020-12-25T09:39:18.000Z</time>
      </trkpt>
      <trkpt lat="47.04073" lon="-1.73593">
        <ele>80</ele>
        <time>2020-12-25T09:39:20.000Z</time>
      </trkpt>
      <trkpt lat="47.04082" lon="-1.73583">
        <ele>80</ele>
        <time>2020-12-25T09:39:22.000Z</time>
      </trkpt>
      <trkpt lat="47.04091" lon="-1.73574">
        <ele>80</ele>
        <time>2020-12-25T09:39:24.000Z</time>
      </trkpt>
      <trkpt lat="47.04101" lon="-1.73564">
        <ele>80</ele>
        <time>2020-12-25T09:39:26.000Z</time>
      </trkpt>
      <trkpt lat="47.0411" lon="-1.73555">
        <ele>80</ele>
        <time>2020-12-25T09:39:28.000Z</time>
      </trkpt>
      <trkpt lat="47.0412" lon="-1.73547">
        <ele>80</ele>
        <time>2020-12-25T09:39:30.000Z</time>
      </trkpt>
      <trkpt lat="47.04129" lon="-1.73538">
        <ele>80</ele>
        <time>2020-12-25T09:39:32.000Z</time>
      </trkpt>
      <trkpt lat="47.04138" lon="-1.73528">
        <ele>80</ele>
        <time>2020-12-25T09:39:34.000Z</time>
      </trkpt>
      <trkpt lat="47.04147" lon="-1.73519">
        <ele>80</ele>
        <time>2020-12-25T09:39:36.000Z</time>
      </trkpt>
      <trkpt lat="47.04156" lon="-1.7351">
        <ele>81</ele>
        <time>2020-12-25T09:39:38.000Z</time>
      </trkpt>
      <trkpt lat="47.04165" lon="-1.73501">
        <ele>81</ele>
        <time>2020-12-25T09:39:40.000Z</time>
      </trkpt>
      <trkpt lat="47.04174" lon="-1.73492">
        <ele>82</ele>
        <time>2020-12-25T09:39:42.000Z</time>
      </trkpt>
      <trkpt lat="47.04183" lon="-1.73482">
        <ele>82</ele>
        <time>2020-12-25T09:39:44.000Z</time>
      </trkpt>
      <trkpt lat="47.04191" lon="-1.73474">
        <ele>82</ele>
        <time>2020-12-25T09:39:46.000Z</time>
      </trkpt>
      <trkpt lat="47.04201" lon="-1.73465">
        <ele>82</ele>
        <time>2020-12-25T09:39:48.000Z</time>
      </trkpt>
      <trkpt lat="47.0421" lon="-1.73456">
        <ele>82</ele>
        <time>2020-12-25T09:39:50.000Z</time>
      </trkpt>
      <trkpt lat="47.04219" lon="-1.73447">
        <ele>82</ele>
        <time>2020-12-25T09:39:52.000Z</time>
      </trkpt>
      <trkpt lat="47.04229" lon="-1.73438">
        <ele>83</ele>
        <time>2020-12-25T09:39:54.000Z</time>
      </trkpt>
      <trkpt lat="47.04238" lon="-1.7343">
        <ele>83</ele>
        <time>2020-12-25T09:39:56.000Z</time>
      </trkpt>
      <trkpt lat="47.04247" lon="-1.73421">
        <ele>84</ele>
        <time>2020-12-25T09:39:58.000Z</time>
      </trkpt>
      <trkpt lat="47.04256" lon="-1.73411">
        <ele>84</ele>
        <time>2020-12-25T09:40:00.000Z</time>
      </trkpt>
      <trkpt lat="47.04265" lon="-1.73402">
        <ele>84</ele>
        <time>2020-12-25T09:40:02.000Z</time>
      </trkpt>
      <trkpt lat="47.04274" lon="-1.73393">
        <ele>85</ele>
        <time>2020-12-25T09:40:04.000Z</time>
      </trkpt>
      <trkpt lat="47.04284" lon="-1.73383">
        <ele>85</ele>
        <time>2020-12-25T09:40:06.000Z</time>
      </trkpt>
      <trkpt lat="47.04293" lon="-1.73374">
        <ele>85</ele>
        <time>2020-12-25T09:40:08.000Z</time>
      </trkpt>
      <trkpt lat="47.04303" lon="-1.73365">
        <ele>85</ele>
        <time>2020-12-25T09:40:10.000Z</time>
      </trkpt>
      <trkpt lat="47.04312" lon="-1.73355">
        <ele>85</ele>
        <time>2020-12-25T09:40:12.000Z</time>
      </trkpt>
      <trkpt lat="47.04322" lon="-1.73346">
        <ele>85</ele>
        <time>2020-12-25T09:40:14.000Z</time>
      </trkpt>
      <trkpt lat="47.04331" lon="-1.73336">
        <ele>85</ele>
        <time>2020-12-25T09:40:16.000Z</time>
      </trkpt>
      <trkpt lat="47.0434" lon="-1.73327">
        <ele>85</ele>
        <time>2020-12-25T09:40:18.000Z</time>
      </trkpt>
      <trkpt lat="47.04349" lon="-1.73318">
        <ele>84</ele>
        <time>2020-12-25T09:40:20.000Z</time>
      </trkpt>
      <trkpt lat="47.04359" lon="-1.73308">
        <ele>84</ele>
        <time>2020-12-25T09:40:22.000Z</time>
      </trkpt>
      <trkpt lat="47.04368" lon="-1.73299">
        <ele>84</ele>
        <time>2020-12-25T09:40:24.000Z</time>
      </trkpt>
      <trkpt lat="47.04378" lon="-1.73289">
        <ele>84</ele>
        <time>2020-12-25T09:40:26.000Z</time>
      </trkpt>
      <trkpt lat="47.04387" lon="-1.73278">
        <ele>84</ele>
        <time>2020-12-25T09:40:28.000Z</time>
      </trkpt>
      <trkpt lat="47.04396" lon="-1.73267">
        <ele>84</ele>
        <time>2020-12-25T09:40:30.000Z</time>
      </trkpt>
      <trkpt lat="47.04405" lon="-1.73256">
        <ele>84</ele>
        <time>2020-12-25T09:40:32.000Z</time>
      </trkpt>
      <trkpt lat="47.04413" lon="-1.73244">
        <ele>84</ele>
        <time>2020-12-25T09:40:34.000Z</time>
      </trkpt>
      <trkpt lat="47.04421" lon="-1.73233">
        <ele>84</ele>
        <time>2020-12-25T09:40:36.000Z</time>
      </trkpt>
      <trkpt lat="47.0443" lon="-1.73221">
        <ele>84</ele>
        <time>2020-12-25T09:40:38.000Z</time>
      </trkpt>
      <trkpt lat="47.04438" lon="-1.73209">
        <ele>85</ele>
        <time>2020-12-25T09:40:40.000Z</time>
      </trkpt>
      <trkpt lat="47.04447" lon="-1.73197">
        <ele>84</ele>
        <time>2020-12-25T09:40:42.000Z</time>
      </trkpt>
      <trkpt lat="47.04456" lon="-1.73185">
        <ele>85</ele>
        <time>2020-12-25T09:40:44.000Z</time>
      </trkpt>
      <trkpt lat="47.04464" lon="-1.73174">
        <ele>85</ele>
        <time>2020-12-25T09:40:46.000Z</time>
      </trkpt>
      <trkpt lat="47.04473" lon="-1.73162">
        <ele>85</ele>
        <time>2020-12-25T09:40:48.000Z</time>
      </trkpt>
      <trkpt lat="47.04482" lon="-1.7315">
        <ele>85</ele>
        <time>2020-12-25T09:40:50.000Z</time>
      </trkpt>
      <trkpt lat="47.0449" lon="-1.73138">
        <ele>85</ele>
        <time>2020-12-25T09:40:52.000Z</time>
      </trkpt>
      <trkpt lat="47.04499" lon="-1.73127">
        <ele>85</ele>
        <time>2020-12-25T09:40:54.000Z</time>
      </trkpt>
      <trkpt lat="47.04507" lon="-1.73115">
        <ele>85</ele>
        <time>2020-12-25T09:40:56.000Z</time>
      </trkpt>
      <trkpt lat="47.04515" lon="-1.73103">
        <ele>85</ele>
        <time>2020-12-25T09:40:58.000Z</time>
      </trkpt>
      <trkpt lat="47.04524" lon="-1.73091">
        <ele>85</ele>
        <time>2020-12-25T09:41:00.000Z</time>
      </trkpt>
      <trkpt lat="47.04532" lon="-1.7308">
        <ele>86</ele>
        <time>2020-12-25T09:41:02.000Z</time>
      </trkpt>
      <trkpt lat="47.04541" lon="-1.73068">
        <ele>86</ele>
        <time>2020-12-25T09:41:04.000Z</time>
      </trkpt>
      <trkpt lat="47.04549" lon="-1.73056">
        <ele>86</ele>
        <time>2020-12-25T09:41:06.000Z</time>
      </trkpt>
      <trkpt lat="47.04558" lon="-1.73044">
        <ele>86</ele>
        <time>2020-12-25T09:41:08.000Z</time>
      </trkpt>
      <trkpt lat="47.04566" lon="-1.73033">
        <ele>86</ele>
        <time>2020-12-25T09:41:10.000Z</time>
      </trkpt>
      <trkpt lat="47.04575" lon="-1.73021">
        <ele>86</ele>
        <time>2020-12-25T09:41:12.000Z</time>
      </trkpt>
      <trkpt lat="47.04583" lon="-1.73009">
        <ele>86</ele>
        <time>2020-12-25T09:41:14.000Z</time>
      </trkpt>
      <trkpt lat="47.04592" lon="-1.72998">
        <ele>86</ele>
        <time>2020-12-25T09:41:16.000Z</time>
      </trkpt>
      <trkpt lat="47.046" lon="-1.72987">
        <ele>86</ele>
        <time>2020-12-25T09:41:18.000Z</time>
      </trkpt>
      <trkpt lat="47.04608" lon="-1.72976">
        <ele>86</ele>
        <time>2020-12-25T09:41:20.000Z</time>
      </trkpt>
      <trkpt lat="47.04617" lon="-1.72964">
        <ele>86</ele>
        <time>2020-12-25T09:41:22.000Z</time>
      </trkpt>
      <trkpt lat="47.04625" lon="-1.72952">
        <ele>86</ele>
        <time>2020-12-25T09:41:24.000Z</time>
      </trkpt>
      <trkpt lat="47.04633" lon="-1.72939">
        <ele>86</ele>
        <time>2020-12-25T09:41:26.000Z</time>
      </trkpt>
      <trkpt lat="47.04642" lon="-1.72927">
        <ele>85</ele>
        <time>2020-12-25T09:41:28.000Z</time>
      </trkpt>
      <trkpt lat="47.04651" lon="-1.72914">
        <ele>85</ele>
        <time>2020-12-25T09:41:30.000Z</time>
      </trkpt>
      <trkpt lat="47.04661" lon="-1.72902">
        <ele>85</ele>
        <time>2020-12-25T09:41:32.000Z</time>
      </trkpt>
      <trkpt lat="47.0467" lon="-1.7289">
        <ele>84</ele>
        <time>2020-12-25T09:41:34.000Z</time>
      </trkpt>
      <trkpt lat="47.04681" lon="-1.72879">
        <ele>84</ele>
        <time>2020-12-25T09:41:36.000Z</time>
      </trkpt>
      <trkpt lat="47.04693" lon="-1.72868">
        <ele>83</ele>
        <time>2020-12-25T09:41:38.000Z</time>
      </trkpt>
      <trkpt lat="47.04705" lon="-1.72858">
        <ele>83</ele>
        <time>2020-12-25T09:41:40.000Z</time>
      </trkpt>
      <trkpt lat="47.04717" lon="-1.72848">
        <ele>83</ele>
        <time>2020-12-25T09:41:42.000Z</time>
      </trkpt>
      <trkpt lat="47.04729" lon="-1.72839">
        <ele>83</ele>
        <time>2020-12-25T09:41:44.000Z</time>
      </trkpt>
      <trkpt lat="47.04742" lon="-1.72829">
        <ele>82</ele>
        <time>2020-12-25T09:41:46.000Z</time>
      </trkpt>
      <trkpt lat="47.04754" lon="-1.7282">
        <ele>81</ele>
        <time>2020-12-25T09:41:48.000Z</time>
      </trkpt>
      <trkpt lat="47.04767" lon="-1.72813">
        <ele>81</ele>
        <time>2020-12-25T09:41:50.000Z</time>
      </trkpt>
      <trkpt lat="47.0478" lon="-1.72807">
        <ele>81</ele>
        <time>2020-12-25T09:41:52.000Z</time>
      </trkpt>
      <trkpt lat="47.04793" lon="-1.72803">
        <ele>80</ele>
        <time>2020-12-25T09:41:54.000Z</time>
      </trkpt>
      <trkpt lat="47.04804" lon="-1.72801">
        <ele>80</ele>
        <time>2020-12-25T09:41:56.000Z</time>
      </trkpt>
      <trkpt lat="47.04815" lon="-1.72801">
        <ele>80</ele>
        <time>2020-12-25T09:41:58.000Z</time>
      </trkpt>
      <trkpt lat="47.04827" lon="-1.72802">
        <ele>80</ele>
        <time>2020-12-25T09:42:00.000Z</time>
      </trkpt>
      <trkpt lat="47.0484" lon="-1.72805">
        <ele>79</ele>
        <time>2020-12-25T09:42:02.000Z</time>
      </trkpt>
      <trkpt lat="47.04854" lon="-1.72808">
        <ele>79</ele>
        <time>2020-12-25T09:42:04.000Z</time>
      </trkpt>
      <trkpt lat="47.04868" lon="-1.72812">
        <ele>79</ele>
        <time>2020-12-25T09:42:06.000Z</time>
      </trkpt>
      <trkpt lat="47.04881" lon="-1.72814">
        <ele>78</ele>
        <time>2020-12-25T09:42:08.000Z</time>
      </trkpt>
      <trkpt lat="47.04895" lon="-1.72816">
        <ele>78</ele>
        <time>2020-12-25T09:42:10.000Z</time>
      </trkpt>
      <trkpt lat="47.04909" lon="-1.7282">
        <ele>78</ele>
        <time>2020-12-25T09:42:12.000Z</time>
      </trkpt>
      <trkpt lat="47.04923" lon="-1.72823">
        <ele>78</ele>
        <time>2020-12-25T09:42:14.000Z</time>
      </trkpt>
      <trkpt lat="47.04937" lon="-1.72826">
        <ele>78</ele>
        <time>2020-12-25T09:42:16.000Z</time>
      </trkpt>
      <trkpt lat="47.0495" lon="-1.72828">
        <ele>77</ele>
        <time>2020-12-25T09:42:18.000Z</time>
      </trkpt>
      <trkpt lat="47.04964" lon="-1.72832">
        <ele>77</ele>
        <time>2020-12-25T09:42:20.000Z</time>
      </trkpt>
      <trkpt lat="47.04978" lon="-1.72835">
        <ele>77</ele>
        <time>2020-12-25T09:42:22.000Z</time>
      </trkpt>
      <trkpt lat="47.04992" lon="-1.72837">
        <ele>76</ele>
        <time>2020-12-25T09:42:24.000Z</time>
      </trkpt>
      <trkpt lat="47.05005" lon="-1.72839">
        <ele>76</ele>
        <time>2020-12-25T09:42:26.000Z</time>
      </trkpt>
      <trkpt lat="47.05019" lon="-1.72838">
        <ele>76</ele>
        <time>2020-12-25T09:42:28.000Z</time>
      </trkpt>
      <trkpt lat="47.05033" lon="-1.72836">
        <ele>75</ele>
        <time>2020-12-25T09:42:30.000Z</time>
      </trkpt>
      <trkpt lat="47.05047" lon="-1.72832">
        <ele>76</ele>
        <time>2020-12-25T09:42:32.000Z</time>
      </trkpt>
      <trkpt lat="47.0506" lon="-1.72826">
        <ele>75</ele>
        <time>2020-12-25T09:42:34.000Z</time>
      </trkpt>
      <trkpt lat="47.05073" lon="-1.7282">
        <ele>75</ele>
        <time>2020-12-25T09:42:36.000Z</time>
      </trkpt>
      <trkpt lat="47.05085" lon="-1.72813">
        <ele>75</ele>
        <time>2020-12-25T09:42:38.000Z</time>
      </trkpt>
      <trkpt lat="47.05099" lon="-1.72807">
        <ele>75</ele>
        <time>2020-12-25T09:42:40.000Z</time>
      </trkpt>
      <trkpt lat="47.05111" lon="-1.728">
        <ele>75</ele>
        <time>2020-12-25T09:42:42.000Z</time>
      </trkpt>
      <trkpt lat="47.05124" lon="-1.72793">
        <ele>75</ele>
        <time>2020-12-25T09:42:44.000Z</time>
      </trkpt>
      <trkpt lat="47.05138" lon="-1.72786">
        <ele>75</ele>
        <time>2020-12-25T09:42:46.000Z</time>
      </trkpt>
      <trkpt lat="47.0515" lon="-1.72778">
        <ele>74</ele>
        <time>2020-12-25T09:42:48.000Z</time>
      </trkpt>
      <trkpt lat="47.05164" lon="-1.72771">
        <ele>74</ele>
        <time>2020-12-25T09:42:50.000Z</time>
      </trkpt>
      <trkpt lat="47.05176" lon="-1.72764">
        <ele>74</ele>
        <time>2020-12-25T09:42:52.000Z</time>
      </trkpt>
      <trkpt lat="47.05189" lon="-1.72758">
        <ele>74</ele>
        <time>2020-12-25T09:42:54.000Z</time>
      </trkpt>
      <trkpt lat="47.05202" lon="-1.72751">
        <ele>74</ele>
        <time>2020-12-25T09:42:56.000Z</time>
      </trkpt>
      <trkpt lat="47.05214" lon="-1.72744">
        <ele>74</ele>
        <time>2020-12-25T09:42:58.000Z</time>
      </trkpt>
      <trkpt lat="47.05226" lon="-1.72737">
        <ele>73</ele>
        <time>2020-12-25T09:43:00.000Z</time>
      </trkpt>
      <trkpt lat="47.05239" lon="-1.7273">
        <ele>73</ele>
        <time>2020-12-25T09:43:02.000Z</time>
      </trkpt>
      <trkpt lat="47.05252" lon="-1.72724">
        <ele>73</ele>
        <time>2020-12-25T09:43:04.000Z</time>
      </trkpt>
      <trkpt lat="47.05264" lon="-1.72716">
        <ele>74</ele>
        <time>2020-12-25T09:43:06.000Z</time>
      </trkpt>
      <trkpt lat="47.05277" lon="-1.72708">
        <ele>74</ele>
        <time>2020-12-25T09:43:08.000Z</time>
      </trkpt>
      <trkpt lat="47.05295" lon="-1.72694">
        <ele>73</ele>
        <time>2020-12-25T09:43:11.000Z</time>
      </trkpt>
      <trkpt lat="47.05306" lon="-1.72685">
        <ele>73</ele>
        <time>2020-12-25T09:43:13.000Z</time>
      </trkpt>
      <trkpt lat="47.05317" lon="-1.72673">
        <ele>73</ele>
        <time>2020-12-25T09:43:15.000Z</time>
      </trkpt>
      <trkpt lat="47.05324" lon="-1.72657">
        <ele>73</ele>
        <time>2020-12-25T09:43:17.000Z</time>
      </trkpt>
      <trkpt lat="47.05333" lon="-1.72644">
        <ele>73</ele>
        <time>2020-12-25T09:43:19.000Z</time>
      </trkpt>
      <trkpt lat="47.05345" lon="-1.72645">
        <ele>72</ele>
        <time>2020-12-25T09:43:21.000Z</time>
      </trkpt>
      <trkpt lat="47.05357" lon="-1.72646">
        <ele>71</ele>
        <time>2020-12-25T09:43:23.000Z</time>
      </trkpt>
      <trkpt lat="47.05369" lon="-1.72642">
        <ele>71</ele>
        <time>2020-12-25T09:43:25.000Z</time>
      </trkpt>
      <trkpt lat="47.0538" lon="-1.7264">
        <ele>72</ele>
        <time>2020-12-25T09:43:27.000Z</time>
      </trkpt>
      <trkpt lat="47.05393" lon="-1.72637">
        <ele>72</ele>
        <time>2020-12-25T09:43:30.000Z</time>
      </trkpt>
      <trkpt lat="47.05403" lon="-1.72637">
        <ele>72</ele>
        <time>2020-12-25T09:43:32.000Z</time>
      </trkpt>
      <trkpt lat="47.05414" lon="-1.72638">
        <ele>71</ele>
        <time>2020-12-25T09:43:34.000Z</time>
      </trkpt>
      <trkpt lat="47.05425" lon="-1.72639">
        <ele>72</ele>
        <time>2020-12-25T09:43:36.000Z</time>
      </trkpt>
      <trkpt lat="47.05438" lon="-1.7264">
        <ele>72</ele>
        <time>2020-12-25T09:43:38.000Z</time>
      </trkpt>
      <trkpt lat="47.05449" lon="-1.7264">
        <ele>72</ele>
        <time>2020-12-25T09:43:40.000Z</time>
      </trkpt>
      <trkpt lat="47.05461" lon="-1.72641">
        <ele>71</ele>
        <time>2020-12-25T09:43:42.000Z</time>
      </trkpt>
      <trkpt lat="47.05474" lon="-1.72641">
        <ele>71</ele>
        <time>2020-12-25T09:43:44.000Z</time>
      </trkpt>
      <trkpt lat="47.05486" lon="-1.72644">
        <ele>71</ele>
        <time>2020-12-25T09:43:46.000Z</time>
      </trkpt>
      <trkpt lat="47.05498" lon="-1.72645">
        <ele>70</ele>
        <time>2020-12-25T09:43:48.000Z</time>
      </trkpt>
      <trkpt lat="47.05517" lon="-1.72647">
        <ele>70</ele>
        <time>2020-12-25T09:43:51.000Z</time>
      </trkpt>
      <trkpt lat="47.05528" lon="-1.72648">
        <ele>69</ele>
        <time>2020-12-25T09:43:53.000Z</time>
      </trkpt>
      <trkpt lat="47.0554" lon="-1.7265">
        <ele>70</ele>
        <time>2020-12-25T09:43:55.000Z</time>
      </trkpt>
      <trkpt lat="47.05558" lon="-1.72651">
        <ele>70</ele>
        <time>2020-12-25T09:43:58.000Z</time>
      </trkpt>
      <trkpt lat="47.0557" lon="-1.72649">
        <ele>70</ele>
        <time>2020-12-25T09:44:00.000Z</time>
      </trkpt>
      <trkpt lat="47.05577" lon="-1.72636">
        <ele>69</ele>
        <time>2020-12-25T09:44:02.000Z</time>
      </trkpt>
      <trkpt lat="47.05572" lon="-1.72619">
        <ele>70</ele>
        <time>2020-12-25T09:44:04.000Z</time>
      </trkpt>
      <trkpt lat="47.05567" lon="-1.72602">
        <ele>69</ele>
        <time>2020-12-25T09:44:06.000Z</time>
      </trkpt>
      <trkpt lat="47.05563" lon="-1.72584">
        <ele>69</ele>
        <time>2020-12-25T09:44:08.000Z</time>
      </trkpt>
      <trkpt lat="47.0556" lon="-1.72565">
        <ele>69</ele>
        <time>2020-12-25T09:44:10.000Z</time>
      </trkpt>
      <trkpt lat="47.05557" lon="-1.72547">
        <ele>69</ele>
        <time>2020-12-25T09:44:12.000Z</time>
      </trkpt>
      <trkpt lat="47.05553" lon="-1.72531">
        <ele>69</ele>
        <time>2020-12-25T09:44:14.000Z</time>
      </trkpt>
      <trkpt lat="47.05551" lon="-1.72513">
        <ele>70</ele>
        <time>2020-12-25T09:44:16.000Z</time>
      </trkpt>
      <trkpt lat="47.05547" lon="-1.72496">
        <ele>69</ele>
        <time>2020-12-25T09:44:18.000Z</time>
      </trkpt>
      <trkpt lat="47.05543" lon="-1.72479">
        <ele>70</ele>
        <time>2020-12-25T09:44:20.000Z</time>
      </trkpt>
      <trkpt lat="47.05538" lon="-1.72463">
        <ele>70</ele>
        <time>2020-12-25T09:44:22.000Z</time>
      </trkpt>
      <trkpt lat="47.05534" lon="-1.72447">
        <ele>70</ele>
        <time>2020-12-25T09:44:24.000Z</time>
      </trkpt>
      <trkpt lat="47.05529" lon="-1.72432">
        <ele>69</ele>
        <time>2020-12-25T09:44:26.000Z</time>
      </trkpt>
      <trkpt lat="47.05525" lon="-1.72417">
        <ele>69</ele>
        <time>2020-12-25T09:44:28.000Z</time>
      </trkpt>
      <trkpt lat="47.05521" lon="-1.724">
        <ele>69</ele>
        <time>2020-12-25T09:44:30.000Z</time>
      </trkpt>
      <trkpt lat="47.05516" lon="-1.72384">
        <ele>69</ele>
        <time>2020-12-25T09:44:32.000Z</time>
      </trkpt>
      <trkpt lat="47.05512" lon="-1.72368">
        <ele>68</ele>
        <time>2020-12-25T09:44:34.000Z</time>
      </trkpt>
      <trkpt lat="47.05507" lon="-1.72351">
        <ele>68</ele>
        <time>2020-12-25T09:44:36.000Z</time>
      </trkpt>
      <trkpt lat="47.05503" lon="-1.72334">
        <ele>68</ele>
        <time>2020-12-25T09:44:38.000Z</time>
      </trkpt>
      <trkpt lat="47.05498" lon="-1.72318">
        <ele>68</ele>
        <time>2020-12-25T09:44:40.000Z</time>
      </trkpt>
      <trkpt lat="47.05494" lon="-1.72302">
        <ele>67</ele>
        <time>2020-12-25T09:44:42.000Z</time>
      </trkpt>
      <trkpt lat="47.0549" lon="-1.72284">
        <ele>67</ele>
        <time>2020-12-25T09:44:44.000Z</time>
      </trkpt>
      <trkpt lat="47.05486" lon="-1.72266">
        <ele>68</ele>
        <time>2020-12-25T09:44:46.000Z</time>
      </trkpt>
      <trkpt lat="47.05482" lon="-1.72247">
        <ele>68</ele>
        <time>2020-12-25T09:44:48.000Z</time>
      </trkpt>
      <trkpt lat="47.05477" lon="-1.72228">
        <ele>67</ele>
        <time>2020-12-25T09:44:50.000Z</time>
      </trkpt>
      <trkpt lat="47.05472" lon="-1.72208">
        <ele>67</ele>
        <time>2020-12-25T09:44:52.000Z</time>
      </trkpt>
      <trkpt lat="47.05467" lon="-1.72187">
        <ele>66</ele>
        <time>2020-12-25T09:44:54.000Z</time>
      </trkpt>
      <trkpt lat="47.05462" lon="-1.72165">
        <ele>66</ele>
        <time>2020-12-25T09:44:56.000Z</time>
      </trkpt>
      <trkpt lat="47.05457" lon="-1.72142">
        <ele>65</ele>
        <time>2020-12-25T09:44:58.000Z</time>
      </trkpt>
      <trkpt lat="47.05452" lon="-1.72119">
        <ele>64</ele>
        <time>2020-12-25T09:45:00.000Z</time>
      </trkpt>
      <trkpt lat="47.05447" lon="-1.72096">
        <ele>63</ele>
        <time>2020-12-25T09:45:02.000Z</time>
      </trkpt>
      <trkpt lat="47.05442" lon="-1.72074">
        <ele>62</ele>
        <time>2020-12-25T09:45:04.000Z</time>
      </trkpt>
      <trkpt lat="47.05436" lon="-1.7205">
        <ele>62</ele>
        <time>2020-12-25T09:45:06.000Z</time>
      </trkpt>
      <trkpt lat="47.05431" lon="-1.72026">
        <ele>61</ele>
        <time>2020-12-25T09:45:08.000Z</time>
      </trkpt>
      <trkpt lat="47.05426" lon="-1.72003">
        <ele>61</ele>
        <time>2020-12-25T09:45:10.000Z</time>
      </trkpt>
      <trkpt lat="47.05421" lon="-1.71981">
        <ele>61</ele>
        <time>2020-12-25T09:45:12.000Z</time>
      </trkpt>
      <trkpt lat="47.05414" lon="-1.7195">
        <ele>62</ele>
        <time>2020-12-25T09:45:15.000Z</time>
      </trkpt>
      <trkpt lat="47.0541" lon="-1.71932">
        <ele>63</ele>
        <time>2020-12-25T09:45:17.000Z</time>
      </trkpt>
      <trkpt lat="47.05405" lon="-1.71913">
        <ele>63</ele>
        <time>2020-12-25T09:45:19.000Z</time>
      </trkpt>
      <trkpt lat="47.05401" lon="-1.71892">
        <ele>63</ele>
        <time>2020-12-25T09:45:21.000Z</time>
      </trkpt>
      <trkpt lat="47.05396" lon="-1.71871">
        <ele>62</ele>
        <time>2020-12-25T09:45:23.000Z</time>
      </trkpt>
      <trkpt lat="47.05391" lon="-1.71848">
        <ele>61</ele>
        <time>2020-12-25T09:45:25.000Z</time>
      </trkpt>
      <trkpt lat="47.05386" lon="-1.71825">
        <ele>61</ele>
        <time>2020-12-25T09:45:27.000Z</time>
      </trkpt>
      <trkpt lat="47.05383" lon="-1.71801">
        <ele>61</ele>
        <time>2020-12-25T09:45:29.000Z</time>
      </trkpt>
      <trkpt lat="47.05381" lon="-1.71778">
        <ele>61</ele>
        <time>2020-12-25T09:45:31.000Z</time>
      </trkpt>
      <trkpt lat="47.05381" lon="-1.71756">
        <ele>61</ele>
        <time>2020-12-25T09:45:33.000Z</time>
      </trkpt>
      <trkpt lat="47.05383" lon="-1.71722">
        <ele>62</ele>
        <time>2020-12-25T09:45:36.000Z</time>
      </trkpt>
      <trkpt lat="47.05385" lon="-1.71699">
        <ele>61</ele>
        <time>2020-12-25T09:45:38.000Z</time>
      </trkpt>
      <trkpt lat="47.05387" lon="-1.71676">
        <ele>61</ele>
        <time>2020-12-25T09:45:40.000Z</time>
      </trkpt>
      <trkpt lat="47.05389" lon="-1.71654">
        <ele>60</ele>
        <time>2020-12-25T09:45:42.000Z</time>
      </trkpt>
      <trkpt lat="47.05393" lon="-1.7162">
        <ele>59</ele>
        <time>2020-12-25T09:45:45.000Z</time>
      </trkpt>
      <trkpt lat="47.05395" lon="-1.71598">
        <ele>59</ele>
        <time>2020-12-25T09:45:47.000Z</time>
      </trkpt>
      <trkpt lat="47.05396" lon="-1.71576">
        <ele>59</ele>
        <time>2020-12-25T09:45:49.000Z</time>
      </trkpt>
      <trkpt lat="47.05398" lon="-1.71554">
        <ele>59</ele>
        <time>2020-12-25T09:45:51.000Z</time>
      </trkpt>
      <trkpt lat="47.054" lon="-1.71532">
        <ele>59</ele>
        <time>2020-12-25T09:45:53.000Z</time>
      </trkpt>
      <trkpt lat="47.05401" lon="-1.71511">
        <ele>59</ele>
        <time>2020-12-25T09:45:55.000Z</time>
      </trkpt>
      <trkpt lat="47.05403" lon="-1.7149">
        <ele>59</ele>
        <time>2020-12-25T09:45:57.000Z</time>
      </trkpt>
      <trkpt lat="47.05405" lon="-1.7147">
        <ele>60</ele>
        <time>2020-12-25T09:45:59.000Z</time>
      </trkpt>
      <trkpt lat="47.05407" lon="-1.7145">
        <ele>60</ele>
        <time>2020-12-25T09:46:01.000Z</time>
      </trkpt>
      <trkpt lat="47.05407" lon="-1.71429">
        <ele>60</ele>
        <time>2020-12-25T09:46:03.000Z</time>
      </trkpt>
      <trkpt lat="47.05407" lon="-1.71409">
        <ele>60</ele>
        <time>2020-12-25T09:46:05.000Z</time>
      </trkpt>
      <trkpt lat="47.05406" lon="-1.71389">
        <ele>60</ele>
        <time>2020-12-25T09:46:07.000Z</time>
      </trkpt>
      <trkpt lat="47.05403" lon="-1.71368">
        <ele>60</ele>
        <time>2020-12-25T09:46:09.000Z</time>
      </trkpt>
      <trkpt lat="47.05401" lon="-1.71348">
        <ele>60</ele>
        <time>2020-12-25T09:46:11.000Z</time>
      </trkpt>
      <trkpt lat="47.05398" lon="-1.71329">
        <ele>60</ele>
        <time>2020-12-25T09:46:13.000Z</time>
      </trkpt>
      <trkpt lat="47.05395" lon="-1.71309">
        <ele>61</ele>
        <time>2020-12-25T09:46:15.000Z</time>
      </trkpt>
      <trkpt lat="47.05392" lon="-1.71289">
        <ele>61</ele>
        <time>2020-12-25T09:46:17.000Z</time>
      </trkpt>
      <trkpt lat="47.0539" lon="-1.71269">
        <ele>60</ele>
        <time>2020-12-25T09:46:19.000Z</time>
      </trkpt>
      <trkpt lat="47.05388" lon="-1.71248">
        <ele>60</ele>
        <time>2020-12-25T09:46:21.000Z</time>
      </trkpt>
      <trkpt lat="47.05388" lon="-1.71227">
        <ele>60</ele>
        <time>2020-12-25T09:46:23.000Z</time>
      </trkpt>
      <trkpt lat="47.05388" lon="-1.71207">
        <ele>60</ele>
        <time>2020-12-25T09:46:25.000Z</time>
      </trkpt>
      <trkpt lat="47.0539" lon="-1.71185">
        <ele>60</ele>
        <time>2020-12-25T09:46:27.000Z</time>
      </trkpt>
      <trkpt lat="47.05392" lon="-1.71164">
        <ele>60</ele>
        <time>2020-12-25T09:46:29.000Z</time>
      </trkpt>
      <trkpt lat="47.05394" lon="-1.71144">
        <ele>60</ele>
        <time>2020-12-25T09:46:31.000Z</time>
      </trkpt>
      <trkpt lat="47.05397" lon="-1.71124">
        <ele>60</ele>
        <time>2020-12-25T09:46:33.000Z</time>
      </trkpt>
      <trkpt lat="47.05399" lon="-1.71103">
        <ele>60</ele>
        <time>2020-12-25T09:46:35.000Z</time>
      </trkpt>
      <trkpt lat="47.054" lon="-1.71083">
        <ele>60</ele>
        <time>2020-12-25T09:46:37.000Z</time>
      </trkpt>
      <trkpt lat="47.05402" lon="-1.71062">
        <ele>59</ele>
        <time>2020-12-25T09:46:39.000Z</time>
      </trkpt>
      <trkpt lat="47.05404" lon="-1.71042">
        <ele>59</ele>
        <time>2020-12-25T09:46:41.000Z</time>
      </trkpt>
      <trkpt lat="47.05406" lon="-1.71021">
        <ele>59</ele>
        <time>2020-12-25T09:46:43.000Z</time>
      </trkpt>
      <trkpt lat="47.05408" lon="-1.71001">
        <ele>59</ele>
        <time>2020-12-25T09:46:45.000Z</time>
      </trkpt>
      <trkpt lat="47.0541" lon="-1.7098">
        <ele>59</ele>
        <time>2020-12-25T09:46:47.000Z</time>
      </trkpt>
      <trkpt lat="47.05412" lon="-1.70959">
        <ele>58</ele>
        <time>2020-12-25T09:46:49.000Z</time>
      </trkpt>
      <trkpt lat="47.05414" lon="-1.70937">
        <ele>58</ele>
        <time>2020-12-25T09:46:51.000Z</time>
      </trkpt>
      <trkpt lat="47.05415" lon="-1.70915">
        <ele>57</ele>
        <time>2020-12-25T09:46:53.000Z</time>
      </trkpt>
      <trkpt lat="47.05416" lon="-1.70892">
        <ele>57</ele>
        <time>2020-12-25T09:46:55.000Z</time>
      </trkpt>
      <trkpt lat="47.05415" lon="-1.7087">
        <ele>57</ele>
        <time>2020-12-25T09:46:57.000Z</time>
      </trkpt>
      <trkpt lat="47.05413" lon="-1.70848">
        <ele>56</ele>
        <time>2020-12-25T09:46:59.000Z</time>
      </trkpt>
      <trkpt lat="47.0541" lon="-1.70827">
        <ele>56</ele>
        <time>2020-12-25T09:47:01.000Z</time>
      </trkpt>
      <trkpt lat="47.05406" lon="-1.70807">
        <ele>57</ele>
        <time>2020-12-25T09:47:03.000Z</time>
      </trkpt>
      <trkpt lat="47.05403" lon="-1.70788">
        <ele>57</ele>
        <time>2020-12-25T09:47:05.000Z</time>
      </trkpt>
      <trkpt lat="47.05399" lon="-1.70767">
        <ele>57</ele>
        <time>2020-12-25T09:47:07.000Z</time>
      </trkpt>
      <trkpt lat="47.05396" lon="-1.70747">
        <ele>58</ele>
        <time>2020-12-25T09:47:09.000Z</time>
      </trkpt>
      <trkpt lat="47.05392" lon="-1.70727">
        <ele>58</ele>
        <time>2020-12-25T09:47:11.000Z</time>
      </trkpt>
      <trkpt lat="47.05389" lon="-1.70706">
        <ele>58</ele>
        <time>2020-12-25T09:47:13.000Z</time>
      </trkpt>
      <trkpt lat="47.05386" lon="-1.70686">
        <ele>58</ele>
        <time>2020-12-25T09:47:15.000Z</time>
      </trkpt>
      <trkpt lat="47.05381" lon="-1.70654">
        <ele>59</ele>
        <time>2020-12-25T09:47:18.000Z</time>
      </trkpt>
      <trkpt lat="47.05378" lon="-1.70633">
        <ele>59</ele>
        <time>2020-12-25T09:47:20.000Z</time>
      </trkpt>
      <trkpt lat="47.05375" lon="-1.70613">
        <ele>58</ele>
        <time>2020-12-25T09:47:22.000Z</time>
      </trkpt>
      <trkpt lat="47.05372" lon="-1.70593">
        <ele>59</ele>
        <time>2020-12-25T09:47:24.000Z</time>
      </trkpt>
      <trkpt lat="47.05368" lon="-1.70573">
        <ele>59</ele>
        <time>2020-12-25T09:47:26.000Z</time>
      </trkpt>
      <trkpt lat="47.05366" lon="-1.70552">
        <ele>58</ele>
        <time>2020-12-25T09:47:28.000Z</time>
      </trkpt>
      <trkpt lat="47.05362" lon="-1.70532">
        <ele>58</ele>
        <time>2020-12-25T09:47:30.000Z</time>
      </trkpt>
      <trkpt lat="47.05359" lon="-1.70511">
        <ele>58</ele>
        <time>2020-12-25T09:47:32.000Z</time>
      </trkpt>
      <trkpt lat="47.05355" lon="-1.70491">
        <ele>58</ele>
        <time>2020-12-25T09:47:34.000Z</time>
      </trkpt>
      <trkpt lat="47.05352" lon="-1.70472">
        <ele>57</ele>
        <time>2020-12-25T09:47:36.000Z</time>
      </trkpt>
      <trkpt lat="47.05348" lon="-1.70452">
        <ele>57</ele>
        <time>2020-12-25T09:47:38.000Z</time>
      </trkpt>
      <trkpt lat="47.05343" lon="-1.70432">
        <ele>57</ele>
        <time>2020-12-25T09:47:40.000Z</time>
      </trkpt>
      <trkpt lat="47.05339" lon="-1.70413">
        <ele>57</ele>
        <time>2020-12-25T09:47:42.000Z</time>
      </trkpt>
      <trkpt lat="47.05333" lon="-1.70393">
        <ele>57</ele>
        <time>2020-12-25T09:47:44.000Z</time>
      </trkpt>
      <trkpt lat="47.05327" lon="-1.70374">
        <ele>57</ele>
        <time>2020-12-25T09:47:46.000Z</time>
      </trkpt>
      <trkpt lat="47.05321" lon="-1.70356">
        <ele>57</ele>
        <time>2020-12-25T09:47:48.000Z</time>
      </trkpt>
      <trkpt lat="47.05314" lon="-1.70337">
        <ele>56</ele>
        <time>2020-12-25T09:47:50.000Z</time>
      </trkpt>
      <trkpt lat="47.05307" lon="-1.70318">
        <ele>56</ele>
        <time>2020-12-25T09:47:52.000Z</time>
      </trkpt>
      <trkpt lat="47.05299" lon="-1.70298">
        <ele>56</ele>
        <time>2020-12-25T09:47:54.000Z</time>
      </trkpt>
      <trkpt lat="47.05292" lon="-1.70279">
        <ele>56</ele>
        <time>2020-12-25T09:47:56.000Z</time>
      </trkpt>
      <trkpt lat="47.05285" lon="-1.70259">
        <ele>55</ele>
        <time>2020-12-25T09:47:58.000Z</time>
      </trkpt>
      <trkpt lat="47.05278" lon="-1.7024">
        <ele>55</ele>
        <time>2020-12-25T09:48:00.000Z</time>
      </trkpt>
      <trkpt lat="47.0527" lon="-1.7022">
        <ele>54</ele>
        <time>2020-12-25T09:48:02.000Z</time>
      </trkpt>
      <trkpt lat="47.05263" lon="-1.702">
        <ele>54</ele>
        <time>2020-12-25T09:48:04.000Z</time>
      </trkpt>
      <trkpt lat="47.05255" lon="-1.7018">
        <ele>54</ele>
        <time>2020-12-25T09:48:06.000Z</time>
      </trkpt>
      <trkpt lat="47.05248" lon="-1.7016">
        <ele>54</ele>
        <time>2020-12-25T09:48:08.000Z</time>
      </trkpt>
      <trkpt lat="47.0524" lon="-1.7014">
        <ele>53</ele>
        <time>2020-12-25T09:48:10.000Z</time>
      </trkpt>
      <trkpt lat="47.05232" lon="-1.70119">
        <ele>52</ele>
        <time>2020-12-25T09:48:12.000Z</time>
      </trkpt>
      <trkpt lat="47.05225" lon="-1.701">
        <ele>51</ele>
        <time>2020-12-25T09:48:14.000Z</time>
      </trkpt>
      <trkpt lat="47.05217" lon="-1.70079">
        <ele>51</ele>
        <time>2020-12-25T09:48:16.000Z</time>
      </trkpt>
      <trkpt lat="47.0521" lon="-1.7006">
        <ele>51</ele>
        <time>2020-12-25T09:48:18.000Z</time>
      </trkpt>
      <trkpt lat="47.05202" lon="-1.7004">
        <ele>51</ele>
        <time>2020-12-25T09:48:20.000Z</time>
      </trkpt>
      <trkpt lat="47.05195" lon="-1.7002">
        <ele>51</ele>
        <time>2020-12-25T09:48:22.000Z</time>
      </trkpt>
      <trkpt lat="47.05187" lon="-1.70001">
        <ele>51</ele>
        <time>2020-12-25T09:48:24.000Z</time>
      </trkpt>
      <trkpt lat="47.0518" lon="-1.69982">
        <ele>52</ele>
        <time>2020-12-25T09:48:26.000Z</time>
      </trkpt>
      <trkpt lat="47.05173" lon="-1.69964">
        <ele>52</ele>
        <time>2020-12-25T09:48:28.000Z</time>
      </trkpt>
      <trkpt lat="47.05165" lon="-1.69946">
        <ele>51</ele>
        <time>2020-12-25T09:48:30.000Z</time>
      </trkpt>
      <trkpt lat="47.05159" lon="-1.69928">
        <ele>51</ele>
        <time>2020-12-25T09:48:32.000Z</time>
      </trkpt>
      <trkpt lat="47.05155" lon="-1.69907">
        <ele>51</ele>
        <time>2020-12-25T09:48:34.000Z</time>
      </trkpt>
      <trkpt lat="47.05154" lon="-1.69885">
        <ele>51</ele>
        <time>2020-12-25T09:48:36.000Z</time>
      </trkpt>
      <trkpt lat="47.05152" lon="-1.69864">
        <ele>51</ele>
        <time>2020-12-25T09:48:38.000Z</time>
      </trkpt>
      <trkpt lat="47.05147" lon="-1.69845">
        <ele>52</ele>
        <time>2020-12-25T09:48:40.000Z</time>
      </trkpt>
      <trkpt lat="47.05139" lon="-1.69827">
        <ele>52</ele>
        <time>2020-12-25T09:48:42.000Z</time>
      </trkpt>
      <trkpt lat="47.05131" lon="-1.6981">
        <ele>51</ele>
        <time>2020-12-25T09:48:44.000Z</time>
      </trkpt>
      <trkpt lat="47.05121" lon="-1.69796">
        <ele>52</ele>
        <time>2020-12-25T09:48:46.000Z</time>
      </trkpt>
      <trkpt lat="47.05111" lon="-1.69782">
        <ele>51</ele>
        <time>2020-12-25T09:48:48.000Z</time>
      </trkpt>
      <trkpt lat="47.05101" lon="-1.69769">
        <ele>51</ele>
        <time>2020-12-25T09:48:50.000Z</time>
      </trkpt>
      <trkpt lat="47.05091" lon="-1.69756">
        <ele>52</ele>
        <time>2020-12-25T09:48:52.000Z</time>
      </trkpt>
      <trkpt lat="47.0508" lon="-1.69743">
        <ele>52</ele>
        <time>2020-12-25T09:48:54.000Z</time>
      </trkpt>
      <trkpt lat="47.0507" lon="-1.6973">
        <ele>52</ele>
        <time>2020-12-25T09:48:56.000Z</time>
      </trkpt>
      <trkpt lat="47.05059" lon="-1.69717">
        <ele>51</ele>
        <time>2020-12-25T09:48:58.000Z</time>
      </trkpt>
      <trkpt lat="47.05048" lon="-1.69704">
        <ele>51</ele>
        <time>2020-12-25T09:49:00.000Z</time>
      </trkpt>
      <trkpt lat="47.05038" lon="-1.69693">
        <ele>52</ele>
        <time>2020-12-25T09:49:02.000Z</time>
      </trkpt>
      <trkpt lat="47.05028" lon="-1.6968">
        <ele>52</ele>
        <time>2020-12-25T09:49:04.000Z</time>
      </trkpt>
      <trkpt lat="47.05017" lon="-1.69669">
        <ele>53</ele>
        <time>2020-12-25T09:49:06.000Z</time>
      </trkpt>
      <trkpt lat="47.05007" lon="-1.69656">
        <ele>54</ele>
        <time>2020-12-25T09:49:08.000Z</time>
      </trkpt>
      <trkpt lat="47.04998" lon="-1.69641">
        <ele>55</ele>
        <time>2020-12-25T09:49:10.000Z</time>
      </trkpt>
      <trkpt lat="47.0499" lon="-1.69624">
        <ele>55</ele>
        <time>2020-12-25T09:49:12.000Z</time>
      </trkpt>
      <trkpt lat="47.04983" lon="-1.69603">
        <ele>55</ele>
        <time>2020-12-25T09:49:14.000Z</time>
      </trkpt>
      <trkpt lat="47.04978" lon="-1.69583">
        <ele>55</ele>
        <time>2020-12-25T09:49:16.000Z</time>
      </trkpt>
      <trkpt lat="47.04973" lon="-1.69562">
        <ele>54</ele>
        <time>2020-12-25T09:49:18.000Z</time>
      </trkpt>
      <trkpt lat="47.04968" lon="-1.69542">
        <ele>54</ele>
        <time>2020-12-25T09:49:20.000Z</time>
      </trkpt>
      <trkpt lat="47.04964" lon="-1.69522">
        <ele>53</ele>
        <time>2020-12-25T09:49:22.000Z</time>
      </trkpt>
      <trkpt lat="47.04959" lon="-1.69501">
        <ele>52</ele>
        <time>2020-12-25T09:49:24.000Z</time>
      </trkpt>
      <trkpt lat="47.04954" lon="-1.69481">
        <ele>52</ele>
        <time>2020-12-25T09:49:26.000Z</time>
      </trkpt>
      <trkpt lat="47.04949" lon="-1.69461">
        <ele>52</ele>
        <time>2020-12-25T09:49:28.000Z</time>
      </trkpt>
      <trkpt lat="47.04944" lon="-1.69442">
        <ele>53</ele>
        <time>2020-12-25T09:49:30.000Z</time>
      </trkpt>
      <trkpt lat="47.04939" lon="-1.69423">
        <ele>53</ele>
        <time>2020-12-25T09:49:32.000Z</time>
      </trkpt>
      <trkpt lat="47.04934" lon="-1.69404">
        <ele>53</ele>
        <time>2020-12-25T09:49:34.000Z</time>
      </trkpt>
      <trkpt lat="47.04929" lon="-1.69386">
        <ele>53</ele>
        <time>2020-12-25T09:49:36.000Z</time>
      </trkpt>
      <trkpt lat="47.04924" lon="-1.69369">
        <ele>52</ele>
        <time>2020-12-25T09:49:38.000Z</time>
      </trkpt>
      <trkpt lat="47.04919" lon="-1.69351">
        <ele>53</ele>
        <time>2020-12-25T09:49:40.000Z</time>
      </trkpt>
      <trkpt lat="47.04915" lon="-1.69334">
        <ele>52</ele>
        <time>2020-12-25T09:49:42.000Z</time>
      </trkpt>
      <trkpt lat="47.0491" lon="-1.69317">
        <ele>52</ele>
        <time>2020-12-25T09:49:44.000Z</time>
      </trkpt>
      <trkpt lat="47.04906" lon="-1.69299">
        <ele>52</ele>
        <time>2020-12-25T09:49:46.000Z</time>
      </trkpt>
      <trkpt lat="47.04901" lon="-1.69281">
        <ele>52</ele>
        <time>2020-12-25T09:49:48.000Z</time>
      </trkpt>
      <trkpt lat="47.04897" lon="-1.69262">
        <ele>52</ele>
        <time>2020-12-25T09:49:50.000Z</time>
      </trkpt>
      <trkpt lat="47.04892" lon="-1.69245">
        <ele>53</ele>
        <time>2020-12-25T09:49:52.000Z</time>
      </trkpt>
      <trkpt lat="47.04888" lon="-1.69228">
        <ele>53</ele>
        <time>2020-12-25T09:49:54.000Z</time>
      </trkpt>
      <trkpt lat="47.04884" lon="-1.6921">
        <ele>53</ele>
        <time>2020-12-25T09:49:56.000Z</time>
      </trkpt>
      <trkpt lat="47.0488" lon="-1.69193">
        <ele>53</ele>
        <time>2020-12-25T09:49:58.000Z</time>
      </trkpt>
      <trkpt lat="47.04875" lon="-1.69176">
        <ele>53</ele>
        <time>2020-12-25T09:50:00.000Z</time>
      </trkpt>
      <trkpt lat="47.04871" lon="-1.69159">
        <ele>53</ele>
        <time>2020-12-25T09:50:02.000Z</time>
      </trkpt>
      <trkpt lat="47.04866" lon="-1.69142">
        <ele>53</ele>
        <time>2020-12-25T09:50:04.000Z</time>
      </trkpt>
      <trkpt lat="47.04861" lon="-1.69124">
        <ele>54</ele>
        <time>2020-12-25T09:50:06.000Z</time>
      </trkpt>
      <trkpt lat="47.04857" lon="-1.69107">
        <ele>54</ele>
        <time>2020-12-25T09:50:08.000Z</time>
      </trkpt>
      <trkpt lat="47.04853" lon="-1.69089">
        <ele>54</ele>
        <time>2020-12-25T09:50:10.000Z</time>
      </trkpt>
      <trkpt lat="47.04848" lon="-1.69072">
        <ele>54</ele>
        <time>2020-12-25T09:50:12.000Z</time>
      </trkpt>
      <trkpt lat="47.04843" lon="-1.69055">
        <ele>53</ele>
        <time>2020-12-25T09:50:14.000Z</time>
      </trkpt>
      <trkpt lat="47.04838" lon="-1.69037">
        <ele>54</ele>
        <time>2020-12-25T09:50:16.000Z</time>
      </trkpt>
      <trkpt lat="47.04834" lon="-1.69019">
        <ele>54</ele>
        <time>2020-12-25T09:50:18.000Z</time>
      </trkpt>
      <trkpt lat="47.04829" lon="-1.69002">
        <ele>53</ele>
        <time>2020-12-25T09:50:20.000Z</time>
      </trkpt>
      <trkpt lat="47.04824" lon="-1.68984">
        <ele>54</ele>
        <time>2020-12-25T09:50:22.000Z</time>
      </trkpt>
      <trkpt lat="47.0482" lon="-1.68967">
        <ele>54</ele>
        <time>2020-12-25T09:50:24.000Z</time>
      </trkpt>
      <trkpt lat="47.04815" lon="-1.68949">
        <ele>54</ele>
        <time>2020-12-25T09:50:26.000Z</time>
      </trkpt>
      <trkpt lat="47.0481" lon="-1.68932">
        <ele>54</ele>
        <time>2020-12-25T09:50:28.000Z</time>
      </trkpt>
      <trkpt lat="47.04806" lon="-1.68914">
        <ele>54</ele>
        <time>2020-12-25T09:50:30.000Z</time>
      </trkpt>
      <trkpt lat="47.04802" lon="-1.68896">
        <ele>54</ele>
        <time>2020-12-25T09:50:32.000Z</time>
      </trkpt>
      <trkpt lat="47.04797" lon="-1.68879">
        <ele>54</ele>
        <time>2020-12-25T09:50:34.000Z</time>
      </trkpt>
      <trkpt lat="47.04793" lon="-1.68862">
        <ele>53</ele>
        <time>2020-12-25T09:50:36.000Z</time>
      </trkpt>
      <trkpt lat="47.04788" lon="-1.68844">
        <ele>54</ele>
        <time>2020-12-25T09:50:38.000Z</time>
      </trkpt>
      <trkpt lat="47.04783" lon="-1.68827">
        <ele>54</ele>
        <time>2020-12-25T09:50:40.000Z</time>
      </trkpt>
      <trkpt lat="47.04779" lon="-1.6881">
        <ele>54</ele>
        <time>2020-12-25T09:50:42.000Z</time>
      </trkpt>
      <trkpt lat="47.04774" lon="-1.68793">
        <ele>54</ele>
        <time>2020-12-25T09:50:44.000Z</time>
      </trkpt>
      <trkpt lat="47.0477" lon="-1.68776">
        <ele>55</ele>
        <time>2020-12-25T09:50:46.000Z</time>
      </trkpt>
      <trkpt lat="47.04766" lon="-1.68759">
        <ele>55</ele>
        <time>2020-12-25T09:50:48.000Z</time>
      </trkpt>
      <trkpt lat="47.04762" lon="-1.68742">
        <ele>55</ele>
        <time>2020-12-25T09:50:50.000Z</time>
      </trkpt>
      <trkpt lat="47.04757" lon="-1.68725">
        <ele>55</ele>
        <time>2020-12-25T09:50:52.000Z</time>
      </trkpt>
      <trkpt lat="47.04752" lon="-1.68708">
        <ele>55</ele>
        <time>2020-12-25T09:50:54.000Z</time>
      </trkpt>
      <trkpt lat="47.04748" lon="-1.6869">
        <ele>55</ele>
        <time>2020-12-25T09:50:56.000Z</time>
      </trkpt>
      <trkpt lat="47.04743" lon="-1.68672">
        <ele>55</ele>
        <time>2020-12-25T09:50:58.000Z</time>
      </trkpt>
      <trkpt lat="47.04739" lon="-1.68654">
        <ele>56</ele>
        <time>2020-12-25T09:51:00.000Z</time>
      </trkpt>
      <trkpt lat="47.04734" lon="-1.68636">
        <ele>56</ele>
        <time>2020-12-25T09:51:02.000Z</time>
      </trkpt>
      <trkpt lat="47.04729" lon="-1.68618">
        <ele>56</ele>
        <time>2020-12-25T09:51:04.000Z</time>
      </trkpt>
      <trkpt lat="47.04725" lon="-1.686">
        <ele>56</ele>
        <time>2020-12-25T09:51:06.000Z</time>
      </trkpt>
      <trkpt lat="47.0472" lon="-1.68582">
        <ele>56</ele>
        <time>2020-12-25T09:51:08.000Z</time>
      </trkpt>
      <trkpt lat="47.04715" lon="-1.68564">
        <ele>56</ele>
        <time>2020-12-25T09:51:10.000Z</time>
      </trkpt>
      <trkpt lat="47.0471" lon="-1.68545">
        <ele>56</ele>
        <time>2020-12-25T09:51:12.000Z</time>
      </trkpt>
      <trkpt lat="47.04706" lon="-1.68526">
        <ele>56</ele>
        <time>2020-12-25T09:51:14.000Z</time>
      </trkpt>
      <trkpt lat="47.04701" lon="-1.68508">
        <ele>56</ele>
        <time>2020-12-25T09:51:16.000Z</time>
      </trkpt>
      <trkpt lat="47.04696" lon="-1.6849">
        <ele>56</ele>
        <time>2020-12-25T09:51:18.000Z</time>
      </trkpt>
      <trkpt lat="47.04692" lon="-1.68472">
        <ele>56</ele>
        <time>2020-12-25T09:51:20.000Z</time>
      </trkpt>
      <trkpt lat="47.04687" lon="-1.68454">
        <ele>56</ele>
        <time>2020-12-25T09:51:22.000Z</time>
      </trkpt>
      <trkpt lat="47.04683" lon="-1.68436">
        <ele>56</ele>
        <time>2020-12-25T09:51:24.000Z</time>
      </trkpt>
      <trkpt lat="47.04678" lon="-1.68418">
        <ele>56</ele>
        <time>2020-12-25T09:51:26.000Z</time>
      </trkpt>
      <trkpt lat="47.04673" lon="-1.68399">
        <ele>56</ele>
        <time>2020-12-25T09:51:28.000Z</time>
      </trkpt>
      <trkpt lat="47.04668" lon="-1.6838">
        <ele>56</ele>
        <time>2020-12-25T09:51:30.000Z</time>
      </trkpt>
      <trkpt lat="47.04663" lon="-1.68361">
        <ele>56</ele>
        <time>2020-12-25T09:51:32.000Z</time>
      </trkpt>
      <trkpt lat="47.04658" lon="-1.68341">
        <ele>56</ele>
        <time>2020-12-25T09:51:34.000Z</time>
      </trkpt>
      <trkpt lat="47.04653" lon="-1.68322">
        <ele>56</ele>
        <time>2020-12-25T09:51:36.000Z</time>
      </trkpt>
      <trkpt lat="47.04648" lon="-1.68303">
        <ele>55</ele>
        <time>2020-12-25T09:51:38.000Z</time>
      </trkpt>
      <trkpt lat="47.04643" lon="-1.68283">
        <ele>55</ele>
        <time>2020-12-25T09:51:40.000Z</time>
      </trkpt>
      <trkpt lat="47.04637" lon="-1.68263">
        <ele>55</ele>
        <time>2020-12-25T09:51:42.000Z</time>
      </trkpt>
      <trkpt lat="47.04632" lon="-1.68243">
        <ele>55</ele>
        <time>2020-12-25T09:51:44.000Z</time>
      </trkpt>
      <trkpt lat="47.04627" lon="-1.68223">
        <ele>54</ele>
        <time>2020-12-25T09:51:46.000Z</time>
      </trkpt>
      <trkpt lat="47.04621" lon="-1.68202">
        <ele>54</ele>
        <time>2020-12-25T09:51:48.000Z</time>
      </trkpt>
      <trkpt lat="47.04616" lon="-1.68182">
        <ele>54</ele>
        <time>2020-12-25T09:51:50.000Z</time>
      </trkpt>
      <trkpt lat="47.04611" lon="-1.68161">
        <ele>54</ele>
        <time>2020-12-25T09:51:52.000Z</time>
      </trkpt>
      <trkpt lat="47.04606" lon="-1.68141">
        <ele>53</ele>
        <time>2020-12-25T09:51:54.000Z</time>
      </trkpt>
      <trkpt lat="47.04601" lon="-1.68121">
        <ele>53</ele>
        <time>2020-12-25T09:51:56.000Z</time>
      </trkpt>
      <trkpt lat="47.04596" lon="-1.68101">
        <ele>53</ele>
        <time>2020-12-25T09:51:58.000Z</time>
      </trkpt>
      <trkpt lat="47.04591" lon="-1.68082">
        <ele>53</ele>
        <time>2020-12-25T09:52:00.000Z</time>
      </trkpt>
      <trkpt lat="47.04586" lon="-1.68063">
        <ele>53</ele>
        <time>2020-12-25T09:52:02.000Z</time>
      </trkpt>
      <trkpt lat="47.04581" lon="-1.68045">
        <ele>54</ele>
        <time>2020-12-25T09:52:04.000Z</time>
      </trkpt>
      <trkpt lat="47.04577" lon="-1.68029">
        <ele>54</ele>
        <time>2020-12-25T09:52:06.000Z</time>
      </trkpt>
      <trkpt lat="47.04573" lon="-1.68011">
        <ele>55</ele>
        <time>2020-12-25T09:52:08.000Z</time>
      </trkpt>
      <trkpt lat="47.04568" lon="-1.67995">
        <ele>55</ele>
        <time>2020-12-25T09:52:10.000Z</time>
      </trkpt>
      <trkpt lat="47.04564" lon="-1.67977">
        <ele>56</ele>
        <time>2020-12-25T09:52:12.000Z</time>
      </trkpt>
      <trkpt lat="47.04559" lon="-1.6796">
        <ele>56</ele>
        <time>2020-12-25T09:52:14.000Z</time>
      </trkpt>
      <trkpt lat="47.04554" lon="-1.67942">
        <ele>56</ele>
        <time>2020-12-25T09:52:16.000Z</time>
      </trkpt>
      <trkpt lat="47.0455" lon="-1.67924">
        <ele>56</ele>
        <time>2020-12-25T09:52:18.000Z</time>
      </trkpt>
      <trkpt lat="47.04545" lon="-1.67907">
        <ele>57</ele>
        <time>2020-12-25T09:52:20.000Z</time>
      </trkpt>
      <trkpt lat="47.04541" lon="-1.6789">
        <ele>57</ele>
        <time>2020-12-25T09:52:22.000Z</time>
      </trkpt>
      <trkpt lat="47.04537" lon="-1.67873">
        <ele>57</ele>
        <time>2020-12-25T09:52:24.000Z</time>
      </trkpt>
      <trkpt lat="47.04532" lon="-1.67856">
        <ele>57</ele>
        <time>2020-12-25T09:52:26.000Z</time>
      </trkpt>
      <trkpt lat="47.04527" lon="-1.67838">
        <ele>57</ele>
        <time>2020-12-25T09:52:28.000Z</time>
      </trkpt>
      <trkpt lat="47.04523" lon="-1.67821">
        <ele>57</ele>
        <time>2020-12-25T09:52:30.000Z</time>
      </trkpt>
      <trkpt lat="47.04518" lon="-1.67804">
        <ele>57</ele>
        <time>2020-12-25T09:52:32.000Z</time>
      </trkpt>
      <trkpt lat="47.04514" lon="-1.67786">
        <ele>56</ele>
        <time>2020-12-25T09:52:34.000Z</time>
      </trkpt>
      <trkpt lat="47.04509" lon="-1.67769">
        <ele>56</ele>
        <time>2020-12-25T09:52:36.000Z</time>
      </trkpt>
      <trkpt lat="47.04504" lon="-1.67751">
        <ele>56</ele>
        <time>2020-12-25T09:52:38.000Z</time>
      </trkpt>
      <trkpt lat="47.045" lon="-1.67733">
        <ele>56</ele>
        <time>2020-12-25T09:52:40.000Z</time>
      </trkpt>
      <trkpt lat="47.04496" lon="-1.67715">
        <ele>56</ele>
        <time>2020-12-25T09:52:42.000Z</time>
      </trkpt>
      <trkpt lat="47.04491" lon="-1.67696">
        <ele>56</ele>
        <time>2020-12-25T09:52:44.000Z</time>
      </trkpt>
      <trkpt lat="47.04486" lon="-1.67677">
        <ele>56</ele>
        <time>2020-12-25T09:52:46.000Z</time>
      </trkpt>
      <trkpt lat="47.04482" lon="-1.67658">
        <ele>55</ele>
        <time>2020-12-25T09:52:48.000Z</time>
      </trkpt>
      <trkpt lat="47.04478" lon="-1.6764">
        <ele>56</ele>
        <time>2020-12-25T09:52:50.000Z</time>
      </trkpt>
      <trkpt lat="47.04473" lon="-1.67621">
        <ele>56</ele>
        <time>2020-12-25T09:52:52.000Z</time>
      </trkpt>
      <trkpt lat="47.04467" lon="-1.67602">
        <ele>55</ele>
        <time>2020-12-25T09:52:54.000Z</time>
      </trkpt>
      <trkpt lat="47.04462" lon="-1.67583">
        <ele>55</ele>
        <time>2020-12-25T09:52:56.000Z</time>
      </trkpt>
      <trkpt lat="47.04456" lon="-1.67563">
        <ele>54</ele>
        <time>2020-12-25T09:52:58.000Z</time>
      </trkpt>
      <trkpt lat="47.04451" lon="-1.67542">
        <ele>54</ele>
        <time>2020-12-25T09:53:00.000Z</time>
      </trkpt>
      <trkpt lat="47.04446" lon="-1.6752">
        <ele>53</ele>
        <time>2020-12-25T09:53:02.000Z</time>
      </trkpt>
      <trkpt lat="47.04441" lon="-1.67499">
        <ele>53</ele>
        <time>2020-12-25T09:53:04.000Z</time>
      </trkpt>
      <trkpt lat="47.04436" lon="-1.67479">
        <ele>53</ele>
        <time>2020-12-25T09:53:06.000Z</time>
      </trkpt>
      <trkpt lat="47.0443" lon="-1.67458">
        <ele>53</ele>
        <time>2020-12-25T09:53:08.000Z</time>
      </trkpt>
      <trkpt lat="47.04425" lon="-1.67439">
        <ele>53</ele>
        <time>2020-12-25T09:53:10.000Z</time>
      </trkpt>
      <trkpt lat="47.04419" lon="-1.67419">
        <ele>53</ele>
        <time>2020-12-25T09:53:12.000Z</time>
      </trkpt>
      <trkpt lat="47.04414" lon="-1.674">
        <ele>53</ele>
        <time>2020-12-25T09:53:14.000Z</time>
      </trkpt>
      <trkpt lat="47.04409" lon="-1.6738">
        <ele>54</ele>
        <time>2020-12-25T09:53:16.000Z</time>
      </trkpt>
      <trkpt lat="47.04403" lon="-1.67361">
        <ele>53</ele>
        <time>2020-12-25T09:53:18.000Z</time>
      </trkpt>
      <trkpt lat="47.04398" lon="-1.67341">
        <ele>53</ele>
        <time>2020-12-25T09:53:20.000Z</time>
      </trkpt>
      <trkpt lat="47.04393" lon="-1.6732">
        <ele>53</ele>
        <time>2020-12-25T09:53:22.000Z</time>
      </trkpt>
      <trkpt lat="47.04388" lon="-1.67301">
        <ele>52</ele>
        <time>2020-12-25T09:53:24.000Z</time>
      </trkpt>
      <trkpt lat="47.04383" lon="-1.67282">
        <ele>53</ele>
        <time>2020-12-25T09:53:26.000Z</time>
      </trkpt>
      <trkpt lat="47.04378" lon="-1.67262">
        <ele>53</ele>
        <time>2020-12-25T09:53:28.000Z</time>
      </trkpt>
      <trkpt lat="47.04373" lon="-1.67242">
        <ele>53</ele>
        <time>2020-12-25T09:53:30.000Z</time>
      </trkpt>
      <trkpt lat="47.04367" lon="-1.67223">
        <ele>52</ele>
        <time>2020-12-25T09:53:32.000Z</time>
      </trkpt>
      <trkpt lat="47.04363" lon="-1.67204">
        <ele>52</ele>
        <time>2020-12-25T09:53:34.000Z</time>
      </trkpt>
      <trkpt lat="47.04358" lon="-1.67185">
        <ele>53</ele>
        <time>2020-12-25T09:53:36.000Z</time>
      </trkpt>
      <trkpt lat="47.04353" lon="-1.67165">
        <ele>52</ele>
        <time>2020-12-25T09:53:38.000Z</time>
      </trkpt>
      <trkpt lat="47.04348" lon="-1.67146">
        <ele>52</ele>
        <time>2020-12-25T09:53:40.000Z</time>
      </trkpt>
      <trkpt lat="47.04343" lon="-1.67126">
        <ele>53</ele>
        <time>2020-12-25T09:53:42.000Z</time>
      </trkpt>
      <trkpt lat="47.04338" lon="-1.67107">
        <ele>53</ele>
        <time>2020-12-25T09:53:44.000Z</time>
      </trkpt>
      <trkpt lat="47.04334" lon="-1.67087">
        <ele>52</ele>
        <time>2020-12-25T09:53:46.000Z</time>
      </trkpt>
      <trkpt lat="47.04328" lon="-1.67067">
        <ele>52</ele>
        <time>2020-12-25T09:53:48.000Z</time>
      </trkpt>
      <trkpt lat="47.04323" lon="-1.67048">
        <ele>52</ele>
        <time>2020-12-25T09:53:50.000Z</time>
      </trkpt>
      <trkpt lat="47.04318" lon="-1.67029">
        <ele>52</ele>
        <time>2020-12-25T09:53:52.000Z</time>
      </trkpt>
      <trkpt lat="47.04313" lon="-1.6701">
        <ele>52</ele>
        <time>2020-12-25T09:53:54.000Z</time>
      </trkpt>
      <trkpt lat="47.04308" lon="-1.6699">
        <ele>52</ele>
        <time>2020-12-25T09:53:56.000Z</time>
      </trkpt>
      <trkpt lat="47.04303" lon="-1.66971">
        <ele>52</ele>
        <time>2020-12-25T09:53:58.000Z</time>
      </trkpt>
      <trkpt lat="47.04298" lon="-1.66951">
        <ele>53</ele>
        <time>2020-12-25T09:54:00.000Z</time>
      </trkpt>
      <trkpt lat="47.04294" lon="-1.66932">
        <ele>53</ele>
        <time>2020-12-25T09:54:02.000Z</time>
      </trkpt>
      <trkpt lat="47.04289" lon="-1.66913">
        <ele>53</ele>
        <time>2020-12-25T09:54:04.000Z</time>
      </trkpt>
      <trkpt lat="47.04284" lon="-1.66895">
        <ele>53</ele>
        <time>2020-12-25T09:54:06.000Z</time>
      </trkpt>
      <trkpt lat="47.04279" lon="-1.66876">
        <ele>53</ele>
        <time>2020-12-25T09:54:08.000Z</time>
      </trkpt>
      <trkpt lat="47.04274" lon="-1.66857">
        <ele>53</ele>
        <time>2020-12-25T09:54:10.000Z</time>
      </trkpt>
      <trkpt lat="47.0427" lon="-1.66838">
        <ele>53</ele>
        <time>2020-12-25T09:54:12.000Z</time>
      </trkpt>
      <trkpt lat="47.04264" lon="-1.66818">
        <ele>53</ele>
        <time>2020-12-25T09:54:14.000Z</time>
      </trkpt>
      <trkpt lat="47.04259" lon="-1.668">
        <ele>53</ele>
        <time>2020-12-25T09:54:16.000Z</time>
      </trkpt>
      <trkpt lat="47.04254" lon="-1.6678">
        <ele>53</ele>
        <time>2020-12-25T09:54:18.000Z</time>
      </trkpt>
      <trkpt lat="47.04249" lon="-1.66761">
        <ele>53</ele>
        <time>2020-12-25T09:54:20.000Z</time>
      </trkpt>
      <trkpt lat="47.04245" lon="-1.66742">
        <ele>53</ele>
        <time>2020-12-25T09:54:22.000Z</time>
      </trkpt>
      <trkpt lat="47.04239" lon="-1.66725">
        <ele>53</ele>
        <time>2020-12-25T09:54:24.000Z</time>
      </trkpt>
      <trkpt lat="47.04235" lon="-1.66707">
        <ele>53</ele>
        <time>2020-12-25T09:54:26.000Z</time>
      </trkpt>
      <trkpt lat="47.0423" lon="-1.66688">
        <ele>53</ele>
        <time>2020-12-25T09:54:28.000Z</time>
      </trkpt>
      <trkpt lat="47.04225" lon="-1.66672">
        <ele>54</ele>
        <time>2020-12-25T09:54:30.000Z</time>
      </trkpt>
      <trkpt lat="47.0422" lon="-1.66653">
        <ele>54</ele>
        <time>2020-12-25T09:54:32.000Z</time>
      </trkpt>
      <trkpt lat="47.04216" lon="-1.66635">
        <ele>53</ele>
        <time>2020-12-25T09:54:34.000Z</time>
      </trkpt>
      <trkpt lat="47.04211" lon="-1.66616">
        <ele>53</ele>
        <time>2020-12-25T09:54:36.000Z</time>
      </trkpt>
      <trkpt lat="47.04206" lon="-1.66597">
        <ele>53</ele>
        <time>2020-12-25T09:54:38.000Z</time>
      </trkpt>
      <trkpt lat="47.04201" lon="-1.6658">
        <ele>52</ele>
        <time>2020-12-25T09:54:40.000Z</time>
      </trkpt>
      <trkpt lat="47.04197" lon="-1.66561">
        <ele>52</ele>
        <time>2020-12-25T09:54:42.000Z</time>
      </trkpt>
      <trkpt lat="47.04192" lon="-1.66544">
        <ele>52</ele>
        <time>2020-12-25T09:54:44.000Z</time>
      </trkpt>
      <trkpt lat="47.04188" lon="-1.66526">
        <ele>52</ele>
        <time>2020-12-25T09:54:46.000Z</time>
      </trkpt>
      <trkpt lat="47.04183" lon="-1.66509">
        <ele>52</ele>
        <time>2020-12-25T09:54:48.000Z</time>
      </trkpt>
      <trkpt lat="47.04179" lon="-1.66491">
        <ele>52</ele>
        <time>2020-12-25T09:54:50.000Z</time>
      </trkpt>
      <trkpt lat="47.04174" lon="-1.66474">
        <ele>53</ele>
        <time>2020-12-25T09:54:52.000Z</time>
      </trkpt>
      <trkpt lat="47.0417" lon="-1.66457">
        <ele>52</ele>
        <time>2020-12-25T09:54:54.000Z</time>
      </trkpt>
      <trkpt lat="47.04166" lon="-1.66439">
        <ele>53</ele>
        <time>2020-12-25T09:54:56.000Z</time>
      </trkpt>
      <trkpt lat="47.04161" lon="-1.66421">
        <ele>53</ele>
        <time>2020-12-25T09:54:58.000Z</time>
      </trkpt>
      <trkpt lat="47.04155" lon="-1.66405">
        <ele>53</ele>
        <time>2020-12-25T09:55:00.000Z</time>
      </trkpt>
      <trkpt lat="47.04151" lon="-1.66388">
        <ele>54</ele>
        <time>2020-12-25T09:55:02.000Z</time>
      </trkpt>
      <trkpt lat="47.04146" lon="-1.6637">
        <ele>54</ele>
        <time>2020-12-25T09:55:04.000Z</time>
      </trkpt>
      <trkpt lat="47.04142" lon="-1.66351">
        <ele>53</ele>
        <time>2020-12-25T09:55:06.000Z</time>
      </trkpt>
      <trkpt lat="47.04137" lon="-1.66332">
        <ele>53</ele>
        <time>2020-12-25T09:55:08.000Z</time>
      </trkpt>
      <trkpt lat="47.04132" lon="-1.66314">
        <ele>53</ele>
        <time>2020-12-25T09:55:10.000Z</time>
      </trkpt>
      <trkpt lat="47.04128" lon="-1.66296">
        <ele>53</ele>
        <time>2020-12-25T09:55:12.000Z</time>
      </trkpt>
      <trkpt lat="47.04124" lon="-1.66277">
        <ele>53</ele>
        <time>2020-12-25T09:55:14.000Z</time>
      </trkpt>
      <trkpt lat="47.04119" lon="-1.66259">
        <ele>53</ele>
        <time>2020-12-25T09:55:16.000Z</time>
      </trkpt>
      <trkpt lat="47.04114" lon="-1.6624">
        <ele>53</ele>
        <time>2020-12-25T09:55:18.000Z</time>
      </trkpt>
      <trkpt lat="47.0411" lon="-1.66223">
        <ele>54</ele>
        <time>2020-12-25T09:55:20.000Z</time>
      </trkpt>
      <trkpt lat="47.04105" lon="-1.66205">
        <ele>54</ele>
        <time>2020-12-25T09:55:22.000Z</time>
      </trkpt>
      <trkpt lat="47.041" lon="-1.66186">
        <ele>54</ele>
        <time>2020-12-25T09:55:24.000Z</time>
      </trkpt>
      <trkpt lat="47.04095" lon="-1.66168">
        <ele>54</ele>
        <time>2020-12-25T09:55:26.000Z</time>
      </trkpt>
      <trkpt lat="47.0409" lon="-1.66149">
        <ele>54</ele>
        <time>2020-12-25T09:55:28.000Z</time>
      </trkpt>
      <trkpt lat="47.04085" lon="-1.6613">
        <ele>54</ele>
        <time>2020-12-25T09:55:30.000Z</time>
      </trkpt>
      <trkpt lat="47.0408" lon="-1.66111">
        <ele>54</ele>
        <time>2020-12-25T09:55:32.000Z</time>
      </trkpt>
      <trkpt lat="47.04075" lon="-1.66092">
        <ele>54</ele>
        <time>2020-12-25T09:55:34.000Z</time>
      </trkpt>
      <trkpt lat="47.0407" lon="-1.66073">
        <ele>54</ele>
        <time>2020-12-25T09:55:36.000Z</time>
      </trkpt>
      <trkpt lat="47.04066" lon="-1.66055">
        <ele>54</ele>
        <time>2020-12-25T09:55:38.000Z</time>
      </trkpt>
      <trkpt lat="47.04061" lon="-1.66036">
        <ele>54</ele>
        <time>2020-12-25T09:55:40.000Z</time>
      </trkpt>
      <trkpt lat="47.04056" lon="-1.66018">
        <ele>54</ele>
        <time>2020-12-25T09:55:42.000Z</time>
      </trkpt>
      <trkpt lat="47.04051" lon="-1.66">
        <ele>54</ele>
        <time>2020-12-25T09:55:44.000Z</time>
      </trkpt>
      <trkpt lat="47.04046" lon="-1.65982">
        <ele>54</ele>
        <time>2020-12-25T09:55:46.000Z</time>
      </trkpt>
      <trkpt lat="47.04041" lon="-1.65964">
        <ele>54</ele>
        <time>2020-12-25T09:55:48.000Z</time>
      </trkpt>
      <trkpt lat="47.04036" lon="-1.65945">
        <ele>54</ele>
        <time>2020-12-25T09:55:50.000Z</time>
      </trkpt>
      <trkpt lat="47.04031" lon="-1.65926">
        <ele>54</ele>
        <time>2020-12-25T09:55:52.000Z</time>
      </trkpt>
      <trkpt lat="47.04026" lon="-1.65908">
        <ele>54</ele>
        <time>2020-12-25T09:55:54.000Z</time>
      </trkpt>
      <trkpt lat="47.04021" lon="-1.6589">
        <ele>54</ele>
        <time>2020-12-25T09:55:56.000Z</time>
      </trkpt>
      <trkpt lat="47.04016" lon="-1.65871">
        <ele>54</ele>
        <time>2020-12-25T09:55:58.000Z</time>
      </trkpt>
      <trkpt lat="47.04011" lon="-1.65852">
        <ele>54</ele>
        <time>2020-12-25T09:56:00.000Z</time>
      </trkpt>
      <trkpt lat="47.04005" lon="-1.65834">
        <ele>53</ele>
        <time>2020-12-25T09:56:02.000Z</time>
      </trkpt>
      <trkpt lat="47.04" lon="-1.65816">
        <ele>53</ele>
        <time>2020-12-25T09:56:04.000Z</time>
      </trkpt>
      <trkpt lat="47.03996" lon="-1.65798">
        <ele>53</ele>
        <time>2020-12-25T09:56:06.000Z</time>
      </trkpt>
      <trkpt lat="47.03991" lon="-1.6578">
        <ele>52</ele>
        <time>2020-12-25T09:56:08.000Z</time>
      </trkpt>
      <trkpt lat="47.03985" lon="-1.65762">
        <ele>53</ele>
        <time>2020-12-25T09:56:10.000Z</time>
      </trkpt>
      <trkpt lat="47.0398" lon="-1.65743">
        <ele>52</ele>
        <time>2020-12-25T09:56:12.000Z</time>
      </trkpt>
      <trkpt lat="47.03975" lon="-1.65725">
        <ele>52</ele>
        <time>2020-12-25T09:56:14.000Z</time>
      </trkpt>
      <trkpt lat="47.0397" lon="-1.65706">
        <ele>52</ele>
        <time>2020-12-25T09:56:16.000Z</time>
      </trkpt>
      <trkpt lat="47.03965" lon="-1.65687">
        <ele>53</ele>
        <time>2020-12-25T09:56:18.000Z</time>
      </trkpt>
      <trkpt lat="47.0396" lon="-1.65669">
        <ele>52</ele>
        <time>2020-12-25T09:56:20.000Z</time>
      </trkpt>
      <trkpt lat="47.03954" lon="-1.65651">
        <ele>52</ele>
        <time>2020-12-25T09:56:22.000Z</time>
      </trkpt>
      <trkpt lat="47.03949" lon="-1.65632">
        <ele>53</ele>
        <time>2020-12-25T09:56:24.000Z</time>
      </trkpt>
      <trkpt lat="47.03944" lon="-1.65614">
        <ele>53</ele>
        <time>2020-12-25T09:56:26.000Z</time>
      </trkpt>
      <trkpt lat="47.03939" lon="-1.65596">
        <ele>53</ele>
        <time>2020-12-25T09:56:28.000Z</time>
      </trkpt>
      <trkpt lat="47.03934" lon="-1.65578">
        <ele>53</ele>
        <time>2020-12-25T09:56:30.000Z</time>
      </trkpt>
      <trkpt lat="47.03929" lon="-1.65559">
        <ele>53</ele>
        <time>2020-12-25T09:56:32.000Z</time>
      </trkpt>
      <trkpt lat="47.03924" lon="-1.65541">
        <ele>53</ele>
        <time>2020-12-25T09:56:34.000Z</time>
      </trkpt>
      <trkpt lat="47.03918" lon="-1.65523">
        <ele>53</ele>
        <time>2020-12-25T09:56:36.000Z</time>
      </trkpt>
      <trkpt lat="47.03913" lon="-1.65504">
        <ele>53</ele>
        <time>2020-12-25T09:56:38.000Z</time>
      </trkpt>
      <trkpt lat="47.03908" lon="-1.65486">
        <ele>53</ele>
        <time>2020-12-25T09:56:40.000Z</time>
      </trkpt>
      <trkpt lat="47.03902" lon="-1.65467">
        <ele>53</ele>
        <time>2020-12-25T09:56:42.000Z</time>
      </trkpt>
      <trkpt lat="47.03897" lon="-1.65449">
        <ele>54</ele>
        <time>2020-12-25T09:56:44.000Z</time>
      </trkpt>
      <trkpt lat="47.03892" lon="-1.6543">
        <ele>54</ele>
        <time>2020-12-25T09:56:46.000Z</time>
      </trkpt>
      <trkpt lat="47.03887" lon="-1.65411">
        <ele>53</ele>
        <time>2020-12-25T09:56:48.000Z</time>
      </trkpt>
      <trkpt lat="47.03882" lon="-1.65393">
        <ele>53</ele>
        <time>2020-12-25T09:56:50.000Z</time>
      </trkpt>
      <trkpt lat="47.03877" lon="-1.65375">
        <ele>53</ele>
        <time>2020-12-25T09:56:52.000Z</time>
      </trkpt>
      <trkpt lat="47.0387" lon="-1.65359">
        <ele>53</ele>
        <time>2020-12-25T09:56:54.000Z</time>
      </trkpt>
      <trkpt lat="47.03862" lon="-1.65345">
        <ele>53</ele>
        <time>2020-12-25T09:56:56.000Z</time>
      </trkpt>
      <trkpt lat="47.03855" lon="-1.65331">
        <ele>52</ele>
        <time>2020-12-25T09:56:58.000Z</time>
      </trkpt>
      <trkpt lat="47.03855" lon="-1.65312">
        <ele>53</ele>
        <time>2020-12-25T09:57:00.000Z</time>
      </trkpt>
      <trkpt lat="47.03863" lon="-1.65295">
        <ele>53</ele>
        <time>2020-12-25T09:57:02.000Z</time>
      </trkpt>
      <trkpt lat="47.03873" lon="-1.65284">
        <ele>54</ele>
        <time>2020-12-25T09:57:04.000Z</time>
      </trkpt>
      <trkpt lat="47.03885" lon="-1.65274">
        <ele>54</ele>
        <time>2020-12-25T09:57:06.000Z</time>
      </trkpt>
      <trkpt lat="47.03897" lon="-1.65265">
        <ele>54</ele>
        <time>2020-12-25T09:57:08.000Z</time>
      </trkpt>
      <trkpt lat="47.03909" lon="-1.65256">
        <ele>54</ele>
        <time>2020-12-25T09:57:10.000Z</time>
      </trkpt>
      <trkpt lat="47.03922" lon="-1.65248">
        <ele>54</ele>
        <time>2020-12-25T09:57:12.000Z</time>
      </trkpt>
      <trkpt lat="47.03935" lon="-1.65241">
        <ele>54</ele>
        <time>2020-12-25T09:57:14.000Z</time>
      </trkpt>
      <trkpt lat="47.03947" lon="-1.65233">
        <ele>54</ele>
        <time>2020-12-25T09:57:16.000Z</time>
      </trkpt>
      <trkpt lat="47.0396" lon="-1.65224">
        <ele>54</ele>
        <time>2020-12-25T09:57:18.000Z</time>
      </trkpt>
      <trkpt lat="47.03972" lon="-1.65215">
        <ele>54</ele>
        <time>2020-12-25T09:57:20.000Z</time>
      </trkpt>
      <trkpt lat="47.03984" lon="-1.65207">
        <ele>53</ele>
        <time>2020-12-25T09:57:22.000Z</time>
      </trkpt>
      <trkpt lat="47.03997" lon="-1.65199">
        <ele>53</ele>
        <time>2020-12-25T09:57:24.000Z</time>
      </trkpt>
      <trkpt lat="47.04008" lon="-1.65192">
        <ele>53</ele>
        <time>2020-12-25T09:57:26.000Z</time>
      </trkpt>
      <trkpt lat="47.0402" lon="-1.65183">
        <ele>53</ele>
        <time>2020-12-25T09:57:28.000Z</time>
      </trkpt>
      <trkpt lat="47.04031" lon="-1.65174">
        <ele>53</ele>
        <time>2020-12-25T09:57:30.000Z</time>
      </trkpt>
      <trkpt lat="47.04044" lon="-1.65166">
        <ele>53</ele>
        <time>2020-12-25T09:57:32.000Z</time>
      </trkpt>
      <trkpt lat="47.04055" lon="-1.65158">
        <ele>53</ele>
        <time>2020-12-25T09:57:34.000Z</time>
      </trkpt>
      <trkpt lat="47.04067" lon="-1.6515">
        <ele>53</ele>
        <time>2020-12-25T09:57:36.000Z</time>
      </trkpt>
      <trkpt lat="47.04079" lon="-1.65141">
        <ele>53</ele>
        <time>2020-12-25T09:57:38.000Z</time>
      </trkpt>
      <trkpt lat="47.04092" lon="-1.65133">
        <ele>53</ele>
        <time>2020-12-25T09:57:40.000Z</time>
      </trkpt>
      <trkpt lat="47.04104" lon="-1.65125">
        <ele>53</ele>
        <time>2020-12-25T09:57:42.000Z</time>
      </trkpt>
      <trkpt lat="47.04116" lon="-1.65116">
        <ele>53</ele>
        <time>2020-12-25T09:57:44.000Z</time>
      </trkpt>
      <trkpt lat="47.04128" lon="-1.65108">
        <ele>53</ele>
        <time>2020-12-25T09:57:46.000Z</time>
      </trkpt>
      <trkpt lat="47.0414" lon="-1.65101">
        <ele>54</ele>
        <time>2020-12-25T09:57:48.000Z</time>
      </trkpt>
      <trkpt lat="47.04152" lon="-1.65093">
        <ele>54</ele>
        <time>2020-12-25T09:57:50.000Z</time>
      </trkpt>
      <trkpt lat="47.04164" lon="-1.65084">
        <ele>53</ele>
        <time>2020-12-25T09:57:52.000Z</time>
      </trkpt>
      <trkpt lat="47.04176" lon="-1.65076">
        <ele>53</ele>
        <time>2020-12-25T09:57:54.000Z</time>
      </trkpt>
      <trkpt lat="47.04189" lon="-1.65067">
        <ele>53</ele>
        <time>2020-12-25T09:57:56.000Z</time>
      </trkpt>
      <trkpt lat="47.04201" lon="-1.65059">
        <ele>53</ele>
        <time>2020-12-25T09:57:58.000Z</time>
      </trkpt>
      <trkpt lat="47.04212" lon="-1.65051">
        <ele>53</ele>
        <time>2020-12-25T09:58:00.000Z</time>
      </trkpt>
      <trkpt lat="47.04224" lon="-1.65043">
        <ele>53</ele>
        <time>2020-12-25T09:58:02.000Z</time>
      </trkpt>
      <trkpt lat="47.04236" lon="-1.65035">
        <ele>53</ele>
        <time>2020-12-25T09:58:04.000Z</time>
      </trkpt>
      <trkpt lat="47.04248" lon="-1.65026">
        <ele>52</ele>
        <time>2020-12-25T09:58:06.000Z</time>
      </trkpt>
      <trkpt lat="47.0426" lon="-1.65017">
        <ele>52</ele>
        <time>2020-12-25T09:58:08.000Z</time>
      </trkpt>
      <trkpt lat="47.04272" lon="-1.65009">
        <ele>52</ele>
        <time>2020-12-25T09:58:10.000Z</time>
      </trkpt>
      <trkpt lat="47.04283" lon="-1.65001">
        <ele>52</ele>
        <time>2020-12-25T09:58:12.000Z</time>
      </trkpt>
      <trkpt lat="47.04295" lon="-1.64991">
        <ele>52</ele>
        <time>2020-12-25T09:58:14.000Z</time>
      </trkpt>
      <trkpt lat="47.04306" lon="-1.64982">
        <ele>52</ele>
        <time>2020-12-25T09:58:16.000Z</time>
      </trkpt>
      <trkpt lat="47.04318" lon="-1.64972">
        <ele>51</ele>
        <time>2020-12-25T09:58:18.000Z</time>
      </trkpt>
      <trkpt lat="47.04329" lon="-1.64963">
        <ele>51</ele>
        <time>2020-12-25T09:58:20.000Z</time>
      </trkpt>
      <trkpt lat="47.04341" lon="-1.64954">
        <ele>51</ele>
        <time>2020-12-25T09:58:22.000Z</time>
      </trkpt>
      <trkpt lat="47.04352" lon="-1.64946">
        <ele>52</ele>
        <time>2020-12-25T09:58:24.000Z</time>
      </trkpt>
      <trkpt lat="47.04362" lon="-1.64936">
        <ele>52</ele>
        <time>2020-12-25T09:58:26.000Z</time>
      </trkpt>
      <trkpt lat="47.04373" lon="-1.64927">
        <ele>53</ele>
        <time>2020-12-25T09:58:28.000Z</time>
      </trkpt>
      <trkpt lat="47.04383" lon="-1.64917">
        <ele>53</ele>
        <time>2020-12-25T09:58:30.000Z</time>
      </trkpt>
      <trkpt lat="47.04394" lon="-1.64908">
        <ele>53</ele>
        <time>2020-12-25T09:58:32.000Z</time>
      </trkpt>
      <trkpt lat="47.04404" lon="-1.64899">
        <ele>53</ele>
        <time>2020-12-25T09:58:34.000Z</time>
      </trkpt>
      <trkpt lat="47.04415" lon="-1.64893">
        <ele>53</ele>
        <time>2020-12-25T09:58:36.000Z</time>
      </trkpt>
      <trkpt lat="47.04426" lon="-1.64892">
        <ele>53</ele>
        <time>2020-12-25T09:58:38.000Z</time>
      </trkpt>
      <trkpt lat="47.04437" lon="-1.64894">
        <ele>54</ele>
        <time>2020-12-25T09:58:40.000Z</time>
      </trkpt>
      <trkpt lat="47.04446" lon="-1.64899">
        <ele>53</ele>
        <time>2020-12-25T09:58:42.000Z</time>
      </trkpt>
      <trkpt lat="47.04456" lon="-1.64903">
        <ele>52</ele>
        <time>2020-12-25T09:58:44.000Z</time>
      </trkpt>
      <trkpt lat="47.04466" lon="-1.64908">
        <ele>51</ele>
        <time>2020-12-25T09:58:47.000Z</time>
      </trkpt>
      <trkpt lat="47.04473" lon="-1.64896">
        <ele>50</ele>
        <time>2020-12-25T09:58:51.000Z</time>
      </trkpt>
      <trkpt lat="47.04468" lon="-1.64884">
        <ele>50</ele>
        <time>2020-12-25T09:58:55.000Z</time>
      </trkpt>
      <trkpt lat="47.04459" lon="-1.64875">
        <ele>50</ele>
        <time>2020-12-25T09:58:58.000Z</time>
      </trkpt>
      <trkpt lat="47.0445" lon="-1.64862">
        <ele>49</ele>
        <time>2020-12-25T09:59:01.000Z</time>
      </trkpt>
      <trkpt lat="47.0444" lon="-1.64854">
        <ele>48</ele>
        <time>2020-12-25T09:59:04.000Z</time>
      </trkpt>
      <trkpt lat="47.04431" lon="-1.64844">
        <ele>48</ele>
        <time>2020-12-25T09:59:07.000Z</time>
      </trkpt>
      <trkpt lat="47.04418" lon="-1.64837">
        <ele>48</ele>
        <time>2020-12-25T09:59:10.000Z</time>
      </trkpt>
      <trkpt lat="47.04412" lon="-1.64822">
        <ele>48</ele>
        <time>2020-12-25T09:59:12.000Z</time>
      </trkpt>
      <trkpt lat="47.04405" lon="-1.64808">
        <ele>48</ele>
        <time>2020-12-25T09:59:14.000Z</time>
      </trkpt>
      <trkpt lat="47.04397" lon="-1.64796">
        <ele>48</ele>
        <time>2020-12-25T09:59:16.000Z</time>
      </trkpt>
      <trkpt lat="47.04389" lon="-1.64784">
        <ele>49</ele>
        <time>2020-12-25T09:59:18.000Z</time>
      </trkpt>
      <trkpt lat="47.0438" lon="-1.64771">
        <ele>48</ele>
        <time>2020-12-25T09:59:20.000Z</time>
      </trkpt>
      <trkpt lat="47.04372" lon="-1.64759">
        <ele>49</ele>
        <time>2020-12-25T09:59:22.000Z</time>
      </trkpt>
      <trkpt lat="47.04363" lon="-1.64747">
        <ele>49</ele>
        <time>2020-12-25T09:59:24.000Z</time>
      </trkpt>
      <trkpt lat="47.04354" lon="-1.64736">
        <ele>49</ele>
        <time>2020-12-25T09:59:26.000Z</time>
      </trkpt>
      <trkpt lat="47.04345" lon="-1.64724">
        <ele>49</ele>
        <time>2020-12-25T09:59:28.000Z</time>
      </trkpt>
      <trkpt lat="47.04336" lon="-1.64712">
        <ele>49</ele>
        <time>2020-12-25T09:59:30.000Z</time>
      </trkpt>
      <trkpt lat="47.04327" lon="-1.647">
        <ele>50</ele>
        <time>2020-12-25T09:59:32.000Z</time>
      </trkpt>
      <trkpt lat="47.04318" lon="-1.64688">
        <ele>50</ele>
        <time>2020-12-25T09:59:34.000Z</time>
      </trkpt>
      <trkpt lat="47.04309" lon="-1.64675">
        <ele>49</ele>
        <time>2020-12-25T09:59:36.000Z</time>
      </trkpt>
      <trkpt lat="47.04299" lon="-1.64662">
        <ele>49</ele>
        <time>2020-12-25T09:59:38.000Z</time>
      </trkpt>
      <trkpt lat="47.0429" lon="-1.64648">
        <ele>49</ele>
        <time>2020-12-25T09:59:40.000Z</time>
      </trkpt>
      <trkpt lat="47.04281" lon="-1.64635">
        <ele>49</ele>
        <time>2020-12-25T09:59:42.000Z</time>
      </trkpt>
      <trkpt lat="47.04272" lon="-1.64622">
        <ele>49</ele>
        <time>2020-12-25T09:59:44.000Z</time>
      </trkpt>
      <trkpt lat="47.04263" lon="-1.64608">
        <ele>49</ele>
        <time>2020-12-25T09:59:46.000Z</time>
      </trkpt>
      <trkpt lat="47.04254" lon="-1.64595">
        <ele>49</ele>
        <time>2020-12-25T09:59:48.000Z</time>
      </trkpt>
      <trkpt lat="47.04245" lon="-1.64582">
        <ele>49</ele>
        <time>2020-12-25T09:59:50.000Z</time>
      </trkpt>
      <trkpt lat="47.04236" lon="-1.6457">
        <ele>48</ele>
        <time>2020-12-25T09:59:52.000Z</time>
      </trkpt>
      <trkpt lat="47.04226" lon="-1.64558">
        <ele>48</ele>
        <time>2020-12-25T09:59:54.000Z</time>
      </trkpt>
      <trkpt lat="47.04217" lon="-1.64546">
        <ele>49</ele>
        <time>2020-12-25T09:59:56.000Z</time>
      </trkpt>
      <trkpt lat="47.04207" lon="-1.64534">
        <ele>49</ele>
        <time>2020-12-25T09:59:58.000Z</time>
      </trkpt>
      <trkpt lat="47.04198" lon="-1.64521">
        <ele>49</ele>
        <time>2020-12-25T10:00:00.000Z</time>
      </trkpt>
      <trkpt lat="47.04189" lon="-1.64509">
        <ele>49</ele>
        <time>2020-12-25T10:00:02.000Z</time>
      </trkpt>
      <trkpt lat="47.0418" lon="-1.64499">
        <ele>49</ele>
        <time>2020-12-25T10:00:04.000Z</time>
      </trkpt>
      <trkpt lat="47.04171" lon="-1.64488">
        <ele>49</ele>
        <time>2020-12-25T10:00:06.000Z</time>
      </trkpt>
      <trkpt lat="47.04163" lon="-1.64473">
        <ele>49</ele>
        <time>2020-12-25T10:00:08.000Z</time>
      </trkpt>
      <trkpt lat="47.04153" lon="-1.64459">
        <ele>49</ele>
        <time>2020-12-25T10:00:10.000Z</time>
      </trkpt>
      <trkpt lat="47.04144" lon="-1.64446">
        <ele>49</ele>
        <time>2020-12-25T10:00:12.000Z</time>
      </trkpt>
      <trkpt lat="47.04134" lon="-1.64433">
        <ele>49</ele>
        <time>2020-12-25T10:00:14.000Z</time>
      </trkpt>
      <trkpt lat="47.04125" lon="-1.64421">
        <ele>49</ele>
        <time>2020-12-25T10:00:16.000Z</time>
      </trkpt>
      <trkpt lat="47.04116" lon="-1.64408">
        <ele>49</ele>
        <time>2020-12-25T10:00:18.000Z</time>
      </trkpt>
      <trkpt lat="47.04108" lon="-1.64394">
        <ele>49</ele>
        <time>2020-12-25T10:00:20.000Z</time>
      </trkpt>
      <trkpt lat="47.041" lon="-1.6438">
        <ele>49</ele>
        <time>2020-12-25T10:00:22.000Z</time>
      </trkpt>
      <trkpt lat="47.04093" lon="-1.64364">
        <ele>49</ele>
        <time>2020-12-25T10:00:24.000Z</time>
      </trkpt>
      <trkpt lat="47.04086" lon="-1.64349">
        <ele>49</ele>
        <time>2020-12-25T10:00:26.000Z</time>
      </trkpt>
      <trkpt lat="47.04079" lon="-1.64334">
        <ele>49</ele>
        <time>2020-12-25T10:00:28.000Z</time>
      </trkpt>
      <trkpt lat="47.04072" lon="-1.64318">
        <ele>49</ele>
        <time>2020-12-25T10:00:30.000Z</time>
      </trkpt>
      <trkpt lat="47.04065" lon="-1.64302">
        <ele>49</ele>
        <time>2020-12-25T10:00:32.000Z</time>
      </trkpt>
      <trkpt lat="47.04059" lon="-1.64288">
        <ele>49</ele>
        <time>2020-12-25T10:00:34.000Z</time>
      </trkpt>
      <trkpt lat="47.04052" lon="-1.64274">
        <ele>49</ele>
        <time>2020-12-25T10:00:36.000Z</time>
      </trkpt>
      <trkpt lat="47.04043" lon="-1.64261">
        <ele>49</ele>
        <time>2020-12-25T10:00:38.000Z</time>
      </trkpt>
      <trkpt lat="47.04035" lon="-1.64248">
        <ele>49</ele>
        <time>2020-12-25T10:00:40.000Z</time>
      </trkpt>
      <trkpt lat="47.04026" lon="-1.64234">
        <ele>49</ele>
        <time>2020-12-25T10:00:42.000Z</time>
      </trkpt>
      <trkpt lat="47.04017" lon="-1.6422">
        <ele>49</ele>
        <time>2020-12-25T10:00:44.000Z</time>
      </trkpt>
      <trkpt lat="47.04008" lon="-1.64207">
        <ele>49</ele>
        <time>2020-12-25T10:00:46.000Z</time>
      </trkpt>
      <trkpt lat="47.04" lon="-1.64195">
        <ele>49</ele>
        <time>2020-12-25T10:00:48.000Z</time>
      </trkpt>
      <trkpt lat="47.03993" lon="-1.64182">
        <ele>50</ele>
        <time>2020-12-25T10:00:50.000Z</time>
      </trkpt>
      <trkpt lat="47.03986" lon="-1.64171">
        <ele>51</ele>
        <time>2020-12-25T10:00:52.000Z</time>
      </trkpt>
      <trkpt lat="47.03979" lon="-1.6416">
        <ele>51</ele>
        <time>2020-12-25T10:00:54.000Z</time>
      </trkpt>
      <trkpt lat="47.03971" lon="-1.64146">
        <ele>52</ele>
        <time>2020-12-25T10:00:57.000Z</time>
      </trkpt>
      <trkpt lat="47.03981" lon="-1.64138">
        <ele>53</ele>
        <time>2020-12-25T10:00:59.000Z</time>
      </trkpt>
      <trkpt lat="47.03991" lon="-1.64133">
        <ele>52</ele>
        <time>2020-12-25T10:01:01.000Z</time>
      </trkpt>
      <trkpt lat="47.04003" lon="-1.64126">
        <ele>52</ele>
        <time>2020-12-25T10:01:03.000Z</time>
      </trkpt>
      <trkpt lat="47.04013" lon="-1.64121">
        <ele>52</ele>
        <time>2020-12-25T10:01:05.000Z</time>
      </trkpt>
      <trkpt lat="47.04025" lon="-1.64117">
        <ele>52</ele>
        <time>2020-12-25T10:01:07.000Z</time>
      </trkpt>
      <trkpt lat="47.04036" lon="-1.64112">
        <ele>52</ele>
        <time>2020-12-25T10:01:09.000Z</time>
      </trkpt>
      <trkpt lat="47.04048" lon="-1.64106">
        <ele>52</ele>
        <time>2020-12-25T10:01:11.000Z</time>
      </trkpt>
      <trkpt lat="47.0406" lon="-1.64099">
        <ele>52</ele>
        <time>2020-12-25T10:01:13.000Z</time>
      </trkpt>
      <trkpt lat="47.04074" lon="-1.64092">
        <ele>51</ele>
        <time>2020-12-25T10:01:15.000Z</time>
      </trkpt>
      <trkpt lat="47.04087" lon="-1.64086">
        <ele>51</ele>
        <time>2020-12-25T10:01:17.000Z</time>
      </trkpt>
      <trkpt lat="47.04101" lon="-1.6408">
        <ele>51</ele>
        <time>2020-12-25T10:01:19.000Z</time>
      </trkpt>
      <trkpt lat="47.04114" lon="-1.64075">
        <ele>51</ele>
        <time>2020-12-25T10:01:21.000Z</time>
      </trkpt>
      <trkpt lat="47.04127" lon="-1.64069">
        <ele>51</ele>
        <time>2020-12-25T10:01:23.000Z</time>
      </trkpt>
      <trkpt lat="47.0414" lon="-1.64064">
        <ele>51</ele>
        <time>2020-12-25T10:01:25.000Z</time>
      </trkpt>
      <trkpt lat="47.04153" lon="-1.64058">
        <ele>51</ele>
        <time>2020-12-25T10:01:27.000Z</time>
      </trkpt>
      <trkpt lat="47.04166" lon="-1.64052">
        <ele>51</ele>
        <time>2020-12-25T10:01:29.000Z</time>
      </trkpt>
      <trkpt lat="47.04179" lon="-1.64046">
        <ele>51</ele>
        <time>2020-12-25T10:01:31.000Z</time>
      </trkpt>
      <trkpt lat="47.04192" lon="-1.64042">
        <ele>51</ele>
        <time>2020-12-25T10:01:33.000Z</time>
      </trkpt>
      <trkpt lat="47.04205" lon="-1.64036">
        <ele>52</ele>
        <time>2020-12-25T10:01:35.000Z</time>
      </trkpt>
      <trkpt lat="47.04217" lon="-1.6403">
        <ele>51</ele>
        <time>2020-12-25T10:01:37.000Z</time>
      </trkpt>
      <trkpt lat="47.0423" lon="-1.64025">
        <ele>51</ele>
        <time>2020-12-25T10:01:39.000Z</time>
      </trkpt>
      <trkpt lat="47.04241" lon="-1.6402">
        <ele>51</ele>
        <time>2020-12-25T10:01:41.000Z</time>
      </trkpt>
      <trkpt lat="47.04254" lon="-1.64014">
        <ele>51</ele>
        <time>2020-12-25T10:01:43.000Z</time>
      </trkpt>
      <trkpt lat="47.04266" lon="-1.64009">
        <ele>50</ele>
        <time>2020-12-25T10:01:45.000Z</time>
      </trkpt>
      <trkpt lat="47.04278" lon="-1.64004">
        <ele>50</ele>
        <time>2020-12-25T10:01:47.000Z</time>
      </trkpt>
      <trkpt lat="47.0429" lon="-1.63998">
        <ele>50</ele>
        <time>2020-12-25T10:01:49.000Z</time>
      </trkpt>
      <trkpt lat="47.04302" lon="-1.63992">
        <ele>50</ele>
        <time>2020-12-25T10:01:51.000Z</time>
      </trkpt>
      <trkpt lat="47.04313" lon="-1.63986">
        <ele>50</ele>
        <time>2020-12-25T10:01:53.000Z</time>
      </trkpt>
      <trkpt lat="47.04325" lon="-1.63981">
        <ele>50</ele>
        <time>2020-12-25T10:01:55.000Z</time>
      </trkpt>
      <trkpt lat="47.04338" lon="-1.63976">
        <ele>50</ele>
        <time>2020-12-25T10:01:57.000Z</time>
      </trkpt>
      <trkpt lat="47.04349" lon="-1.63971">
        <ele>50</ele>
        <time>2020-12-25T10:01:59.000Z</time>
      </trkpt>
      <trkpt lat="47.04361" lon="-1.63966">
        <ele>51</ele>
        <time>2020-12-25T10:02:01.000Z</time>
      </trkpt>
      <trkpt lat="47.04374" lon="-1.63961">
        <ele>51</ele>
        <time>2020-12-25T10:02:03.000Z</time>
      </trkpt>
      <trkpt lat="47.04387" lon="-1.63955">
        <ele>51</ele>
        <time>2020-12-25T10:02:05.000Z</time>
      </trkpt>
      <trkpt lat="47.04399" lon="-1.63949">
        <ele>52</ele>
        <time>2020-12-25T10:02:07.000Z</time>
      </trkpt>
      <trkpt lat="47.04411" lon="-1.63944">
        <ele>52</ele>
        <time>2020-12-25T10:02:09.000Z</time>
      </trkpt>
      <trkpt lat="47.04423" lon="-1.63938">
        <ele>52</ele>
        <time>2020-12-25T10:02:11.000Z</time>
      </trkpt>
      <trkpt lat="47.04435" lon="-1.63933">
        <ele>52</ele>
        <time>2020-12-25T10:02:13.000Z</time>
      </trkpt>
      <trkpt lat="47.04446" lon="-1.63928">
        <ele>52</ele>
        <time>2020-12-25T10:02:15.000Z</time>
      </trkpt>
      <trkpt lat="47.04457" lon="-1.63921">
        <ele>51</ele>
        <time>2020-12-25T10:02:17.000Z</time>
      </trkpt>
      <trkpt lat="47.04467" lon="-1.63911">
        <ele>51</ele>
        <time>2020-12-25T10:02:19.000Z</time>
      </trkpt>
      <trkpt lat="47.04478" lon="-1.63908">
        <ele>51</ele>
        <time>2020-12-25T10:02:21.000Z</time>
      </trkpt>
      <trkpt lat="47.0449" lon="-1.63904">
        <ele>51</ele>
        <time>2020-12-25T10:02:23.000Z</time>
      </trkpt>
      <trkpt lat="47.04502" lon="-1.63897">
        <ele>50</ele>
        <time>2020-12-25T10:02:25.000Z</time>
      </trkpt>
      <trkpt lat="47.04513" lon="-1.63889">
        <ele>50</ele>
        <time>2020-12-25T10:02:27.000Z</time>
      </trkpt>
      <trkpt lat="47.04526" lon="-1.63882">
        <ele>50</ele>
        <time>2020-12-25T10:02:29.000Z</time>
      </trkpt>
      <trkpt lat="47.04538" lon="-1.63874">
        <ele>50</ele>
        <time>2020-12-25T10:02:31.000Z</time>
      </trkpt>
      <trkpt lat="47.04549" lon="-1.63867">
        <ele>50</ele>
        <time>2020-12-25T10:02:33.000Z</time>
      </trkpt>
      <trkpt lat="47.04561" lon="-1.6386">
        <ele>51</ele>
        <time>2020-12-25T10:02:35.000Z</time>
      </trkpt>
      <trkpt lat="47.04572" lon="-1.63853">
        <ele>51</ele>
        <time>2020-12-25T10:02:37.000Z</time>
      </trkpt>
      <trkpt lat="47.04583" lon="-1.63847">
        <ele>51</ele>
        <time>2020-12-25T10:02:39.000Z</time>
      </trkpt>
      <trkpt lat="47.04594" lon="-1.63842">
        <ele>51</ele>
        <time>2020-12-25T10:02:41.000Z</time>
      </trkpt>
      <trkpt lat="47.04606" lon="-1.63839">
        <ele>52</ele>
        <time>2020-12-25T10:02:43.000Z</time>
      </trkpt>
      <trkpt lat="47.04617" lon="-1.63838">
        <ele>52</ele>
        <time>2020-12-25T10:02:45.000Z</time>
      </trkpt>
      <trkpt lat="47.04628" lon="-1.63837">
        <ele>53</ele>
        <time>2020-12-25T10:02:47.000Z</time>
      </trkpt>
      <trkpt lat="47.04638" lon="-1.63836">
        <ele>53</ele>
        <time>2020-12-25T10:02:49.000Z</time>
      </trkpt>
      <trkpt lat="47.04648" lon="-1.63833">
        <ele>53</ele>
        <time>2020-12-25T10:02:51.000Z</time>
      </trkpt>
      <trkpt lat="47.04658" lon="-1.63827">
        <ele>54</ele>
        <time>2020-12-25T10:02:53.000Z</time>
      </trkpt>
      <trkpt lat="47.04667" lon="-1.63821">
        <ele>54</ele>
        <time>2020-12-25T10:02:55.000Z</time>
      </trkpt>
      <trkpt lat="47.04676" lon="-1.63815">
        <ele>54</ele>
        <time>2020-12-25T10:02:57.000Z</time>
      </trkpt>
      <trkpt lat="47.04686" lon="-1.6381">
        <ele>54</ele>
        <time>2020-12-25T10:02:59.000Z</time>
      </trkpt>
      <trkpt lat="47.04696" lon="-1.63806">
        <ele>55</ele>
        <time>2020-12-25T10:03:01.000Z</time>
      </trkpt>
      <trkpt lat="47.04706" lon="-1.63801">
        <ele>55</ele>
        <time>2020-12-25T10:03:03.000Z</time>
      </trkpt>
      <trkpt lat="47.04715" lon="-1.63795">
        <ele>55</ele>
        <time>2020-12-25T10:03:05.000Z</time>
      </trkpt>
      <trkpt lat="47.04726" lon="-1.63794">
        <ele>55</ele>
        <time>2020-12-25T10:03:07.000Z</time>
      </trkpt>
      <trkpt lat="47.04736" lon="-1.63796">
        <ele>55</ele>
        <time>2020-12-25T10:03:09.000Z</time>
      </trkpt>
      <trkpt lat="47.04747" lon="-1.63795">
        <ele>55</ele>
        <time>2020-12-25T10:03:11.000Z</time>
      </trkpt>
      <trkpt lat="47.04757" lon="-1.63791">
        <ele>55</ele>
        <time>2020-12-25T10:03:13.000Z</time>
      </trkpt>
      <trkpt lat="47.04767" lon="-1.63787">
        <ele>56</ele>
        <time>2020-12-25T10:03:15.000Z</time>
      </trkpt>
      <trkpt lat="47.04777" lon="-1.63783">
        <ele>56</ele>
        <time>2020-12-25T10:03:17.000Z</time>
      </trkpt>
      <trkpt lat="47.04786" lon="-1.6378">
        <ele>57</ele>
        <time>2020-12-25T10:03:19.000Z</time>
      </trkpt>
      <trkpt lat="47.04796" lon="-1.63777">
        <ele>57</ele>
        <time>2020-12-25T10:03:21.000Z</time>
      </trkpt>
      <trkpt lat="47.04806" lon="-1.63776">
        <ele>57</ele>
        <time>2020-12-25T10:03:23.000Z</time>
      </trkpt>
      <trkpt lat="47.04816" lon="-1.63774">
        <ele>57</ele>
        <time>2020-12-25T10:03:25.000Z</time>
      </trkpt>
      <trkpt lat="47.04826" lon="-1.63772">
        <ele>57</ele>
        <time>2020-12-25T10:03:27.000Z</time>
      </trkpt>
      <trkpt lat="47.04837" lon="-1.6377">
        <ele>57</ele>
        <time>2020-12-25T10:03:29.000Z</time>
      </trkpt>
      <trkpt lat="47.04848" lon="-1.63769">
        <ele>57</ele>
        <time>2020-12-25T10:03:31.000Z</time>
      </trkpt>
      <trkpt lat="47.04858" lon="-1.63767">
        <ele>57</ele>
        <time>2020-12-25T10:03:33.000Z</time>
      </trkpt>
      <trkpt lat="47.04868" lon="-1.63765">
        <ele>57</ele>
        <time>2020-12-25T10:03:35.000Z</time>
      </trkpt>
      <trkpt lat="47.04879" lon="-1.63762">
        <ele>57</ele>
        <time>2020-12-25T10:03:37.000Z</time>
      </trkpt>
      <trkpt lat="47.04891" lon="-1.63759">
        <ele>57</ele>
        <time>2020-12-25T10:03:39.000Z</time>
      </trkpt>
      <trkpt lat="47.04903" lon="-1.63757">
        <ele>57</ele>
        <time>2020-12-25T10:03:41.000Z</time>
      </trkpt>
      <trkpt lat="47.04916" lon="-1.63753">
        <ele>57</ele>
        <time>2020-12-25T10:03:43.000Z</time>
      </trkpt>
      <trkpt lat="47.04927" lon="-1.63748">
        <ele>57</ele>
        <time>2020-12-25T10:03:45.000Z</time>
      </trkpt>
      <trkpt lat="47.04937" lon="-1.63737">
        <ele>57</ele>
        <time>2020-12-25T10:03:47.000Z</time>
      </trkpt>
      <trkpt lat="47.04944" lon="-1.63722">
        <ele>58</ele>
        <time>2020-12-25T10:03:49.000Z</time>
      </trkpt>
      <trkpt lat="47.04945" lon="-1.63704">
        <ele>57</ele>
        <time>2020-12-25T10:03:51.000Z</time>
      </trkpt>
      <trkpt lat="47.04946" lon="-1.63686">
        <ele>57</ele>
        <time>2020-12-25T10:03:53.000Z</time>
      </trkpt>
      <trkpt lat="47.04945" lon="-1.63667">
        <ele>57</ele>
        <time>2020-12-25T10:03:55.000Z</time>
      </trkpt>
      <trkpt lat="47.04945" lon="-1.63647">
        <ele>57</ele>
        <time>2020-12-25T10:03:57.000Z</time>
      </trkpt>
      <trkpt lat="47.04947" lon="-1.63628">
        <ele>57</ele>
        <time>2020-12-25T10:03:59.000Z</time>
      </trkpt>
      <trkpt lat="47.04953" lon="-1.6361">
        <ele>57</ele>
        <time>2020-12-25T10:04:01.000Z</time>
      </trkpt>
      <trkpt lat="47.0496" lon="-1.63591">
        <ele>56</ele>
        <time>2020-12-25T10:04:03.000Z</time>
      </trkpt>
      <trkpt lat="47.0497" lon="-1.63576">
        <ele>56</ele>
        <time>2020-12-25T10:04:05.000Z</time>
      </trkpt>
      <trkpt lat="47.04982" lon="-1.63564">
        <ele>56</ele>
        <time>2020-12-25T10:04:07.000Z</time>
      </trkpt>
      <trkpt lat="47.04995" lon="-1.63554">
        <ele>56</ele>
        <time>2020-12-25T10:04:09.000Z</time>
      </trkpt>
      <trkpt lat="47.05008" lon="-1.63547">
        <ele>55</ele>
        <time>2020-12-25T10:04:11.000Z</time>
      </trkpt>
      <trkpt lat="47.05021" lon="-1.63541">
        <ele>55</ele>
        <time>2020-12-25T10:04:13.000Z</time>
      </trkpt>
      <trkpt lat="47.05034" lon="-1.63536">
        <ele>55</ele>
        <time>2020-12-25T10:04:15.000Z</time>
      </trkpt>
      <trkpt lat="47.05048" lon="-1.63531">
        <ele>54</ele>
        <time>2020-12-25T10:04:17.000Z</time>
      </trkpt>
      <trkpt lat="47.05061" lon="-1.63526">
        <ele>55</ele>
        <time>2020-12-25T10:04:19.000Z</time>
      </trkpt>
      <trkpt lat="47.05074" lon="-1.63522">
        <ele>55</ele>
        <time>2020-12-25T10:04:21.000Z</time>
      </trkpt>
      <trkpt lat="47.05087" lon="-1.63516">
        <ele>54</ele>
        <time>2020-12-25T10:04:23.000Z</time>
      </trkpt>
      <trkpt lat="47.051" lon="-1.63511">
        <ele>54</ele>
        <time>2020-12-25T10:04:25.000Z</time>
      </trkpt>
      <trkpt lat="47.05112" lon="-1.63507">
        <ele>53</ele>
        <time>2020-12-25T10:04:27.000Z</time>
      </trkpt>
      <trkpt lat="47.05125" lon="-1.63502">
        <ele>54</ele>
        <time>2020-12-25T10:04:29.000Z</time>
      </trkpt>
      <trkpt lat="47.05137" lon="-1.63497">
        <ele>54</ele>
        <time>2020-12-25T10:04:31.000Z</time>
      </trkpt>
      <trkpt lat="47.0515" lon="-1.63492">
        <ele>54</ele>
        <time>2020-12-25T10:04:33.000Z</time>
      </trkpt>
      <trkpt lat="47.05162" lon="-1.63488">
        <ele>54</ele>
        <time>2020-12-25T10:04:35.000Z</time>
      </trkpt>
      <trkpt lat="47.05174" lon="-1.63483">
        <ele>53</ele>
        <time>2020-12-25T10:04:37.000Z</time>
      </trkpt>
      <trkpt lat="47.05186" lon="-1.63478">
        <ele>53</ele>
        <time>2020-12-25T10:04:39.000Z</time>
      </trkpt>
      <trkpt lat="47.05198" lon="-1.63473">
        <ele>53</ele>
        <time>2020-12-25T10:04:41.000Z</time>
      </trkpt>
      <trkpt lat="47.0521" lon="-1.63468">
        <ele>53</ele>
        <time>2020-12-25T10:04:43.000Z</time>
      </trkpt>
      <trkpt lat="47.05222" lon="-1.63464">
        <ele>52</ele>
        <time>2020-12-25T10:04:45.000Z</time>
      </trkpt>
      <trkpt lat="47.05235" lon="-1.6346">
        <ele>53</ele>
        <time>2020-12-25T10:04:47.000Z</time>
      </trkpt>
      <trkpt lat="47.05247" lon="-1.63457">
        <ele>53</ele>
        <time>2020-12-25T10:04:49.000Z</time>
      </trkpt>
      <trkpt lat="47.05259" lon="-1.63454">
        <ele>53</ele>
        <time>2020-12-25T10:04:51.000Z</time>
      </trkpt>
      <trkpt lat="47.05272" lon="-1.63451">
        <ele>53</ele>
        <time>2020-12-25T10:04:53.000Z</time>
      </trkpt>
      <trkpt lat="47.05284" lon="-1.63448">
        <ele>53</ele>
        <time>2020-12-25T10:04:55.000Z</time>
      </trkpt>
      <trkpt lat="47.05296" lon="-1.63446">
        <ele>53</ele>
        <time>2020-12-25T10:04:57.000Z</time>
      </trkpt>
      <trkpt lat="47.05309" lon="-1.63444">
        <ele>54</ele>
        <time>2020-12-25T10:04:59.000Z</time>
      </trkpt>
      <trkpt lat="47.05321" lon="-1.63443">
        <ele>54</ele>
        <time>2020-12-25T10:05:01.000Z</time>
      </trkpt>
      <trkpt lat="47.05333" lon="-1.63443">
        <ele>54</ele>
        <time>2020-12-25T10:05:03.000Z</time>
      </trkpt>
      <trkpt lat="47.05345" lon="-1.63442">
        <ele>54</ele>
        <time>2020-12-25T10:05:05.000Z</time>
      </trkpt>
      <trkpt lat="47.05357" lon="-1.63438">
        <ele>54</ele>
        <time>2020-12-25T10:05:07.000Z</time>
      </trkpt>
      <trkpt lat="47.05368" lon="-1.6343">
        <ele>54</ele>
        <time>2020-12-25T10:05:09.000Z</time>
      </trkpt>
      <trkpt lat="47.05381" lon="-1.63427">
        <ele>54</ele>
        <time>2020-12-25T10:05:11.000Z</time>
      </trkpt>
      <trkpt lat="47.05393" lon="-1.6343">
        <ele>54</ele>
        <time>2020-12-25T10:05:13.000Z</time>
      </trkpt>
      <trkpt lat="47.05406" lon="-1.63431">
        <ele>53</ele>
        <time>2020-12-25T10:05:15.000Z</time>
      </trkpt>
      <trkpt lat="47.05419" lon="-1.63429">
        <ele>53</ele>
        <time>2020-12-25T10:05:17.000Z</time>
      </trkpt>
      <trkpt lat="47.05431" lon="-1.63426">
        <ele>53</ele>
        <time>2020-12-25T10:05:19.000Z</time>
      </trkpt>
      <trkpt lat="47.05444" lon="-1.63423">
        <ele>53</ele>
        <time>2020-12-25T10:05:21.000Z</time>
      </trkpt>
      <trkpt lat="47.05457" lon="-1.63422">
        <ele>54</ele>
        <time>2020-12-25T10:05:23.000Z</time>
      </trkpt>
      <trkpt lat="47.05469" lon="-1.63419">
        <ele>53</ele>
        <time>2020-12-25T10:05:25.000Z</time>
      </trkpt>
      <trkpt lat="47.05482" lon="-1.63417">
        <ele>53</ele>
        <time>2020-12-25T10:05:27.000Z</time>
      </trkpt>
      <trkpt lat="47.05494" lon="-1.63415">
        <ele>53</ele>
        <time>2020-12-25T10:05:29.000Z</time>
      </trkpt>
      <trkpt lat="47.05507" lon="-1.63413">
        <ele>52</ele>
        <time>2020-12-25T10:05:31.000Z</time>
      </trkpt>
      <trkpt lat="47.05521" lon="-1.63411">
        <ele>52</ele>
        <time>2020-12-25T10:05:33.000Z</time>
      </trkpt>
      <trkpt lat="47.05533" lon="-1.63407">
        <ele>53</ele>
        <time>2020-12-25T10:05:35.000Z</time>
      </trkpt>
      <trkpt lat="47.05546" lon="-1.63402">
        <ele>53</ele>
        <time>2020-12-25T10:05:37.000Z</time>
      </trkpt>
      <trkpt lat="47.05558" lon="-1.63398">
        <ele>53</ele>
        <time>2020-12-25T10:05:39.000Z</time>
      </trkpt>
      <trkpt lat="47.0557" lon="-1.63393">
        <ele>52</ele>
        <time>2020-12-25T10:05:41.000Z</time>
      </trkpt>
      <trkpt lat="47.05582" lon="-1.63388">
        <ele>53</ele>
        <time>2020-12-25T10:05:43.000Z</time>
      </trkpt>
      <trkpt lat="47.05593" lon="-1.63384">
        <ele>53</ele>
        <time>2020-12-25T10:05:45.000Z</time>
      </trkpt>
      <trkpt lat="47.05605" lon="-1.63378">
        <ele>53</ele>
        <time>2020-12-25T10:05:47.000Z</time>
      </trkpt>
      <trkpt lat="47.05616" lon="-1.63372">
        <ele>53</ele>
        <time>2020-12-25T10:05:49.000Z</time>
      </trkpt>
      <trkpt lat="47.05628" lon="-1.63366">
        <ele>53</ele>
        <time>2020-12-25T10:05:51.000Z</time>
      </trkpt>
      <trkpt lat="47.0564" lon="-1.63361">
        <ele>53</ele>
        <time>2020-12-25T10:05:53.000Z</time>
      </trkpt>
      <trkpt lat="47.05653" lon="-1.63355">
        <ele>53</ele>
        <time>2020-12-25T10:05:55.000Z</time>
      </trkpt>
      <trkpt lat="47.05666" lon="-1.63349">
        <ele>53</ele>
        <time>2020-12-25T10:05:57.000Z</time>
      </trkpt>
      <trkpt lat="47.05679" lon="-1.63344">
        <ele>53</ele>
        <time>2020-12-25T10:05:59.000Z</time>
      </trkpt>
      <trkpt lat="47.05691" lon="-1.63338">
        <ele>53</ele>
        <time>2020-12-25T10:06:01.000Z</time>
      </trkpt>
      <trkpt lat="47.05702" lon="-1.63332">
        <ele>53</ele>
        <time>2020-12-25T10:06:03.000Z</time>
      </trkpt>
      <trkpt lat="47.05714" lon="-1.63327">
        <ele>53</ele>
        <time>2020-12-25T10:06:05.000Z</time>
      </trkpt>
      <trkpt lat="47.05725" lon="-1.63321">
        <ele>53</ele>
        <time>2020-12-25T10:06:07.000Z</time>
      </trkpt>
      <trkpt lat="47.05737" lon="-1.63316">
        <ele>53</ele>
        <time>2020-12-25T10:06:09.000Z</time>
      </trkpt>
      <trkpt lat="47.05749" lon="-1.6331">
        <ele>54</ele>
        <time>2020-12-25T10:06:11.000Z</time>
      </trkpt>
      <trkpt lat="47.05761" lon="-1.63304">
        <ele>54</ele>
        <time>2020-12-25T10:06:13.000Z</time>
      </trkpt>
      <trkpt lat="47.05773" lon="-1.63298">
        <ele>54</ele>
        <time>2020-12-25T10:06:15.000Z</time>
      </trkpt>
      <trkpt lat="47.05786" lon="-1.63292">
        <ele>54</ele>
        <time>2020-12-25T10:06:17.000Z</time>
      </trkpt>
      <trkpt lat="47.05798" lon="-1.63287">
        <ele>54</ele>
        <time>2020-12-25T10:06:19.000Z</time>
      </trkpt>
      <trkpt lat="47.05809" lon="-1.63281">
        <ele>54</ele>
        <time>2020-12-25T10:06:21.000Z</time>
      </trkpt>
      <trkpt lat="47.05821" lon="-1.63276">
        <ele>53</ele>
        <time>2020-12-25T10:06:23.000Z</time>
      </trkpt>
      <trkpt lat="47.05833" lon="-1.63271">
        <ele>54</ele>
        <time>2020-12-25T10:06:25.000Z</time>
      </trkpt>
      <trkpt lat="47.05845" lon="-1.63265">
        <ele>54</ele>
        <time>2020-12-25T10:06:27.000Z</time>
      </trkpt>
      <trkpt lat="47.05856" lon="-1.6326">
        <ele>53</ele>
        <time>2020-12-25T10:06:29.000Z</time>
      </trkpt>
      <trkpt lat="47.05868" lon="-1.63254">
        <ele>53</ele>
        <time>2020-12-25T10:06:31.000Z</time>
      </trkpt>
      <trkpt lat="47.0588" lon="-1.63248">
        <ele>53</ele>
        <time>2020-12-25T10:06:33.000Z</time>
      </trkpt>
      <trkpt lat="47.05892" lon="-1.63242">
        <ele>53</ele>
        <time>2020-12-25T10:06:35.000Z</time>
      </trkpt>
      <trkpt lat="47.05904" lon="-1.63237">
        <ele>53</ele>
        <time>2020-12-25T10:06:37.000Z</time>
      </trkpt>
      <trkpt lat="47.05916" lon="-1.63232">
        <ele>53</ele>
        <time>2020-12-25T10:06:39.000Z</time>
      </trkpt>
      <trkpt lat="47.05928" lon="-1.63226">
        <ele>53</ele>
        <time>2020-12-25T10:06:41.000Z</time>
      </trkpt>
      <trkpt lat="47.0594" lon="-1.6322">
        <ele>53</ele>
        <time>2020-12-25T10:06:43.000Z</time>
      </trkpt>
      <trkpt lat="47.05952" lon="-1.63214">
        <ele>53</ele>
        <time>2020-12-25T10:06:45.000Z</time>
      </trkpt>
      <trkpt lat="47.05964" lon="-1.63209">
        <ele>53</ele>
        <time>2020-12-25T10:06:47.000Z</time>
      </trkpt>
      <trkpt lat="47.05976" lon="-1.63203">
        <ele>53</ele>
        <time>2020-12-25T10:06:49.000Z</time>
      </trkpt>
      <trkpt lat="47.05988" lon="-1.63197">
        <ele>53</ele>
        <time>2020-12-25T10:06:51.000Z</time>
      </trkpt>
      <trkpt lat="47.06001" lon="-1.63191">
        <ele>52</ele>
        <time>2020-12-25T10:06:53.000Z</time>
      </trkpt>
      <trkpt lat="47.06014" lon="-1.63185">
        <ele>52</ele>
        <time>2020-12-25T10:06:55.000Z</time>
      </trkpt>
      <trkpt lat="47.06026" lon="-1.63179">
        <ele>51</ele>
        <time>2020-12-25T10:06:57.000Z</time>
      </trkpt>
      <trkpt lat="47.06038" lon="-1.63174">
        <ele>51</ele>
        <time>2020-12-25T10:06:59.000Z</time>
      </trkpt>
      <trkpt lat="47.0605" lon="-1.63168">
        <ele>51</ele>
        <time>2020-12-25T10:07:01.000Z</time>
      </trkpt>
      <trkpt lat="47.06062" lon="-1.63162">
        <ele>52</ele>
        <time>2020-12-25T10:07:03.000Z</time>
      </trkpt>
      <trkpt lat="47.06074" lon="-1.63157">
        <ele>52</ele>
        <time>2020-12-25T10:07:05.000Z</time>
      </trkpt>
      <trkpt lat="47.06085" lon="-1.63151">
        <ele>53</ele>
        <time>2020-12-25T10:07:07.000Z</time>
      </trkpt>
      <trkpt lat="47.06097" lon="-1.63146">
        <ele>53</ele>
        <time>2020-12-25T10:07:09.000Z</time>
      </trkpt>
      <trkpt lat="47.06109" lon="-1.63141">
        <ele>52</ele>
        <time>2020-12-25T10:07:11.000Z</time>
      </trkpt>
      <trkpt lat="47.06121" lon="-1.63136">
        <ele>52</ele>
        <time>2020-12-25T10:07:13.000Z</time>
      </trkpt>
      <trkpt lat="47.06133" lon="-1.6313">
        <ele>52</ele>
        <time>2020-12-25T10:07:15.000Z</time>
      </trkpt>
      <trkpt lat="47.06145" lon="-1.63124">
        <ele>52</ele>
        <time>2020-12-25T10:07:17.000Z</time>
      </trkpt>
      <trkpt lat="47.06158" lon="-1.63118">
        <ele>52</ele>
        <time>2020-12-25T10:07:19.000Z</time>
      </trkpt>
      <trkpt lat="47.0617" lon="-1.63112">
        <ele>52</ele>
        <time>2020-12-25T10:07:21.000Z</time>
      </trkpt>
      <trkpt lat="47.06182" lon="-1.63107">
        <ele>52</ele>
        <time>2020-12-25T10:07:23.000Z</time>
      </trkpt>
      <trkpt lat="47.06193" lon="-1.63101">
        <ele>52</ele>
        <time>2020-12-25T10:07:25.000Z</time>
      </trkpt>
      <trkpt lat="47.06205" lon="-1.63095">
        <ele>52</ele>
        <time>2020-12-25T10:07:27.000Z</time>
      </trkpt>
      <trkpt lat="47.06216" lon="-1.63091">
        <ele>52</ele>
        <time>2020-12-25T10:07:29.000Z</time>
      </trkpt>
      <trkpt lat="47.06228" lon="-1.63086">
        <ele>52</ele>
        <time>2020-12-25T10:07:31.000Z</time>
      </trkpt>
      <trkpt lat="47.06239" lon="-1.6308">
        <ele>52</ele>
        <time>2020-12-25T10:07:33.000Z</time>
      </trkpt>
      <trkpt lat="47.06251" lon="-1.63075">
        <ele>52</ele>
        <time>2020-12-25T10:07:35.000Z</time>
      </trkpt>
      <trkpt lat="47.06262" lon="-1.63069">
        <ele>52</ele>
        <time>2020-12-25T10:07:37.000Z</time>
      </trkpt>
      <trkpt lat="47.06273" lon="-1.63064">
        <ele>52</ele>
        <time>2020-12-25T10:07:39.000Z</time>
      </trkpt>
      <trkpt lat="47.06284" lon="-1.63059">
        <ele>52</ele>
        <time>2020-12-25T10:07:41.000Z</time>
      </trkpt>
      <trkpt lat="47.06295" lon="-1.63053">
        <ele>52</ele>
        <time>2020-12-25T10:07:43.000Z</time>
      </trkpt>
      <trkpt lat="47.06306" lon="-1.63048">
        <ele>51</ele>
        <time>2020-12-25T10:07:45.000Z</time>
      </trkpt>
      <trkpt lat="47.06318" lon="-1.63043">
        <ele>51</ele>
        <time>2020-12-25T10:07:47.000Z</time>
      </trkpt>
      <trkpt lat="47.06329" lon="-1.63037">
        <ele>52</ele>
        <time>2020-12-25T10:07:49.000Z</time>
      </trkpt>
      <trkpt lat="47.0634" lon="-1.63032">
        <ele>52</ele>
        <time>2020-12-25T10:07:51.000Z</time>
      </trkpt>
      <trkpt lat="47.06352" lon="-1.63027">
        <ele>52</ele>
        <time>2020-12-25T10:07:53.000Z</time>
      </trkpt>
      <trkpt lat="47.06364" lon="-1.63022">
        <ele>52</ele>
        <time>2020-12-25T10:07:55.000Z</time>
      </trkpt>
      <trkpt lat="47.06375" lon="-1.63017">
        <ele>53</ele>
        <time>2020-12-25T10:07:57.000Z</time>
      </trkpt>
      <trkpt lat="47.06386" lon="-1.63012">
        <ele>53</ele>
        <time>2020-12-25T10:07:59.000Z</time>
      </trkpt>
      <trkpt lat="47.06398" lon="-1.63006">
        <ele>53</ele>
        <time>2020-12-25T10:08:01.000Z</time>
      </trkpt>
      <trkpt lat="47.06409" lon="-1.63">
        <ele>54</ele>
        <time>2020-12-25T10:08:03.000Z</time>
      </trkpt>
      <trkpt lat="47.0642" lon="-1.62995">
        <ele>54</ele>
        <time>2020-12-25T10:08:05.000Z</time>
      </trkpt>
      <trkpt lat="47.06432" lon="-1.6299">
        <ele>55</ele>
        <time>2020-12-25T10:08:07.000Z</time>
      </trkpt>
      <trkpt lat="47.06443" lon="-1.62984">
        <ele>54</ele>
        <time>2020-12-25T10:08:09.000Z</time>
      </trkpt>
      <trkpt lat="47.06453" lon="-1.62979">
        <ele>54</ele>
        <time>2020-12-25T10:08:11.000Z</time>
      </trkpt>
      <trkpt lat="47.06465" lon="-1.62973">
        <ele>55</ele>
        <time>2020-12-25T10:08:13.000Z</time>
      </trkpt>
      <trkpt lat="47.06477" lon="-1.62967">
        <ele>54</ele>
        <time>2020-12-25T10:08:15.000Z</time>
      </trkpt>
      <trkpt lat="47.06488" lon="-1.62961">
        <ele>54</ele>
        <time>2020-12-25T10:08:17.000Z</time>
      </trkpt>
      <trkpt lat="47.06499" lon="-1.62952">
        <ele>54</ele>
        <time>2020-12-25T10:08:19.000Z</time>
      </trkpt>
      <trkpt lat="47.06509" lon="-1.62942">
        <ele>54</ele>
        <time>2020-12-25T10:08:21.000Z</time>
      </trkpt>
      <trkpt lat="47.06519" lon="-1.62932">
        <ele>54</ele>
        <time>2020-12-25T10:08:23.000Z</time>
      </trkpt>
      <trkpt lat="47.06529" lon="-1.6292">
        <ele>54</ele>
        <time>2020-12-25T10:08:25.000Z</time>
      </trkpt>
      <trkpt lat="47.06538" lon="-1.62907">
        <ele>54</ele>
        <time>2020-12-25T10:08:27.000Z</time>
      </trkpt>
      <trkpt lat="47.06547" lon="-1.62894">
        <ele>54</ele>
        <time>2020-12-25T10:08:29.000Z</time>
      </trkpt>
      <trkpt lat="47.06556" lon="-1.6288">
        <ele>54</ele>
        <time>2020-12-25T10:08:31.000Z</time>
      </trkpt>
      <trkpt lat="47.06564" lon="-1.62867">
        <ele>55</ele>
        <time>2020-12-25T10:08:33.000Z</time>
      </trkpt>
      <trkpt lat="47.06573" lon="-1.62854">
        <ele>55</ele>
        <time>2020-12-25T10:08:35.000Z</time>
      </trkpt>
      <trkpt lat="47.06581" lon="-1.62841">
        <ele>55</ele>
        <time>2020-12-25T10:08:37.000Z</time>
      </trkpt>
      <trkpt lat="47.0659" lon="-1.62828">
        <ele>55</ele>
        <time>2020-12-25T10:08:39.000Z</time>
      </trkpt>
      <trkpt lat="47.06599" lon="-1.62815">
        <ele>56</ele>
        <time>2020-12-25T10:08:41.000Z</time>
      </trkpt>
      <trkpt lat="47.06608" lon="-1.62801">
        <ele>56</ele>
        <time>2020-12-25T10:08:43.000Z</time>
      </trkpt>
      <trkpt lat="47.06617" lon="-1.62788">
        <ele>56</ele>
        <time>2020-12-25T10:08:45.000Z</time>
      </trkpt>
      <trkpt lat="47.06625" lon="-1.62775">
        <ele>56</ele>
        <time>2020-12-25T10:08:47.000Z</time>
      </trkpt>
      <trkpt lat="47.06634" lon="-1.62762">
        <ele>55</ele>
        <time>2020-12-25T10:08:49.000Z</time>
      </trkpt>
      <trkpt lat="47.06642" lon="-1.62748">
        <ele>55</ele>
        <time>2020-12-25T10:08:51.000Z</time>
      </trkpt>
      <trkpt lat="47.06651" lon="-1.62736">
        <ele>55</ele>
        <time>2020-12-25T10:08:53.000Z</time>
      </trkpt>
      <trkpt lat="47.06659" lon="-1.62722">
        <ele>56</ele>
        <time>2020-12-25T10:08:55.000Z</time>
      </trkpt>
      <trkpt lat="47.06668" lon="-1.62709">
        <ele>56</ele>
        <time>2020-12-25T10:08:57.000Z</time>
      </trkpt>
      <trkpt lat="47.06677" lon="-1.62696">
        <ele>56</ele>
        <time>2020-12-25T10:08:59.000Z</time>
      </trkpt>
      <trkpt lat="47.06685" lon="-1.62683">
        <ele>56</ele>
        <time>2020-12-25T10:09:01.000Z</time>
      </trkpt>
      <trkpt lat="47.06694" lon="-1.6267">
        <ele>56</ele>
        <time>2020-12-25T10:09:03.000Z</time>
      </trkpt>
      <trkpt lat="47.06702" lon="-1.62658">
        <ele>57</ele>
        <time>2020-12-25T10:09:05.000Z</time>
      </trkpt>
      <trkpt lat="47.06711" lon="-1.62646">
        <ele>57</ele>
        <time>2020-12-25T10:09:07.000Z</time>
      </trkpt>
      <trkpt lat="47.0672" lon="-1.62635">
        <ele>57</ele>
        <time>2020-12-25T10:09:09.000Z</time>
      </trkpt>
      <trkpt lat="47.0673" lon="-1.62625">
        <ele>57</ele>
        <time>2020-12-25T10:09:11.000Z</time>
      </trkpt>
      <trkpt lat="47.0674" lon="-1.62614">
        <ele>57</ele>
        <time>2020-12-25T10:09:13.000Z</time>
      </trkpt>
      <trkpt lat="47.0675" lon="-1.62605">
        <ele>56</ele>
        <time>2020-12-25T10:09:15.000Z</time>
      </trkpt>
      <trkpt lat="47.0676" lon="-1.62595">
        <ele>57</ele>
        <time>2020-12-25T10:09:17.000Z</time>
      </trkpt>
      <trkpt lat="47.0677" lon="-1.62586">
        <ele>57</ele>
        <time>2020-12-25T10:09:19.000Z</time>
      </trkpt>
      <trkpt lat="47.0678" lon="-1.62577">
        <ele>56</ele>
        <time>2020-12-25T10:09:21.000Z</time>
      </trkpt>
      <trkpt lat="47.0679" lon="-1.62568">
        <ele>56</ele>
        <time>2020-12-25T10:09:23.000Z</time>
      </trkpt>
      <trkpt lat="47.06799" lon="-1.62559">
        <ele>56</ele>
        <time>2020-12-25T10:09:25.000Z</time>
      </trkpt>
      <trkpt lat="47.06809" lon="-1.62549">
        <ele>56</ele>
        <time>2020-12-25T10:09:27.000Z</time>
      </trkpt>
      <trkpt lat="47.0682" lon="-1.62541">
        <ele>56</ele>
        <time>2020-12-25T10:09:29.000Z</time>
      </trkpt>
      <trkpt lat="47.0683" lon="-1.62531">
        <ele>56</ele>
        <time>2020-12-25T10:09:31.000Z</time>
      </trkpt>
      <trkpt lat="47.0684" lon="-1.62523">
        <ele>56</ele>
        <time>2020-12-25T10:09:33.000Z</time>
      </trkpt>
      <trkpt lat="47.06851" lon="-1.62515">
        <ele>56</ele>
        <time>2020-12-25T10:09:35.000Z</time>
      </trkpt>
      <trkpt lat="47.06861" lon="-1.62507">
        <ele>56</ele>
        <time>2020-12-25T10:09:37.000Z</time>
      </trkpt>
      <trkpt lat="47.06873" lon="-1.625">
        <ele>56</ele>
        <time>2020-12-25T10:09:39.000Z</time>
      </trkpt>
      <trkpt lat="47.06884" lon="-1.62494">
        <ele>56</ele>
        <time>2020-12-25T10:09:41.000Z</time>
      </trkpt>
      <trkpt lat="47.06895" lon="-1.62488">
        <ele>56</ele>
        <time>2020-12-25T10:09:43.000Z</time>
      </trkpt>
      <trkpt lat="47.06907" lon="-1.62482">
        <ele>56</ele>
        <time>2020-12-25T10:09:45.000Z</time>
      </trkpt>
      <trkpt lat="47.06919" lon="-1.62476">
        <ele>56</ele>
        <time>2020-12-25T10:09:47.000Z</time>
      </trkpt>
      <trkpt lat="47.06931" lon="-1.62471">
        <ele>56</ele>
        <time>2020-12-25T10:09:49.000Z</time>
      </trkpt>
      <trkpt lat="47.06942" lon="-1.62465">
        <ele>56</ele>
        <time>2020-12-25T10:09:51.000Z</time>
      </trkpt>
      <trkpt lat="47.06954" lon="-1.6246">
        <ele>56</ele>
        <time>2020-12-25T10:09:53.000Z</time>
      </trkpt>
      <trkpt lat="47.06966" lon="-1.62454">
        <ele>56</ele>
        <time>2020-12-25T10:09:55.000Z</time>
      </trkpt>
      <trkpt lat="47.06978" lon="-1.62448">
        <ele>56</ele>
        <time>2020-12-25T10:09:57.000Z</time>
      </trkpt>
      <trkpt lat="47.06989" lon="-1.62443">
        <ele>56</ele>
        <time>2020-12-25T10:09:59.000Z</time>
      </trkpt>
      <trkpt lat="47.07001" lon="-1.62438">
        <ele>56</ele>
        <time>2020-12-25T10:10:01.000Z</time>
      </trkpt>
      <trkpt lat="47.07012" lon="-1.62432">
        <ele>56</ele>
        <time>2020-12-25T10:10:03.000Z</time>
      </trkpt>
      <trkpt lat="47.07023" lon="-1.62425">
        <ele>56</ele>
        <time>2020-12-25T10:10:05.000Z</time>
      </trkpt>
      <trkpt lat="47.07034" lon="-1.62419">
        <ele>55</ele>
        <time>2020-12-25T10:10:07.000Z</time>
      </trkpt>
      <trkpt lat="47.07045" lon="-1.62411">
        <ele>55</ele>
        <time>2020-12-25T10:10:09.000Z</time>
      </trkpt>
      <trkpt lat="47.07057" lon="-1.62404">
        <ele>55</ele>
        <time>2020-12-25T10:10:11.000Z</time>
      </trkpt>
      <trkpt lat="47.07069" lon="-1.62397">
        <ele>55</ele>
        <time>2020-12-25T10:10:13.000Z</time>
      </trkpt>
      <trkpt lat="47.07081" lon="-1.62391">
        <ele>54</ele>
        <time>2020-12-25T10:10:15.000Z</time>
      </trkpt>
      <trkpt lat="47.07093" lon="-1.62384">
        <ele>54</ele>
        <time>2020-12-25T10:10:17.000Z</time>
      </trkpt>
      <trkpt lat="47.07104" lon="-1.62376">
        <ele>54</ele>
        <time>2020-12-25T10:10:19.000Z</time>
      </trkpt>
      <trkpt lat="47.07117" lon="-1.62369">
        <ele>53</ele>
        <time>2020-12-25T10:10:21.000Z</time>
      </trkpt>
      <trkpt lat="47.07128" lon="-1.62361">
        <ele>53</ele>
        <time>2020-12-25T10:10:23.000Z</time>
      </trkpt>
      <trkpt lat="47.0714" lon="-1.62354">
        <ele>53</ele>
        <time>2020-12-25T10:10:25.000Z</time>
      </trkpt>
      <trkpt lat="47.07152" lon="-1.62346">
        <ele>53</ele>
        <time>2020-12-25T10:10:27.000Z</time>
      </trkpt>
      <trkpt lat="47.07164" lon="-1.62339">
        <ele>54</ele>
        <time>2020-12-25T10:10:29.000Z</time>
      </trkpt>
      <trkpt lat="47.07175" lon="-1.62332">
        <ele>54</ele>
        <time>2020-12-25T10:10:31.000Z</time>
      </trkpt>
      <trkpt lat="47.07187" lon="-1.62325">
        <ele>55</ele>
        <time>2020-12-25T10:10:33.000Z</time>
      </trkpt>
      <trkpt lat="47.07198" lon="-1.62317">
        <ele>55</ele>
        <time>2020-12-25T10:10:35.000Z</time>
      </trkpt>
      <trkpt lat="47.0721" lon="-1.6231">
        <ele>54</ele>
        <time>2020-12-25T10:10:37.000Z</time>
      </trkpt>
      <trkpt lat="47.07222" lon="-1.62302">
        <ele>55</ele>
        <time>2020-12-25T10:10:39.000Z</time>
      </trkpt>
      <trkpt lat="47.07234" lon="-1.62294">
        <ele>55</ele>
        <time>2020-12-25T10:10:41.000Z</time>
      </trkpt>
      <trkpt lat="47.07245" lon="-1.62287">
        <ele>55</ele>
        <time>2020-12-25T10:10:43.000Z</time>
      </trkpt>
      <trkpt lat="47.07257" lon="-1.62278">
        <ele>54</ele>
        <time>2020-12-25T10:10:45.000Z</time>
      </trkpt>
      <trkpt lat="47.07267" lon="-1.62269">
        <ele>54</ele>
        <time>2020-12-25T10:10:47.000Z</time>
      </trkpt>
      <trkpt lat="47.07278" lon="-1.62259">
        <ele>54</ele>
        <time>2020-12-25T10:10:49.000Z</time>
      </trkpt>
      <trkpt lat="47.07287" lon="-1.62248">
        <ele>54</ele>
        <time>2020-12-25T10:10:51.000Z</time>
      </trkpt>
      <trkpt lat="47.07296" lon="-1.62237">
        <ele>55</ele>
        <time>2020-12-25T10:10:53.000Z</time>
      </trkpt>
      <trkpt lat="47.07306" lon="-1.62225">
        <ele>55</ele>
        <time>2020-12-25T10:10:55.000Z</time>
      </trkpt>
      <trkpt lat="47.07315" lon="-1.62214">
        <ele>55</ele>
        <time>2020-12-25T10:10:57.000Z</time>
      </trkpt>
      <trkpt lat="47.07323" lon="-1.62201">
        <ele>55</ele>
        <time>2020-12-25T10:10:59.000Z</time>
      </trkpt>
      <trkpt lat="47.07331" lon="-1.62188">
        <ele>55</ele>
        <time>2020-12-25T10:11:01.000Z</time>
      </trkpt>
      <trkpt lat="47.0734" lon="-1.62175">
        <ele>55</ele>
        <time>2020-12-25T10:11:03.000Z</time>
      </trkpt>
      <trkpt lat="47.07348" lon="-1.62162">
        <ele>55</ele>
        <time>2020-12-25T10:11:05.000Z</time>
      </trkpt>
      <trkpt lat="47.07356" lon="-1.62149">
        <ele>55</ele>
        <time>2020-12-25T10:11:07.000Z</time>
      </trkpt>
      <trkpt lat="47.07364" lon="-1.62136">
        <ele>55</ele>
        <time>2020-12-25T10:11:09.000Z</time>
      </trkpt>
      <trkpt lat="47.07372" lon="-1.62124">
        <ele>55</ele>
        <time>2020-12-25T10:11:11.000Z</time>
      </trkpt>
      <trkpt lat="47.0738" lon="-1.62112">
        <ele>55</ele>
        <time>2020-12-25T10:11:13.000Z</time>
      </trkpt>
      <trkpt lat="47.07388" lon="-1.62099">
        <ele>55</ele>
        <time>2020-12-25T10:11:15.000Z</time>
      </trkpt>
      <trkpt lat="47.07396" lon="-1.62085">
        <ele>55</ele>
        <time>2020-12-25T10:11:17.000Z</time>
      </trkpt>
      <trkpt lat="47.07404" lon="-1.62072">
        <ele>55</ele>
        <time>2020-12-25T10:11:19.000Z</time>
      </trkpt>
      <trkpt lat="47.07412" lon="-1.62059">
        <ele>56</ele>
        <time>2020-12-25T10:11:21.000Z</time>
      </trkpt>
      <trkpt lat="47.07419" lon="-1.62046">
        <ele>56</ele>
        <time>2020-12-25T10:11:23.000Z</time>
      </trkpt>
      <trkpt lat="47.07427" lon="-1.62033">
        <ele>56</ele>
        <time>2020-12-25T10:11:25.000Z</time>
      </trkpt>
      <trkpt lat="47.07435" lon="-1.6202">
        <ele>56</ele>
        <time>2020-12-25T10:11:27.000Z</time>
      </trkpt>
      <trkpt lat="47.07443" lon="-1.62008">
        <ele>56</ele>
        <time>2020-12-25T10:11:29.000Z</time>
      </trkpt>
      <trkpt lat="47.07452" lon="-1.61996">
        <ele>56</ele>
        <time>2020-12-25T10:11:31.000Z</time>
      </trkpt>
      <trkpt lat="47.07462" lon="-1.61984">
        <ele>56</ele>
        <time>2020-12-25T10:11:33.000Z</time>
      </trkpt>
      <trkpt lat="47.07471" lon="-1.61973">
        <ele>56</ele>
        <time>2020-12-25T10:11:35.000Z</time>
      </trkpt>
      <trkpt lat="47.0748" lon="-1.61963">
        <ele>56</ele>
        <time>2020-12-25T10:11:37.000Z</time>
      </trkpt>
      <trkpt lat="47.07489" lon="-1.61952">
        <ele>55</ele>
        <time>2020-12-25T10:11:39.000Z</time>
      </trkpt>
      <trkpt lat="47.07499" lon="-1.61941">
        <ele>55</ele>
        <time>2020-12-25T10:11:41.000Z</time>
      </trkpt>
      <trkpt lat="47.07508" lon="-1.6193">
        <ele>55</ele>
        <time>2020-12-25T10:11:43.000Z</time>
      </trkpt>
      <trkpt lat="47.07517" lon="-1.6192">
        <ele>55</ele>
        <time>2020-12-25T10:11:45.000Z</time>
      </trkpt>
      <trkpt lat="47.07526" lon="-1.61909">
        <ele>55</ele>
        <time>2020-12-25T10:11:47.000Z</time>
      </trkpt>
      <trkpt lat="47.07536" lon="-1.61898">
        <ele>55</ele>
        <time>2020-12-25T10:11:49.000Z</time>
      </trkpt>
      <trkpt lat="47.07546" lon="-1.61886">
        <ele>55</ele>
        <time>2020-12-25T10:11:51.000Z</time>
      </trkpt>
      <trkpt lat="47.07556" lon="-1.61874">
        <ele>55</ele>
        <time>2020-12-25T10:11:53.000Z</time>
      </trkpt>
      <trkpt lat="47.07565" lon="-1.61863">
        <ele>56</ele>
        <time>2020-12-25T10:11:55.000Z</time>
      </trkpt>
      <trkpt lat="47.07575" lon="-1.61851">
        <ele>56</ele>
        <time>2020-12-25T10:11:57.000Z</time>
      </trkpt>
      <trkpt lat="47.07584" lon="-1.6184">
        <ele>56</ele>
        <time>2020-12-25T10:11:59.000Z</time>
      </trkpt>
      <trkpt lat="47.07594" lon="-1.61829">
        <ele>56</ele>
        <time>2020-12-25T10:12:01.000Z</time>
      </trkpt>
      <trkpt lat="47.07603" lon="-1.61817">
        <ele>57</ele>
        <time>2020-12-25T10:12:03.000Z</time>
      </trkpt>
      <trkpt lat="47.07613" lon="-1.61807">
        <ele>56</ele>
        <time>2020-12-25T10:12:05.000Z</time>
      </trkpt>
      <trkpt lat="47.07623" lon="-1.61795">
        <ele>56</ele>
        <time>2020-12-25T10:12:07.000Z</time>
      </trkpt>
      <trkpt lat="47.07633" lon="-1.61783">
        <ele>56</ele>
        <time>2020-12-25T10:12:09.000Z</time>
      </trkpt>
      <trkpt lat="47.07643" lon="-1.61772">
        <ele>57</ele>
        <time>2020-12-25T10:12:11.000Z</time>
      </trkpt>
      <trkpt lat="47.07653" lon="-1.6176">
        <ele>57</ele>
        <time>2020-12-25T10:12:13.000Z</time>
      </trkpt>
      <trkpt lat="47.07662" lon="-1.61747">
        <ele>57</ele>
        <time>2020-12-25T10:12:15.000Z</time>
      </trkpt>
      <trkpt lat="47.07674" lon="-1.61735">
        <ele>56</ele>
        <time>2020-12-25T10:12:17.000Z</time>
      </trkpt>
      <trkpt lat="47.07685" lon="-1.61723">
        <ele>56</ele>
        <time>2020-12-25T10:12:19.000Z</time>
      </trkpt>
      <trkpt lat="47.07696" lon="-1.61711">
        <ele>55</ele>
        <time>2020-12-25T10:12:21.000Z</time>
      </trkpt>
      <trkpt lat="47.07707" lon="-1.617">
        <ele>55</ele>
        <time>2020-12-25T10:12:23.000Z</time>
      </trkpt>
      <trkpt lat="47.07718" lon="-1.61688">
        <ele>55</ele>
        <time>2020-12-25T10:12:25.000Z</time>
      </trkpt>
      <trkpt lat="47.07728" lon="-1.61676">
        <ele>54</ele>
        <time>2020-12-25T10:12:27.000Z</time>
      </trkpt>
      <trkpt lat="47.07739" lon="-1.61664">
        <ele>54</ele>
        <time>2020-12-25T10:12:29.000Z</time>
      </trkpt>
      <trkpt lat="47.07749" lon="-1.61652">
        <ele>54</ele>
        <time>2020-12-25T10:12:31.000Z</time>
      </trkpt>
      <trkpt lat="47.0776" lon="-1.61641">
        <ele>54</ele>
        <time>2020-12-25T10:12:33.000Z</time>
      </trkpt>
      <trkpt lat="47.0777" lon="-1.6163">
        <ele>54</ele>
        <time>2020-12-25T10:12:35.000Z</time>
      </trkpt>
      <trkpt lat="47.07779" lon="-1.61618">
        <ele>54</ele>
        <time>2020-12-25T10:12:37.000Z</time>
      </trkpt>
      <trkpt lat="47.07789" lon="-1.61606">
        <ele>54</ele>
        <time>2020-12-25T10:12:39.000Z</time>
      </trkpt>
      <trkpt lat="47.078" lon="-1.61597">
        <ele>54</ele>
        <time>2020-12-25T10:12:41.000Z</time>
      </trkpt>
      <trkpt lat="47.07811" lon="-1.61588">
        <ele>54</ele>
        <time>2020-12-25T10:12:43.000Z</time>
      </trkpt>
      <trkpt lat="47.07822" lon="-1.6158">
        <ele>54</ele>
        <time>2020-12-25T10:12:45.000Z</time>
      </trkpt>
      <trkpt lat="47.07833" lon="-1.61572">
        <ele>54</ele>
        <time>2020-12-25T10:12:47.000Z</time>
      </trkpt>
      <trkpt lat="47.07845" lon="-1.61566">
        <ele>54</ele>
        <time>2020-12-25T10:12:49.000Z</time>
      </trkpt>
      <trkpt lat="47.07856" lon="-1.6156">
        <ele>53</ele>
        <time>2020-12-25T10:12:51.000Z</time>
      </trkpt>
      <trkpt lat="47.07867" lon="-1.61554">
        <ele>53</ele>
        <time>2020-12-25T10:12:53.000Z</time>
      </trkpt>
      <trkpt lat="47.07878" lon="-1.61549">
        <ele>53</ele>
        <time>2020-12-25T10:12:55.000Z</time>
      </trkpt>
      <trkpt lat="47.0789" lon="-1.61544">
        <ele>53</ele>
        <time>2020-12-25T10:12:57.000Z</time>
      </trkpt>
      <trkpt lat="47.07902" lon="-1.61539">
        <ele>53</ele>
        <time>2020-12-25T10:12:59.000Z</time>
      </trkpt>
      <trkpt lat="47.07914" lon="-1.61533">
        <ele>53</ele>
        <time>2020-12-25T10:13:01.000Z</time>
      </trkpt>
      <trkpt lat="47.07927" lon="-1.61528">
        <ele>53</ele>
        <time>2020-12-25T10:13:03.000Z</time>
      </trkpt>
      <trkpt lat="47.0794" lon="-1.61522">
        <ele>53</ele>
        <time>2020-12-25T10:13:05.000Z</time>
      </trkpt>
      <trkpt lat="47.07954" lon="-1.61516">
        <ele>53</ele>
        <time>2020-12-25T10:13:07.000Z</time>
      </trkpt>
      <trkpt lat="47.07966" lon="-1.61511">
        <ele>53</ele>
        <time>2020-12-25T10:13:09.000Z</time>
      </trkpt>
      <trkpt lat="47.07979" lon="-1.61506">
        <ele>53</ele>
        <time>2020-12-25T10:13:11.000Z</time>
      </trkpt>
      <trkpt lat="47.07993" lon="-1.61501">
        <ele>54</ele>
        <time>2020-12-25T10:13:13.000Z</time>
      </trkpt>
      <trkpt lat="47.08006" lon="-1.61496">
        <ele>54</ele>
        <time>2020-12-25T10:13:15.000Z</time>
      </trkpt>
      <trkpt lat="47.08019" lon="-1.61491">
        <ele>54</ele>
        <time>2020-12-25T10:13:17.000Z</time>
      </trkpt>
      <trkpt lat="47.08031" lon="-1.61486">
        <ele>54</ele>
        <time>2020-12-25T10:13:19.000Z</time>
      </trkpt>
      <trkpt lat="47.08043" lon="-1.6148">
        <ele>54</ele>
        <time>2020-12-25T10:13:21.000Z</time>
      </trkpt>
      <trkpt lat="47.08055" lon="-1.61475">
        <ele>53</ele>
        <time>2020-12-25T10:13:23.000Z</time>
      </trkpt>
      <trkpt lat="47.08068" lon="-1.61469">
        <ele>53</ele>
        <time>2020-12-25T10:13:25.000Z</time>
      </trkpt>
      <trkpt lat="47.08081" lon="-1.61464">
        <ele>53</ele>
        <time>2020-12-25T10:13:27.000Z</time>
      </trkpt>
      <trkpt lat="47.08093" lon="-1.61459">
        <ele>53</ele>
        <time>2020-12-25T10:13:29.000Z</time>
      </trkpt>
      <trkpt lat="47.08106" lon="-1.61454">
        <ele>53</ele>
        <time>2020-12-25T10:13:31.000Z</time>
      </trkpt>
      <trkpt lat="47.08118" lon="-1.61449">
        <ele>53</ele>
        <time>2020-12-25T10:13:33.000Z</time>
      </trkpt>
      <trkpt lat="47.0813" lon="-1.61443">
        <ele>53</ele>
        <time>2020-12-25T10:13:35.000Z</time>
      </trkpt>
      <trkpt lat="47.08143" lon="-1.61438">
        <ele>52</ele>
        <time>2020-12-25T10:13:37.000Z</time>
      </trkpt>
      <trkpt lat="47.08156" lon="-1.61433">
        <ele>53</ele>
        <time>2020-12-25T10:13:39.000Z</time>
      </trkpt>
      <trkpt lat="47.08167" lon="-1.61427">
        <ele>53</ele>
        <time>2020-12-25T10:13:41.000Z</time>
      </trkpt>
      <trkpt lat="47.0818" lon="-1.61421">
        <ele>52</ele>
        <time>2020-12-25T10:13:43.000Z</time>
      </trkpt>
      <trkpt lat="47.08192" lon="-1.61416">
        <ele>52</ele>
        <time>2020-12-25T10:13:45.000Z</time>
      </trkpt>
      <trkpt lat="47.08205" lon="-1.61411">
        <ele>52</ele>
        <time>2020-12-25T10:13:47.000Z</time>
      </trkpt>
      <trkpt lat="47.08217" lon="-1.61405">
        <ele>52</ele>
        <time>2020-12-25T10:13:49.000Z</time>
      </trkpt>
      <trkpt lat="47.08229" lon="-1.614">
        <ele>52</ele>
        <time>2020-12-25T10:13:51.000Z</time>
      </trkpt>
      <trkpt lat="47.08241" lon="-1.61395">
        <ele>52</ele>
        <time>2020-12-25T10:13:53.000Z</time>
      </trkpt>
      <trkpt lat="47.08253" lon="-1.6139">
        <ele>53</ele>
        <time>2020-12-25T10:13:55.000Z</time>
      </trkpt>
      <trkpt lat="47.08264" lon="-1.61384">
        <ele>53</ele>
        <time>2020-12-25T10:13:57.000Z</time>
      </trkpt>
      <trkpt lat="47.08276" lon="-1.61379">
        <ele>53</ele>
        <time>2020-12-25T10:13:59.000Z</time>
      </trkpt>
      <trkpt lat="47.08289" lon="-1.61374">
        <ele>53</ele>
        <time>2020-12-25T10:14:01.000Z</time>
      </trkpt>
      <trkpt lat="47.08301" lon="-1.61369">
        <ele>53</ele>
        <time>2020-12-25T10:14:03.000Z</time>
      </trkpt>
      <trkpt lat="47.08314" lon="-1.61363">
        <ele>52</ele>
        <time>2020-12-25T10:14:05.000Z</time>
      </trkpt>
      <trkpt lat="47.08327" lon="-1.61358">
        <ele>52</ele>
        <time>2020-12-25T10:14:07.000Z</time>
      </trkpt>
      <trkpt lat="47.0834" lon="-1.61353">
        <ele>52</ele>
        <time>2020-12-25T10:14:09.000Z</time>
      </trkpt>
      <trkpt lat="47.08353" lon="-1.61347">
        <ele>52</ele>
        <time>2020-12-25T10:14:11.000Z</time>
      </trkpt>
      <trkpt lat="47.08365" lon="-1.61342">
        <ele>52</ele>
        <time>2020-12-25T10:14:13.000Z</time>
      </trkpt>
      <trkpt lat="47.08377" lon="-1.61337">
        <ele>52</ele>
        <time>2020-12-25T10:14:15.000Z</time>
      </trkpt>
      <trkpt lat="47.0839" lon="-1.61331">
        <ele>52</ele>
        <time>2020-12-25T10:14:17.000Z</time>
      </trkpt>
      <trkpt lat="47.08403" lon="-1.61326">
        <ele>52</ele>
        <time>2020-12-25T10:14:19.000Z</time>
      </trkpt>
      <trkpt lat="47.08415" lon="-1.61321">
        <ele>52</ele>
        <time>2020-12-25T10:14:21.000Z</time>
      </trkpt>
      <trkpt lat="47.08428" lon="-1.61315">
        <ele>52</ele>
        <time>2020-12-25T10:14:23.000Z</time>
      </trkpt>
      <trkpt lat="47.0844" lon="-1.6131">
        <ele>52</ele>
        <time>2020-12-25T10:14:25.000Z</time>
      </trkpt>
      <trkpt lat="47.08452" lon="-1.61305">
        <ele>52</ele>
        <time>2020-12-25T10:14:27.000Z</time>
      </trkpt>
      <trkpt lat="47.08465" lon="-1.61299">
        <ele>52</ele>
        <time>2020-12-25T10:14:29.000Z</time>
      </trkpt>
      <trkpt lat="47.08477" lon="-1.61294">
        <ele>52</ele>
        <time>2020-12-25T10:14:31.000Z</time>
      </trkpt>
      <trkpt lat="47.08489" lon="-1.61287">
        <ele>52</ele>
        <time>2020-12-25T10:14:33.000Z</time>
      </trkpt>
      <trkpt lat="47.08501" lon="-1.61281">
        <ele>52</ele>
        <time>2020-12-25T10:14:35.000Z</time>
      </trkpt>
      <trkpt lat="47.08514" lon="-1.61277">
        <ele>52</ele>
        <time>2020-12-25T10:14:37.000Z</time>
      </trkpt>
      <trkpt lat="47.08527" lon="-1.61272">
        <ele>53</ele>
        <time>2020-12-25T10:14:39.000Z</time>
      </trkpt>
      <trkpt lat="47.0854" lon="-1.61266">
        <ele>53</ele>
        <time>2020-12-25T10:14:41.000Z</time>
      </trkpt>
      <trkpt lat="47.08552" lon="-1.61261">
        <ele>53</ele>
        <time>2020-12-25T10:14:43.000Z</time>
      </trkpt>
      <trkpt lat="47.08564" lon="-1.61256">
        <ele>53</ele>
        <time>2020-12-25T10:14:45.000Z</time>
      </trkpt>
      <trkpt lat="47.08576" lon="-1.61251">
        <ele>53</ele>
        <time>2020-12-25T10:14:47.000Z</time>
      </trkpt>
      <trkpt lat="47.08588" lon="-1.61246">
        <ele>53</ele>
        <time>2020-12-25T10:14:49.000Z</time>
      </trkpt>
      <trkpt lat="47.086" lon="-1.61241">
        <ele>53</ele>
        <time>2020-12-25T10:14:51.000Z</time>
      </trkpt>
      <trkpt lat="47.08612" lon="-1.61236">
        <ele>53</ele>
        <time>2020-12-25T10:14:53.000Z</time>
      </trkpt>
      <trkpt lat="47.08624" lon="-1.61231">
        <ele>53</ele>
        <time>2020-12-25T10:14:55.000Z</time>
      </trkpt>
      <trkpt lat="47.08636" lon="-1.61226">
        <ele>53</ele>
        <time>2020-12-25T10:14:57.000Z</time>
      </trkpt>
      <trkpt lat="47.08648" lon="-1.61221">
        <ele>53</ele>
        <time>2020-12-25T10:14:59.000Z</time>
      </trkpt>
      <trkpt lat="47.08659" lon="-1.61216">
        <ele>53</ele>
        <time>2020-12-25T10:15:01.000Z</time>
      </trkpt>
      <trkpt lat="47.08671" lon="-1.61211">
        <ele>53</ele>
        <time>2020-12-25T10:15:03.000Z</time>
      </trkpt>
      <trkpt lat="47.08683" lon="-1.61206">
        <ele>53</ele>
        <time>2020-12-25T10:15:05.000Z</time>
      </trkpt>
      <trkpt lat="47.08695" lon="-1.61201">
        <ele>53</ele>
        <time>2020-12-25T10:15:07.000Z</time>
      </trkpt>
      <trkpt lat="47.08707" lon="-1.61196">
        <ele>53</ele>
        <time>2020-12-25T10:15:09.000Z</time>
      </trkpt>
      <trkpt lat="47.08718" lon="-1.61191">
        <ele>53</ele>
        <time>2020-12-25T10:15:11.000Z</time>
      </trkpt>
      <trkpt lat="47.0873" lon="-1.61185">
        <ele>54</ele>
        <time>2020-12-25T10:15:13.000Z</time>
      </trkpt>
      <trkpt lat="47.08742" lon="-1.6118">
        <ele>54</ele>
        <time>2020-12-25T10:15:15.000Z</time>
      </trkpt>
      <trkpt lat="47.08753" lon="-1.61175">
        <ele>54</ele>
        <time>2020-12-25T10:15:17.000Z</time>
      </trkpt>
      <trkpt lat="47.08765" lon="-1.61171">
        <ele>54</ele>
        <time>2020-12-25T10:15:19.000Z</time>
      </trkpt>
      <trkpt lat="47.08777" lon="-1.61166">
        <ele>54</ele>
        <time>2020-12-25T10:15:21.000Z</time>
      </trkpt>
      <trkpt lat="47.08789" lon="-1.61161">
        <ele>54</ele>
        <time>2020-12-25T10:15:23.000Z</time>
      </trkpt>
      <trkpt lat="47.088" lon="-1.61156">
        <ele>54</ele>
        <time>2020-12-25T10:15:25.000Z</time>
      </trkpt>
      <trkpt lat="47.08813" lon="-1.61151">
        <ele>55</ele>
        <time>2020-12-25T10:15:27.000Z</time>
      </trkpt>
      <trkpt lat="47.08825" lon="-1.61146">
        <ele>55</ele>
        <time>2020-12-25T10:15:29.000Z</time>
      </trkpt>
      <trkpt lat="47.08836" lon="-1.6114">
        <ele>55</ele>
        <time>2020-12-25T10:15:31.000Z</time>
      </trkpt>
      <trkpt lat="47.08848" lon="-1.61135">
        <ele>55</ele>
        <time>2020-12-25T10:15:33.000Z</time>
      </trkpt>
      <trkpt lat="47.0886" lon="-1.61129">
        <ele>55</ele>
        <time>2020-12-25T10:15:35.000Z</time>
      </trkpt>
      <trkpt lat="47.08871" lon="-1.61125">
        <ele>55</ele>
        <time>2020-12-25T10:15:37.000Z</time>
      </trkpt>
      <trkpt lat="47.08883" lon="-1.6112">
        <ele>55</ele>
        <time>2020-12-25T10:15:39.000Z</time>
      </trkpt>
      <trkpt lat="47.08895" lon="-1.61114">
        <ele>56</ele>
        <time>2020-12-25T10:15:41.000Z</time>
      </trkpt>
      <trkpt lat="47.08908" lon="-1.61109">
        <ele>56</ele>
        <time>2020-12-25T10:15:43.000Z</time>
      </trkpt>
      <trkpt lat="47.0892" lon="-1.61105">
        <ele>56</ele>
        <time>2020-12-25T10:15:45.000Z</time>
      </trkpt>
      <trkpt lat="47.08931" lon="-1.611">
        <ele>57</ele>
        <time>2020-12-25T10:15:47.000Z</time>
      </trkpt>
      <trkpt lat="47.08943" lon="-1.61094">
        <ele>56</ele>
        <time>2020-12-25T10:15:49.000Z</time>
      </trkpt>
      <trkpt lat="47.08954" lon="-1.61088">
        <ele>57</ele>
        <time>2020-12-25T10:15:51.000Z</time>
      </trkpt>
      <trkpt lat="47.08966" lon="-1.61084">
        <ele>57</ele>
        <time>2020-12-25T10:15:53.000Z</time>
      </trkpt>
      <trkpt lat="47.08978" lon="-1.61082">
        <ele>57</ele>
        <time>2020-12-25T10:15:55.000Z</time>
      </trkpt>
      <trkpt lat="47.0899" lon="-1.61082">
        <ele>57</ele>
        <time>2020-12-25T10:15:57.000Z</time>
      </trkpt>
      <trkpt lat="47.09003" lon="-1.61083">
        <ele>57</ele>
        <time>2020-12-25T10:15:59.000Z</time>
      </trkpt>
      <trkpt lat="47.09015" lon="-1.61087">
        <ele>57</ele>
        <time>2020-12-25T10:16:01.000Z</time>
      </trkpt>
      <trkpt lat="47.09027" lon="-1.6109">
        <ele>58</ele>
        <time>2020-12-25T10:16:03.000Z</time>
      </trkpt>
      <trkpt lat="47.09039" lon="-1.61094">
        <ele>57</ele>
        <time>2020-12-25T10:16:05.000Z</time>
      </trkpt>
      <trkpt lat="47.0905" lon="-1.61097">
        <ele>57</ele>
        <time>2020-12-25T10:16:07.000Z</time>
      </trkpt>
      <trkpt lat="47.09062" lon="-1.61101">
        <ele>57</ele>
        <time>2020-12-25T10:16:09.000Z</time>
      </trkpt>
      <trkpt lat="47.09074" lon="-1.61104">
        <ele>58</ele>
        <time>2020-12-25T10:16:11.000Z</time>
      </trkpt>
      <trkpt lat="47.09086" lon="-1.61108">
        <ele>57</ele>
        <time>2020-12-25T10:16:13.000Z</time>
      </trkpt>
      <trkpt lat="47.09098" lon="-1.61111">
        <ele>57</ele>
        <time>2020-12-25T10:16:15.000Z</time>
      </trkpt>
      <trkpt lat="47.0911" lon="-1.61115">
        <ele>57</ele>
        <time>2020-12-25T10:16:17.000Z</time>
      </trkpt>
      <trkpt lat="47.0912" lon="-1.61119">
        <ele>57</ele>
        <time>2020-12-25T10:16:19.000Z</time>
      </trkpt>
      <trkpt lat="47.09131" lon="-1.61122">
        <ele>57</ele>
        <time>2020-12-25T10:16:21.000Z</time>
      </trkpt>
      <trkpt lat="47.09141" lon="-1.61125">
        <ele>57</ele>
        <time>2020-12-25T10:16:23.000Z</time>
      </trkpt>
      <trkpt lat="47.0915" lon="-1.61128">
        <ele>57</ele>
        <time>2020-12-25T10:16:25.000Z</time>
      </trkpt>
      <trkpt lat="47.0916" lon="-1.61132">
        <ele>57</ele>
        <time>2020-12-25T10:16:28.000Z</time>
      </trkpt>
      <trkpt lat="47.09169" lon="-1.61135">
        <ele>58</ele>
        <time>2020-12-25T10:16:33.000Z</time>
      </trkpt>
      <trkpt lat="47.09181" lon="-1.61138">
        <ele>58</ele>
        <time>2020-12-25T10:16:41.000Z</time>
      </trkpt>
      <trkpt lat="47.09192" lon="-1.61142">
        <ele>60</ele>
        <time>2020-12-25T10:16:44.000Z</time>
      </trkpt>
      <trkpt lat="47.09203" lon="-1.61145">
        <ele>60</ele>
        <time>2020-12-25T10:16:46.000Z</time>
      </trkpt>
      <trkpt lat="47.09215" lon="-1.61148">
        <ele>60</ele>
        <time>2020-12-25T10:16:48.000Z</time>
      </trkpt>
      <trkpt lat="47.09225" lon="-1.61157">
        <ele>59</ele>
        <time>2020-12-25T10:16:50.000Z</time>
      </trkpt>
      <trkpt lat="47.09233" lon="-1.61168">
        <ele>59</ele>
        <time>2020-12-25T10:16:52.000Z</time>
      </trkpt>
      <trkpt lat="47.09242" lon="-1.61175">
        <ele>59</ele>
        <time>2020-12-25T10:16:54.000Z</time>
      </trkpt>
      <trkpt lat="47.09253" lon="-1.61178">
        <ele>59</ele>
        <time>2020-12-25T10:16:56.000Z</time>
      </trkpt>
      <trkpt lat="47.09265" lon="-1.61181">
        <ele>59</ele>
        <time>2020-12-25T10:16:58.000Z</time>
      </trkpt>
      <trkpt lat="47.09276" lon="-1.61185">
        <ele>60</ele>
        <time>2020-12-25T10:17:00.000Z</time>
      </trkpt>
      <trkpt lat="47.09288" lon="-1.61189">
        <ele>60</ele>
        <time>2020-12-25T10:17:02.000Z</time>
      </trkpt>
      <trkpt lat="47.09301" lon="-1.61194">
        <ele>60</ele>
        <time>2020-12-25T10:17:04.000Z</time>
      </trkpt>
      <trkpt lat="47.09314" lon="-1.61198">
        <ele>60</ele>
        <time>2020-12-25T10:17:06.000Z</time>
      </trkpt>
      <trkpt lat="47.09327" lon="-1.61201">
        <ele>61</ele>
        <time>2020-12-25T10:17:08.000Z</time>
      </trkpt>
      <trkpt lat="47.09339" lon="-1.61203">
        <ele>61</ele>
        <time>2020-12-25T10:17:10.000Z</time>
      </trkpt>
      <trkpt lat="47.09348" lon="-1.61204">
        <ele>61</ele>
        <time>2020-12-25T10:17:13.000Z</time>
      </trkpt>
      <trkpt lat="47.09359" lon="-1.61207">
        <ele>60</ele>
        <time>2020-12-25T10:17:16.000Z</time>
      </trkpt>
      <trkpt lat="47.0937" lon="-1.61209">
        <ele>60</ele>
        <time>2020-12-25T10:17:18.000Z</time>
      </trkpt>
      <trkpt lat="47.09382" lon="-1.61215">
        <ele>60</ele>
        <time>2020-12-25T10:17:20.000Z</time>
      </trkpt>
      <trkpt lat="47.09394" lon="-1.6122">
        <ele>58</ele>
        <time>2020-12-25T10:17:22.000Z</time>
      </trkpt>
      <trkpt lat="47.09406" lon="-1.61225">
        <ele>58</ele>
        <time>2020-12-25T10:17:24.000Z</time>
      </trkpt>
      <trkpt lat="47.0942" lon="-1.61225">
        <ele>57</ele>
        <time>2020-12-25T10:17:26.000Z</time>
      </trkpt>
      <trkpt lat="47.09431" lon="-1.61214">
        <ele>57</ele>
        <time>2020-12-25T10:17:28.000Z</time>
      </trkpt>
      <trkpt lat="47.09442" lon="-1.61203">
        <ele>56</ele>
        <time>2020-12-25T10:17:30.000Z</time>
      </trkpt>
      <trkpt lat="47.09452" lon="-1.61191">
        <ele>55</ele>
        <time>2020-12-25T10:17:32.000Z</time>
      </trkpt>
      <trkpt lat="47.09464" lon="-1.61181">
        <ele>55</ele>
        <time>2020-12-25T10:17:34.000Z</time>
      </trkpt>
      <trkpt lat="47.09475" lon="-1.61169">
        <ele>55</ele>
        <time>2020-12-25T10:17:36.000Z</time>
      </trkpt>
      <trkpt lat="47.09486" lon="-1.61158">
        <ele>54</ele>
        <time>2020-12-25T10:17:38.000Z</time>
      </trkpt>
      <trkpt lat="47.09498" lon="-1.61149">
        <ele>54</ele>
        <time>2020-12-25T10:17:40.000Z</time>
      </trkpt>
      <trkpt lat="47.0951" lon="-1.61142">
        <ele>54</ele>
        <time>2020-12-25T10:17:42.000Z</time>
      </trkpt>
      <trkpt lat="47.09523" lon="-1.61136">
        <ele>54</ele>
        <time>2020-12-25T10:17:44.000Z</time>
      </trkpt>
      <trkpt lat="47.09536" lon="-1.61133">
        <ele>54</ele>
        <time>2020-12-25T10:17:46.000Z</time>
      </trkpt>
      <trkpt lat="47.0955" lon="-1.61132">
        <ele>53</ele>
        <time>2020-12-25T10:17:48.000Z</time>
      </trkpt>
      <trkpt lat="47.09564" lon="-1.6113">
        <ele>53</ele>
        <time>2020-12-25T10:17:50.000Z</time>
      </trkpt>
      <trkpt lat="47.09576" lon="-1.61129">
        <ele>52</ele>
        <time>2020-12-25T10:17:52.000Z</time>
      </trkpt>
      <trkpt lat="47.0959" lon="-1.61126">
        <ele>52</ele>
        <time>2020-12-25T10:17:54.000Z</time>
      </trkpt>
      <trkpt lat="47.09603" lon="-1.61125">
        <ele>52</ele>
        <time>2020-12-25T10:17:56.000Z</time>
      </trkpt>
      <trkpt lat="47.09617" lon="-1.61123">
        <ele>51</ele>
        <time>2020-12-25T10:17:58.000Z</time>
      </trkpt>
      <trkpt lat="47.09631" lon="-1.61122">
        <ele>52</ele>
        <time>2020-12-25T10:18:00.000Z</time>
      </trkpt>
      <trkpt lat="47.09644" lon="-1.61121">
        <ele>52</ele>
        <time>2020-12-25T10:18:02.000Z</time>
      </trkpt>
      <trkpt lat="47.09657" lon="-1.6112">
        <ele>51</ele>
        <time>2020-12-25T10:18:04.000Z</time>
      </trkpt>
      <trkpt lat="47.0967" lon="-1.61118">
        <ele>51</ele>
        <time>2020-12-25T10:18:06.000Z</time>
      </trkpt>
      <trkpt lat="47.09683" lon="-1.61116">
        <ele>51</ele>
        <time>2020-12-25T10:18:08.000Z</time>
      </trkpt>
      <trkpt lat="47.09697" lon="-1.61114">
        <ele>51</ele>
        <time>2020-12-25T10:18:10.000Z</time>
      </trkpt>
      <trkpt lat="47.09711" lon="-1.61112">
        <ele>50</ele>
        <time>2020-12-25T10:18:12.000Z</time>
      </trkpt>
      <trkpt lat="47.09724" lon="-1.61111">
        <ele>50</ele>
        <time>2020-12-25T10:18:14.000Z</time>
      </trkpt>
      <trkpt lat="47.09737" lon="-1.61109">
        <ele>49</ele>
        <time>2020-12-25T10:18:16.000Z</time>
      </trkpt>
      <trkpt lat="47.09748" lon="-1.61107">
        <ele>49</ele>
        <time>2020-12-25T10:18:18.000Z</time>
      </trkpt>
      <trkpt lat="47.09761" lon="-1.61106">
        <ele>50</ele>
        <time>2020-12-25T10:18:20.000Z</time>
      </trkpt>
      <trkpt lat="47.09773" lon="-1.61104">
        <ele>50</ele>
        <time>2020-12-25T10:18:22.000Z</time>
      </trkpt>
      <trkpt lat="47.09786" lon="-1.61103">
        <ele>50</ele>
        <time>2020-12-25T10:18:24.000Z</time>
      </trkpt>
      <trkpt lat="47.09799" lon="-1.61098">
        <ele>51</ele>
        <time>2020-12-25T10:18:26.000Z</time>
      </trkpt>
      <trkpt lat="47.0981" lon="-1.61091">
        <ele>51</ele>
        <time>2020-12-25T10:18:28.000Z</time>
      </trkpt>
      <trkpt lat="47.09822" lon="-1.61084">
        <ele>50</ele>
        <time>2020-12-25T10:18:30.000Z</time>
      </trkpt>
      <trkpt lat="47.09833" lon="-1.61075">
        <ele>50</ele>
        <time>2020-12-25T10:18:32.000Z</time>
      </trkpt>
      <trkpt lat="47.09842" lon="-1.61065">
        <ele>50</ele>
        <time>2020-12-25T10:18:34.000Z</time>
      </trkpt>
      <trkpt lat="47.09851" lon="-1.61054">
        <ele>51</ele>
        <time>2020-12-25T10:18:36.000Z</time>
      </trkpt>
      <trkpt lat="47.09859" lon="-1.61041">
        <ele>52</ele>
        <time>2020-12-25T10:18:38.000Z</time>
      </trkpt>
      <trkpt lat="47.09867" lon="-1.61027">
        <ele>52</ele>
        <time>2020-12-25T10:18:40.000Z</time>
      </trkpt>
      <trkpt lat="47.09874" lon="-1.61013">
        <ele>53</ele>
        <time>2020-12-25T10:18:42.000Z</time>
      </trkpt>
      <trkpt lat="47.0988" lon="-1.60997">
        <ele>53</ele>
        <time>2020-12-25T10:18:44.000Z</time>
      </trkpt>
      <trkpt lat="47.09886" lon="-1.60982">
        <ele>53</ele>
        <time>2020-12-25T10:18:46.000Z</time>
      </trkpt>
      <trkpt lat="47.09892" lon="-1.60966">
        <ele>53</ele>
        <time>2020-12-25T10:18:48.000Z</time>
      </trkpt>
      <trkpt lat="47.09899" lon="-1.60952">
        <ele>54</ele>
        <time>2020-12-25T10:18:50.000Z</time>
      </trkpt>
      <trkpt lat="47.09905" lon="-1.60937">
        <ele>54</ele>
        <time>2020-12-25T10:18:52.000Z</time>
      </trkpt>
      <trkpt lat="47.09911" lon="-1.60921">
        <ele>55</ele>
        <time>2020-12-25T10:18:54.000Z</time>
      </trkpt>
      <trkpt lat="47.09917" lon="-1.60905">
        <ele>55</ele>
        <time>2020-12-25T10:18:56.000Z</time>
      </trkpt>
      <trkpt lat="47.09923" lon="-1.60889">
        <ele>56</ele>
        <time>2020-12-25T10:18:58.000Z</time>
      </trkpt>
      <trkpt lat="47.09929" lon="-1.60874">
        <ele>56</ele>
        <time>2020-12-25T10:19:00.000Z</time>
      </trkpt>
      <trkpt lat="47.09935" lon="-1.60859">
        <ele>56</ele>
        <time>2020-12-25T10:19:02.000Z</time>
      </trkpt>
      <trkpt lat="47.0994" lon="-1.60844">
        <ele>56</ele>
        <time>2020-12-25T10:19:04.000Z</time>
      </trkpt>
      <trkpt lat="47.09946" lon="-1.60829">
        <ele>56</ele>
        <time>2020-12-25T10:19:06.000Z</time>
      </trkpt>
      <trkpt lat="47.09951" lon="-1.60814">
        <ele>56</ele>
        <time>2020-12-25T10:19:08.000Z</time>
      </trkpt>
      <trkpt lat="47.09956" lon="-1.60798">
        <ele>56</ele>
        <time>2020-12-25T10:19:10.000Z</time>
      </trkpt>
      <trkpt lat="47.09961" lon="-1.60782">
        <ele>56</ele>
        <time>2020-12-25T10:19:12.000Z</time>
      </trkpt>
      <trkpt lat="47.09966" lon="-1.60766">
        <ele>57</ele>
        <time>2020-12-25T10:19:14.000Z</time>
      </trkpt>
      <trkpt lat="47.09971" lon="-1.6075">
        <ele>57</ele>
        <time>2020-12-25T10:19:16.000Z</time>
      </trkpt>
      <trkpt lat="47.09975" lon="-1.60734">
        <ele>57</ele>
        <time>2020-12-25T10:19:18.000Z</time>
      </trkpt>
      <trkpt lat="47.0998" lon="-1.60718">
        <ele>58</ele>
        <time>2020-12-25T10:19:20.000Z</time>
      </trkpt>
      <trkpt lat="47.09984" lon="-1.60702">
        <ele>58</ele>
        <time>2020-12-25T10:19:22.000Z</time>
      </trkpt>
      <trkpt lat="47.09989" lon="-1.60686">
        <ele>58</ele>
        <time>2020-12-25T10:19:24.000Z</time>
      </trkpt>
      <trkpt lat="47.09994" lon="-1.6067">
        <ele>58</ele>
        <time>2020-12-25T10:19:26.000Z</time>
      </trkpt>
      <trkpt lat="47.09999" lon="-1.60655">
        <ele>58</ele>
        <time>2020-12-25T10:19:28.000Z</time>
      </trkpt>
      <trkpt lat="47.10003" lon="-1.60639">
        <ele>57</ele>
        <time>2020-12-25T10:19:30.000Z</time>
      </trkpt>
      <trkpt lat="47.10008" lon="-1.60624">
        <ele>57</ele>
        <time>2020-12-25T10:19:32.000Z</time>
      </trkpt>
      <trkpt lat="47.10012" lon="-1.60607">
        <ele>57</ele>
        <time>2020-12-25T10:19:34.000Z</time>
      </trkpt>
      <trkpt lat="47.10017" lon="-1.60591">
        <ele>58</ele>
        <time>2020-12-25T10:19:36.000Z</time>
      </trkpt>
      <trkpt lat="47.10021" lon="-1.60575">
        <ele>58</ele>
        <time>2020-12-25T10:19:38.000Z</time>
      </trkpt>
      <trkpt lat="47.10027" lon="-1.60559">
        <ele>58</ele>
        <time>2020-12-25T10:19:40.000Z</time>
      </trkpt>
      <trkpt lat="47.10031" lon="-1.60542">
        <ele>58</ele>
        <time>2020-12-25T10:19:42.000Z</time>
      </trkpt>
      <trkpt lat="47.10036" lon="-1.60526">
        <ele>57</ele>
        <time>2020-12-25T10:19:44.000Z</time>
      </trkpt>
      <trkpt lat="47.10041" lon="-1.60509">
        <ele>57</ele>
        <time>2020-12-25T10:19:46.000Z</time>
      </trkpt>
      <trkpt lat="47.10045" lon="-1.60492">
        <ele>58</ele>
        <time>2020-12-25T10:19:48.000Z</time>
      </trkpt>
      <trkpt lat="47.10049" lon="-1.60475">
        <ele>58</ele>
        <time>2020-12-25T10:19:50.000Z</time>
      </trkpt>
      <trkpt lat="47.10053" lon="-1.60458">
        <ele>58</ele>
        <time>2020-12-25T10:19:52.000Z</time>
      </trkpt>
      <trkpt lat="47.10056" lon="-1.6044">
        <ele>58</ele>
        <time>2020-12-25T10:19:54.000Z</time>
      </trkpt>
      <trkpt lat="47.10059" lon="-1.60423">
        <ele>57</ele>
        <time>2020-12-25T10:19:56.000Z</time>
      </trkpt>
      <trkpt lat="47.10061" lon="-1.60404">
        <ele>57</ele>
        <time>2020-12-25T10:19:58.000Z</time>
      </trkpt>
      <trkpt lat="47.10063" lon="-1.60385">
        <ele>57</ele>
        <time>2020-12-25T10:20:00.000Z</time>
      </trkpt>
      <trkpt lat="47.10064" lon="-1.60365">
        <ele>57</ele>
        <time>2020-12-25T10:20:02.000Z</time>
      </trkpt>
      <trkpt lat="47.10066" lon="-1.60346">
        <ele>57</ele>
        <time>2020-12-25T10:20:04.000Z</time>
      </trkpt>
      <trkpt lat="47.10068" lon="-1.60326">
        <ele>57</ele>
        <time>2020-12-25T10:20:06.000Z</time>
      </trkpt>
      <trkpt lat="47.1007" lon="-1.60307">
        <ele>57</ele>
        <time>2020-12-25T10:20:08.000Z</time>
      </trkpt>
      <trkpt lat="47.10072" lon="-1.60288">
        <ele>57</ele>
        <time>2020-12-25T10:20:10.000Z</time>
      </trkpt>
      <trkpt lat="47.10074" lon="-1.6027">
        <ele>58</ele>
        <time>2020-12-25T10:20:12.000Z</time>
      </trkpt>
      <trkpt lat="47.10075" lon="-1.60252">
        <ele>58</ele>
        <time>2020-12-25T10:20:14.000Z</time>
      </trkpt>
      <trkpt lat="47.10077" lon="-1.60234">
        <ele>57</ele>
        <time>2020-12-25T10:20:16.000Z</time>
      </trkpt>
      <trkpt lat="47.10078" lon="-1.60215">
        <ele>57</ele>
        <time>2020-12-25T10:20:18.000Z</time>
      </trkpt>
      <trkpt lat="47.10079" lon="-1.60196">
        <ele>57</ele>
        <time>2020-12-25T10:20:20.000Z</time>
      </trkpt>
      <trkpt lat="47.1008" lon="-1.60178">
        <ele>57</ele>
        <time>2020-12-25T10:20:22.000Z</time>
      </trkpt>
      <trkpt lat="47.10075" lon="-1.6016">
        <ele>56</ele>
        <time>2020-12-25T10:20:24.000Z</time>
      </trkpt>
      <trkpt lat="47.10068" lon="-1.60145">
        <ele>56</ele>
        <time>2020-12-25T10:20:26.000Z</time>
      </trkpt>
      <trkpt lat="47.10067" lon="-1.60127">
        <ele>56</ele>
        <time>2020-12-25T10:20:28.000Z</time>
      </trkpt>
      <trkpt lat="47.10075" lon="-1.60109">
        <ele>56</ele>
        <time>2020-12-25T10:20:30.000Z</time>
      </trkpt>
      <trkpt lat="47.10087" lon="-1.601">
        <ele>56</ele>
        <time>2020-12-25T10:20:32.000Z</time>
      </trkpt>
      <trkpt lat="47.101" lon="-1.60096">
        <ele>55</ele>
        <time>2020-12-25T10:20:34.000Z</time>
      </trkpt>
      <trkpt lat="47.1011" lon="-1.60084">
        <ele>55</ele>
        <time>2020-12-25T10:20:36.000Z</time>
      </trkpt>
      <trkpt lat="47.10119" lon="-1.6007">
        <ele>55</ele>
        <time>2020-12-25T10:20:38.000Z</time>
      </trkpt>
      <trkpt lat="47.10128" lon="-1.60057">
        <ele>55</ele>
        <time>2020-12-25T10:20:40.000Z</time>
      </trkpt>
      <trkpt lat="47.10137" lon="-1.60043">
        <ele>55</ele>
        <time>2020-12-25T10:20:42.000Z</time>
      </trkpt>
      <trkpt lat="47.10146" lon="-1.60029">
        <ele>55</ele>
        <time>2020-12-25T10:20:44.000Z</time>
      </trkpt>
      <trkpt lat="47.10155" lon="-1.60015">
        <ele>55</ele>
        <time>2020-12-25T10:20:46.000Z</time>
      </trkpt>
      <trkpt lat="47.10164" lon="-1.6">
        <ele>55</ele>
        <time>2020-12-25T10:20:48.000Z</time>
      </trkpt>
      <trkpt lat="47.10173" lon="-1.59986">
        <ele>56</ele>
        <time>2020-12-25T10:20:50.000Z</time>
      </trkpt>
      <trkpt lat="47.10181" lon="-1.59971">
        <ele>56</ele>
        <time>2020-12-25T10:20:52.000Z</time>
      </trkpt>
      <trkpt lat="47.1019" lon="-1.59957">
        <ele>56</ele>
        <time>2020-12-25T10:20:54.000Z</time>
      </trkpt>
      <trkpt lat="47.10198" lon="-1.59943">
        <ele>56</ele>
        <time>2020-12-25T10:20:56.000Z</time>
      </trkpt>
      <trkpt lat="47.10206" lon="-1.5993">
        <ele>56</ele>
        <time>2020-12-25T10:20:58.000Z</time>
      </trkpt>
      <trkpt lat="47.10215" lon="-1.59916">
        <ele>56</ele>
        <time>2020-12-25T10:21:00.000Z</time>
      </trkpt>
      <trkpt lat="47.10223" lon="-1.59902">
        <ele>56</ele>
        <time>2020-12-25T10:21:02.000Z</time>
      </trkpt>
      <trkpt lat="47.10231" lon="-1.59888">
        <ele>56</ele>
        <time>2020-12-25T10:21:04.000Z</time>
      </trkpt>
      <trkpt lat="47.10239" lon="-1.59874">
        <ele>56</ele>
        <time>2020-12-25T10:21:06.000Z</time>
      </trkpt>
      <trkpt lat="47.10247" lon="-1.5986">
        <ele>56</ele>
        <time>2020-12-25T10:21:08.000Z</time>
      </trkpt>
      <trkpt lat="47.10256" lon="-1.59846">
        <ele>56</ele>
        <time>2020-12-25T10:21:10.000Z</time>
      </trkpt>
      <trkpt lat="47.10264" lon="-1.59833">
        <ele>57</ele>
        <time>2020-12-25T10:21:12.000Z</time>
      </trkpt>
      <trkpt lat="47.10272" lon="-1.59819">
        <ele>57</ele>
        <time>2020-12-25T10:21:14.000Z</time>
      </trkpt>
      <trkpt lat="47.1028" lon="-1.59805">
        <ele>57</ele>
        <time>2020-12-25T10:21:16.000Z</time>
      </trkpt>
      <trkpt lat="47.10287" lon="-1.59792">
        <ele>57</ele>
        <time>2020-12-25T10:21:18.000Z</time>
      </trkpt>
      <trkpt lat="47.10295" lon="-1.59778">
        <ele>57</ele>
        <time>2020-12-25T10:21:20.000Z</time>
      </trkpt>
      <trkpt lat="47.10303" lon="-1.59764">
        <ele>57</ele>
        <time>2020-12-25T10:21:22.000Z</time>
      </trkpt>
      <trkpt lat="47.10311" lon="-1.59751">
        <ele>57</ele>
        <time>2020-12-25T10:21:24.000Z</time>
      </trkpt>
      <trkpt lat="47.10319" lon="-1.59737">
        <ele>58</ele>
        <time>2020-12-25T10:21:26.000Z</time>
      </trkpt>
      <trkpt lat="47.10327" lon="-1.59723">
        <ele>58</ele>
        <time>2020-12-25T10:21:28.000Z</time>
      </trkpt>
      <trkpt lat="47.10336" lon="-1.59709">
        <ele>58</ele>
        <time>2020-12-25T10:21:30.000Z</time>
      </trkpt>
      <trkpt lat="47.10344" lon="-1.59695">
        <ele>58</ele>
        <time>2020-12-25T10:21:32.000Z</time>
      </trkpt>
      <trkpt lat="47.10352" lon="-1.59681">
        <ele>59</ele>
        <time>2020-12-25T10:21:34.000Z</time>
      </trkpt>
      <trkpt lat="47.10361" lon="-1.59666">
        <ele>59</ele>
        <time>2020-12-25T10:21:36.000Z</time>
      </trkpt>
      <trkpt lat="47.1037" lon="-1.59652">
        <ele>59</ele>
        <time>2020-12-25T10:21:38.000Z</time>
      </trkpt>
      <trkpt lat="47.10378" lon="-1.59639">
        <ele>59</ele>
        <time>2020-12-25T10:21:40.000Z</time>
      </trkpt>
      <trkpt lat="47.10386" lon="-1.59625">
        <ele>59</ele>
        <time>2020-12-25T10:21:42.000Z</time>
      </trkpt>
      <trkpt lat="47.10394" lon="-1.59612">
        <ele>58</ele>
        <time>2020-12-25T10:21:44.000Z</time>
      </trkpt>
      <trkpt lat="47.10402" lon="-1.59598">
        <ele>59</ele>
        <time>2020-12-25T10:21:46.000Z</time>
      </trkpt>
      <trkpt lat="47.1041" lon="-1.59585">
        <ele>59</ele>
        <time>2020-12-25T10:21:48.000Z</time>
      </trkpt>
      <trkpt lat="47.10419" lon="-1.59571">
        <ele>59</ele>
        <time>2020-12-25T10:21:50.000Z</time>
      </trkpt>
      <trkpt lat="47.10427" lon="-1.59557">
        <ele>58</ele>
        <time>2020-12-25T10:21:52.000Z</time>
      </trkpt>
      <trkpt lat="47.10435" lon="-1.59544">
        <ele>58</ele>
        <time>2020-12-25T10:21:54.000Z</time>
      </trkpt>
      <trkpt lat="47.10442" lon="-1.59531">
        <ele>58</ele>
        <time>2020-12-25T10:21:56.000Z</time>
      </trkpt>
      <trkpt lat="47.1045" lon="-1.59518">
        <ele>58</ele>
        <time>2020-12-25T10:21:58.000Z</time>
      </trkpt>
      <trkpt lat="47.10462" lon="-1.59498">
        <ele>58</ele>
        <time>2020-12-25T10:22:01.000Z</time>
      </trkpt>
      <trkpt lat="47.10475" lon="-1.59478">
        <ele>58</ele>
        <time>2020-12-25T10:22:04.000Z</time>
      </trkpt>
      <trkpt lat="47.10483" lon="-1.59464">
        <ele>58</ele>
        <time>2020-12-25T10:22:06.000Z</time>
      </trkpt>
      <trkpt lat="47.10491" lon="-1.59452">
        <ele>58</ele>
        <time>2020-12-25T10:22:08.000Z</time>
      </trkpt>
      <trkpt lat="47.10499" lon="-1.59439">
        <ele>57</ele>
        <time>2020-12-25T10:22:10.000Z</time>
      </trkpt>
      <trkpt lat="47.10508" lon="-1.59426">
        <ele>57</ele>
        <time>2020-12-25T10:22:12.000Z</time>
      </trkpt>
      <trkpt lat="47.10516" lon="-1.59413">
        <ele>57</ele>
        <time>2020-12-25T10:22:14.000Z</time>
      </trkpt>
      <trkpt lat="47.10523" lon="-1.594">
        <ele>57</ele>
        <time>2020-12-25T10:22:16.000Z</time>
      </trkpt>
      <trkpt lat="47.1053" lon="-1.59387">
        <ele>57</ele>
        <time>2020-12-25T10:22:18.000Z</time>
      </trkpt>
      <trkpt lat="47.10538" lon="-1.59373">
        <ele>57</ele>
        <time>2020-12-25T10:22:20.000Z</time>
      </trkpt>
      <trkpt lat="47.10545" lon="-1.5936">
        <ele>57</ele>
        <time>2020-12-25T10:22:22.000Z</time>
      </trkpt>
      <trkpt lat="47.10553" lon="-1.59347">
        <ele>57</ele>
        <time>2020-12-25T10:22:24.000Z</time>
      </trkpt>
      <trkpt lat="47.10565" lon="-1.59326">
        <ele>58</ele>
        <time>2020-12-25T10:22:27.000Z</time>
      </trkpt>
      <trkpt lat="47.10572" lon="-1.59312">
        <ele>59</ele>
        <time>2020-12-25T10:22:29.000Z</time>
      </trkpt>
      <trkpt lat="47.10579" lon="-1.59298">
        <ele>59</ele>
        <time>2020-12-25T10:22:31.000Z</time>
      </trkpt>
      <trkpt lat="47.10587" lon="-1.59285">
        <ele>59</ele>
        <time>2020-12-25T10:22:33.000Z</time>
      </trkpt>
      <trkpt lat="47.10595" lon="-1.59271">
        <ele>59</ele>
        <time>2020-12-25T10:22:35.000Z</time>
      </trkpt>
      <trkpt lat="47.10602" lon="-1.59256">
        <ele>59</ele>
        <time>2020-12-25T10:22:37.000Z</time>
      </trkpt>
      <trkpt lat="47.10614" lon="-1.59234">
        <ele>60</ele>
        <time>2020-12-25T10:22:40.000Z</time>
      </trkpt>
      <trkpt lat="47.10623" lon="-1.59221">
        <ele>61</ele>
        <time>2020-12-25T10:22:42.000Z</time>
      </trkpt>
      <trkpt lat="47.10631" lon="-1.59207">
        <ele>61</ele>
        <time>2020-12-25T10:22:44.000Z</time>
      </trkpt>
      <trkpt lat="47.10642" lon="-1.59186">
        <ele>61</ele>
        <time>2020-12-25T10:22:47.000Z</time>
      </trkpt>
      <trkpt lat="47.10649" lon="-1.59171">
        <ele>62</ele>
        <time>2020-12-25T10:22:49.000Z</time>
      </trkpt>
      <trkpt lat="47.10655" lon="-1.59155">
        <ele>62</ele>
        <time>2020-12-25T10:22:51.000Z</time>
      </trkpt>
      <trkpt lat="47.10661" lon="-1.5914">
        <ele>62</ele>
        <time>2020-12-25T10:22:53.000Z</time>
      </trkpt>
      <trkpt lat="47.10667" lon="-1.59124">
        <ele>63</ele>
        <time>2020-12-25T10:22:55.000Z</time>
      </trkpt>
      <trkpt lat="47.10672" lon="-1.59108">
        <ele>63</ele>
        <time>2020-12-25T10:22:57.000Z</time>
      </trkpt>
      <trkpt lat="47.10678" lon="-1.59093">
        <ele>63</ele>
        <time>2020-12-25T10:22:59.000Z</time>
      </trkpt>
      <trkpt lat="47.10683" lon="-1.59078">
        <ele>64</ele>
        <time>2020-12-25T10:23:01.000Z</time>
      </trkpt>
      <trkpt lat="47.10689" lon="-1.59063">
        <ele>64</ele>
        <time>2020-12-25T10:23:03.000Z</time>
      </trkpt>
      <trkpt lat="47.10694" lon="-1.59049">
        <ele>64</ele>
        <time>2020-12-25T10:23:05.000Z</time>
      </trkpt>
      <trkpt lat="47.10699" lon="-1.59034">
        <ele>65</ele>
        <time>2020-12-25T10:23:07.000Z</time>
      </trkpt>
      <trkpt lat="47.10705" lon="-1.59019">
        <ele>65</ele>
        <time>2020-12-25T10:23:09.000Z</time>
      </trkpt>
      <trkpt lat="47.10711" lon="-1.59004">
        <ele>65</ele>
        <time>2020-12-25T10:23:11.000Z</time>
      </trkpt>
      <trkpt lat="47.10717" lon="-1.5899">
        <ele>66</ele>
        <time>2020-12-25T10:23:13.000Z</time>
      </trkpt>
      <trkpt lat="47.10726" lon="-1.58968">
        <ele>65</ele>
        <time>2020-12-25T10:23:16.000Z</time>
      </trkpt>
      <trkpt lat="47.10734" lon="-1.58945">
        <ele>65</ele>
        <time>2020-12-25T10:23:19.000Z</time>
      </trkpt>
      <trkpt lat="47.1074" lon="-1.5893">
        <ele>65</ele>
        <time>2020-12-25T10:23:21.000Z</time>
      </trkpt>
      <trkpt lat="47.10747" lon="-1.58916">
        <ele>65</ele>
        <time>2020-12-25T10:23:23.000Z</time>
      </trkpt>
      <trkpt lat="47.10755" lon="-1.58902">
        <ele>65</ele>
        <time>2020-12-25T10:23:25.000Z</time>
      </trkpt>
      <trkpt lat="47.10763" lon="-1.58889">
        <ele>65</ele>
        <time>2020-12-25T10:23:27.000Z</time>
      </trkpt>
      <trkpt lat="47.10772" lon="-1.58877">
        <ele>65</ele>
        <time>2020-12-25T10:23:29.000Z</time>
      </trkpt>
      <trkpt lat="47.10781" lon="-1.58864">
        <ele>64</ele>
        <time>2020-12-25T10:23:31.000Z</time>
      </trkpt>
      <trkpt lat="47.10788" lon="-1.58849">
        <ele>64</ele>
        <time>2020-12-25T10:23:33.000Z</time>
      </trkpt>
      <trkpt lat="47.10797" lon="-1.58836">
        <ele>64</ele>
        <time>2020-12-25T10:23:35.000Z</time>
      </trkpt>
      <trkpt lat="47.10805" lon="-1.58822">
        <ele>63</ele>
        <time>2020-12-25T10:23:37.000Z</time>
      </trkpt>
      <trkpt lat="47.10814" lon="-1.58808">
        <ele>64</ele>
        <time>2020-12-25T10:23:39.000Z</time>
      </trkpt>
      <trkpt lat="47.10823" lon="-1.58794">
        <ele>64</ele>
        <time>2020-12-25T10:23:41.000Z</time>
      </trkpt>
      <trkpt lat="47.10833" lon="-1.58779">
        <ele>63</ele>
        <time>2020-12-25T10:23:43.000Z</time>
      </trkpt>
      <trkpt lat="47.10843" lon="-1.58764">
        <ele>62</ele>
        <time>2020-12-25T10:23:45.000Z</time>
      </trkpt>
      <trkpt lat="47.10853" lon="-1.58748">
        <ele>62</ele>
        <time>2020-12-25T10:23:47.000Z</time>
      </trkpt>
      <trkpt lat="47.10864" lon="-1.58733">
        <ele>62</ele>
        <time>2020-12-25T10:23:49.000Z</time>
      </trkpt>
      <trkpt lat="47.10874" lon="-1.58718">
        <ele>62</ele>
        <time>2020-12-25T10:23:51.000Z</time>
      </trkpt>
      <trkpt lat="47.10885" lon="-1.58702">
        <ele>62</ele>
        <time>2020-12-25T10:23:53.000Z</time>
      </trkpt>
      <trkpt lat="47.10899" lon="-1.58677">
        <ele>61</ele>
        <time>2020-12-25T10:23:56.000Z</time>
      </trkpt>
      <trkpt lat="47.10911" lon="-1.58663">
        <ele>61</ele>
        <time>2020-12-25T10:23:58.000Z</time>
      </trkpt>
      <trkpt lat="47.10922" lon="-1.58647">
        <ele>60</ele>
        <time>2020-12-25T10:24:00.000Z</time>
      </trkpt>
      <trkpt lat="47.10933" lon="-1.58631">
        <ele>60</ele>
        <time>2020-12-25T10:24:02.000Z</time>
      </trkpt>
      <trkpt lat="47.10944" lon="-1.58614">
        <ele>60</ele>
        <time>2020-12-25T10:24:04.000Z</time>
      </trkpt>
      <trkpt lat="47.10954" lon="-1.58599">
        <ele>59</ele>
        <time>2020-12-25T10:24:06.000Z</time>
      </trkpt>
      <trkpt lat="47.10965" lon="-1.58583">
        <ele>59</ele>
        <time>2020-12-25T10:24:08.000Z</time>
      </trkpt>
      <trkpt lat="47.10975" lon="-1.58567">
        <ele>59</ele>
        <time>2020-12-25T10:24:10.000Z</time>
      </trkpt>
      <trkpt lat="47.10986" lon="-1.58551">
        <ele>58</ele>
        <time>2020-12-25T10:24:12.000Z</time>
      </trkpt>
      <trkpt lat="47.10996" lon="-1.58536">
        <ele>58</ele>
        <time>2020-12-25T10:24:14.000Z</time>
      </trkpt>
      <trkpt lat="47.11006" lon="-1.5852">
        <ele>58</ele>
        <time>2020-12-25T10:24:16.000Z</time>
      </trkpt>
      <trkpt lat="47.11017" lon="-1.58505">
        <ele>58</ele>
        <time>2020-12-25T10:24:18.000Z</time>
      </trkpt>
      <trkpt lat="47.11027" lon="-1.58489">
        <ele>58</ele>
        <time>2020-12-25T10:24:20.000Z</time>
      </trkpt>
      <trkpt lat="47.11036" lon="-1.58475">
        <ele>57</ele>
        <time>2020-12-25T10:24:22.000Z</time>
      </trkpt>
      <trkpt lat="47.11046" lon="-1.5846">
        <ele>57</ele>
        <time>2020-12-25T10:24:24.000Z</time>
      </trkpt>
      <trkpt lat="47.11056" lon="-1.58445">
        <ele>57</ele>
        <time>2020-12-25T10:24:26.000Z</time>
      </trkpt>
      <trkpt lat="47.11065" lon="-1.5843">
        <ele>57</ele>
        <time>2020-12-25T10:24:28.000Z</time>
      </trkpt>
      <trkpt lat="47.11075" lon="-1.58416">
        <ele>57</ele>
        <time>2020-12-25T10:24:30.000Z</time>
      </trkpt>
      <trkpt lat="47.11085" lon="-1.584">
        <ele>57</ele>
        <time>2020-12-25T10:24:32.000Z</time>
      </trkpt>
      <trkpt lat="47.11095" lon="-1.58385">
        <ele>57</ele>
        <time>2020-12-25T10:24:34.000Z</time>
      </trkpt>
      <trkpt lat="47.11104" lon="-1.5837">
        <ele>57</ele>
        <time>2020-12-25T10:24:36.000Z</time>
      </trkpt>
      <trkpt lat="47.11114" lon="-1.58356">
        <ele>57</ele>
        <time>2020-12-25T10:24:38.000Z</time>
      </trkpt>
      <trkpt lat="47.11125" lon="-1.58341">
        <ele>56</ele>
        <time>2020-12-25T10:24:40.000Z</time>
      </trkpt>
      <trkpt lat="47.11134" lon="-1.58326">
        <ele>56</ele>
        <time>2020-12-25T10:24:42.000Z</time>
      </trkpt>
      <trkpt lat="47.11144" lon="-1.58311">
        <ele>56</ele>
        <time>2020-12-25T10:24:44.000Z</time>
      </trkpt>
      <trkpt lat="47.11154" lon="-1.58296">
        <ele>56</ele>
        <time>2020-12-25T10:24:46.000Z</time>
      </trkpt>
      <trkpt lat="47.11164" lon="-1.58281">
        <ele>55</ele>
        <time>2020-12-25T10:24:48.000Z</time>
      </trkpt>
      <trkpt lat="47.11174" lon="-1.58266">
        <ele>55</ele>
        <time>2020-12-25T10:24:50.000Z</time>
      </trkpt>
      <trkpt lat="47.11183" lon="-1.58251">
        <ele>55</ele>
        <time>2020-12-25T10:24:52.000Z</time>
      </trkpt>
      <trkpt lat="47.11193" lon="-1.58236">
        <ele>55</ele>
        <time>2020-12-25T10:24:54.000Z</time>
      </trkpt>
      <trkpt lat="47.11204" lon="-1.58222">
        <ele>55</ele>
        <time>2020-12-25T10:24:56.000Z</time>
      </trkpt>
      <trkpt lat="47.11214" lon="-1.58208">
        <ele>54</ele>
        <time>2020-12-25T10:24:58.000Z</time>
      </trkpt>
      <trkpt lat="47.11225" lon="-1.58194">
        <ele>54</ele>
        <time>2020-12-25T10:25:00.000Z</time>
      </trkpt>
      <trkpt lat="47.11236" lon="-1.58181">
        <ele>54</ele>
        <time>2020-12-25T10:25:02.000Z</time>
      </trkpt>
      <trkpt lat="47.11247" lon="-1.58169">
        <ele>54</ele>
        <time>2020-12-25T10:25:04.000Z</time>
      </trkpt>
      <trkpt lat="47.11259" lon="-1.58158">
        <ele>54</ele>
        <time>2020-12-25T10:25:06.000Z</time>
      </trkpt>
      <trkpt lat="47.1127" lon="-1.58147">
        <ele>54</ele>
        <time>2020-12-25T10:25:08.000Z</time>
      </trkpt>
      <trkpt lat="47.11281" lon="-1.58137">
        <ele>54</ele>
        <time>2020-12-25T10:25:10.000Z</time>
      </trkpt>
      <trkpt lat="47.11293" lon="-1.58127">
        <ele>54</ele>
        <time>2020-12-25T10:25:12.000Z</time>
      </trkpt>
      <trkpt lat="47.11306" lon="-1.58118">
        <ele>54</ele>
        <time>2020-12-25T10:25:14.000Z</time>
      </trkpt>
      <trkpt lat="47.11318" lon="-1.5811">
        <ele>54</ele>
        <time>2020-12-25T10:25:16.000Z</time>
      </trkpt>
      <trkpt lat="47.1133" lon="-1.58102">
        <ele>54</ele>
        <time>2020-12-25T10:25:18.000Z</time>
      </trkpt>
      <trkpt lat="47.11343" lon="-1.58094">
        <ele>54</ele>
        <time>2020-12-25T10:25:20.000Z</time>
      </trkpt>
      <trkpt lat="47.11355" lon="-1.58086">
        <ele>54</ele>
        <time>2020-12-25T10:25:22.000Z</time>
      </trkpt>
      <trkpt lat="47.11368" lon="-1.58078">
        <ele>54</ele>
        <time>2020-12-25T10:25:24.000Z</time>
      </trkpt>
      <trkpt lat="47.1138" lon="-1.5807">
        <ele>54</ele>
        <time>2020-12-25T10:25:26.000Z</time>
      </trkpt>
      <trkpt lat="47.11393" lon="-1.58063">
        <ele>53</ele>
        <time>2020-12-25T10:25:28.000Z</time>
      </trkpt>
      <trkpt lat="47.11405" lon="-1.58055">
        <ele>53</ele>
        <time>2020-12-25T10:25:30.000Z</time>
      </trkpt>
      <trkpt lat="47.11417" lon="-1.58049">
        <ele>53</ele>
        <time>2020-12-25T10:25:32.000Z</time>
      </trkpt>
      <trkpt lat="47.11429" lon="-1.58041">
        <ele>53</ele>
        <time>2020-12-25T10:25:34.000Z</time>
      </trkpt>
      <trkpt lat="47.11441" lon="-1.58035">
        <ele>54</ele>
        <time>2020-12-25T10:25:36.000Z</time>
      </trkpt>
      <trkpt lat="47.11453" lon="-1.5803">
        <ele>54</ele>
        <time>2020-12-25T10:25:38.000Z</time>
      </trkpt>
      <trkpt lat="47.11464" lon="-1.58026">
        <ele>54</ele>
        <time>2020-12-25T10:25:40.000Z</time>
      </trkpt>
      <trkpt lat="47.11476" lon="-1.58022">
        <ele>54</ele>
        <time>2020-12-25T10:25:42.000Z</time>
      </trkpt>
      <trkpt lat="47.11488" lon="-1.58019">
        <ele>54</ele>
        <time>2020-12-25T10:25:44.000Z</time>
      </trkpt>
      <trkpt lat="47.11501" lon="-1.58017">
        <ele>54</ele>
        <time>2020-12-25T10:25:46.000Z</time>
      </trkpt>
      <trkpt lat="47.11513" lon="-1.58016">
        <ele>54</ele>
        <time>2020-12-25T10:25:48.000Z</time>
      </trkpt>
      <trkpt lat="47.11525" lon="-1.58016">
        <ele>55</ele>
        <time>2020-12-25T10:25:50.000Z</time>
      </trkpt>
      <trkpt lat="47.11538" lon="-1.58016">
        <ele>54</ele>
        <time>2020-12-25T10:25:52.000Z</time>
      </trkpt>
      <trkpt lat="47.11551" lon="-1.58017">
        <ele>54</ele>
        <time>2020-12-25T10:25:54.000Z</time>
      </trkpt>
      <trkpt lat="47.11564" lon="-1.58018">
        <ele>53</ele>
        <time>2020-12-25T10:25:56.000Z</time>
      </trkpt>
      <trkpt lat="47.11577" lon="-1.5802">
        <ele>54</ele>
        <time>2020-12-25T10:25:58.000Z</time>
      </trkpt>
      <trkpt lat="47.1159" lon="-1.58021">
        <ele>53</ele>
        <time>2020-12-25T10:26:00.000Z</time>
      </trkpt>
      <trkpt lat="47.11603" lon="-1.58022">
        <ele>54</ele>
        <time>2020-12-25T10:26:02.000Z</time>
      </trkpt>
      <trkpt lat="47.11615" lon="-1.58025">
        <ele>54</ele>
        <time>2020-12-25T10:26:04.000Z</time>
      </trkpt>
      <trkpt lat="47.11626" lon="-1.58025">
        <ele>53</ele>
        <time>2020-12-25T10:26:06.000Z</time>
      </trkpt>
      <trkpt lat="47.11638" lon="-1.58022">
        <ele>53</ele>
        <time>2020-12-25T10:26:08.000Z</time>
      </trkpt>
      <trkpt lat="47.11651" lon="-1.58024">
        <ele>54</ele>
        <time>2020-12-25T10:26:10.000Z</time>
      </trkpt>
      <trkpt lat="47.11663" lon="-1.58026">
        <ele>54</ele>
        <time>2020-12-25T10:26:12.000Z</time>
      </trkpt>
      <trkpt lat="47.11676" lon="-1.58027">
        <ele>54</ele>
        <time>2020-12-25T10:26:14.000Z</time>
      </trkpt>
      <trkpt lat="47.11689" lon="-1.58027">
        <ele>54</ele>
        <time>2020-12-25T10:26:16.000Z</time>
      </trkpt>
      <trkpt lat="47.11701" lon="-1.58028">
        <ele>54</ele>
        <time>2020-12-25T10:26:18.000Z</time>
      </trkpt>
      <trkpt lat="47.11714" lon="-1.5803">
        <ele>54</ele>
        <time>2020-12-25T10:26:20.000Z</time>
      </trkpt>
      <trkpt lat="47.11727" lon="-1.58031">
        <ele>54</ele>
        <time>2020-12-25T10:26:22.000Z</time>
      </trkpt>
      <trkpt lat="47.11738" lon="-1.58033">
        <ele>55</ele>
        <time>2020-12-25T10:26:24.000Z</time>
      </trkpt>
      <trkpt lat="47.11751" lon="-1.58035">
        <ele>55</ele>
        <time>2020-12-25T10:26:26.000Z</time>
      </trkpt>
      <trkpt lat="47.11763" lon="-1.58038">
        <ele>55</ele>
        <time>2020-12-25T10:26:28.000Z</time>
      </trkpt>
      <trkpt lat="47.11775" lon="-1.5804">
        <ele>55</ele>
        <time>2020-12-25T10:26:30.000Z</time>
      </trkpt>
      <trkpt lat="47.11787" lon="-1.58043">
        <ele>55</ele>
        <time>2020-12-25T10:26:32.000Z</time>
      </trkpt>
      <trkpt lat="47.11799" lon="-1.58046">
        <ele>55</ele>
        <time>2020-12-25T10:26:34.000Z</time>
      </trkpt>
      <trkpt lat="47.11811" lon="-1.58048">
        <ele>55</ele>
        <time>2020-12-25T10:26:36.000Z</time>
      </trkpt>
      <trkpt lat="47.11822" lon="-1.58052">
        <ele>55</ele>
        <time>2020-12-25T10:26:38.000Z</time>
      </trkpt>
      <trkpt lat="47.11833" lon="-1.58054">
        <ele>55</ele>
        <time>2020-12-25T10:26:40.000Z</time>
      </trkpt>
      <trkpt lat="47.11844" lon="-1.58057">
        <ele>55</ele>
        <time>2020-12-25T10:26:42.000Z</time>
      </trkpt>
      <trkpt lat="47.11856" lon="-1.58059">
        <ele>56</ele>
        <time>2020-12-25T10:26:44.000Z</time>
      </trkpt>
      <trkpt lat="47.11867" lon="-1.58062">
        <ele>56</ele>
        <time>2020-12-25T10:26:46.000Z</time>
      </trkpt>
      <trkpt lat="47.11879" lon="-1.58066">
        <ele>56</ele>
        <time>2020-12-25T10:26:48.000Z</time>
      </trkpt>
      <trkpt lat="47.11891" lon="-1.58069">
        <ele>57</ele>
        <time>2020-12-25T10:26:50.000Z</time>
      </trkpt>
      <trkpt lat="47.11903" lon="-1.58072">
        <ele>57</ele>
        <time>2020-12-25T10:26:52.000Z</time>
      </trkpt>
      <trkpt lat="47.11914" lon="-1.58075">
        <ele>57</ele>
        <time>2020-12-25T10:26:54.000Z</time>
      </trkpt>
      <trkpt lat="47.11926" lon="-1.58077">
        <ele>57</ele>
        <time>2020-12-25T10:26:56.000Z</time>
      </trkpt>
      <trkpt lat="47.11938" lon="-1.5808">
        <ele>57</ele>
        <time>2020-12-25T10:26:58.000Z</time>
      </trkpt>
      <trkpt lat="47.1195" lon="-1.58083">
        <ele>57</ele>
        <time>2020-12-25T10:27:00.000Z</time>
      </trkpt>
      <trkpt lat="47.11961" lon="-1.58085">
        <ele>58</ele>
        <time>2020-12-25T10:27:02.000Z</time>
      </trkpt>
      <trkpt lat="47.11972" lon="-1.58087">
        <ele>58</ele>
        <time>2020-12-25T10:27:04.000Z</time>
      </trkpt>
      <trkpt lat="47.11983" lon="-1.58091">
        <ele>58</ele>
        <time>2020-12-25T10:27:06.000Z</time>
      </trkpt>
      <trkpt lat="47.11993" lon="-1.58095">
        <ele>57</ele>
        <time>2020-12-25T10:27:08.000Z</time>
      </trkpt>
      <trkpt lat="47.12003" lon="-1.58097">
        <ele>57</ele>
        <time>2020-12-25T10:27:10.000Z</time>
      </trkpt>
      <trkpt lat="47.12014" lon="-1.58095">
        <ele>57</ele>
        <time>2020-12-25T10:27:12.000Z</time>
      </trkpt>
      <trkpt lat="47.12023" lon="-1.58095">
        <ele>57</ele>
        <time>2020-12-25T10:27:14.000Z</time>
      </trkpt>
      <trkpt lat="47.12032" lon="-1.58106">
        <ele>57</ele>
        <time>2020-12-25T10:27:16.000Z</time>
      </trkpt>
      <trkpt lat="47.12041" lon="-1.58115">
        <ele>57</ele>
        <time>2020-12-25T10:27:18.000Z</time>
      </trkpt>
      <trkpt lat="47.12052" lon="-1.58121">
        <ele>57</ele>
        <time>2020-12-25T10:27:20.000Z</time>
      </trkpt>
      <trkpt lat="47.12063" lon="-1.58128">
        <ele>56</ele>
        <time>2020-12-25T10:27:22.000Z</time>
      </trkpt>
      <trkpt lat="47.12073" lon="-1.58135">
        <ele>56</ele>
        <time>2020-12-25T10:27:24.000Z</time>
      </trkpt>
      <trkpt lat="47.12085" lon="-1.58142">
        <ele>55</ele>
        <time>2020-12-25T10:27:26.000Z</time>
      </trkpt>
      <trkpt lat="47.12097" lon="-1.58148">
        <ele>55</ele>
        <time>2020-12-25T10:27:28.000Z</time>
      </trkpt>
      <trkpt lat="47.12108" lon="-1.58156">
        <ele>54</ele>
        <time>2020-12-25T10:27:30.000Z</time>
      </trkpt>
      <trkpt lat="47.12119" lon="-1.58164">
        <ele>54</ele>
        <time>2020-12-25T10:27:32.000Z</time>
      </trkpt>
      <trkpt lat="47.12129" lon="-1.58174">
        <ele>54</ele>
        <time>2020-12-25T10:27:34.000Z</time>
      </trkpt>
      <trkpt lat="47.1214" lon="-1.58184">
        <ele>53</ele>
        <time>2020-12-25T10:27:36.000Z</time>
      </trkpt>
      <trkpt lat="47.12152" lon="-1.58196">
        <ele>53</ele>
        <time>2020-12-25T10:27:38.000Z</time>
      </trkpt>
      <trkpt lat="47.12163" lon="-1.58208">
        <ele>53</ele>
        <time>2020-12-25T10:27:40.000Z</time>
      </trkpt>
      <trkpt lat="47.12174" lon="-1.58219">
        <ele>53</ele>
        <time>2020-12-25T10:27:42.000Z</time>
      </trkpt>
      <trkpt lat="47.12186" lon="-1.5823">
        <ele>52</ele>
        <time>2020-12-25T10:27:44.000Z</time>
      </trkpt>
      <trkpt lat="47.12197" lon="-1.58241">
        <ele>52</ele>
        <time>2020-12-25T10:27:46.000Z</time>
      </trkpt>
      <trkpt lat="47.12211" lon="-1.58254">
        <ele>52</ele>
        <time>2020-12-25T10:27:48.000Z</time>
      </trkpt>
      <trkpt lat="47.12225" lon="-1.58268">
        <ele>53</ele>
        <time>2020-12-25T10:27:50.000Z</time>
      </trkpt>
      <trkpt lat="47.12239" lon="-1.58281">
        <ele>52</ele>
        <time>2020-12-25T10:27:52.000Z</time>
      </trkpt>
      <trkpt lat="47.12251" lon="-1.58295">
        <ele>51</ele>
        <time>2020-12-25T10:27:54.000Z</time>
      </trkpt>
      <trkpt lat="47.12264" lon="-1.58307">
        <ele>51</ele>
        <time>2020-12-25T10:27:56.000Z</time>
      </trkpt>
      <trkpt lat="47.12276" lon="-1.58319">
        <ele>51</ele>
        <time>2020-12-25T10:27:58.000Z</time>
      </trkpt>
      <trkpt lat="47.12288" lon="-1.58331">
        <ele>51</ele>
        <time>2020-12-25T10:28:00.000Z</time>
      </trkpt>
      <trkpt lat="47.12297" lon="-1.58342">
        <ele>51</ele>
        <time>2020-12-25T10:28:02.000Z</time>
      </trkpt>
      <trkpt lat="47.12303" lon="-1.58359">
        <ele>52</ele>
        <time>2020-12-25T10:28:04.000Z</time>
      </trkpt>
      <trkpt lat="47.12305" lon="-1.58378">
        <ele>52</ele>
        <time>2020-12-25T10:28:06.000Z</time>
      </trkpt>
      <trkpt lat="47.12309" lon="-1.58396">
        <ele>52</ele>
        <time>2020-12-25T10:28:08.000Z</time>
      </trkpt>
      <trkpt lat="47.12316" lon="-1.58414">
        <ele>52</ele>
        <time>2020-12-25T10:28:10.000Z</time>
      </trkpt>
      <trkpt lat="47.12324" lon="-1.58427">
        <ele>53</ele>
        <time>2020-12-25T10:28:12.000Z</time>
      </trkpt>
      <trkpt lat="47.12334" lon="-1.58438">
        <ele>53</ele>
        <time>2020-12-25T10:28:14.000Z</time>
      </trkpt>
      <trkpt lat="47.12337" lon="-1.58456">
        <ele>53</ele>
        <time>2020-12-25T10:28:16.000Z</time>
      </trkpt>
      <trkpt lat="47.12341" lon="-1.58476">
        <ele>54</ele>
        <time>2020-12-25T10:28:18.000Z</time>
      </trkpt>
      <trkpt lat="47.12346" lon="-1.58494">
        <ele>53</ele>
        <time>2020-12-25T10:28:20.000Z</time>
      </trkpt>
      <trkpt lat="47.1235" lon="-1.58512">
        <ele>52</ele>
        <time>2020-12-25T10:28:22.000Z</time>
      </trkpt>
      <trkpt lat="47.12353" lon="-1.58529">
        <ele>53</ele>
        <time>2020-12-25T10:28:24.000Z</time>
      </trkpt>
      <trkpt lat="47.12356" lon="-1.58545">
        <ele>53</ele>
        <time>2020-12-25T10:28:26.000Z</time>
      </trkpt>
      <trkpt lat="47.1236" lon="-1.58561">
        <ele>53</ele>
        <time>2020-12-25T10:28:28.000Z</time>
      </trkpt>
      <trkpt lat="47.12365" lon="-1.58577">
        <ele>53</ele>
        <time>2020-12-25T10:28:30.000Z</time>
      </trkpt>
      <trkpt lat="47.12369" lon="-1.58594">
        <ele>53</ele>
        <time>2020-12-25T10:28:32.000Z</time>
      </trkpt>
      <trkpt lat="47.12373" lon="-1.58611">
        <ele>54</ele>
        <time>2020-12-25T10:28:34.000Z</time>
      </trkpt>
      <trkpt lat="47.12376" lon="-1.58629">
        <ele>55</ele>
        <time>2020-12-25T10:28:36.000Z</time>
      </trkpt>
      <trkpt lat="47.1238" lon="-1.58646">
        <ele>55</ele>
        <time>2020-12-25T10:28:38.000Z</time>
      </trkpt>
      <trkpt lat="47.12384" lon="-1.58662">
        <ele>55</ele>
        <time>2020-12-25T10:28:40.000Z</time>
      </trkpt>
      <trkpt lat="47.12388" lon="-1.58678">
        <ele>56</ele>
        <time>2020-12-25T10:28:42.000Z</time>
      </trkpt>
      <trkpt lat="47.12391" lon="-1.58694">
        <ele>56</ele>
        <time>2020-12-25T10:28:44.000Z</time>
      </trkpt>
      <trkpt lat="47.12395" lon="-1.58711">
        <ele>56</ele>
        <time>2020-12-25T10:28:46.000Z</time>
      </trkpt>
      <trkpt lat="47.12398" lon="-1.58727">
        <ele>56</ele>
        <time>2020-12-25T10:28:48.000Z</time>
      </trkpt>
      <trkpt lat="47.12402" lon="-1.58744">
        <ele>55</ele>
        <time>2020-12-25T10:28:50.000Z</time>
      </trkpt>
      <trkpt lat="47.12405" lon="-1.58761">
        <ele>56</ele>
        <time>2020-12-25T10:28:52.000Z</time>
      </trkpt>
      <trkpt lat="47.12407" lon="-1.58778">
        <ele>56</ele>
        <time>2020-12-25T10:28:54.000Z</time>
      </trkpt>
      <trkpt lat="47.1241" lon="-1.58795">
        <ele>56</ele>
        <time>2020-12-25T10:28:56.000Z</time>
      </trkpt>
      <trkpt lat="47.12412" lon="-1.58811">
        <ele>56</ele>
        <time>2020-12-25T10:28:58.000Z</time>
      </trkpt>
      <trkpt lat="47.12414" lon="-1.58827">
        <ele>57</ele>
        <time>2020-12-25T10:29:00.000Z</time>
      </trkpt>
      <trkpt lat="47.12416" lon="-1.58843">
        <ele>56</ele>
        <time>2020-12-25T10:29:02.000Z</time>
      </trkpt>
      <trkpt lat="47.12418" lon="-1.58858">
        <ele>57</ele>
        <time>2020-12-25T10:29:04.000Z</time>
      </trkpt>
      <trkpt lat="47.12419" lon="-1.58874">
        <ele>57</ele>
        <time>2020-12-25T10:29:06.000Z</time>
      </trkpt>
      <trkpt lat="47.12421" lon="-1.58891">
        <ele>56</ele>
        <time>2020-12-25T10:29:08.000Z</time>
      </trkpt>
      <trkpt lat="47.12422" lon="-1.58909">
        <ele>56</ele>
        <time>2020-12-25T10:29:10.000Z</time>
      </trkpt>
      <trkpt lat="47.12423" lon="-1.58926">
        <ele>56</ele>
        <time>2020-12-25T10:29:12.000Z</time>
      </trkpt>
      <trkpt lat="47.12424" lon="-1.58944">
        <ele>55</ele>
        <time>2020-12-25T10:29:14.000Z</time>
      </trkpt>
      <trkpt lat="47.12426" lon="-1.58963">
        <ele>55</ele>
        <time>2020-12-25T10:29:16.000Z</time>
      </trkpt>
      <trkpt lat="47.12427" lon="-1.58983">
        <ele>55</ele>
        <time>2020-12-25T10:29:18.000Z</time>
      </trkpt>
      <trkpt lat="47.12428" lon="-1.59003">
        <ele>55</ele>
        <time>2020-12-25T10:29:20.000Z</time>
      </trkpt>
      <trkpt lat="47.12429" lon="-1.59023">
        <ele>55</ele>
        <time>2020-12-25T10:29:22.000Z</time>
      </trkpt>
      <trkpt lat="47.1243" lon="-1.59044">
        <ele>56</ele>
        <time>2020-12-25T10:29:24.000Z</time>
      </trkpt>
      <trkpt lat="47.1243" lon="-1.59065">
        <ele>56</ele>
        <time>2020-12-25T10:29:26.000Z</time>
      </trkpt>
      <trkpt lat="47.12431" lon="-1.59085">
        <ele>55</ele>
        <time>2020-12-25T10:29:28.000Z</time>
      </trkpt>
      <trkpt lat="47.12432" lon="-1.59105">
        <ele>55</ele>
        <time>2020-12-25T10:29:30.000Z</time>
      </trkpt>
      <trkpt lat="47.12433" lon="-1.59125">
        <ele>55</ele>
        <time>2020-12-25T10:29:32.000Z</time>
      </trkpt>
      <trkpt lat="47.12434" lon="-1.59145">
        <ele>55</ele>
        <time>2020-12-25T10:29:34.000Z</time>
      </trkpt>
      <trkpt lat="47.12436" lon="-1.59164">
        <ele>55</ele>
        <time>2020-12-25T10:29:36.000Z</time>
      </trkpt>
      <trkpt lat="47.1244" lon="-1.59181">
        <ele>55</ele>
        <time>2020-12-25T10:29:38.000Z</time>
      </trkpt>
      <trkpt lat="47.12441" lon="-1.592">
        <ele>55</ele>
        <time>2020-12-25T10:29:40.000Z</time>
      </trkpt>
      <trkpt lat="47.12439" lon="-1.59219">
        <ele>54</ele>
        <time>2020-12-25T10:29:42.000Z</time>
      </trkpt>
      <trkpt lat="47.12438" lon="-1.59239">
        <ele>55</ele>
        <time>2020-12-25T10:29:44.000Z</time>
      </trkpt>
      <trkpt lat="47.12438" lon="-1.59258">
        <ele>55</ele>
        <time>2020-12-25T10:29:46.000Z</time>
      </trkpt>
      <trkpt lat="47.12439" lon="-1.59278">
        <ele>55</ele>
        <time>2020-12-25T10:29:48.000Z</time>
      </trkpt>
      <trkpt lat="47.12439" lon="-1.59297">
        <ele>56</ele>
        <time>2020-12-25T10:29:50.000Z</time>
      </trkpt>
      <trkpt lat="47.12441" lon="-1.59316">
        <ele>56</ele>
        <time>2020-12-25T10:29:52.000Z</time>
      </trkpt>
      <trkpt lat="47.12441" lon="-1.59335">
        <ele>56</ele>
        <time>2020-12-25T10:29:54.000Z</time>
      </trkpt>
      <trkpt lat="47.12442" lon="-1.59353">
        <ele>56</ele>
        <time>2020-12-25T10:29:56.000Z</time>
      </trkpt>
      <trkpt lat="47.12443" lon="-1.59371">
        <ele>56</ele>
        <time>2020-12-25T10:29:58.000Z</time>
      </trkpt>
      <trkpt lat="47.12444" lon="-1.59389">
        <ele>56</ele>
        <time>2020-12-25T10:30:00.000Z</time>
      </trkpt>
      <trkpt lat="47.12446" lon="-1.59407">
        <ele>57</ele>
        <time>2020-12-25T10:30:02.000Z</time>
      </trkpt>
      <trkpt lat="47.12447" lon="-1.59425">
        <ele>56</ele>
        <time>2020-12-25T10:30:04.000Z</time>
      </trkpt>
      <trkpt lat="47.12448" lon="-1.59442">
        <ele>57</ele>
        <time>2020-12-25T10:30:06.000Z</time>
      </trkpt>
      <trkpt lat="47.12449" lon="-1.5946">
        <ele>57</ele>
        <time>2020-12-25T10:30:08.000Z</time>
      </trkpt>
      <trkpt lat="47.1245" lon="-1.59478">
        <ele>57</ele>
        <time>2020-12-25T10:30:10.000Z</time>
      </trkpt>
      <trkpt lat="47.1245" lon="-1.59495">
        <ele>57</ele>
        <time>2020-12-25T10:30:12.000Z</time>
      </trkpt>
      <trkpt lat="47.12451" lon="-1.59513">
        <ele>57</ele>
        <time>2020-12-25T10:30:14.000Z</time>
      </trkpt>
      <trkpt lat="47.12452" lon="-1.5953">
        <ele>57</ele>
        <time>2020-12-25T10:30:16.000Z</time>
      </trkpt>
      <trkpt lat="47.12453" lon="-1.59548">
        <ele>57</ele>
        <time>2020-12-25T10:30:18.000Z</time>
      </trkpt>
      <trkpt lat="47.12454" lon="-1.59565">
        <ele>57</ele>
        <time>2020-12-25T10:30:20.000Z</time>
      </trkpt>
      <trkpt lat="47.12455" lon="-1.59583">
        <ele>57</ele>
        <time>2020-12-25T10:30:22.000Z</time>
      </trkpt>
      <trkpt lat="47.12455" lon="-1.59601">
        <ele>57</ele>
        <time>2020-12-25T10:30:24.000Z</time>
      </trkpt>
      <trkpt lat="47.12457" lon="-1.59619">
        <ele>57</ele>
        <time>2020-12-25T10:30:26.000Z</time>
      </trkpt>
      <trkpt lat="47.12457" lon="-1.59635">
        <ele>58</ele>
        <time>2020-12-25T10:30:28.000Z</time>
      </trkpt>
      <trkpt lat="47.12459" lon="-1.59652">
        <ele>58</ele>
        <time>2020-12-25T10:30:30.000Z</time>
      </trkpt>
      <trkpt lat="47.12459" lon="-1.5967">
        <ele>58</ele>
        <time>2020-12-25T10:30:32.000Z</time>
      </trkpt>
      <trkpt lat="47.1246" lon="-1.59687">
        <ele>58</ele>
        <time>2020-12-25T10:30:34.000Z</time>
      </trkpt>
      <trkpt lat="47.12461" lon="-1.59705">
        <ele>58</ele>
        <time>2020-12-25T10:30:36.000Z</time>
      </trkpt>
      <trkpt lat="47.12461" lon="-1.59722">
        <ele>58</ele>
        <time>2020-12-25T10:30:38.000Z</time>
      </trkpt>
      <trkpt lat="47.12462" lon="-1.5974">
        <ele>58</ele>
        <time>2020-12-25T10:30:40.000Z</time>
      </trkpt>
      <trkpt lat="47.12463" lon="-1.59758">
        <ele>58</ele>
        <time>2020-12-25T10:30:42.000Z</time>
      </trkpt>
      <trkpt lat="47.12464" lon="-1.59775">
        <ele>58</ele>
        <time>2020-12-25T10:30:44.000Z</time>
      </trkpt>
      <trkpt lat="47.12466" lon="-1.59793">
        <ele>58</ele>
        <time>2020-12-25T10:30:46.000Z</time>
      </trkpt>
      <trkpt lat="47.12467" lon="-1.59811">
        <ele>58</ele>
        <time>2020-12-25T10:30:48.000Z</time>
      </trkpt>
      <trkpt lat="47.12468" lon="-1.59828">
        <ele>57</ele>
        <time>2020-12-25T10:30:50.000Z</time>
      </trkpt>
      <trkpt lat="47.12469" lon="-1.59844">
        <ele>58</ele>
        <time>2020-12-25T10:30:52.000Z</time>
      </trkpt>
      <trkpt lat="47.12469" lon="-1.59862">
        <ele>58</ele>
        <time>2020-12-25T10:30:54.000Z</time>
      </trkpt>
      <trkpt lat="47.1247" lon="-1.59879">
        <ele>58</ele>
        <time>2020-12-25T10:30:56.000Z</time>
      </trkpt>
      <trkpt lat="47.12471" lon="-1.59896">
        <ele>59</ele>
        <time>2020-12-25T10:30:58.000Z</time>
      </trkpt>
      <trkpt lat="47.12472" lon="-1.59914">
        <ele>59</ele>
        <time>2020-12-25T10:31:00.000Z</time>
      </trkpt>
      <trkpt lat="47.12473" lon="-1.59932">
        <ele>59</ele>
        <time>2020-12-25T10:31:02.000Z</time>
      </trkpt>
      <trkpt lat="47.12474" lon="-1.5995">
        <ele>59</ele>
        <time>2020-12-25T10:31:04.000Z</time>
      </trkpt>
      <trkpt lat="47.12474" lon="-1.59968">
        <ele>58</ele>
        <time>2020-12-25T10:31:06.000Z</time>
      </trkpt>
      <trkpt lat="47.12475" lon="-1.59987">
        <ele>58</ele>
        <time>2020-12-25T10:31:08.000Z</time>
      </trkpt>
      <trkpt lat="47.12476" lon="-1.60006">
        <ele>58</ele>
        <time>2020-12-25T10:31:10.000Z</time>
      </trkpt>
      <trkpt lat="47.12477" lon="-1.60024">
        <ele>58</ele>
        <time>2020-12-25T10:31:12.000Z</time>
      </trkpt>
      <trkpt lat="47.12477" lon="-1.60043">
        <ele>59</ele>
        <time>2020-12-25T10:31:14.000Z</time>
      </trkpt>
      <trkpt lat="47.12478" lon="-1.60061">
        <ele>59</ele>
        <time>2020-12-25T10:31:16.000Z</time>
      </trkpt>
      <trkpt lat="47.12479" lon="-1.6008">
        <ele>59</ele>
        <time>2020-12-25T10:31:18.000Z</time>
      </trkpt>
      <trkpt lat="47.12479" lon="-1.60098">
        <ele>57</ele>
        <time>2020-12-25T10:31:20.000Z</time>
      </trkpt>
      <trkpt lat="47.12481" lon="-1.60117">
        <ele>57</ele>
        <time>2020-12-25T10:31:22.000Z</time>
      </trkpt>
      <trkpt lat="47.12482" lon="-1.60137">
        <ele>57</ele>
        <time>2020-12-25T10:31:24.000Z</time>
      </trkpt>
      <trkpt lat="47.12483" lon="-1.60156">
        <ele>57</ele>
        <time>2020-12-25T10:31:26.000Z</time>
      </trkpt>
      <trkpt lat="47.12485" lon="-1.60176">
        <ele>56</ele>
        <time>2020-12-25T10:31:28.000Z</time>
      </trkpt>
      <trkpt lat="47.12487" lon="-1.60194">
        <ele>56</ele>
        <time>2020-12-25T10:31:30.000Z</time>
      </trkpt>
      <trkpt lat="47.12488" lon="-1.60214">
        <ele>56</ele>
        <time>2020-12-25T10:31:32.000Z</time>
      </trkpt>
      <trkpt lat="47.12491" lon="-1.60233">
        <ele>56</ele>
        <time>2020-12-25T10:31:34.000Z</time>
      </trkpt>
      <trkpt lat="47.12495" lon="-1.60251">
        <ele>55</ele>
        <time>2020-12-25T10:31:36.000Z</time>
      </trkpt>
      <trkpt lat="47.12499" lon="-1.60269">
        <ele>54</ele>
        <time>2020-12-25T10:31:38.000Z</time>
      </trkpt>
      <trkpt lat="47.12502" lon="-1.60287">
        <ele>54</ele>
        <time>2020-12-25T10:31:40.000Z</time>
      </trkpt>
      <trkpt lat="47.12505" lon="-1.60304">
        <ele>54</ele>
        <time>2020-12-25T10:31:42.000Z</time>
      </trkpt>
      <trkpt lat="47.12508" lon="-1.60321">
        <ele>54</ele>
        <time>2020-12-25T10:31:44.000Z</time>
      </trkpt>
      <trkpt lat="47.12512" lon="-1.60339">
        <ele>55</ele>
        <time>2020-12-25T10:31:46.000Z</time>
      </trkpt>
      <trkpt lat="47.12515" lon="-1.60356">
        <ele>55</ele>
        <time>2020-12-25T10:31:48.000Z</time>
      </trkpt>
      <trkpt lat="47.12518" lon="-1.60373">
        <ele>55</ele>
        <time>2020-12-25T10:31:50.000Z</time>
      </trkpt>
      <trkpt lat="47.12522" lon="-1.60389">
        <ele>55</ele>
        <time>2020-12-25T10:31:52.000Z</time>
      </trkpt>
      <trkpt lat="47.12525" lon="-1.60405">
        <ele>55</ele>
        <time>2020-12-25T10:31:54.000Z</time>
      </trkpt>
      <trkpt lat="47.12528" lon="-1.60423">
        <ele>55</ele>
        <time>2020-12-25T10:31:56.000Z</time>
      </trkpt>
      <trkpt lat="47.12532" lon="-1.60441">
        <ele>55</ele>
        <time>2020-12-25T10:31:58.000Z</time>
      </trkpt>
      <trkpt lat="47.12535" lon="-1.60458">
        <ele>55</ele>
        <time>2020-12-25T10:32:00.000Z</time>
      </trkpt>
      <trkpt lat="47.12538" lon="-1.60476">
        <ele>56</ele>
        <time>2020-12-25T10:32:02.000Z</time>
      </trkpt>
      <trkpt lat="47.1254" lon="-1.60493">
        <ele>55</ele>
        <time>2020-12-25T10:32:04.000Z</time>
      </trkpt>
      <trkpt lat="47.12542" lon="-1.6051">
        <ele>56</ele>
        <time>2020-12-25T10:32:06.000Z</time>
      </trkpt>
      <trkpt lat="47.12543" lon="-1.60528">
        <ele>56</ele>
        <time>2020-12-25T10:32:08.000Z</time>
      </trkpt>
      <trkpt lat="47.12544" lon="-1.60546">
        <ele>56</ele>
        <time>2020-12-25T10:32:10.000Z</time>
      </trkpt>
      <trkpt lat="47.12545" lon="-1.60563">
        <ele>56</ele>
        <time>2020-12-25T10:32:12.000Z</time>
      </trkpt>
      <trkpt lat="47.12545" lon="-1.60581">
        <ele>56</ele>
        <time>2020-12-25T10:32:14.000Z</time>
      </trkpt>
      <trkpt lat="47.12545" lon="-1.60598">
        <ele>56</ele>
        <time>2020-12-25T10:32:16.000Z</time>
      </trkpt>
      <trkpt lat="47.12546" lon="-1.60615">
        <ele>56</ele>
        <time>2020-12-25T10:32:18.000Z</time>
      </trkpt>
      <trkpt lat="47.12546" lon="-1.60632">
        <ele>57</ele>
        <time>2020-12-25T10:32:20.000Z</time>
      </trkpt>
      <trkpt lat="47.12546" lon="-1.60649">
        <ele>57</ele>
        <time>2020-12-25T10:32:22.000Z</time>
      </trkpt>
      <trkpt lat="47.12547" lon="-1.60666">
        <ele>57</ele>
        <time>2020-12-25T10:32:24.000Z</time>
      </trkpt>
      <trkpt lat="47.12547" lon="-1.60684">
        <ele>57</ele>
        <time>2020-12-25T10:32:26.000Z</time>
      </trkpt>
      <trkpt lat="47.12547" lon="-1.60701">
        <ele>57</ele>
        <time>2020-12-25T10:32:28.000Z</time>
      </trkpt>
      <trkpt lat="47.12547" lon="-1.60719">
        <ele>57</ele>
        <time>2020-12-25T10:32:30.000Z</time>
      </trkpt>
      <trkpt lat="47.12547" lon="-1.60736">
        <ele>57</ele>
        <time>2020-12-25T10:32:32.000Z</time>
      </trkpt>
      <trkpt lat="47.12546" lon="-1.60754">
        <ele>57</ele>
        <time>2020-12-25T10:32:34.000Z</time>
      </trkpt>
      <trkpt lat="47.12544" lon="-1.60771">
        <ele>57</ele>
        <time>2020-12-25T10:32:36.000Z</time>
      </trkpt>
      <trkpt lat="47.12542" lon="-1.60787">
        <ele>58</ele>
        <time>2020-12-25T10:32:38.000Z</time>
      </trkpt>
      <trkpt lat="47.12541" lon="-1.60805">
        <ele>58</ele>
        <time>2020-12-25T10:32:40.000Z</time>
      </trkpt>
      <trkpt lat="47.1254" lon="-1.60821">
        <ele>58</ele>
        <time>2020-12-25T10:32:42.000Z</time>
      </trkpt>
      <trkpt lat="47.12539" lon="-1.60837">
        <ele>58</ele>
        <time>2020-12-25T10:32:44.000Z</time>
      </trkpt>
      <trkpt lat="47.12547" lon="-1.60845">
        <ele>58</ele>
        <time>2020-12-25T10:32:46.000Z</time>
      </trkpt>
      <trkpt lat="47.12558" lon="-1.60839">
        <ele>57</ele>
        <time>2020-12-25T10:32:48.000Z</time>
      </trkpt>
      <trkpt lat="47.1257" lon="-1.60836">
        <ele>57</ele>
        <time>2020-12-25T10:32:50.000Z</time>
      </trkpt>
      <trkpt lat="47.12582" lon="-1.60833">
        <ele>57</ele>
        <time>2020-12-25T10:32:52.000Z</time>
      </trkpt>
      <trkpt lat="47.12593" lon="-1.60829">
        <ele>57</ele>
        <time>2020-12-25T10:32:54.000Z</time>
      </trkpt>
      <trkpt lat="47.12605" lon="-1.60824">
        <ele>57</ele>
        <time>2020-12-25T10:32:56.000Z</time>
      </trkpt>
      <trkpt lat="47.12617" lon="-1.6082">
        <ele>57</ele>
        <time>2020-12-25T10:32:58.000Z</time>
      </trkpt>
      <trkpt lat="47.12628" lon="-1.60817">
        <ele>57</ele>
        <time>2020-12-25T10:33:00.000Z</time>
      </trkpt>
      <trkpt lat="47.1264" lon="-1.60813">
        <ele>57</ele>
        <time>2020-12-25T10:33:02.000Z</time>
      </trkpt>
      <trkpt lat="47.12651" lon="-1.6081">
        <ele>57</ele>
        <time>2020-12-25T10:33:04.000Z</time>
      </trkpt>
      <trkpt lat="47.12663" lon="-1.60806">
        <ele>57</ele>
        <time>2020-12-25T10:33:06.000Z</time>
      </trkpt>
      <trkpt lat="47.12674" lon="-1.60802">
        <ele>58</ele>
        <time>2020-12-25T10:33:08.000Z</time>
      </trkpt>
      <trkpt lat="47.12685" lon="-1.60798">
        <ele>58</ele>
        <time>2020-12-25T10:33:10.000Z</time>
      </trkpt>
      <trkpt lat="47.12697" lon="-1.60792">
        <ele>58</ele>
        <time>2020-12-25T10:33:12.000Z</time>
      </trkpt>
      <trkpt lat="47.12709" lon="-1.60788">
        <ele>58</ele>
        <time>2020-12-25T10:33:14.000Z</time>
      </trkpt>
      <trkpt lat="47.12721" lon="-1.60786">
        <ele>58</ele>
        <time>2020-12-25T10:33:16.000Z</time>
      </trkpt>
      <trkpt lat="47.12725" lon="-1.60801">
        <ele>58</ele>
        <time>2020-12-25T10:33:18.000Z</time>
      </trkpt>
      <trkpt lat="47.12722" lon="-1.60819">
        <ele>59</ele>
        <time>2020-12-25T10:33:20.000Z</time>
      </trkpt>
      <trkpt lat="47.12717" lon="-1.60837">
        <ele>59</ele>
        <time>2020-12-25T10:33:22.000Z</time>
      </trkpt>
      <trkpt lat="47.12712" lon="-1.60855">
        <ele>59</ele>
        <time>2020-12-25T10:33:24.000Z</time>
      </trkpt>
      <trkpt lat="47.12707" lon="-1.60872">
        <ele>59</ele>
        <time>2020-12-25T10:33:26.000Z</time>
      </trkpt>
      <trkpt lat="47.12702" lon="-1.6089">
        <ele>59</ele>
        <time>2020-12-25T10:33:28.000Z</time>
      </trkpt>
      <trkpt lat="47.12698" lon="-1.60907">
        <ele>60</ele>
        <time>2020-12-25T10:33:30.000Z</time>
      </trkpt>
      <trkpt lat="47.12696" lon="-1.60925">
        <ele>60</ele>
        <time>2020-12-25T10:33:32.000Z</time>
      </trkpt>
      <trkpt lat="47.12695" lon="-1.60943">
        <ele>61</ele>
        <time>2020-12-25T10:33:34.000Z</time>
      </trkpt>
      <trkpt lat="47.12694" lon="-1.60962">
        <ele>61</ele>
        <time>2020-12-25T10:33:36.000Z</time>
      </trkpt>
      <trkpt lat="47.12694" lon="-1.60979">
        <ele>62</ele>
        <time>2020-12-25T10:33:38.000Z</time>
      </trkpt>
      <trkpt lat="47.12693" lon="-1.60997">
        <ele>62</ele>
        <time>2020-12-25T10:33:40.000Z</time>
      </trkpt>
      <trkpt lat="47.12692" lon="-1.61015">
        <ele>62</ele>
        <time>2020-12-25T10:33:42.000Z</time>
      </trkpt>
      <trkpt lat="47.12691" lon="-1.61032">
        <ele>62</ele>
        <time>2020-12-25T10:33:44.000Z</time>
      </trkpt>
      <trkpt lat="47.1269" lon="-1.61051">
        <ele>62</ele>
        <time>2020-12-25T10:33:46.000Z</time>
      </trkpt>
      <trkpt lat="47.12689" lon="-1.61069">
        <ele>62</ele>
        <time>2020-12-25T10:33:48.000Z</time>
      </trkpt>
      <trkpt lat="47.12688" lon="-1.61087">
        <ele>61</ele>
        <time>2020-12-25T10:33:50.000Z</time>
      </trkpt>
      <trkpt lat="47.12687" lon="-1.61105">
        <ele>61</ele>
        <time>2020-12-25T10:33:52.000Z</time>
      </trkpt>
      <trkpt lat="47.12685" lon="-1.61124">
        <ele>61</ele>
        <time>2020-12-25T10:33:54.000Z</time>
      </trkpt>
      <trkpt lat="47.12683" lon="-1.61142">
        <ele>61</ele>
        <time>2020-12-25T10:33:56.000Z</time>
      </trkpt>
      <trkpt lat="47.12681" lon="-1.6116">
        <ele>61</ele>
        <time>2020-12-25T10:33:58.000Z</time>
      </trkpt>
      <trkpt lat="47.12679" lon="-1.61177">
        <ele>61</ele>
        <time>2020-12-25T10:34:00.000Z</time>
      </trkpt>
      <trkpt lat="47.12676" lon="-1.61194">
        <ele>61</ele>
        <time>2020-12-25T10:34:02.000Z</time>
      </trkpt>
      <trkpt lat="47.12673" lon="-1.61212">
        <ele>61</ele>
        <time>2020-12-25T10:34:04.000Z</time>
      </trkpt>
      <trkpt lat="47.12671" lon="-1.6123">
        <ele>61</ele>
        <time>2020-12-25T10:34:06.000Z</time>
      </trkpt>
      <trkpt lat="47.12671" lon="-1.61248">
        <ele>61</ele>
        <time>2020-12-25T10:34:08.000Z</time>
      </trkpt>
      <trkpt lat="47.12673" lon="-1.61266">
        <ele>61</ele>
        <time>2020-12-25T10:34:10.000Z</time>
      </trkpt>
      <trkpt lat="47.12677" lon="-1.61284">
        <ele>61</ele>
        <time>2020-12-25T10:34:12.000Z</time>
      </trkpt>
      <trkpt lat="47.12682" lon="-1.61301">
        <ele>61</ele>
        <time>2020-12-25T10:34:14.000Z</time>
      </trkpt>
      <trkpt lat="47.12687" lon="-1.61317">
        <ele>61</ele>
        <time>2020-12-25T10:34:16.000Z</time>
      </trkpt>
      <trkpt lat="47.12692" lon="-1.61334">
        <ele>61</ele>
        <time>2020-12-25T10:34:18.000Z</time>
      </trkpt>
      <trkpt lat="47.12698" lon="-1.61349">
        <ele>61</ele>
        <time>2020-12-25T10:34:20.000Z</time>
      </trkpt>
      <trkpt lat="47.12705" lon="-1.61364">
        <ele>61</ele>
        <time>2020-12-25T10:34:22.000Z</time>
      </trkpt>
      <trkpt lat="47.1271" lon="-1.61379">
        <ele>61</ele>
        <time>2020-12-25T10:34:24.000Z</time>
      </trkpt>
      <trkpt lat="47.12716" lon="-1.61394">
        <ele>61</ele>
        <time>2020-12-25T10:34:26.000Z</time>
      </trkpt>
      <trkpt lat="47.12724" lon="-1.61411">
        <ele>62</ele>
        <time>2020-12-25T10:34:28.000Z</time>
      </trkpt>
      <trkpt lat="47.12731" lon="-1.61427">
        <ele>62</ele>
        <time>2020-12-25T10:34:30.000Z</time>
      </trkpt>
      <trkpt lat="47.12738" lon="-1.61443">
        <ele>62</ele>
        <time>2020-12-25T10:34:32.000Z</time>
      </trkpt>
      <trkpt lat="47.12745" lon="-1.61459">
        <ele>62</ele>
        <time>2020-12-25T10:34:34.000Z</time>
      </trkpt>
      <trkpt lat="47.12752" lon="-1.61475">
        <ele>63</ele>
        <time>2020-12-25T10:34:36.000Z</time>
      </trkpt>
      <trkpt lat="47.12759" lon="-1.61491">
        <ele>62</ele>
        <time>2020-12-25T10:34:38.000Z</time>
      </trkpt>
      <trkpt lat="47.12766" lon="-1.61506">
        <ele>62</ele>
        <time>2020-12-25T10:34:40.000Z</time>
      </trkpt>
      <trkpt lat="47.12772" lon="-1.61522">
        <ele>61</ele>
        <time>2020-12-25T10:34:42.000Z</time>
      </trkpt>
      <trkpt lat="47.12778" lon="-1.61538">
        <ele>61</ele>
        <time>2020-12-25T10:34:44.000Z</time>
      </trkpt>
      <trkpt lat="47.12784" lon="-1.61554">
        <ele>61</ele>
        <time>2020-12-25T10:34:46.000Z</time>
      </trkpt>
      <trkpt lat="47.1279" lon="-1.6157">
        <ele>61</ele>
        <time>2020-12-25T10:34:48.000Z</time>
      </trkpt>
      <trkpt lat="47.12796" lon="-1.61585">
        <ele>60</ele>
        <time>2020-12-25T10:34:50.000Z</time>
      </trkpt>
      <trkpt lat="47.12801" lon="-1.616">
        <ele>59</ele>
        <time>2020-12-25T10:34:52.000Z</time>
      </trkpt>
      <trkpt lat="47.12807" lon="-1.61615">
        <ele>59</ele>
        <time>2020-12-25T10:34:54.000Z</time>
      </trkpt>
      <trkpt lat="47.12812" lon="-1.61629">
        <ele>58</ele>
        <time>2020-12-25T10:34:56.000Z</time>
      </trkpt>
      <trkpt lat="47.12817" lon="-1.61644">
        <ele>58</ele>
        <time>2020-12-25T10:34:59.000Z</time>
      </trkpt>
      <trkpt lat="47.12823" lon="-1.61657">
        <ele>57</ele>
        <time>2020-12-25T10:35:06.000Z</time>
      </trkpt>
      <trkpt lat="47.12827" lon="-1.61668">
        <ele>58</ele>
        <time>2020-12-25T10:35:08.000Z</time>
      </trkpt>
      <trkpt lat="47.12834" lon="-1.61683">
        <ele>58</ele>
        <time>2020-12-25T10:35:10.000Z</time>
      </trkpt>
      <trkpt lat="47.12842" lon="-1.61697">
        <ele>58</ele>
        <time>2020-12-25T10:35:12.000Z</time>
      </trkpt>
      <trkpt lat="47.1285" lon="-1.61712">
        <ele>58</ele>
        <time>2020-12-25T10:35:14.000Z</time>
      </trkpt>
      <trkpt lat="47.12858" lon="-1.61728">
        <ele>58</ele>
        <time>2020-12-25T10:35:16.000Z</time>
      </trkpt>
      <trkpt lat="47.12865" lon="-1.61743">
        <ele>58</ele>
        <time>2020-12-25T10:35:18.000Z</time>
      </trkpt>
      <trkpt lat="47.12872" lon="-1.61761">
        <ele>58</ele>
        <time>2020-12-25T10:35:20.000Z</time>
      </trkpt>
      <trkpt lat="47.12879" lon="-1.61778">
        <ele>57</ele>
        <time>2020-12-25T10:35:22.000Z</time>
      </trkpt>
      <trkpt lat="47.12886" lon="-1.61795">
        <ele>56</ele>
        <time>2020-12-25T10:35:24.000Z</time>
      </trkpt>
      <trkpt lat="47.12893" lon="-1.61814">
        <ele>56</ele>
        <time>2020-12-25T10:35:26.000Z</time>
      </trkpt>
      <trkpt lat="47.12899" lon="-1.61833">
        <ele>55</ele>
        <time>2020-12-25T10:35:28.000Z</time>
      </trkpt>
      <trkpt lat="47.12904" lon="-1.61851">
        <ele>55</ele>
        <time>2020-12-25T10:35:30.000Z</time>
      </trkpt>
      <trkpt lat="47.12909" lon="-1.61869">
        <ele>55</ele>
        <time>2020-12-25T10:35:32.000Z</time>
      </trkpt>
      <trkpt lat="47.12912" lon="-1.61886">
        <ele>55</ele>
        <time>2020-12-25T10:35:34.000Z</time>
      </trkpt>
      <trkpt lat="47.12915" lon="-1.61906">
        <ele>55</ele>
        <time>2020-12-25T10:35:36.000Z</time>
      </trkpt>
      <trkpt lat="47.12917" lon="-1.61925">
        <ele>54</ele>
        <time>2020-12-25T10:35:38.000Z</time>
      </trkpt>
      <trkpt lat="47.1292" lon="-1.61943">
        <ele>53</ele>
        <time>2020-12-25T10:35:40.000Z</time>
      </trkpt>
      <trkpt lat="47.12923" lon="-1.6196">
        <ele>53</ele>
        <time>2020-12-25T10:35:42.000Z</time>
      </trkpt>
      <trkpt lat="47.12928" lon="-1.61975">
        <ele>53</ele>
        <time>2020-12-25T10:35:44.000Z</time>
      </trkpt>
      <trkpt lat="47.12931" lon="-1.61991">
        <ele>53</ele>
        <time>2020-12-25T10:35:46.000Z</time>
      </trkpt>
      <trkpt lat="47.12935" lon="-1.62007">
        <ele>53</ele>
        <time>2020-12-25T10:35:48.000Z</time>
      </trkpt>
      <trkpt lat="47.12939" lon="-1.62023">
        <ele>54</ele>
        <time>2020-12-25T10:35:50.000Z</time>
      </trkpt>
      <trkpt lat="47.12945" lon="-1.62039">
        <ele>54</ele>
        <time>2020-12-25T10:35:52.000Z</time>
      </trkpt>
      <trkpt lat="47.1295" lon="-1.62054">
        <ele>54</ele>
        <time>2020-12-25T10:35:54.000Z</time>
      </trkpt>
      <trkpt lat="47.12956" lon="-1.62069">
        <ele>54</ele>
        <time>2020-12-25T10:35:56.000Z</time>
      </trkpt>
      <trkpt lat="47.12962" lon="-1.62082">
        <ele>54</ele>
        <time>2020-12-25T10:35:58.000Z</time>
      </trkpt>
      <trkpt lat="47.12969" lon="-1.62096">
        <ele>54</ele>
        <time>2020-12-25T10:36:00.000Z</time>
      </trkpt>
      <trkpt lat="47.12976" lon="-1.62109">
        <ele>54</ele>
        <time>2020-12-25T10:36:02.000Z</time>
      </trkpt>
      <trkpt lat="47.12983" lon="-1.62122">
        <ele>55</ele>
        <time>2020-12-25T10:36:04.000Z</time>
      </trkpt>
      <trkpt lat="47.12991" lon="-1.62134">
        <ele>55</ele>
        <time>2020-12-25T10:36:06.000Z</time>
      </trkpt>
      <trkpt lat="47.12999" lon="-1.62147">
        <ele>55</ele>
        <time>2020-12-25T10:36:08.000Z</time>
      </trkpt>
      <trkpt lat="47.13006" lon="-1.6216">
        <ele>55</ele>
        <time>2020-12-25T10:36:10.000Z</time>
      </trkpt>
      <trkpt lat="47.13013" lon="-1.62172">
        <ele>56</ele>
        <time>2020-12-25T10:36:12.000Z</time>
      </trkpt>
      <trkpt lat="47.13021" lon="-1.62184">
        <ele>56</ele>
        <time>2020-12-25T10:36:14.000Z</time>
      </trkpt>
      <trkpt lat="47.13029" lon="-1.62196">
        <ele>56</ele>
        <time>2020-12-25T10:36:16.000Z</time>
      </trkpt>
      <trkpt lat="47.13036" lon="-1.62209">
        <ele>56</ele>
        <time>2020-12-25T10:36:18.000Z</time>
      </trkpt>
      <trkpt lat="47.13044" lon="-1.62221">
        <ele>56</ele>
        <time>2020-12-25T10:36:20.000Z</time>
      </trkpt>
      <trkpt lat="47.13051" lon="-1.62232">
        <ele>56</ele>
        <time>2020-12-25T10:36:22.000Z</time>
      </trkpt>
      <trkpt lat="47.13058" lon="-1.62243">
        <ele>56</ele>
        <time>2020-12-25T10:36:24.000Z</time>
      </trkpt>
      <trkpt lat="47.13066" lon="-1.62254">
        <ele>56</ele>
        <time>2020-12-25T10:36:26.000Z</time>
      </trkpt>
      <trkpt lat="47.13073" lon="-1.62265">
        <ele>56</ele>
        <time>2020-12-25T10:36:28.000Z</time>
      </trkpt>
      <trkpt lat="47.13081" lon="-1.62276">
        <ele>56</ele>
        <time>2020-12-25T10:36:30.000Z</time>
      </trkpt>
      <trkpt lat="47.13088" lon="-1.62286">
        <ele>56</ele>
        <time>2020-12-25T10:36:32.000Z</time>
      </trkpt>
      <trkpt lat="47.13095" lon="-1.62294">
        <ele>56</ele>
        <time>2020-12-25T10:36:34.000Z</time>
      </trkpt>
      <trkpt lat="47.13104" lon="-1.62305">
        <ele>56</ele>
        <time>2020-12-25T10:36:37.000Z</time>
      </trkpt>
      <trkpt lat="47.13113" lon="-1.62292">
        <ele>55</ele>
        <time>2020-12-25T10:36:40.000Z</time>
      </trkpt>
      <trkpt lat="47.13118" lon="-1.62279">
        <ele>55</ele>
        <time>2020-12-25T10:36:42.000Z</time>
      </trkpt>
      <trkpt lat="47.13124" lon="-1.62265">
        <ele>56</ele>
        <time>2020-12-25T10:36:44.000Z</time>
      </trkpt>
      <trkpt lat="47.13131" lon="-1.62251">
        <ele>57</ele>
        <time>2020-12-25T10:36:46.000Z</time>
      </trkpt>
      <trkpt lat="47.13138" lon="-1.62237">
        <ele>58</ele>
        <time>2020-12-25T10:36:48.000Z</time>
      </trkpt>
      <trkpt lat="47.13144" lon="-1.62224">
        <ele>58</ele>
        <time>2020-12-25T10:36:50.000Z</time>
      </trkpt>
      <trkpt lat="47.13151" lon="-1.6221">
        <ele>58</ele>
        <time>2020-12-25T10:36:52.000Z</time>
      </trkpt>
      <trkpt lat="47.13157" lon="-1.62197">
        <ele>59</ele>
        <time>2020-12-25T10:36:54.000Z</time>
      </trkpt>
      <trkpt lat="47.13164" lon="-1.62183">
        <ele>59</ele>
        <time>2020-12-25T10:36:56.000Z</time>
      </trkpt>
      <trkpt lat="47.1317" lon="-1.6217">
        <ele>59</ele>
        <time>2020-12-25T10:36:58.000Z</time>
      </trkpt>
      <trkpt lat="47.13178" lon="-1.62156">
        <ele>59</ele>
        <time>2020-12-25T10:37:00.000Z</time>
      </trkpt>
      <trkpt lat="47.13184" lon="-1.62143">
        <ele>59</ele>
        <time>2020-12-25T10:37:02.000Z</time>
      </trkpt>
      <trkpt lat="47.13191" lon="-1.62131">
        <ele>59</ele>
        <time>2020-12-25T10:37:04.000Z</time>
      </trkpt>
      <trkpt lat="47.13198" lon="-1.62119">
        <ele>60</ele>
        <time>2020-12-25T10:37:06.000Z</time>
      </trkpt>
      <trkpt lat="47.13205" lon="-1.62107">
        <ele>60</ele>
        <time>2020-12-25T10:37:08.000Z</time>
      </trkpt>
      <trkpt lat="47.13212" lon="-1.62094">
        <ele>60</ele>
        <time>2020-12-25T10:37:10.000Z</time>
      </trkpt>
      <trkpt lat="47.1322" lon="-1.62081">
        <ele>60</ele>
        <time>2020-12-25T10:37:12.000Z</time>
      </trkpt>
      <trkpt lat="47.13227" lon="-1.62069">
        <ele>60</ele>
        <time>2020-12-25T10:37:14.000Z</time>
      </trkpt>
      <trkpt lat="47.13235" lon="-1.62058">
        <ele>60</ele>
        <time>2020-12-25T10:37:16.000Z</time>
      </trkpt>
      <trkpt lat="47.13243" lon="-1.62047">
        <ele>60</ele>
        <time>2020-12-25T10:37:18.000Z</time>
      </trkpt>
      <trkpt lat="47.1325" lon="-1.62036">
        <ele>60</ele>
        <time>2020-12-25T10:37:20.000Z</time>
      </trkpt>
      <trkpt lat="47.13259" lon="-1.62026">
        <ele>60</ele>
        <time>2020-12-25T10:37:22.000Z</time>
      </trkpt>
      <trkpt lat="47.13268" lon="-1.62016">
        <ele>60</ele>
        <time>2020-12-25T10:37:24.000Z</time>
      </trkpt>
      <trkpt lat="47.13278" lon="-1.62008">
        <ele>61</ele>
        <time>2020-12-25T10:37:26.000Z</time>
      </trkpt>
      <trkpt lat="47.13287" lon="-1.62001">
        <ele>61</ele>
        <time>2020-12-25T10:37:28.000Z</time>
      </trkpt>
      <trkpt lat="47.13297" lon="-1.61994">
        <ele>62</ele>
        <time>2020-12-25T10:37:30.000Z</time>
      </trkpt>
      <trkpt lat="47.13308" lon="-1.61987">
        <ele>62</ele>
        <time>2020-12-25T10:37:32.000Z</time>
      </trkpt>
      <trkpt lat="47.13317" lon="-1.6198">
        <ele>61</ele>
        <time>2020-12-25T10:37:34.000Z</time>
      </trkpt>
      <trkpt lat="47.13326" lon="-1.61972">
        <ele>61</ele>
        <time>2020-12-25T10:37:36.000Z</time>
      </trkpt>
      <trkpt lat="47.13336" lon="-1.61963">
        <ele>61</ele>
        <time>2020-12-25T10:37:38.000Z</time>
      </trkpt>
      <trkpt lat="47.13346" lon="-1.61955">
        <ele>62</ele>
        <time>2020-12-25T10:37:40.000Z</time>
      </trkpt>
      <trkpt lat="47.13356" lon="-1.61946">
        <ele>62</ele>
        <time>2020-12-25T10:37:42.000Z</time>
      </trkpt>
      <trkpt lat="47.13366" lon="-1.61937">
        <ele>62</ele>
        <time>2020-12-25T10:37:44.000Z</time>
      </trkpt>
      <trkpt lat="47.13377" lon="-1.61929">
        <ele>62</ele>
        <time>2020-12-25T10:37:46.000Z</time>
      </trkpt>
      <trkpt lat="47.13387" lon="-1.61922">
        <ele>62</ele>
        <time>2020-12-25T10:37:48.000Z</time>
      </trkpt>
      <trkpt lat="47.13398" lon="-1.61914">
        <ele>62</ele>
        <time>2020-12-25T10:37:50.000Z</time>
      </trkpt>
      <trkpt lat="47.13409" lon="-1.61906">
        <ele>62</ele>
        <time>2020-12-25T10:37:52.000Z</time>
      </trkpt>
      <trkpt lat="47.13419" lon="-1.61898">
        <ele>62</ele>
        <time>2020-12-25T10:37:54.000Z</time>
      </trkpt>
      <trkpt lat="47.13429" lon="-1.6189">
        <ele>62</ele>
        <time>2020-12-25T10:37:56.000Z</time>
      </trkpt>
      <trkpt lat="47.13439" lon="-1.61883">
        <ele>61</ele>
        <time>2020-12-25T10:37:58.000Z</time>
      </trkpt>
      <trkpt lat="47.13449" lon="-1.61875">
        <ele>61</ele>
        <time>2020-12-25T10:38:00.000Z</time>
      </trkpt>
      <trkpt lat="47.13459" lon="-1.61867">
        <ele>61</ele>
        <time>2020-12-25T10:38:02.000Z</time>
      </trkpt>
      <trkpt lat="47.13469" lon="-1.61858">
        <ele>62</ele>
        <time>2020-12-25T10:38:04.000Z</time>
      </trkpt>
      <trkpt lat="47.13481" lon="-1.61852">
        <ele>62</ele>
        <time>2020-12-25T10:38:06.000Z</time>
      </trkpt>
      <trkpt lat="47.13492" lon="-1.61846">
        <ele>62</ele>
        <time>2020-12-25T10:38:08.000Z</time>
      </trkpt>
      <trkpt lat="47.13504" lon="-1.61842">
        <ele>62</ele>
        <time>2020-12-25T10:38:10.000Z</time>
      </trkpt>
      <trkpt lat="47.13515" lon="-1.61836">
        <ele>62</ele>
        <time>2020-12-25T10:38:12.000Z</time>
      </trkpt>
      <trkpt lat="47.13527" lon="-1.61831">
        <ele>62</ele>
        <time>2020-12-25T10:38:14.000Z</time>
      </trkpt>
      <trkpt lat="47.13538" lon="-1.61826">
        <ele>63</ele>
        <time>2020-12-25T10:38:16.000Z</time>
      </trkpt>
      <trkpt lat="47.13548" lon="-1.61821">
        <ele>63</ele>
        <time>2020-12-25T10:38:18.000Z</time>
      </trkpt>
      <trkpt lat="47.13559" lon="-1.61815">
        <ele>63</ele>
        <time>2020-12-25T10:38:20.000Z</time>
      </trkpt>
      <trkpt lat="47.13568" lon="-1.61809">
        <ele>62</ele>
        <time>2020-12-25T10:38:22.000Z</time>
      </trkpt>
      <trkpt lat="47.13578" lon="-1.61804">
        <ele>62</ele>
        <time>2020-12-25T10:38:24.000Z</time>
      </trkpt>
      <trkpt lat="47.1359" lon="-1.61802">
        <ele>62</ele>
        <time>2020-12-25T10:38:26.000Z</time>
      </trkpt>
      <trkpt lat="47.13601" lon="-1.61798">
        <ele>63</ele>
        <time>2020-12-25T10:38:28.000Z</time>
      </trkpt>
      <trkpt lat="47.13611" lon="-1.61793">
        <ele>62</ele>
        <time>2020-12-25T10:38:30.000Z</time>
      </trkpt>
      <trkpt lat="47.13622" lon="-1.61789">
        <ele>62</ele>
        <time>2020-12-25T10:38:32.000Z</time>
      </trkpt>
      <trkpt lat="47.13632" lon="-1.61784">
        <ele>62</ele>
        <time>2020-12-25T10:38:34.000Z</time>
      </trkpt>
      <trkpt lat="47.13643" lon="-1.61779">
        <ele>62</ele>
        <time>2020-12-25T10:38:36.000Z</time>
      </trkpt>
      <trkpt lat="47.13654" lon="-1.61774">
        <ele>62</ele>
        <time>2020-12-25T10:38:38.000Z</time>
      </trkpt>
      <trkpt lat="47.13665" lon="-1.61768">
        <ele>63</ele>
        <time>2020-12-25T10:38:40.000Z</time>
      </trkpt>
      <trkpt lat="47.13676" lon="-1.61762">
        <ele>63</ele>
        <time>2020-12-25T10:38:42.000Z</time>
      </trkpt>
      <trkpt lat="47.13686" lon="-1.61755">
        <ele>63</ele>
        <time>2020-12-25T10:38:44.000Z</time>
      </trkpt>
      <trkpt lat="47.13696" lon="-1.61748">
        <ele>63</ele>
        <time>2020-12-25T10:38:46.000Z</time>
      </trkpt>
      <trkpt lat="47.13706" lon="-1.61741">
        <ele>63</ele>
        <time>2020-12-25T10:38:48.000Z</time>
      </trkpt>
      <trkpt lat="47.13715" lon="-1.61734">
        <ele>64</ele>
        <time>2020-12-25T10:38:50.000Z</time>
      </trkpt>
      <trkpt lat="47.13723" lon="-1.61727">
        <ele>64</ele>
        <time>2020-12-25T10:38:52.000Z</time>
      </trkpt>
      <trkpt lat="47.13731" lon="-1.61721">
        <ele>64</ele>
        <time>2020-12-25T10:38:54.000Z</time>
      </trkpt>
      <trkpt lat="47.13741" lon="-1.61721">
        <ele>65</ele>
        <time>2020-12-25T10:38:57.000Z</time>
      </trkpt>
      <trkpt lat="47.13744" lon="-1.61739">
        <ele>65</ele>
        <time>2020-12-25T10:38:59.000Z</time>
      </trkpt>
      <trkpt lat="47.13742" lon="-1.61755">
        <ele>65</ele>
        <time>2020-12-25T10:39:01.000Z</time>
      </trkpt>
      <trkpt lat="47.13738" lon="-1.61771">
        <ele>64</ele>
        <time>2020-12-25T10:39:03.000Z</time>
      </trkpt>
      <trkpt lat="47.13734" lon="-1.61787">
        <ele>64</ele>
        <time>2020-12-25T10:39:05.000Z</time>
      </trkpt>
      <trkpt lat="47.13731" lon="-1.61805">
        <ele>64</ele>
        <time>2020-12-25T10:39:07.000Z</time>
      </trkpt>
      <trkpt lat="47.13728" lon="-1.61822">
        <ele>64</ele>
        <time>2020-12-25T10:39:09.000Z</time>
      </trkpt>
      <trkpt lat="47.13726" lon="-1.61839">
        <ele>64</ele>
        <time>2020-12-25T10:39:11.000Z</time>
      </trkpt>
      <trkpt lat="47.13724" lon="-1.61857">
        <ele>64</ele>
        <time>2020-12-25T10:39:13.000Z</time>
      </trkpt>
      <trkpt lat="47.13723" lon="-1.61874">
        <ele>64</ele>
        <time>2020-12-25T10:39:15.000Z</time>
      </trkpt>
      <trkpt lat="47.13723" lon="-1.61891">
        <ele>64</ele>
        <time>2020-12-25T10:39:17.000Z</time>
      </trkpt>
      <trkpt lat="47.13722" lon="-1.61908">
        <ele>65</ele>
        <time>2020-12-25T10:39:19.000Z</time>
      </trkpt>
      <trkpt lat="47.13722" lon="-1.61925">
        <ele>65</ele>
        <time>2020-12-25T10:39:21.000Z</time>
      </trkpt>
      <trkpt lat="47.13723" lon="-1.61943">
        <ele>65</ele>
        <time>2020-12-25T10:39:23.000Z</time>
      </trkpt>
      <trkpt lat="47.13725" lon="-1.61961">
        <ele>65</ele>
        <time>2020-12-25T10:39:25.000Z</time>
      </trkpt>
      <trkpt lat="47.13727" lon="-1.61979">
        <ele>65</ele>
        <time>2020-12-25T10:39:27.000Z</time>
      </trkpt>
      <trkpt lat="47.13729" lon="-1.61995">
        <ele>65</ele>
        <time>2020-12-25T10:39:29.000Z</time>
      </trkpt>
      <trkpt lat="47.13732" lon="-1.62012">
        <ele>66</ele>
        <time>2020-12-25T10:39:31.000Z</time>
      </trkpt>
      <trkpt lat="47.13734" lon="-1.62029">
        <ele>66</ele>
        <time>2020-12-25T10:39:33.000Z</time>
      </trkpt>
      <trkpt lat="47.13737" lon="-1.62046">
        <ele>65</ele>
        <time>2020-12-25T10:39:35.000Z</time>
      </trkpt>
      <trkpt lat="47.1374" lon="-1.62064">
        <ele>66</ele>
        <time>2020-12-25T10:39:37.000Z</time>
      </trkpt>
      <trkpt lat="47.13742" lon="-1.62082">
        <ele>66</ele>
        <time>2020-12-25T10:39:39.000Z</time>
      </trkpt>
      <trkpt lat="47.13744" lon="-1.62097">
        <ele>66</ele>
        <time>2020-12-25T10:39:41.000Z</time>
      </trkpt>
      <trkpt lat="47.13746" lon="-1.62113">
        <ele>65</ele>
        <time>2020-12-25T10:39:43.000Z</time>
      </trkpt>
      <trkpt lat="47.13748" lon="-1.62131">
        <ele>65</ele>
        <time>2020-12-25T10:39:45.000Z</time>
      </trkpt>
      <trkpt lat="47.1375" lon="-1.62149">
        <ele>65</ele>
        <time>2020-12-25T10:39:47.000Z</time>
      </trkpt>
      <trkpt lat="47.13752" lon="-1.62167">
        <ele>65</ele>
        <time>2020-12-25T10:39:49.000Z</time>
      </trkpt>
      <trkpt lat="47.13754" lon="-1.62185">
        <ele>64</ele>
        <time>2020-12-25T10:39:51.000Z</time>
      </trkpt>
      <trkpt lat="47.13756" lon="-1.62203">
        <ele>64</ele>
        <time>2020-12-25T10:39:53.000Z</time>
      </trkpt>
      <trkpt lat="47.13758" lon="-1.62221">
        <ele>64</ele>
        <time>2020-12-25T10:39:55.000Z</time>
      </trkpt>
      <trkpt lat="47.1376" lon="-1.62239">
        <ele>64</ele>
        <time>2020-12-25T10:39:57.000Z</time>
      </trkpt>
      <trkpt lat="47.13762" lon="-1.62257">
        <ele>64</ele>
        <time>2020-12-25T10:39:59.000Z</time>
      </trkpt>
      <trkpt lat="47.13764" lon="-1.62275">
        <ele>64</ele>
        <time>2020-12-25T10:40:01.000Z</time>
      </trkpt>
      <trkpt lat="47.13765" lon="-1.62292">
        <ele>64</ele>
        <time>2020-12-25T10:40:03.000Z</time>
      </trkpt>
      <trkpt lat="47.13766" lon="-1.6231">
        <ele>63</ele>
        <time>2020-12-25T10:40:05.000Z</time>
      </trkpt>
      <trkpt lat="47.13765" lon="-1.62328">
        <ele>63</ele>
        <time>2020-12-25T10:40:07.000Z</time>
      </trkpt>
      <trkpt lat="47.13763" lon="-1.62346">
        <ele>63</ele>
        <time>2020-12-25T10:40:09.000Z</time>
      </trkpt>
      <trkpt lat="47.13762" lon="-1.62365">
        <ele>63</ele>
        <time>2020-12-25T10:40:11.000Z</time>
      </trkpt>
      <trkpt lat="47.13761" lon="-1.62384">
        <ele>63</ele>
        <time>2020-12-25T10:40:13.000Z</time>
      </trkpt>
      <trkpt lat="47.13762" lon="-1.62403">
        <ele>62</ele>
        <time>2020-12-25T10:40:15.000Z</time>
      </trkpt>
      <trkpt lat="47.13762" lon="-1.62423">
        <ele>62</ele>
        <time>2020-12-25T10:40:17.000Z</time>
      </trkpt>
      <trkpt lat="47.13765" lon="-1.62443">
        <ele>62</ele>
        <time>2020-12-25T10:40:19.000Z</time>
      </trkpt>
      <trkpt lat="47.13766" lon="-1.62462">
        <ele>62</ele>
        <time>2020-12-25T10:40:21.000Z</time>
      </trkpt>
      <trkpt lat="47.13769" lon="-1.6248">
        <ele>61</ele>
        <time>2020-12-25T10:40:23.000Z</time>
      </trkpt>
      <trkpt lat="47.13772" lon="-1.62499">
        <ele>61</ele>
        <time>2020-12-25T10:40:25.000Z</time>
      </trkpt>
      <trkpt lat="47.13773" lon="-1.62519">
        <ele>62</ele>
        <time>2020-12-25T10:40:27.000Z</time>
      </trkpt>
      <trkpt lat="47.13775" lon="-1.62538">
        <ele>61</ele>
        <time>2020-12-25T10:40:29.000Z</time>
      </trkpt>
      <trkpt lat="47.13776" lon="-1.62557">
        <ele>60</ele>
        <time>2020-12-25T10:40:31.000Z</time>
      </trkpt>
      <trkpt lat="47.13778" lon="-1.62577">
        <ele>60</ele>
        <time>2020-12-25T10:40:33.000Z</time>
      </trkpt>
      <trkpt lat="47.1378" lon="-1.62595">
        <ele>61</ele>
        <time>2020-12-25T10:40:35.000Z</time>
      </trkpt>
      <trkpt lat="47.13782" lon="-1.62613">
        <ele>62</ele>
        <time>2020-12-25T10:40:37.000Z</time>
      </trkpt>
      <trkpt lat="47.13784" lon="-1.6263">
        <ele>62</ele>
        <time>2020-12-25T10:40:39.000Z</time>
      </trkpt>
      <trkpt lat="47.13785" lon="-1.62648">
        <ele>62</ele>
        <time>2020-12-25T10:40:41.000Z</time>
      </trkpt>
      <trkpt lat="47.13786" lon="-1.62666">
        <ele>63</ele>
        <time>2020-12-25T10:40:43.000Z</time>
      </trkpt>
      <trkpt lat="47.13786" lon="-1.62684">
        <ele>62</ele>
        <time>2020-12-25T10:40:45.000Z</time>
      </trkpt>
      <trkpt lat="47.13785" lon="-1.62702">
        <ele>62</ele>
        <time>2020-12-25T10:40:47.000Z</time>
      </trkpt>
      <trkpt lat="47.13784" lon="-1.6272">
        <ele>63</ele>
        <time>2020-12-25T10:40:49.000Z</time>
      </trkpt>
      <trkpt lat="47.13784" lon="-1.62738">
        <ele>63</ele>
        <time>2020-12-25T10:40:51.000Z</time>
      </trkpt>
      <trkpt lat="47.13785" lon="-1.62755">
        <ele>63</ele>
        <time>2020-12-25T10:40:53.000Z</time>
      </trkpt>
      <trkpt lat="47.13786" lon="-1.6277">
        <ele>63</ele>
        <time>2020-12-25T10:40:55.000Z</time>
      </trkpt>
      <trkpt lat="47.13789" lon="-1.62783">
        <ele>63</ele>
        <time>2020-12-25T10:40:57.000Z</time>
      </trkpt>
      <trkpt lat="47.13793" lon="-1.62797">
        <ele>63</ele>
        <time>2020-12-25T10:40:59.000Z</time>
      </trkpt>
      <trkpt lat="47.13798" lon="-1.62811">
        <ele>63</ele>
        <time>2020-12-25T10:41:01.000Z</time>
      </trkpt>
      <trkpt lat="47.13803" lon="-1.62824">
        <ele>63</ele>
        <time>2020-12-25T10:41:03.000Z</time>
      </trkpt>
      <trkpt lat="47.13808" lon="-1.62838">
        <ele>63</ele>
        <time>2020-12-25T10:41:05.000Z</time>
      </trkpt>
      <trkpt lat="47.13812" lon="-1.62851">
        <ele>63</ele>
        <time>2020-12-25T10:41:07.000Z</time>
      </trkpt>
      <trkpt lat="47.13817" lon="-1.62864">
        <ele>63</ele>
        <time>2020-12-25T10:41:09.000Z</time>
      </trkpt>
      <trkpt lat="47.13821" lon="-1.62878">
        <ele>63</ele>
        <time>2020-12-25T10:41:11.000Z</time>
      </trkpt>
      <trkpt lat="47.13824" lon="-1.62892">
        <ele>63</ele>
        <time>2020-12-25T10:41:13.000Z</time>
      </trkpt>
      <trkpt lat="47.13825" lon="-1.62907">
        <ele>63</ele>
        <time>2020-12-25T10:41:15.000Z</time>
      </trkpt>
      <trkpt lat="47.13824" lon="-1.62922">
        <ele>63</ele>
        <time>2020-12-25T10:41:17.000Z</time>
      </trkpt>
      <trkpt lat="47.13822" lon="-1.62937">
        <ele>63</ele>
        <time>2020-12-25T10:41:19.000Z</time>
      </trkpt>
      <trkpt lat="47.13821" lon="-1.62952">
        <ele>63</ele>
        <time>2020-12-25T10:41:21.000Z</time>
      </trkpt>
      <trkpt lat="47.13819" lon="-1.62968">
        <ele>62</ele>
        <time>2020-12-25T10:41:23.000Z</time>
      </trkpt>
      <trkpt lat="47.13817" lon="-1.62984">
        <ele>62</ele>
        <time>2020-12-25T10:41:25.000Z</time>
      </trkpt>
      <trkpt lat="47.13815" lon="-1.63001">
        <ele>61</ele>
        <time>2020-12-25T10:41:27.000Z</time>
      </trkpt>
      <trkpt lat="47.13815" lon="-1.63018">
        <ele>61</ele>
        <time>2020-12-25T10:41:29.000Z</time>
      </trkpt>
      <trkpt lat="47.13815" lon="-1.63035">
        <ele>60</ele>
        <time>2020-12-25T10:41:31.000Z</time>
      </trkpt>
      <trkpt lat="47.13818" lon="-1.63051">
        <ele>59</ele>
        <time>2020-12-25T10:41:33.000Z</time>
      </trkpt>
      <trkpt lat="47.13826" lon="-1.63059">
        <ele>59</ele>
        <time>2020-12-25T10:41:35.000Z</time>
      </trkpt>
      <trkpt lat="47.13839" lon="-1.63057">
        <ele>58</ele>
        <time>2020-12-25T10:41:37.000Z</time>
      </trkpt>
      <trkpt lat="47.13852" lon="-1.63055">
        <ele>58</ele>
        <time>2020-12-25T10:41:39.000Z</time>
      </trkpt>
      <trkpt lat="47.13865" lon="-1.63053">
        <ele>58</ele>
        <time>2020-12-25T10:41:41.000Z</time>
      </trkpt>
      <trkpt lat="47.13877" lon="-1.6305">
        <ele>58</ele>
        <time>2020-12-25T10:41:43.000Z</time>
      </trkpt>
      <trkpt lat="47.1389" lon="-1.63047">
        <ele>58</ele>
        <time>2020-12-25T10:41:45.000Z</time>
      </trkpt>
      <trkpt lat="47.13903" lon="-1.63045">
        <ele>58</ele>
        <time>2020-12-25T10:41:47.000Z</time>
      </trkpt>
      <trkpt lat="47.13915" lon="-1.6304">
        <ele>58</ele>
        <time>2020-12-25T10:41:49.000Z</time>
      </trkpt>
      <trkpt lat="47.13928" lon="-1.63035">
        <ele>59</ele>
        <time>2020-12-25T10:41:51.000Z</time>
      </trkpt>
      <trkpt lat="47.13941" lon="-1.63029">
        <ele>60</ele>
        <time>2020-12-25T10:41:53.000Z</time>
      </trkpt>
      <trkpt lat="47.13954" lon="-1.63023">
        <ele>60</ele>
        <time>2020-12-25T10:41:55.000Z</time>
      </trkpt>
      <trkpt lat="47.13965" lon="-1.63016">
        <ele>60</ele>
        <time>2020-12-25T10:41:57.000Z</time>
      </trkpt>
      <trkpt lat="47.13977" lon="-1.6301">
        <ele>61</ele>
        <time>2020-12-25T10:41:59.000Z</time>
      </trkpt>
      <trkpt lat="47.13989" lon="-1.63004">
        <ele>61</ele>
        <time>2020-12-25T10:42:01.000Z</time>
      </trkpt>
      <trkpt lat="47.14" lon="-1.62997">
        <ele>62</ele>
        <time>2020-12-25T10:42:03.000Z</time>
      </trkpt>
      <trkpt lat="47.14011" lon="-1.62991">
        <ele>62</ele>
        <time>2020-12-25T10:42:05.000Z</time>
      </trkpt>
      <trkpt lat="47.14021" lon="-1.62986">
        <ele>62</ele>
        <time>2020-12-25T10:42:07.000Z</time>
      </trkpt>
      <trkpt lat="47.1403" lon="-1.6298">
        <ele>63</ele>
        <time>2020-12-25T10:42:09.000Z</time>
      </trkpt>
      <trkpt lat="47.14039" lon="-1.62976">
        <ele>63</ele>
        <time>2020-12-25T10:42:11.000Z</time>
      </trkpt>
      <trkpt lat="47.1405" lon="-1.62974">
        <ele>64</ele>
        <time>2020-12-25T10:42:13.000Z</time>
      </trkpt>
      <trkpt lat="47.1406" lon="-1.62973">
        <ele>64</ele>
        <time>2020-12-25T10:42:15.000Z</time>
      </trkpt>
      <trkpt lat="47.14071" lon="-1.62972">
        <ele>64</ele>
        <time>2020-12-25T10:42:17.000Z</time>
      </trkpt>
      <trkpt lat="47.14081" lon="-1.62972">
        <ele>64</ele>
        <time>2020-12-25T10:42:19.000Z</time>
      </trkpt>
      <trkpt lat="47.14092" lon="-1.62973">
        <ele>65</ele>
        <time>2020-12-25T10:42:21.000Z</time>
      </trkpt>
      <trkpt lat="47.14102" lon="-1.62975">
        <ele>65</ele>
        <time>2020-12-25T10:42:23.000Z</time>
      </trkpt>
      <trkpt lat="47.14113" lon="-1.62978">
        <ele>65</ele>
        <time>2020-12-25T10:42:25.000Z</time>
      </trkpt>
      <trkpt lat="47.14124" lon="-1.62982">
        <ele>65</ele>
        <time>2020-12-25T10:42:27.000Z</time>
      </trkpt>
      <trkpt lat="47.14135" lon="-1.62986">
        <ele>65</ele>
        <time>2020-12-25T10:42:29.000Z</time>
      </trkpt>
      <trkpt lat="47.14146" lon="-1.62991">
        <ele>65</ele>
        <time>2020-12-25T10:42:31.000Z</time>
      </trkpt>
      <trkpt lat="47.14156" lon="-1.62996">
        <ele>65</ele>
        <time>2020-12-25T10:42:33.000Z</time>
      </trkpt>
      <trkpt lat="47.14166" lon="-1.63001">
        <ele>65</ele>
        <time>2020-12-25T10:42:35.000Z</time>
      </trkpt>
      <trkpt lat="47.14175" lon="-1.63006">
        <ele>66</ele>
        <time>2020-12-25T10:42:37.000Z</time>
      </trkpt>
      <trkpt lat="47.14185" lon="-1.6301">
        <ele>66</ele>
        <time>2020-12-25T10:42:39.000Z</time>
      </trkpt>
      <trkpt lat="47.14195" lon="-1.63015">
        <ele>66</ele>
        <time>2020-12-25T10:42:41.000Z</time>
      </trkpt>
      <trkpt lat="47.14205" lon="-1.6302">
        <ele>66</ele>
        <time>2020-12-25T10:42:43.000Z</time>
      </trkpt>
      <trkpt lat="47.14216" lon="-1.63025">
        <ele>66</ele>
        <time>2020-12-25T10:42:45.000Z</time>
      </trkpt>
      <trkpt lat="47.14227" lon="-1.63031">
        <ele>66</ele>
        <time>2020-12-25T10:42:47.000Z</time>
      </trkpt>
      <trkpt lat="47.14237" lon="-1.63036">
        <ele>65</ele>
        <time>2020-12-25T10:42:49.000Z</time>
      </trkpt>
      <trkpt lat="47.14248" lon="-1.63041">
        <ele>65</ele>
        <time>2020-12-25T10:42:51.000Z</time>
      </trkpt>
      <trkpt lat="47.14259" lon="-1.63046">
        <ele>65</ele>
        <time>2020-12-25T10:42:53.000Z</time>
      </trkpt>
      <trkpt lat="47.1427" lon="-1.63051">
        <ele>66</ele>
        <time>2020-12-25T10:42:55.000Z</time>
      </trkpt>
      <trkpt lat="47.1428" lon="-1.63057">
        <ele>67</ele>
        <time>2020-12-25T10:42:57.000Z</time>
      </trkpt>
      <trkpt lat="47.14291" lon="-1.63061">
        <ele>67</ele>
        <time>2020-12-25T10:42:59.000Z</time>
      </trkpt>
      <trkpt lat="47.14301" lon="-1.63066">
        <ele>67</ele>
        <time>2020-12-25T10:43:01.000Z</time>
      </trkpt>
      <trkpt lat="47.14312" lon="-1.6307">
        <ele>66</ele>
        <time>2020-12-25T10:43:03.000Z</time>
      </trkpt>
      <trkpt lat="47.14323" lon="-1.63075">
        <ele>66</ele>
        <time>2020-12-25T10:43:05.000Z</time>
      </trkpt>
      <trkpt lat="47.14333" lon="-1.63081">
        <ele>65</ele>
        <time>2020-12-25T10:43:07.000Z</time>
      </trkpt>
      <trkpt lat="47.14344" lon="-1.63086">
        <ele>64</ele>
        <time>2020-12-25T10:43:09.000Z</time>
      </trkpt>
      <trkpt lat="47.14354" lon="-1.63092">
        <ele>64</ele>
        <time>2020-12-25T10:43:11.000Z</time>
      </trkpt>
      <trkpt lat="47.14366" lon="-1.63097">
        <ele>64</ele>
        <time>2020-12-25T10:43:13.000Z</time>
      </trkpt>
      <trkpt lat="47.14377" lon="-1.63102">
        <ele>64</ele>
        <time>2020-12-25T10:43:15.000Z</time>
      </trkpt>
      <trkpt lat="47.14387" lon="-1.63108">
        <ele>63</ele>
        <time>2020-12-25T10:43:17.000Z</time>
      </trkpt>
      <trkpt lat="47.14398" lon="-1.63115">
        <ele>63</ele>
        <time>2020-12-25T10:43:19.000Z</time>
      </trkpt>
      <trkpt lat="47.14408" lon="-1.63122">
        <ele>64</ele>
        <time>2020-12-25T10:43:21.000Z</time>
      </trkpt>
      <trkpt lat="47.14419" lon="-1.63127">
        <ele>63</ele>
        <time>2020-12-25T10:43:23.000Z</time>
      </trkpt>
      <trkpt lat="47.14429" lon="-1.63133">
        <ele>64</ele>
        <time>2020-12-25T10:43:25.000Z</time>
      </trkpt>
      <trkpt lat="47.14439" lon="-1.63137">
        <ele>63</ele>
        <time>2020-12-25T10:43:27.000Z</time>
      </trkpt>
      <trkpt lat="47.14449" lon="-1.63142">
        <ele>63</ele>
        <time>2020-12-25T10:43:29.000Z</time>
      </trkpt>
      <trkpt lat="47.1446" lon="-1.63142">
        <ele>64</ele>
        <time>2020-12-25T10:43:31.000Z</time>
      </trkpt>
      <trkpt lat="47.1447" lon="-1.63142">
        <ele>64</ele>
        <time>2020-12-25T10:43:33.000Z</time>
      </trkpt>
      <trkpt lat="47.14481" lon="-1.63142">
        <ele>65</ele>
        <time>2020-12-25T10:43:35.000Z</time>
      </trkpt>
      <trkpt lat="47.14492" lon="-1.63143">
        <ele>66</ele>
        <time>2020-12-25T10:43:37.000Z</time>
      </trkpt>
      <trkpt lat="47.14502" lon="-1.63143">
        <ele>66</ele>
        <time>2020-12-25T10:43:39.000Z</time>
      </trkpt>
      <trkpt lat="47.14513" lon="-1.63143">
        <ele>66</ele>
        <time>2020-12-25T10:43:41.000Z</time>
      </trkpt>
      <trkpt lat="47.14524" lon="-1.63145">
        <ele>66</ele>
        <time>2020-12-25T10:43:43.000Z</time>
      </trkpt>
      <trkpt lat="47.14534" lon="-1.63145">
        <ele>66</ele>
        <time>2020-12-25T10:43:45.000Z</time>
      </trkpt>
      <trkpt lat="47.14544" lon="-1.63144">
        <ele>67</ele>
        <time>2020-12-25T10:43:47.000Z</time>
      </trkpt>
      <trkpt lat="47.14554" lon="-1.63141">
        <ele>67</ele>
        <time>2020-12-25T10:43:49.000Z</time>
      </trkpt>
      <trkpt lat="47.14564" lon="-1.63138">
        <ele>68</ele>
        <time>2020-12-25T10:43:51.000Z</time>
      </trkpt>
      <trkpt lat="47.14575" lon="-1.63133">
        <ele>67</ele>
        <time>2020-12-25T10:43:53.000Z</time>
      </trkpt>
      <trkpt lat="47.14585" lon="-1.63128">
        <ele>67</ele>
        <time>2020-12-25T10:43:55.000Z</time>
      </trkpt>
      <trkpt lat="47.14594" lon="-1.63122">
        <ele>68</ele>
        <time>2020-12-25T10:43:57.000Z</time>
      </trkpt>
      <trkpt lat="47.14603" lon="-1.63116">
        <ele>68</ele>
        <time>2020-12-25T10:43:59.000Z</time>
      </trkpt>
      <trkpt lat="47.14613" lon="-1.6311">
        <ele>68</ele>
        <time>2020-12-25T10:44:01.000Z</time>
      </trkpt>
      <trkpt lat="47.14622" lon="-1.63104">
        <ele>68</ele>
        <time>2020-12-25T10:44:03.000Z</time>
      </trkpt>
      <trkpt lat="47.14632" lon="-1.63099">
        <ele>68</ele>
        <time>2020-12-25T10:44:05.000Z</time>
      </trkpt>
      <trkpt lat="47.14641" lon="-1.63092">
        <ele>68</ele>
        <time>2020-12-25T10:44:07.000Z</time>
      </trkpt>
      <trkpt lat="47.14651" lon="-1.63086">
        <ele>68</ele>
        <time>2020-12-25T10:44:09.000Z</time>
      </trkpt>
      <trkpt lat="47.1466" lon="-1.6308">
        <ele>68</ele>
        <time>2020-12-25T10:44:11.000Z</time>
      </trkpt>
      <trkpt lat="47.1467" lon="-1.63076">
        <ele>67</ele>
        <time>2020-12-25T10:44:13.000Z</time>
      </trkpt>
      <trkpt lat="47.14679" lon="-1.63073">
        <ele>68</ele>
        <time>2020-12-25T10:44:15.000Z</time>
      </trkpt>
      <trkpt lat="47.1469" lon="-1.63071">
        <ele>68</ele>
        <time>2020-12-25T10:44:17.000Z</time>
      </trkpt>
      <trkpt lat="47.147" lon="-1.63069">
        <ele>68</ele>
        <time>2020-12-25T10:44:19.000Z</time>
      </trkpt>
      <trkpt lat="47.14711" lon="-1.63069">
        <ele>68</ele>
        <time>2020-12-25T10:44:21.000Z</time>
      </trkpt>
      <trkpt lat="47.14722" lon="-1.63068">
        <ele>69</ele>
        <time>2020-12-25T10:44:23.000Z</time>
      </trkpt>
      <trkpt lat="47.14731" lon="-1.63068">
        <ele>70</ele>
        <time>2020-12-25T10:44:25.000Z</time>
      </trkpt>
      <trkpt lat="47.14741" lon="-1.63068">
        <ele>69</ele>
        <time>2020-12-25T10:44:27.000Z</time>
      </trkpt>
      <trkpt lat="47.14752" lon="-1.63067">
        <ele>70</ele>
        <time>2020-12-25T10:44:29.000Z</time>
      </trkpt>
      <trkpt lat="47.14762" lon="-1.63066">
        <ele>70</ele>
        <time>2020-12-25T10:44:31.000Z</time>
      </trkpt>
      <trkpt lat="47.14772" lon="-1.63065">
        <ele>70</ele>
        <time>2020-12-25T10:44:33.000Z</time>
      </trkpt>
      <trkpt lat="47.14782" lon="-1.63063">
        <ele>70</ele>
        <time>2020-12-25T10:44:35.000Z</time>
      </trkpt>
      <trkpt lat="47.14793" lon="-1.63062">
        <ele>71</ele>
        <time>2020-12-25T10:44:37.000Z</time>
      </trkpt>
      <trkpt lat="47.14803" lon="-1.63062">
        <ele>71</ele>
        <time>2020-12-25T10:44:39.000Z</time>
      </trkpt>
      <trkpt lat="47.14814" lon="-1.63062">
        <ele>70</ele>
        <time>2020-12-25T10:44:41.000Z</time>
      </trkpt>
      <trkpt lat="47.14825" lon="-1.63062">
        <ele>71</ele>
        <time>2020-12-25T10:44:43.000Z</time>
      </trkpt>
      <trkpt lat="47.14836" lon="-1.63062">
        <ele>72</ele>
        <time>2020-12-25T10:44:45.000Z</time>
      </trkpt>
      <trkpt lat="47.14848" lon="-1.6306">
        <ele>72</ele>
        <time>2020-12-25T10:44:47.000Z</time>
      </trkpt>
      <trkpt lat="47.14859" lon="-1.63059">
        <ele>72</ele>
        <time>2020-12-25T10:44:49.000Z</time>
      </trkpt>
      <trkpt lat="47.14869" lon="-1.63059">
        <ele>72</ele>
        <time>2020-12-25T10:44:51.000Z</time>
      </trkpt>
      <trkpt lat="47.14881" lon="-1.6306">
        <ele>72</ele>
        <time>2020-12-25T10:44:54.000Z</time>
      </trkpt>
      <trkpt lat="47.14887" lon="-1.63076">
        <ele>72</ele>
        <time>2020-12-25T10:44:57.000Z</time>
      </trkpt>
      <trkpt lat="47.14887" lon="-1.63091">
        <ele>72</ele>
        <time>2020-12-25T10:44:59.000Z</time>
      </trkpt>
      <trkpt lat="47.14885" lon="-1.63108">
        <ele>72</ele>
        <time>2020-12-25T10:45:01.000Z</time>
      </trkpt>
      <trkpt lat="47.14884" lon="-1.63125">
        <ele>72</ele>
        <time>2020-12-25T10:45:03.000Z</time>
      </trkpt>
      <trkpt lat="47.14881" lon="-1.63143">
        <ele>71</ele>
        <time>2020-12-25T10:45:05.000Z</time>
      </trkpt>
      <trkpt lat="47.14879" lon="-1.63161">
        <ele>71</ele>
        <time>2020-12-25T10:45:07.000Z</time>
      </trkpt>
      <trkpt lat="47.14877" lon="-1.63178">
        <ele>71</ele>
        <time>2020-12-25T10:45:09.000Z</time>
      </trkpt>
      <trkpt lat="47.14876" lon="-1.63196">
        <ele>71</ele>
        <time>2020-12-25T10:45:11.000Z</time>
      </trkpt>
      <trkpt lat="47.14875" lon="-1.63213">
        <ele>71</ele>
        <time>2020-12-25T10:45:13.000Z</time>
      </trkpt>
      <trkpt lat="47.14874" lon="-1.63231">
        <ele>71</ele>
        <time>2020-12-25T10:45:15.000Z</time>
      </trkpt>
      <trkpt lat="47.14874" lon="-1.63248">
        <ele>71</ele>
        <time>2020-12-25T10:45:17.000Z</time>
      </trkpt>
      <trkpt lat="47.14875" lon="-1.63265">
        <ele>71</ele>
        <time>2020-12-25T10:45:19.000Z</time>
      </trkpt>
      <trkpt lat="47.14874" lon="-1.63283">
        <ele>71</ele>
        <time>2020-12-25T10:45:21.000Z</time>
      </trkpt>
      <trkpt lat="47.14874" lon="-1.63299">
        <ele>71</ele>
        <time>2020-12-25T10:45:23.000Z</time>
      </trkpt>
      <trkpt lat="47.14874" lon="-1.63317">
        <ele>72</ele>
        <time>2020-12-25T10:45:25.000Z</time>
      </trkpt>
      <trkpt lat="47.14875" lon="-1.63334">
        <ele>72</ele>
        <time>2020-12-25T10:45:27.000Z</time>
      </trkpt>
      <trkpt lat="47.14875" lon="-1.63351">
        <ele>72</ele>
        <time>2020-12-25T10:45:29.000Z</time>
      </trkpt>
      <trkpt lat="47.14875" lon="-1.63367">
        <ele>72</ele>
        <time>2020-12-25T10:45:31.000Z</time>
      </trkpt>
      <trkpt lat="47.14875" lon="-1.63384">
        <ele>72</ele>
        <time>2020-12-25T10:45:33.000Z</time>
      </trkpt>
      <trkpt lat="47.14874" lon="-1.63401">
        <ele>71</ele>
        <time>2020-12-25T10:45:35.000Z</time>
      </trkpt>
      <trkpt lat="47.14874" lon="-1.63417">
        <ele>71</ele>
        <time>2020-12-25T10:45:37.000Z</time>
      </trkpt>
      <trkpt lat="47.14874" lon="-1.63434">
        <ele>71</ele>
        <time>2020-12-25T10:45:39.000Z</time>
      </trkpt>
      <trkpt lat="47.14873" lon="-1.6345">
        <ele>70</ele>
        <time>2020-12-25T10:45:41.000Z</time>
      </trkpt>
      <trkpt lat="47.14873" lon="-1.63466">
        <ele>70</ele>
        <time>2020-12-25T10:45:43.000Z</time>
      </trkpt>
      <trkpt lat="47.14873" lon="-1.63483">
        <ele>70</ele>
        <time>2020-12-25T10:45:45.000Z</time>
      </trkpt>
      <trkpt lat="47.14873" lon="-1.635">
        <ele>70</ele>
        <time>2020-12-25T10:45:47.000Z</time>
      </trkpt>
      <trkpt lat="47.14873" lon="-1.63517">
        <ele>70</ele>
        <time>2020-12-25T10:45:49.000Z</time>
      </trkpt>
      <trkpt lat="47.14873" lon="-1.63534">
        <ele>70</ele>
        <time>2020-12-25T10:45:51.000Z</time>
      </trkpt>
      <trkpt lat="47.14873" lon="-1.6355">
        <ele>70</ele>
        <time>2020-12-25T10:45:53.000Z</time>
      </trkpt>
      <trkpt lat="47.14873" lon="-1.63566">
        <ele>70</ele>
        <time>2020-12-25T10:45:55.000Z</time>
      </trkpt>
      <trkpt lat="47.14873" lon="-1.63583">
        <ele>70</ele>
        <time>2020-12-25T10:45:57.000Z</time>
      </trkpt>
      <trkpt lat="47.14873" lon="-1.636">
        <ele>70</ele>
        <time>2020-12-25T10:45:59.000Z</time>
      </trkpt>
      <trkpt lat="47.14873" lon="-1.63617">
        <ele>70</ele>
        <time>2020-12-25T10:46:01.000Z</time>
      </trkpt>
      <trkpt lat="47.14873" lon="-1.63634">
        <ele>70</ele>
        <time>2020-12-25T10:46:03.000Z</time>
      </trkpt>
      <trkpt lat="47.14874" lon="-1.63651">
        <ele>71</ele>
        <time>2020-12-25T10:46:05.000Z</time>
      </trkpt>
      <trkpt lat="47.14874" lon="-1.63667">
        <ele>72</ele>
        <time>2020-12-25T10:46:07.000Z</time>
      </trkpt>
      <trkpt lat="47.14874" lon="-1.63682">
        <ele>71</ele>
        <time>2020-12-25T10:46:09.000Z</time>
      </trkpt>
      <trkpt lat="47.14873" lon="-1.63699">
        <ele>71</ele>
        <time>2020-12-25T10:46:11.000Z</time>
      </trkpt>
      <trkpt lat="47.14873" lon="-1.63717">
        <ele>71</ele>
        <time>2020-12-25T10:46:13.000Z</time>
      </trkpt>
      <trkpt lat="47.14873" lon="-1.63734">
        <ele>71</ele>
        <time>2020-12-25T10:46:15.000Z</time>
      </trkpt>
      <trkpt lat="47.14873" lon="-1.6375">
        <ele>70</ele>
        <time>2020-12-25T10:46:17.000Z</time>
      </trkpt>
      <trkpt lat="47.14873" lon="-1.63767">
        <ele>71</ele>
        <time>2020-12-25T10:46:19.000Z</time>
      </trkpt>
      <trkpt lat="47.14873" lon="-1.63783">
        <ele>71</ele>
        <time>2020-12-25T10:46:21.000Z</time>
      </trkpt>
      <trkpt lat="47.14873" lon="-1.638">
        <ele>71</ele>
        <time>2020-12-25T10:46:23.000Z</time>
      </trkpt>
      <trkpt lat="47.14872" lon="-1.63816">
        <ele>71</ele>
        <time>2020-12-25T10:46:25.000Z</time>
      </trkpt>
      <trkpt lat="47.14871" lon="-1.63833">
        <ele>71</ele>
        <time>2020-12-25T10:46:27.000Z</time>
      </trkpt>
      <trkpt lat="47.1487" lon="-1.63849">
        <ele>70</ele>
        <time>2020-12-25T10:46:29.000Z</time>
      </trkpt>
      <trkpt lat="47.14869" lon="-1.63864">
        <ele>71</ele>
        <time>2020-12-25T10:46:31.000Z</time>
      </trkpt>
      <trkpt lat="47.14867" lon="-1.6388">
        <ele>71</ele>
        <time>2020-12-25T10:46:33.000Z</time>
      </trkpt>
      <trkpt lat="47.14866" lon="-1.63896">
        <ele>71</ele>
        <time>2020-12-25T10:46:35.000Z</time>
      </trkpt>
      <trkpt lat="47.14863" lon="-1.63911">
        <ele>70</ele>
        <time>2020-12-25T10:46:37.000Z</time>
      </trkpt>
      <trkpt lat="47.14861" lon="-1.63926">
        <ele>70</ele>
        <time>2020-12-25T10:46:39.000Z</time>
      </trkpt>
      <trkpt lat="47.14859" lon="-1.6394">
        <ele>71</ele>
        <time>2020-12-25T10:46:41.000Z</time>
      </trkpt>
      <trkpt lat="47.14858" lon="-1.63954">
        <ele>71</ele>
        <time>2020-12-25T10:46:43.000Z</time>
      </trkpt>
      <trkpt lat="47.1486" lon="-1.63974">
        <ele>70</ele>
        <time>2020-12-25T10:46:46.000Z</time>
      </trkpt>
      <trkpt lat="47.14866" lon="-1.63985">
        <ele>70</ele>
        <time>2020-12-25T10:46:48.000Z</time>
      </trkpt>
      <trkpt lat="47.14873" lon="-1.63995">
        <ele>71</ele>
        <time>2020-12-25T10:46:50.000Z</time>
      </trkpt>
      <trkpt lat="47.1488" lon="-1.64005">
        <ele>72</ele>
        <time>2020-12-25T10:46:52.000Z</time>
      </trkpt>
      <trkpt lat="47.14889" lon="-1.64013">
        <ele>72</ele>
        <time>2020-12-25T10:46:54.000Z</time>
      </trkpt>
      <trkpt lat="47.14899" lon="-1.64017">
        <ele>71</ele>
        <time>2020-12-25T10:46:56.000Z</time>
      </trkpt>
      <trkpt lat="47.14908" lon="-1.64014">
        <ele>71</ele>
        <time>2020-12-25T10:46:58.000Z</time>
      </trkpt>
      <trkpt lat="47.14916" lon="-1.64001">
        <ele>72</ele>
        <time>2020-12-25T10:47:00.000Z</time>
      </trkpt>
      <trkpt lat="47.14923" lon="-1.63987">
        <ele>72</ele>
        <time>2020-12-25T10:47:02.000Z</time>
      </trkpt>
      <trkpt lat="47.1493" lon="-1.63974">
        <ele>72</ele>
        <time>2020-12-25T10:47:04.000Z</time>
      </trkpt>
      <trkpt lat="47.14937" lon="-1.63961">
        <ele>73</ele>
        <time>2020-12-25T10:47:06.000Z</time>
      </trkpt>
      <trkpt lat="47.14944" lon="-1.63948">
        <ele>73</ele>
        <time>2020-12-25T10:47:08.000Z</time>
      </trkpt>
      <trkpt lat="47.14951" lon="-1.63934">
        <ele>72</ele>
        <time>2020-12-25T10:47:10.000Z</time>
      </trkpt>
      <trkpt lat="47.1496" lon="-1.63923">
        <ele>72</ele>
        <time>2020-12-25T10:47:12.000Z</time>
      </trkpt>
      <trkpt lat="47.14968" lon="-1.6391">
        <ele>72</ele>
        <time>2020-12-25T10:47:14.000Z</time>
      </trkpt>
      <trkpt lat="47.14977" lon="-1.63897">
        <ele>72</ele>
        <time>2020-12-25T10:47:16.000Z</time>
      </trkpt>
      <trkpt lat="47.14986" lon="-1.63885">
        <ele>71</ele>
        <time>2020-12-25T10:47:18.000Z</time>
      </trkpt>
      <trkpt lat="47.14994" lon="-1.63873">
        <ele>71</ele>
        <time>2020-12-25T10:47:20.000Z</time>
      </trkpt>
      <trkpt lat="47.15003" lon="-1.63861">
        <ele>71</ele>
        <time>2020-12-25T10:47:22.000Z</time>
      </trkpt>
      <trkpt lat="47.15012" lon="-1.63849">
        <ele>71</ele>
        <time>2020-12-25T10:47:24.000Z</time>
      </trkpt>
      <trkpt lat="47.15021" lon="-1.63837">
        <ele>70</ele>
        <time>2020-12-25T10:47:26.000Z</time>
      </trkpt>
      <trkpt lat="47.15029" lon="-1.63825">
        <ele>70</ele>
        <time>2020-12-25T10:47:28.000Z</time>
      </trkpt>
      <trkpt lat="47.15038" lon="-1.63812">
        <ele>71</ele>
        <time>2020-12-25T10:47:30.000Z</time>
      </trkpt>
      <trkpt lat="47.15047" lon="-1.638">
        <ele>71</ele>
        <time>2020-12-25T10:47:32.000Z</time>
      </trkpt>
      <trkpt lat="47.15056" lon="-1.63789">
        <ele>70</ele>
        <time>2020-12-25T10:47:34.000Z</time>
      </trkpt>
      <trkpt lat="47.15066" lon="-1.63778">
        <ele>70</ele>
        <time>2020-12-25T10:47:36.000Z</time>
      </trkpt>
      <trkpt lat="47.15075" lon="-1.63766">
        <ele>70</ele>
        <time>2020-12-25T10:47:38.000Z</time>
      </trkpt>
      <trkpt lat="47.15085" lon="-1.63755">
        <ele>71</ele>
        <time>2020-12-25T10:47:40.000Z</time>
      </trkpt>
      <trkpt lat="47.15094" lon="-1.63744">
        <ele>71</ele>
        <time>2020-12-25T10:47:42.000Z</time>
      </trkpt>
      <trkpt lat="47.15103" lon="-1.63733">
        <ele>71</ele>
        <time>2020-12-25T10:47:44.000Z</time>
      </trkpt>
      <trkpt lat="47.15112" lon="-1.63724">
        <ele>71</ele>
        <time>2020-12-25T10:47:46.000Z</time>
      </trkpt>
      <trkpt lat="47.15121" lon="-1.63714">
        <ele>71</ele>
        <time>2020-12-25T10:47:48.000Z</time>
      </trkpt>
      <trkpt lat="47.15131" lon="-1.63704">
        <ele>71</ele>
        <time>2020-12-25T10:47:50.000Z</time>
      </trkpt>
      <trkpt lat="47.15141" lon="-1.63694">
        <ele>71</ele>
        <time>2020-12-25T10:47:52.000Z</time>
      </trkpt>
      <trkpt lat="47.1515" lon="-1.63685">
        <ele>71</ele>
        <time>2020-12-25T10:47:54.000Z</time>
      </trkpt>
      <trkpt lat="47.1516" lon="-1.63676">
        <ele>70</ele>
        <time>2020-12-25T10:47:56.000Z</time>
      </trkpt>
      <trkpt lat="47.1517" lon="-1.63666">
        <ele>70</ele>
        <time>2020-12-25T10:47:58.000Z</time>
      </trkpt>
      <trkpt lat="47.1518" lon="-1.63657">
        <ele>70</ele>
        <time>2020-12-25T10:48:00.000Z</time>
      </trkpt>
      <trkpt lat="47.1519" lon="-1.63649">
        <ele>70</ele>
        <time>2020-12-25T10:48:02.000Z</time>
      </trkpt>
      <trkpt lat="47.15201" lon="-1.6364">
        <ele>70</ele>
        <time>2020-12-25T10:48:04.000Z</time>
      </trkpt>
      <trkpt lat="47.15211" lon="-1.63631">
        <ele>70</ele>
        <time>2020-12-25T10:48:06.000Z</time>
      </trkpt>
      <trkpt lat="47.1522" lon="-1.63621">
        <ele>70</ele>
        <time>2020-12-25T10:48:08.000Z</time>
      </trkpt>
      <trkpt lat="47.1523" lon="-1.63612">
        <ele>71</ele>
        <time>2020-12-25T10:48:10.000Z</time>
      </trkpt>
      <trkpt lat="47.15239" lon="-1.63605">
        <ele>71</ele>
        <time>2020-12-25T10:48:12.000Z</time>
      </trkpt>
      <trkpt lat="47.15249" lon="-1.63595">
        <ele>72</ele>
        <time>2020-12-25T10:48:14.000Z</time>
      </trkpt>
      <trkpt lat="47.15259" lon="-1.63586">
        <ele>72</ele>
        <time>2020-12-25T10:48:16.000Z</time>
      </trkpt>
      <trkpt lat="47.15268" lon="-1.63577">
        <ele>72</ele>
        <time>2020-12-25T10:48:18.000Z</time>
      </trkpt>
      <trkpt lat="47.15278" lon="-1.63569">
        <ele>72</ele>
        <time>2020-12-25T10:48:20.000Z</time>
      </trkpt>
      <trkpt lat="47.15287" lon="-1.63561">
        <ele>72</ele>
        <time>2020-12-25T10:48:22.000Z</time>
      </trkpt>
      <trkpt lat="47.15296" lon="-1.63553">
        <ele>72</ele>
        <time>2020-12-25T10:48:24.000Z</time>
      </trkpt>
      <trkpt lat="47.15305" lon="-1.63545">
        <ele>72</ele>
        <time>2020-12-25T10:48:26.000Z</time>
      </trkpt>
      <trkpt lat="47.15314" lon="-1.63536">
        <ele>72</ele>
        <time>2020-12-25T10:48:28.000Z</time>
      </trkpt>
      <trkpt lat="47.15324" lon="-1.63528">
        <ele>72</ele>
        <time>2020-12-25T10:48:30.000Z</time>
      </trkpt>
      <trkpt lat="47.15333" lon="-1.6352">
        <ele>72</ele>
        <time>2020-12-25T10:48:32.000Z</time>
      </trkpt>
      <trkpt lat="47.15341" lon="-1.63512">
        <ele>72</ele>
        <time>2020-12-25T10:48:34.000Z</time>
      </trkpt>
      <trkpt lat="47.15351" lon="-1.63503">
        <ele>72</ele>
        <time>2020-12-25T10:48:36.000Z</time>
      </trkpt>
      <trkpt lat="47.1536" lon="-1.63495">
        <ele>72</ele>
        <time>2020-12-25T10:48:38.000Z</time>
      </trkpt>
      <trkpt lat="47.1537" lon="-1.63486">
        <ele>72</ele>
        <time>2020-12-25T10:48:40.000Z</time>
      </trkpt>
      <trkpt lat="47.15379" lon="-1.63478">
        <ele>72</ele>
        <time>2020-12-25T10:48:42.000Z</time>
      </trkpt>
      <trkpt lat="47.15388" lon="-1.6347">
        <ele>72</ele>
        <time>2020-12-25T10:48:44.000Z</time>
      </trkpt>
      <trkpt lat="47.15397" lon="-1.63462">
        <ele>72</ele>
        <time>2020-12-25T10:48:46.000Z</time>
      </trkpt>
      <trkpt lat="47.15406" lon="-1.63455">
        <ele>72</ele>
        <time>2020-12-25T10:48:48.000Z</time>
      </trkpt>
      <trkpt lat="47.15415" lon="-1.63447">
        <ele>72</ele>
        <time>2020-12-25T10:48:50.000Z</time>
      </trkpt>
      <trkpt lat="47.15424" lon="-1.63439">
        <ele>71</ele>
        <time>2020-12-25T10:48:52.000Z</time>
      </trkpt>
      <trkpt lat="47.15433" lon="-1.6343">
        <ele>71</ele>
        <time>2020-12-25T10:48:54.000Z</time>
      </trkpt>
      <trkpt lat="47.15442" lon="-1.6342">
        <ele>71</ele>
        <time>2020-12-25T10:48:56.000Z</time>
      </trkpt>
      <trkpt lat="47.15452" lon="-1.6341">
        <ele>71</ele>
        <time>2020-12-25T10:48:58.000Z</time>
      </trkpt>
      <trkpt lat="47.15463" lon="-1.63401">
        <ele>71</ele>
        <time>2020-12-25T10:49:00.000Z</time>
      </trkpt>
      <trkpt lat="47.15473" lon="-1.63393">
        <ele>71</ele>
        <time>2020-12-25T10:49:02.000Z</time>
      </trkpt>
      <trkpt lat="47.15484" lon="-1.63386">
        <ele>71</ele>
        <time>2020-12-25T10:49:04.000Z</time>
      </trkpt>
      <trkpt lat="47.15496" lon="-1.63378">
        <ele>70</ele>
        <time>2020-12-25T10:49:06.000Z</time>
      </trkpt>
      <trkpt lat="47.15506" lon="-1.63369">
        <ele>70</ele>
        <time>2020-12-25T10:49:08.000Z</time>
      </trkpt>
      <trkpt lat="47.15517" lon="-1.6336">
        <ele>69</ele>
        <time>2020-12-25T10:49:10.000Z</time>
      </trkpt>
      <trkpt lat="47.15528" lon="-1.6335">
        <ele>69</ele>
        <time>2020-12-25T10:49:12.000Z</time>
      </trkpt>
      <trkpt lat="47.15539" lon="-1.63341">
        <ele>68</ele>
        <time>2020-12-25T10:49:14.000Z</time>
      </trkpt>
      <trkpt lat="47.1555" lon="-1.63332">
        <ele>68</ele>
        <time>2020-12-25T10:49:16.000Z</time>
      </trkpt>
      <trkpt lat="47.15561" lon="-1.63321">
        <ele>67</ele>
        <time>2020-12-25T10:49:18.000Z</time>
      </trkpt>
      <trkpt lat="47.15572" lon="-1.63311">
        <ele>67</ele>
        <time>2020-12-25T10:49:20.000Z</time>
      </trkpt>
      <trkpt lat="47.15583" lon="-1.63301">
        <ele>67</ele>
        <time>2020-12-25T10:49:22.000Z</time>
      </trkpt>
      <trkpt lat="47.15594" lon="-1.63291">
        <ele>66</ele>
        <time>2020-12-25T10:49:24.000Z</time>
      </trkpt>
      <trkpt lat="47.15606" lon="-1.63281">
        <ele>67</ele>
        <time>2020-12-25T10:49:26.000Z</time>
      </trkpt>
      <trkpt lat="47.15616" lon="-1.63272">
        <ele>66</ele>
        <time>2020-12-25T10:49:28.000Z</time>
      </trkpt>
      <trkpt lat="47.15627" lon="-1.63262">
        <ele>66</ele>
        <time>2020-12-25T10:49:30.000Z</time>
      </trkpt>
      <trkpt lat="47.15637" lon="-1.63253">
        <ele>66</ele>
        <time>2020-12-25T10:49:32.000Z</time>
      </trkpt>
      <trkpt lat="47.15648" lon="-1.63243">
        <ele>66</ele>
        <time>2020-12-25T10:49:34.000Z</time>
      </trkpt>
      <trkpt lat="47.15658" lon="-1.63234">
        <ele>67</ele>
        <time>2020-12-25T10:49:36.000Z</time>
      </trkpt>
      <trkpt lat="47.15668" lon="-1.63225">
        <ele>66</ele>
        <time>2020-12-25T10:49:38.000Z</time>
      </trkpt>
      <trkpt lat="47.15679" lon="-1.63216">
        <ele>66</ele>
        <time>2020-12-25T10:49:40.000Z</time>
      </trkpt>
      <trkpt lat="47.15689" lon="-1.63207">
        <ele>66</ele>
        <time>2020-12-25T10:49:42.000Z</time>
      </trkpt>
      <trkpt lat="47.157" lon="-1.63198">
        <ele>67</ele>
        <time>2020-12-25T10:49:44.000Z</time>
      </trkpt>
      <trkpt lat="47.1571" lon="-1.63189">
        <ele>67</ele>
        <time>2020-12-25T10:49:46.000Z</time>
      </trkpt>
      <trkpt lat="47.1572" lon="-1.6318">
        <ele>67</ele>
        <time>2020-12-25T10:49:48.000Z</time>
      </trkpt>
      <trkpt lat="47.1573" lon="-1.63171">
        <ele>67</ele>
        <time>2020-12-25T10:49:50.000Z</time>
      </trkpt>
      <trkpt lat="47.1574" lon="-1.63161">
        <ele>66</ele>
        <time>2020-12-25T10:49:52.000Z</time>
      </trkpt>
      <trkpt lat="47.15747" lon="-1.63149">
        <ele>66</ele>
        <time>2020-12-25T10:49:54.000Z</time>
      </trkpt>
      <trkpt lat="47.15758" lon="-1.63143">
        <ele>65</ele>
        <time>2020-12-25T10:49:56.000Z</time>
      </trkpt>
      <trkpt lat="47.15769" lon="-1.63137">
        <ele>65</ele>
        <time>2020-12-25T10:49:58.000Z</time>
      </trkpt>
      <trkpt lat="47.15779" lon="-1.63128">
        <ele>64</ele>
        <time>2020-12-25T10:50:00.000Z</time>
      </trkpt>
      <trkpt lat="47.15789" lon="-1.63118">
        <ele>64</ele>
        <time>2020-12-25T10:50:02.000Z</time>
      </trkpt>
      <trkpt lat="47.158" lon="-1.63109">
        <ele>64</ele>
        <time>2020-12-25T10:50:04.000Z</time>
      </trkpt>
      <trkpt lat="47.15811" lon="-1.631">
        <ele>64</ele>
        <time>2020-12-25T10:50:06.000Z</time>
      </trkpt>
      <trkpt lat="47.15822" lon="-1.6309">
        <ele>63</ele>
        <time>2020-12-25T10:50:08.000Z</time>
      </trkpt>
      <trkpt lat="47.15834" lon="-1.6308">
        <ele>62</ele>
        <time>2020-12-25T10:50:10.000Z</time>
      </trkpt>
      <trkpt lat="47.15845" lon="-1.63069">
        <ele>62</ele>
        <time>2020-12-25T10:50:12.000Z</time>
      </trkpt>
      <trkpt lat="47.15857" lon="-1.63058">
        <ele>61</ele>
        <time>2020-12-25T10:50:14.000Z</time>
      </trkpt>
      <trkpt lat="47.15869" lon="-1.63048">
        <ele>61</ele>
        <time>2020-12-25T10:50:16.000Z</time>
      </trkpt>
      <trkpt lat="47.1588" lon="-1.63038">
        <ele>60</ele>
        <time>2020-12-25T10:50:18.000Z</time>
      </trkpt>
      <trkpt lat="47.15892" lon="-1.63027">
        <ele>60</ele>
        <time>2020-12-25T10:50:20.000Z</time>
      </trkpt>
      <trkpt lat="47.15903" lon="-1.63018">
        <ele>60</ele>
        <time>2020-12-25T10:50:22.000Z</time>
      </trkpt>
      <trkpt lat="47.15913" lon="-1.63008">
        <ele>60</ele>
        <time>2020-12-25T10:50:24.000Z</time>
      </trkpt>
      <trkpt lat="47.15924" lon="-1.62998">
        <ele>60</ele>
        <time>2020-12-25T10:50:26.000Z</time>
      </trkpt>
      <trkpt lat="47.15934" lon="-1.6299">
        <ele>60</ele>
        <time>2020-12-25T10:50:28.000Z</time>
      </trkpt>
      <trkpt lat="47.15943" lon="-1.62981">
        <ele>60</ele>
        <time>2020-12-25T10:50:30.000Z</time>
      </trkpt>
      <trkpt lat="47.15951" lon="-1.62973">
        <ele>60</ele>
        <time>2020-12-25T10:50:32.000Z</time>
      </trkpt>
      <trkpt lat="47.1596" lon="-1.62966">
        <ele>60</ele>
        <time>2020-12-25T10:50:34.000Z</time>
      </trkpt>
      <trkpt lat="47.15969" lon="-1.62958">
        <ele>60</ele>
        <time>2020-12-25T10:50:36.000Z</time>
      </trkpt>
      <trkpt lat="47.15978" lon="-1.6295">
        <ele>60</ele>
        <time>2020-12-25T10:50:38.000Z</time>
      </trkpt>
      <trkpt lat="47.15986" lon="-1.62942">
        <ele>60</ele>
        <time>2020-12-25T10:50:40.000Z</time>
      </trkpt>
      <trkpt lat="47.15995" lon="-1.62935">
        <ele>60</ele>
        <time>2020-12-25T10:50:42.000Z</time>
      </trkpt>
      <trkpt lat="47.16004" lon="-1.62926">
        <ele>60</ele>
        <time>2020-12-25T10:50:44.000Z</time>
      </trkpt>
      <trkpt lat="47.16013" lon="-1.62918">
        <ele>61</ele>
        <time>2020-12-25T10:50:46.000Z</time>
      </trkpt>
      <trkpt lat="47.16022" lon="-1.62911">
        <ele>61</ele>
        <time>2020-12-25T10:50:48.000Z</time>
      </trkpt>
      <trkpt lat="47.16031" lon="-1.62903">
        <ele>62</ele>
        <time>2020-12-25T10:50:50.000Z</time>
      </trkpt>
      <trkpt lat="47.16039" lon="-1.62896">
        <ele>62</ele>
        <time>2020-12-25T10:50:52.000Z</time>
      </trkpt>
      <trkpt lat="47.16048" lon="-1.62889">
        <ele>62</ele>
        <time>2020-12-25T10:50:54.000Z</time>
      </trkpt>
      <trkpt lat="47.16056" lon="-1.62882">
        <ele>62</ele>
        <time>2020-12-25T10:50:56.000Z</time>
      </trkpt>
      <trkpt lat="47.16064" lon="-1.62876">
        <ele>63</ele>
        <time>2020-12-25T10:50:58.000Z</time>
      </trkpt>
      <trkpt lat="47.16076" lon="-1.62865">
        <ele>64</ele>
        <time>2020-12-25T10:51:01.000Z</time>
      </trkpt>
      <trkpt lat="47.16087" lon="-1.62855">
        <ele>65</ele>
        <time>2020-12-25T10:51:04.000Z</time>
      </trkpt>
      <trkpt lat="47.16098" lon="-1.62845">
        <ele>65</ele>
        <time>2020-12-25T10:51:07.000Z</time>
      </trkpt>
      <trkpt lat="47.16109" lon="-1.62835">
        <ele>65</ele>
        <time>2020-12-25T10:51:10.000Z</time>
      </trkpt>
      <trkpt lat="47.16121" lon="-1.62825">
        <ele>66</ele>
        <time>2020-12-25T10:51:13.000Z</time>
      </trkpt>
      <trkpt lat="47.16129" lon="-1.62818">
        <ele>66</ele>
        <time>2020-12-25T10:51:15.000Z</time>
      </trkpt>
      <trkpt lat="47.1614" lon="-1.62808">
        <ele>67</ele>
        <time>2020-12-25T10:51:18.000Z</time>
      </trkpt>
      <trkpt lat="47.16148" lon="-1.62801">
        <ele>67</ele>
        <time>2020-12-25T10:51:20.000Z</time>
      </trkpt>
      <trkpt lat="47.16156" lon="-1.62794">
        <ele>68</ele>
        <time>2020-12-25T10:51:22.000Z</time>
      </trkpt>
      <trkpt lat="47.16168" lon="-1.62784">
        <ele>69</ele>
        <time>2020-12-25T10:51:25.000Z</time>
      </trkpt>
      <trkpt lat="47.16176" lon="-1.62777">
        <ele>69</ele>
        <time>2020-12-25T10:51:27.000Z</time>
      </trkpt>
      <trkpt lat="47.16184" lon="-1.6277">
        <ele>69</ele>
        <time>2020-12-25T10:51:29.000Z</time>
      </trkpt>
      <trkpt lat="47.16195" lon="-1.62758">
        <ele>70</ele>
        <time>2020-12-25T10:51:32.000Z</time>
      </trkpt>
      <trkpt lat="47.16206" lon="-1.62748">
        <ele>70</ele>
        <time>2020-12-25T10:51:35.000Z</time>
      </trkpt>
      <trkpt lat="47.16217" lon="-1.62739">
        <ele>71</ele>
        <time>2020-12-25T10:51:38.000Z</time>
      </trkpt>
      <trkpt lat="47.16229" lon="-1.62729">
        <ele>72</ele>
        <time>2020-12-25T10:51:41.000Z</time>
      </trkpt>
      <trkpt lat="47.1624" lon="-1.6272">
        <ele>72</ele>
        <time>2020-12-25T10:51:44.000Z</time>
      </trkpt>
      <trkpt lat="47.16248" lon="-1.62713">
        <ele>72</ele>
        <time>2020-12-25T10:51:46.000Z</time>
      </trkpt>
      <trkpt lat="47.1626" lon="-1.62704">
        <ele>73</ele>
        <time>2020-12-25T10:51:49.000Z</time>
      </trkpt>
      <trkpt lat="47.16271" lon="-1.62695">
        <ele>73</ele>
        <time>2020-12-25T10:51:52.000Z</time>
      </trkpt>
      <trkpt lat="47.16278" lon="-1.62683">
        <ele>73</ele>
        <time>2020-12-25T10:51:55.000Z</time>
      </trkpt>
      <trkpt lat="47.16278" lon="-1.62668">
        <ele>72</ele>
        <time>2020-12-25T10:51:57.000Z</time>
      </trkpt>
      <trkpt lat="47.16278" lon="-1.62653">
        <ele>72</ele>
        <time>2020-12-25T10:51:59.000Z</time>
      </trkpt>
      <trkpt lat="47.16279" lon="-1.62639">
        <ele>72</ele>
        <time>2020-12-25T10:52:01.000Z</time>
      </trkpt>
      <trkpt lat="47.16282" lon="-1.62625">
        <ele>72</ele>
        <time>2020-12-25T10:52:03.000Z</time>
      </trkpt>
      <trkpt lat="47.16285" lon="-1.62612">
        <ele>72</ele>
        <time>2020-12-25T10:52:05.000Z</time>
      </trkpt>
      <trkpt lat="47.16288" lon="-1.62599">
        <ele>73</ele>
        <time>2020-12-25T10:52:07.000Z</time>
      </trkpt>
      <trkpt lat="47.16292" lon="-1.62587">
        <ele>73</ele>
        <time>2020-12-25T10:52:09.000Z</time>
      </trkpt>
      <trkpt lat="47.16302" lon="-1.62575">
        <ele>73</ele>
        <time>2020-12-25T10:52:12.000Z</time>
      </trkpt>
      <trkpt lat="47.16314" lon="-1.62568">
        <ele>73</ele>
        <time>2020-12-25T10:52:15.000Z</time>
      </trkpt>
      <trkpt lat="47.16324" lon="-1.62566">
        <ele>73</ele>
        <time>2020-12-25T10:52:17.000Z</time>
      </trkpt>
      <trkpt lat="47.16335" lon="-1.62571">
        <ele>74</ele>
        <time>2020-12-25T10:52:19.000Z</time>
      </trkpt>
      <trkpt lat="47.16345" lon="-1.62575">
        <ele>74</ele>
        <time>2020-12-25T10:52:21.000Z</time>
      </trkpt>
      <trkpt lat="47.16354" lon="-1.62578">
        <ele>75</ele>
        <time>2020-12-25T10:52:23.000Z</time>
      </trkpt>
      <trkpt lat="47.16364" lon="-1.62579">
        <ele>75</ele>
        <time>2020-12-25T10:52:25.000Z</time>
      </trkpt>
      <trkpt lat="47.16374" lon="-1.62579">
        <ele>74</ele>
        <time>2020-12-25T10:52:27.000Z</time>
      </trkpt>
      <trkpt lat="47.16383" lon="-1.62579">
        <ele>74</ele>
        <time>2020-12-25T10:52:29.000Z</time>
      </trkpt>
      <trkpt lat="47.16393" lon="-1.62575">
        <ele>74</ele>
        <time>2020-12-25T10:52:31.000Z</time>
      </trkpt>
      <trkpt lat="47.16401" lon="-1.6257">
        <ele>74</ele>
        <time>2020-12-25T10:52:33.000Z</time>
      </trkpt>
      <trkpt lat="47.1641" lon="-1.62562">
        <ele>75</ele>
        <time>2020-12-25T10:52:35.000Z</time>
      </trkpt>
      <trkpt lat="47.16418" lon="-1.62554">
        <ele>75</ele>
        <time>2020-12-25T10:52:37.000Z</time>
      </trkpt>
      <trkpt lat="47.16426" lon="-1.62547">
        <ele>75</ele>
        <time>2020-12-25T10:52:39.000Z</time>
      </trkpt>
      <trkpt lat="47.16434" lon="-1.6254">
        <ele>76</ele>
        <time>2020-12-25T10:52:41.000Z</time>
      </trkpt>
      <trkpt lat="47.16443" lon="-1.62537">
        <ele>76</ele>
        <time>2020-12-25T10:52:43.000Z</time>
      </trkpt>
      <trkpt lat="47.16452" lon="-1.6254">
        <ele>76</ele>
        <time>2020-12-25T10:52:45.000Z</time>
      </trkpt>
      <trkpt lat="47.16462" lon="-1.62542">
        <ele>75</ele>
        <time>2020-12-25T10:52:47.000Z</time>
      </trkpt>
      <trkpt lat="47.16473" lon="-1.62545">
        <ele>75</ele>
        <time>2020-12-25T10:52:49.000Z</time>
      </trkpt>
      <trkpt lat="47.16483" lon="-1.62548">
        <ele>75</ele>
        <time>2020-12-25T10:52:51.000Z</time>
      </trkpt>
      <trkpt lat="47.16493" lon="-1.62551">
        <ele>75</ele>
        <time>2020-12-25T10:52:53.000Z</time>
      </trkpt>
      <trkpt lat="47.16504" lon="-1.62555">
        <ele>75</ele>
        <time>2020-12-25T10:52:55.000Z</time>
      </trkpt>
      <trkpt lat="47.16516" lon="-1.62558">
        <ele>75</ele>
        <time>2020-12-25T10:52:57.000Z</time>
      </trkpt>
      <trkpt lat="47.16527" lon="-1.62561">
        <ele>76</ele>
        <time>2020-12-25T10:52:59.000Z</time>
      </trkpt>
      <trkpt lat="47.16537" lon="-1.62559">
        <ele>76</ele>
        <time>2020-12-25T10:53:01.000Z</time>
      </trkpt>
      <trkpt lat="47.16547" lon="-1.6255">
        <ele>76</ele>
        <time>2020-12-25T10:53:03.000Z</time>
      </trkpt>
      <trkpt lat="47.16555" lon="-1.62539">
        <ele>76</ele>
        <time>2020-12-25T10:53:05.000Z</time>
      </trkpt>
      <trkpt lat="47.16563" lon="-1.62528">
        <ele>76</ele>
        <time>2020-12-25T10:53:07.000Z</time>
      </trkpt>
      <trkpt lat="47.16569" lon="-1.62514">
        <ele>75</ele>
        <time>2020-12-25T10:53:09.000Z</time>
      </trkpt>
      <trkpt lat="47.16575" lon="-1.62498">
        <ele>75</ele>
        <time>2020-12-25T10:53:11.000Z</time>
      </trkpt>
      <trkpt lat="47.16581" lon="-1.62481">
        <ele>74</ele>
        <time>2020-12-25T10:53:13.000Z</time>
      </trkpt>
      <trkpt lat="47.16588" lon="-1.62465">
        <ele>74</ele>
        <time>2020-12-25T10:53:15.000Z</time>
      </trkpt>
      <trkpt lat="47.16594" lon="-1.62448">
        <ele>73</ele>
        <time>2020-12-25T10:53:17.000Z</time>
      </trkpt>
      <trkpt lat="47.16602" lon="-1.62433">
        <ele>73</ele>
        <time>2020-12-25T10:53:19.000Z</time>
      </trkpt>
      <trkpt lat="47.16609" lon="-1.62417">
        <ele>72</ele>
        <time>2020-12-25T10:53:21.000Z</time>
      </trkpt>
      <trkpt lat="47.16618" lon="-1.62403">
        <ele>72</ele>
        <time>2020-12-25T10:53:23.000Z</time>
      </trkpt>
      <trkpt lat="47.16627" lon="-1.62389">
        <ele>72</ele>
        <time>2020-12-25T10:53:25.000Z</time>
      </trkpt>
      <trkpt lat="47.16637" lon="-1.62377">
        <ele>72</ele>
        <time>2020-12-25T10:53:27.000Z</time>
      </trkpt>
      <trkpt lat="47.16648" lon="-1.62366">
        <ele>72</ele>
        <time>2020-12-25T10:53:29.000Z</time>
      </trkpt>
      <trkpt lat="47.16659" lon="-1.62357">
        <ele>72</ele>
        <time>2020-12-25T10:53:31.000Z</time>
      </trkpt>
      <trkpt lat="47.1667" lon="-1.62354">
        <ele>72</ele>
        <time>2020-12-25T10:53:33.000Z</time>
      </trkpt>
      <trkpt lat="47.16682" lon="-1.62354">
        <ele>71</ele>
        <time>2020-12-25T10:53:35.000Z</time>
      </trkpt>
      <trkpt lat="47.16694" lon="-1.62359">
        <ele>70</ele>
        <time>2020-12-25T10:53:37.000Z</time>
      </trkpt>
      <trkpt lat="47.16705" lon="-1.62371">
        <ele>70</ele>
        <time>2020-12-25T10:53:39.000Z</time>
      </trkpt>
      <trkpt lat="47.16714" lon="-1.62383">
        <ele>69</ele>
        <time>2020-12-25T10:53:41.000Z</time>
      </trkpt>
      <trkpt lat="47.16721" lon="-1.62395">
        <ele>69</ele>
        <time>2020-12-25T10:53:43.000Z</time>
      </trkpt>
      <trkpt lat="47.16729" lon="-1.62405">
        <ele>68</ele>
        <time>2020-12-25T10:53:45.000Z</time>
      </trkpt>
      <trkpt lat="47.1673" lon="-1.62422">
        <ele>69</ele>
        <time>2020-12-25T10:53:47.000Z</time>
      </trkpt>
      <trkpt lat="47.16727" lon="-1.6244">
        <ele>69</ele>
        <time>2020-12-25T10:53:49.000Z</time>
      </trkpt>
      <trkpt lat="47.16723" lon="-1.62456">
        <ele>69</ele>
        <time>2020-12-25T10:53:51.000Z</time>
      </trkpt>
      <trkpt lat="47.16719" lon="-1.62473">
        <ele>68</ele>
        <time>2020-12-25T10:53:53.000Z</time>
      </trkpt>
      <trkpt lat="47.16717" lon="-1.62487">
        <ele>67</ele>
        <time>2020-12-25T10:53:55.000Z</time>
      </trkpt>
      <trkpt lat="47.16725" lon="-1.62498">
        <ele>67</ele>
        <time>2020-12-25T10:53:57.000Z</time>
      </trkpt>
      <trkpt lat="47.16736" lon="-1.62501">
        <ele>68</ele>
        <time>2020-12-25T10:53:59.000Z</time>
      </trkpt>
      <trkpt lat="47.16748" lon="-1.62505">
        <ele>68</ele>
        <time>2020-12-25T10:54:01.000Z</time>
      </trkpt>
      <trkpt lat="47.16758" lon="-1.6251">
        <ele>68</ele>
        <time>2020-12-25T10:54:03.000Z</time>
      </trkpt>
      <trkpt lat="47.16769" lon="-1.62516">
        <ele>69</ele>
        <time>2020-12-25T10:54:05.000Z</time>
      </trkpt>
      <trkpt lat="47.16779" lon="-1.62522">
        <ele>69</ele>
        <time>2020-12-25T10:54:07.000Z</time>
      </trkpt>
      <trkpt lat="47.1679" lon="-1.62529">
        <ele>70</ele>
        <time>2020-12-25T10:54:09.000Z</time>
      </trkpt>
      <trkpt lat="47.168" lon="-1.62535">
        <ele>70</ele>
        <time>2020-12-25T10:54:11.000Z</time>
      </trkpt>
      <trkpt lat="47.1681" lon="-1.62542">
        <ele>70</ele>
        <time>2020-12-25T10:54:13.000Z</time>
      </trkpt>
      <trkpt lat="47.16819" lon="-1.62551">
        <ele>70</ele>
        <time>2020-12-25T10:54:15.000Z</time>
      </trkpt>
      <trkpt lat="47.16826" lon="-1.6256">
        <ele>71</ele>
        <time>2020-12-25T10:54:17.000Z</time>
      </trkpt>
      <trkpt lat="47.16832" lon="-1.62573">
        <ele>71</ele>
        <time>2020-12-25T10:54:19.000Z</time>
      </trkpt>
      <trkpt lat="47.16829" lon="-1.62591">
        <ele>71</ele>
        <time>2020-12-25T10:54:21.000Z</time>
      </trkpt>
      <trkpt lat="47.16822" lon="-1.62605">
        <ele>71</ele>
        <time>2020-12-25T10:54:23.000Z</time>
      </trkpt>
      <trkpt lat="47.16814" lon="-1.62618">
        <ele>71</ele>
        <time>2020-12-25T10:54:25.000Z</time>
      </trkpt>
      <trkpt lat="47.16807" lon="-1.6263">
        <ele>71</ele>
        <time>2020-12-25T10:54:27.000Z</time>
      </trkpt>
      <trkpt lat="47.168" lon="-1.62641">
        <ele>71</ele>
        <time>2020-12-25T10:54:29.000Z</time>
      </trkpt>
      <trkpt lat="47.16794" lon="-1.62651">
        <ele>71</ele>
        <time>2020-12-25T10:54:31.000Z</time>
      </trkpt>
      <trkpt lat="47.16785" lon="-1.62663">
        <ele>70</ele>
        <time>2020-12-25T10:54:34.000Z</time>
      </trkpt>
      <trkpt lat="47.16778" lon="-1.62655">
        <ele>70</ele>
        <time>2020-12-25T10:54:37.000Z</time>
      </trkpt>
    </trkseg>
  </trk>
</gpx>